<?xml version='1.0' encoding='UTF-8'?>
<gpx xmlns="http://www.topografix.com/GPX/1/1" creator="www.balnam.be" version="1.1" xmlns:xsi="http://www.w3.org/2001/XMLSchema-instance" xsi:schemaLocation="http://www.topografix.com/GPX/1/1 http://www.topografix.com/GPX/1/1/gpx.xsd">
<trk>
<name>hbcbc10</name>
<cmt>v</cmt>
<desc>Braine-le-Comte Chemin n°10 Chemin à Ronton</desc>
<link href="https://chemins.be/brainelecomte/chemin/10"/><trkseg>
<trkpt lat="50.595849" lon="4.171196"><time>2026-05-03T03:35:18Z</time></trkpt>
<trkpt lat="50.597142" lon="4.170258"><time>2026-05-03T03:45:18Z</time></trkpt>
<trkpt lat="50.597968" lon="4.169958"><time>2026-05-03T03:55:18Z</time></trkpt>
<trkpt lat="50.599813" lon="4.171137"><time>2026-05-03T04:05:18Z</time></trkpt>
<trkpt lat="50.601587" lon="4.172570"><time>2026-05-03T04:15:18Z</time></trkpt>
<trkpt lat="50.603242" lon="4.173482"><time>2026-05-03T04:25:18Z</time></trkpt>
<trkpt lat="50.606770" lon="4.175484"><time>2026-05-03T04:35:18Z</time></trkpt>
<trkpt lat="50.609820" lon="4.178063"><time>2026-05-03T04:45:18Z</time></trkpt>
</trkseg></trk>
<trk>
<name>hbcbc10</name>
<cmt>q</cmt>
<desc>Braine-le-Comte Chemin n°10 Chemin à Ronton</desc>
<link href="https://chemins.be/brainelecomte/chemin/10"/><trkseg>
<trkpt lat="50.609820" lon="4.178063"><time>2026-05-03T04:45:18Z</time></trkpt>
<trkpt lat="50.610181" lon="4.178717"><time>2026-05-03T04:55:18Z</time></trkpt>
<trkpt lat="50.610932" lon="4.179554"><time>2026-05-03T05:05:18Z</time></trkpt>
<trkpt lat="50.613068" lon="4.182272"><time>2026-05-03T05:15:18Z</time></trkpt>
<trkpt lat="50.613859" lon="4.183913"><time>2026-05-03T05:25:18Z</time></trkpt>
<trkpt lat="50.615398" lon="4.185448"><time>2026-05-03T05:35:18Z</time></trkpt>
</trkseg></trk>
<trk>
<name>hbcbc10</name>
<cmt>d</cmt>
<desc>Braine-le-Comte Chemin n°10 Chemin à Ronton</desc>
<link href="https://chemins.be/brainelecomte/chemin/10"/><trkseg>
<trkpt lat="50.615398" lon="4.185448"><time>2026-05-03T05:35:18Z</time></trkpt>
<trkpt lat="50.616905" lon="4.187036"><time>2026-05-03T05:45:18Z</time></trkpt>
<trkpt lat="50.618965" lon="4.187808"><time>2026-05-03T05:55:18Z</time></trkpt>
<trkpt lat="50.621044" lon="4.187994"><time>2026-05-03T06:05:18Z</time></trkpt>
</trkseg>
</trk>
<trk>
<name>hbcbc100</name>
<cmt>q</cmt>
<desc>Braine-le-Comte Sentier n°100 </desc>
<link href="https://chemins.be/brainelecomte/sentier/100"/><trkseg>
<trkpt lat="50.593712" lon="4.129997"><time>2026-05-03T03:35:18Z</time></trkpt>
<trkpt lat="50.588405" lon="4.127731"><time>2026-05-03T03:45:18Z</time></trkpt>
<trkpt lat="50.587145" lon="4.126737"><time>2026-05-03T03:55:18Z</time></trkpt>
</trkseg></trk>
<trk>
<name>hbcbc100</name>
<cmt>s</cmt>
<desc>Braine-le-Comte Sentier n°100 </desc>
<link href="https://chemins.be/brainelecomte/sentier/100"/><trkseg>
<trkpt lat="50.587145" lon="4.126737"><time>2026-05-03T03:55:18Z</time></trkpt>
<trkpt lat="50.586192" lon="4.125774"><time>2026-05-03T04:05:18Z</time></trkpt>
</trkseg></trk>
<trk>
<name>hbcbc100</name>
<cmt>v</cmt>
<desc>Braine-le-Comte Sentier n°100 </desc>
<link href="https://chemins.be/brainelecomte/sentier/100"/><trkseg>
<trkpt lat="50.586192" lon="4.125774"><time>2026-05-03T04:05:18Z</time></trkpt>
<trkpt lat="50.585615" lon="4.125328"><time>2026-05-03T04:15:18Z</time></trkpt>
</trkseg></trk>
<trk>
<name>hbcbc100</name>
<cmt>q</cmt>
<desc>Braine-le-Comte Sentier n°100 </desc>
<link href="https://chemins.be/brainelecomte/sentier/100"/><trkseg>
<trkpt lat="50.585615" lon="4.125328"><time>2026-05-03T04:15:18Z</time></trkpt>
<trkpt lat="50.584335" lon="4.123275"><time>2026-05-03T04:25:18Z</time></trkpt>
<trkpt lat="50.582210" lon="4.123546"><time>2026-05-03T04:35:18Z</time></trkpt>
<trkpt lat="50.581212" lon="4.123751"><time>2026-05-03T04:45:18Z</time></trkpt>
<trkpt lat="50.580065" lon="4.123026"><time>2026-05-03T04:55:18Z</time></trkpt>
<trkpt lat="50.579703" lon="4.123224"><time>2026-05-03T05:05:18Z</time></trkpt>
</trkseg>
</trk>
<trk>
<name>hbcbc101</name>
<cmt>q</cmt>
<desc>Braine-le-Comte Sentier n°101 </desc>
<link href="https://chemins.be/brainelecomte/sentier/101"/><trkseg>
<trkpt lat="50.601954" lon="4.138331"><time>2026-05-03T03:35:18Z</time></trkpt>
<trkpt lat="50.601267" lon="4.138528"><time>2026-05-03T03:45:18Z</time></trkpt>
</trkseg>
</trk>
<trk>
<name>hbcbc102</name>
<cmt>q</cmt>
<desc>Braine-le-Comte Sentier n°102 </desc>
<link href="https://chemins.be/brainelecomte/sentier/102"/><trkseg>
<trkpt lat="50.599334" lon="4.140610"><time>2026-05-03T03:35:18Z</time></trkpt>
<trkpt lat="50.599782" lon="4.141567"><time>2026-05-03T03:45:18Z</time></trkpt>
<trkpt lat="50.600549" lon="4.142472"><time>2026-05-03T03:55:18Z</time></trkpt>
<trkpt lat="50.600554" lon="4.142884"><time>2026-05-03T04:05:18Z</time></trkpt>
<trkpt lat="50.600750" lon="4.142910"><time>2026-05-03T04:15:18Z</time></trkpt>
<trkpt lat="50.600605" lon="4.143827"><time>2026-05-03T04:25:18Z</time></trkpt>
<trkpt lat="50.600827" lon="4.146738"><time>2026-05-03T04:35:18Z</time></trkpt>
</trkseg></trk>
<trk>
<name>hbcbc102</name>
<cmt>r</cmt>
<desc>Braine-le-Comte Sentier n°102 </desc>
<link href="https://chemins.be/brainelecomte/sentier/102"/><trkseg>
<trkpt lat="50.600827" lon="4.146738"><time>2026-05-03T04:35:18Z</time></trkpt>
<trkpt lat="50.600723" lon="4.146987"><time>2026-05-03T04:45:18Z</time></trkpt>
<trkpt lat="50.601442" lon="4.148146"><time>2026-05-03T04:55:18Z</time></trkpt>
</trkseg></trk>
<trk>
<name>hbcbc102</name>
<cmt>v</cmt>
<desc>Braine-le-Comte Sentier n°102 </desc>
<link href="https://chemins.be/brainelecomte/sentier/102"/><trkseg>
<trkpt lat="50.601442" lon="4.148146"><time>2026-05-03T04:55:18Z</time></trkpt>
<trkpt lat="50.601251" lon="4.149390"><time>2026-05-03T05:05:18Z</time></trkpt>
<trkpt lat="50.601377" lon="4.150695"><time>2026-05-03T05:15:18Z</time></trkpt>
<trkpt lat="50.600938" lon="4.151386"><time>2026-05-03T05:25:18Z</time></trkpt>
</trkseg>
</trk>
<trk>
<name>hbcbc103</name>
<cmt>q</cmt>
<desc>Braine-le-Comte Sentier n°103 </desc>
<link href="https://chemins.be/brainelecomte/sentier/103"/><trkseg>
<trkpt lat="50.599089" lon="4.140827"><time>2026-05-03T03:35:18Z</time></trkpt>
<trkpt lat="50.596134" lon="4.140097"><time>2026-05-03T03:45:18Z</time></trkpt>
<trkpt lat="50.595360" lon="4.141108"><time>2026-05-03T03:55:18Z</time></trkpt>
<trkpt lat="50.592330" lon="4.142515"><time>2026-05-03T04:05:18Z</time></trkpt>
<trkpt lat="50.589737" lon="4.142275"><time>2026-05-03T04:15:18Z</time></trkpt>
<trkpt lat="50.587840" lon="4.142275"><time>2026-05-03T04:25:18Z</time></trkpt>
<trkpt lat="50.585660" lon="4.144060"><time>2026-05-03T04:35:18Z</time></trkpt>
<trkpt lat="50.584919" lon="4.146498"><time>2026-05-03T04:45:18Z</time></trkpt>
</trkseg>
</trk>
<trk>
<name>hbcbc104</name>
<cmt>q</cmt>
<desc>Braine-le-Comte Sentier n°104 </desc>
<link href="https://chemins.be/brainelecomte/sentier/104"/><trkseg>
<trkpt lat="50.596248" lon="4.148675"><time>2026-05-03T03:35:18Z</time></trkpt>
<trkpt lat="50.594506" lon="4.146018"><time>2026-05-03T03:45:18Z</time></trkpt>
</trkseg>
</trk>
<trk>
<name>hbcbc105</name>
<cmt>q</cmt>
<desc>Braine-le-Comte Sentier n°105 Chemin de Naast</desc>
<link href="https://chemins.be/brainelecomte/sentier/105"/><trkseg>
<trkpt lat="50.577348" lon="4.109479"><time>2026-05-03T03:35:18Z</time></trkpt>
<trkpt lat="50.577066" lon="4.109622"><time>2026-05-03T03:45:18Z</time></trkpt>
<trkpt lat="50.575658" lon="4.113463"><time>2026-05-03T03:55:18Z</time></trkpt>
<trkpt lat="50.574818" lon="4.114507"><time>2026-05-03T04:05:18Z</time></trkpt>
<trkpt lat="50.574078" lon="4.114764"><time>2026-05-03T04:15:18Z</time></trkpt>
</trkseg></trk>
<trk>
<name>hbcbc105</name>
<cmt>r</cmt>
<desc>Braine-le-Comte Sentier n°105 Chemin de Naast</desc>
<link href="https://chemins.be/brainelecomte/sentier/105"/><trkseg>
<trkpt lat="50.574078" lon="4.114764"><time>2026-05-03T04:15:18Z</time></trkpt>
<trkpt lat="50.574100" lon="4.115866"><time>2026-05-03T04:25:18Z</time></trkpt>
</trkseg></trk>
<trk>
<name>hbcbc105</name>
<cmt>q</cmt>
<desc>Braine-le-Comte Sentier n°105 Chemin de Naast</desc>
<link href="https://chemins.be/brainelecomte/sentier/105"/><trkseg>
<trkpt lat="50.574100" lon="4.115866"><time>2026-05-03T04:25:18Z</time></trkpt>
<trkpt lat="50.573407" lon="4.117095"><time>2026-05-03T04:35:18Z</time></trkpt>
<trkpt lat="50.572900" lon="4.117301"><time>2026-05-03T04:45:18Z</time></trkpt>
<trkpt lat="50.572587" lon="4.119898"><time>2026-05-03T04:55:18Z</time></trkpt>
<trkpt lat="50.572388" lon="4.119863"><time>2026-05-03T05:05:18Z</time></trkpt>
<trkpt lat="50.572137" lon="4.122619"><time>2026-05-03T05:15:18Z</time></trkpt>
<trkpt lat="50.572355" lon="4.123558"><time>2026-05-03T05:25:18Z</time></trkpt>
</trkseg>
</trk>
<trk>
<name>hbcbc106</name>
<cmt>q</cmt>
<desc>Braine-le-Comte Sentier n°106 </desc>
<link href="https://chemins.be/brainelecomte/sentier/106"/><trkseg>
<trkpt lat="50.579875" lon="4.132582"><time>2026-05-03T03:35:18Z</time></trkpt>
<trkpt lat="50.578758" lon="4.131904"><time>2026-05-03T03:45:18Z</time></trkpt>
<trkpt lat="50.577684" lon="4.132162"><time>2026-05-03T03:55:18Z</time></trkpt>
<trkpt lat="50.577362" lon="4.132763"><time>2026-05-03T04:05:18Z</time></trkpt>
</trkseg>
</trk>
<trk>
<name>hbcbc107</name>
<cmt>q</cmt>
<desc>Braine-le-Comte Sentier n°107 </desc>
<link href="https://chemins.be/brainelecomte/sentier/107"/><trkseg>
<trkpt lat="50.576121" lon="4.122341"><time>2026-05-03T03:35:18Z</time></trkpt>
<trkpt lat="50.575085" lon="4.125946"><time>2026-05-03T03:45:18Z</time></trkpt>
<trkpt lat="50.574714" lon="4.125860"><time>2026-05-03T03:55:18Z</time></trkpt>
<trkpt lat="50.574594" lon="4.126649"><time>2026-05-03T04:05:18Z</time></trkpt>
<trkpt lat="50.573545" lon="4.128105"><time>2026-05-03T04:15:18Z</time></trkpt>
</trkseg></trk>
<trk>
<name>hbcbc107</name>
<cmt>r</cmt>
<desc>Braine-le-Comte Sentier n°107 </desc>
<link href="https://chemins.be/brainelecomte/sentier/107"/><trkseg>
<trkpt lat="50.573545" lon="4.128105"><time>2026-05-03T04:15:18Z</time></trkpt>
<trkpt lat="50.573395" lon="4.127897"><time>2026-05-03T04:25:18Z</time></trkpt>
</trkseg></trk>
<trk>
<name>hbcbc107</name>
<cmt>v</cmt>
<desc>Braine-le-Comte Sentier n°107 </desc>
<link href="https://chemins.be/brainelecomte/sentier/107"/><trkseg>
<trkpt lat="50.573395" lon="4.127897"><time>2026-05-03T04:25:18Z</time></trkpt>
<trkpt lat="50.571944" lon="4.129894"><time>2026-05-03T04:35:18Z</time></trkpt>
<trkpt lat="50.571677" lon="4.130248"><time>2026-05-03T04:45:18Z</time></trkpt>
<trkpt lat="50.571619" lon="4.131402"><time>2026-05-03T04:55:18Z</time></trkpt>
<trkpt lat="50.570646" lon="4.132703"><time>2026-05-03T05:05:18Z</time></trkpt>
<trkpt lat="50.570033" lon="4.132994"><time>2026-05-03T05:15:18Z</time></trkpt>
</trkseg>
</trk>
<trk>
<name>hbcbc108</name>
<cmt>q</cmt>
<desc>Braine-le-Comte Sentier n°108 </desc>
<link href="https://chemins.be/brainelecomte/sentier/108"/><trkseg>
<trkpt lat="50.580142" lon="4.134275"><time>2026-05-03T03:35:18Z</time></trkpt>
<trkpt lat="50.580747" lon="4.135443"><time>2026-05-03T03:45:18Z</time></trkpt>
<trkpt lat="50.581276" lon="4.137219"><time>2026-05-03T03:55:18Z</time></trkpt>
<trkpt lat="50.583020" lon="4.140163"><time>2026-05-03T04:05:18Z</time></trkpt>
<trkpt lat="50.583755" lon="4.141382"><time>2026-05-03T04:15:18Z</time></trkpt>
</trkseg>
</trk>
<trk>
<name>hbcbc109</name>
<cmt>q</cmt>
<desc>Braine-le-Comte Sentier n°109 Chemin du Bois de Profondrieux</desc>
<link href="https://chemins.be/brainelecomte/sentier/109"/><trkseg>
<trkpt lat="50.569229" lon="4.117717"><time>2026-05-03T03:35:18Z</time></trkpt>
<trkpt lat="50.569551" lon="4.118952"><time>2026-05-03T03:45:18Z</time></trkpt>
<trkpt lat="50.571693" lon="4.125252"><time>2026-05-03T03:55:18Z</time></trkpt>
</trkseg></trk>
<trk>
<name>hbcbc109</name>
<cmt>r</cmt>
<desc>Braine-le-Comte Sentier n°109 Chemin du Bois de Profondrieux</desc>
<link href="https://chemins.be/brainelecomte/sentier/109"/><trkseg>
<trkpt lat="50.571693" lon="4.125252"><time>2026-05-03T03:55:18Z</time></trkpt>
<trkpt lat="50.572435" lon="4.126460"><time>2026-05-03T04:05:18Z</time></trkpt>
</trkseg>
</trk>
<trk>
<name>hbcbc111</name>
<cmt>q</cmt>
<desc>Braine-le-Comte Sentier n°111 </desc>
<link href="https://chemins.be/brainelecomte/sentier/111"/><trkseg>
<trkpt lat="50.588090" lon="4.129855"><time>2026-05-03T03:35:18Z</time></trkpt>
<trkpt lat="50.587052" lon="4.132018"><time>2026-05-03T03:45:18Z</time></trkpt>
<trkpt lat="50.587561" lon="4.132619"><time>2026-05-03T03:55:18Z</time></trkpt>
<trkpt lat="50.586780" lon="4.133280"><time>2026-05-03T04:05:18Z</time></trkpt>
<trkpt lat="50.586502" lon="4.133958"><time>2026-05-03T04:15:18Z</time></trkpt>
<trkpt lat="50.586824" lon="4.134644"><time>2026-05-03T04:25:18Z</time></trkpt>
</trkseg>
</trk>
<trk>
<name>hbcbc112</name>
<cmt>q</cmt>
<desc>Braine-le-Comte Sentier n°112 </desc>
<link href="https://chemins.be/brainelecomte/sentier/112"/><trkseg>
<trkpt lat="50.590867" lon="4.133241"><time>2026-05-03T03:35:18Z</time></trkpt>
<trkpt lat="50.590099" lon="4.134614"><time>2026-05-03T03:45:18Z</time></trkpt>
<trkpt lat="50.590398" lon="4.135258"><time>2026-05-03T03:55:18Z</time></trkpt>
<trkpt lat="50.589619" lon="4.142296"><time>2026-05-03T04:05:18Z</time></trkpt>
<trkpt lat="50.589364" lon="4.144601"><time>2026-05-03T04:15:18Z</time></trkpt>
<trkpt lat="50.589462" lon="4.145905"><time>2026-05-03T04:25:18Z</time></trkpt>
<trkpt lat="50.588961" lon="4.147021"><time>2026-05-03T04:35:18Z</time></trkpt>
</trkseg>
</trk>
<trk>
<name>hbcbc113</name>
<cmt>q</cmt>
<desc>Braine-le-Comte Sentier n°113 </desc>
<link href="https://chemins.be/brainelecomte/sentier/113"/><trkseg>
<trkpt lat="50.584556" lon="4.134374"><time>2026-05-03T03:35:18Z</time></trkpt>
<trkpt lat="50.583482" lon="4.136807"><time>2026-05-03T03:45:18Z</time></trkpt>
<trkpt lat="50.583104" lon="4.137305"><time>2026-05-03T03:55:18Z</time></trkpt>
<trkpt lat="50.581240" lon="4.137164"><time>2026-05-03T04:05:18Z</time></trkpt>
</trkseg>
</trk>
<trk>
<name>hbcbc114</name>
<cmt>q</cmt>
<desc>Braine-le-Comte Sentier n°114 </desc>
<link href="https://chemins.be/brainelecomte/sentier/114"/><trkseg>
<trkpt lat="50.572448" lon="4.126485"><time>2026-05-03T03:35:18Z</time></trkpt>
<trkpt lat="50.572669" lon="4.126120"><time>2026-05-03T03:45:18Z</time></trkpt>
</trkseg>
</trk>
<trk>
<name>hbcbc115</name>
<cmt>v</cmt>
<desc>Braine-le-Comte Sentier n°115 </desc>
<link href="https://chemins.be/brainelecomte/sentier/115"/><trkseg>
<trkpt lat="50.590281" lon="4.166562"><time>2026-05-03T03:35:18Z</time></trkpt>
<trkpt lat="50.590151" lon="4.165262"><time>2026-05-03T03:45:18Z</time></trkpt>
</trkseg></trk>
<trk>
<name>hbcbc115</name>
<cmt>d</cmt>
<desc>Braine-le-Comte Sentier n°115 </desc>
<link href="https://chemins.be/brainelecomte/sentier/115"/><trkseg>
<trkpt lat="50.590151" lon="4.165262"><time>2026-05-03T03:45:18Z</time></trkpt>
<trkpt lat="50.590161" lon="4.165262"><time>2026-05-03T03:55:18Z</time></trkpt>
<trkpt lat="50.589681" lon="4.163932"><time>2026-05-03T04:05:18Z</time></trkpt>
<trkpt lat="50.589411" lon="4.163202"><time>2026-05-03T04:15:18Z</time></trkpt>
<trkpt lat="50.588604" lon="4.161083"><time>2026-05-03T04:25:18Z</time></trkpt>
<trkpt lat="50.588073" lon="4.159667"><time>2026-05-03T04:35:18Z</time></trkpt>
<trkpt lat="50.587487" lon="4.154259"><time>2026-05-03T04:45:18Z</time></trkpt>
</trkseg>
</trk>
<trk>
<name>hbcbc116</name>
<cmt>q</cmt>
<desc>Braine-le-Comte Sentier n°116 </desc>
<link href="https://chemins.be/brainelecomte/sentier/116"/><trkseg>
<trkpt lat="50.588690" lon="4.160952"><time>2026-05-03T03:35:18Z</time></trkpt>
<trkpt lat="50.585639" lon="4.159441"><time>2026-05-03T03:45:18Z</time></trkpt>
<trkpt lat="50.584788" lon="4.157553"><time>2026-05-03T03:55:18Z</time></trkpt>
<trkpt lat="50.581649" lon="4.155424"><time>2026-05-03T04:05:18Z</time></trkpt>
</trkseg>
</trk>
<trk>
<name>hbcbc117</name>
<cmt>q</cmt>
<desc>Braine-le-Comte Sentier n°117 </desc>
<link href="https://chemins.be/brainelecomte/sentier/117"/><trkseg>
<trkpt lat="50.588115" lon="4.162180"><time>2026-05-03T03:35:18Z</time></trkpt>
<trkpt lat="50.587965" lon="4.162013"><time>2026-05-03T03:45:18Z</time></trkpt>
<trkpt lat="50.586769" lon="4.162561"><time>2026-05-03T03:55:18Z</time></trkpt>
</trkseg>
</trk>
<trk>
<name>hbcbc118</name>
<cmt>q</cmt>
<desc>Braine-le-Comte Sentier n°118 </desc>
<link href="https://chemins.be/brainelecomte/sentier/118"/><trkseg>
<trkpt lat="50.588590" lon="4.146644"><time>2026-05-03T03:35:18Z</time></trkpt>
<trkpt lat="50.587032" lon="4.148017"><time>2026-05-03T03:45:18Z</time></trkpt>
<trkpt lat="50.585549" lon="4.150987"><time>2026-05-03T03:55:18Z</time></trkpt>
<trkpt lat="50.584928" lon="4.150935"><time>2026-05-03T04:05:18Z</time></trkpt>
<trkpt lat="50.581374" lon="4.154132"><time>2026-05-03T04:15:18Z</time></trkpt>
</trkseg>
</trk>
<trk>
<name>hbcbc119</name>
<cmt>q</cmt>
<desc>Braine-le-Comte Sentier n°119 </desc>
<link href="https://chemins.be/brainelecomte/sentier/119"/><trkseg>
<trkpt lat="50.580692" lon="4.145936"><time>2026-05-03T03:35:18Z</time></trkpt>
<trkpt lat="50.582219" lon="4.146656"><time>2026-05-03T03:45:18Z</time></trkpt>
<trkpt lat="50.584943" lon="4.146399"><time>2026-05-03T03:55:18Z</time></trkpt>
<trkpt lat="50.588612" lon="4.146678"><time>2026-05-03T04:05:18Z</time></trkpt>
<trkpt lat="50.588972" lon="4.147021"><time>2026-05-03T04:15:18Z</time></trkpt>
<trkpt lat="50.590149" lon="4.146678"><time>2026-05-03T04:25:18Z</time></trkpt>
<trkpt lat="50.590955" lon="4.147485"><time>2026-05-03T04:35:18Z</time></trkpt>
<trkpt lat="50.591849" lon="4.147107"><time>2026-05-03T04:45:18Z</time></trkpt>
<trkpt lat="50.592764" lon="4.147279"><time>2026-05-03T04:55:18Z</time></trkpt>
<trkpt lat="50.593156" lon="4.147828"><time>2026-05-03T05:05:18Z</time></trkpt>
</trkseg>
</trk>
<trk>
<name>hbcbc120</name>
<cmt>s</cmt>
<desc>Braine-le-Comte Sentier n°120 Rue Docteur Oblin / Sentier de Messines / Chemin des Dames / Chemin de Feluy</desc>
<link href="https://chemins.be/brainelecomte/sentier/120"/><trkseg>
<trkpt lat="50.608351" lon="4.136711"><time>2026-05-03T03:35:18Z</time></trkpt>
<trkpt lat="50.607959" lon="4.137494"><time>2026-05-03T03:45:18Z</time></trkpt>
</trkseg></trk>
<trk>
<name>hbcbc120</name>
<cmt>r</cmt>
<desc>Braine-le-Comte Sentier n°120 Rue Docteur Oblin / Sentier de Messines / Chemin des Dames / Chemin de Feluy</desc>
<link href="https://chemins.be/brainelecomte/sentier/120"/><trkseg>
<trkpt lat="50.607959" lon="4.137494"><time>2026-05-03T03:45:18Z</time></trkpt>
<trkpt lat="50.607499" lon="4.138567"><time>2026-05-03T03:55:18Z</time></trkpt>
<trkpt lat="50.607061" lon="4.139771"><time>2026-05-03T04:05:18Z</time></trkpt>
</trkseg></trk>
<trk>
<name>hbcbc120</name>
<cmt>s</cmt>
<desc>Braine-le-Comte Sentier n°120 Rue Docteur Oblin / Sentier de Messines / Chemin des Dames / Chemin de Feluy</desc>
<link href="https://chemins.be/brainelecomte/sentier/120"/><trkseg>
<trkpt lat="50.607061" lon="4.139771"><time>2026-05-03T04:05:18Z</time></trkpt>
<trkpt lat="50.606384" lon="4.141337"><time>2026-05-03T04:15:18Z</time></trkpt>
</trkseg></trk>
<trk>
<name>hbcbc120</name>
<cmt>v</cmt>
<desc>Braine-le-Comte Sentier n°120 Rue Docteur Oblin / Sentier de Messines / Chemin des Dames / Chemin de Feluy</desc>
<link href="https://chemins.be/brainelecomte/sentier/120"/><trkseg>
<trkpt lat="50.606384" lon="4.141337"><time>2026-05-03T04:15:18Z</time></trkpt>
<trkpt lat="50.605533" lon="4.142903"><time>2026-05-03T04:25:18Z</time></trkpt>
</trkseg></trk>
<trk>
<name>hbcbc120</name>
<cmt>q</cmt>
<desc>Braine-le-Comte Sentier n°120 Rue Docteur Oblin / Sentier de Messines / Chemin des Dames / Chemin de Feluy</desc>
<link href="https://chemins.be/brainelecomte/sentier/120"/><trkseg>
<trkpt lat="50.605533" lon="4.142903"><time>2026-05-03T04:25:18Z</time></trkpt>
<trkpt lat="50.604771" lon="4.143929"><time>2026-05-03T04:35:18Z</time></trkpt>
<trkpt lat="50.604271" lon="4.144117"><time>2026-05-03T04:45:18Z</time></trkpt>
</trkseg></trk>
<trk>
<name>hbcbc120</name>
<cmt>v</cmt>
<desc>Braine-le-Comte Sentier n°120 Rue Docteur Oblin / Sentier de Messines / Chemin des Dames / Chemin de Feluy</desc>
<link href="https://chemins.be/brainelecomte/sentier/120"/><trkseg>
<trkpt lat="50.604271" lon="4.144117"><time>2026-05-03T04:45:18Z</time></trkpt>
<trkpt lat="50.604148" lon="4.144562"><time>2026-05-03T04:55:18Z</time></trkpt>
<trkpt lat="50.602876" lon="4.145880"><time>2026-05-03T05:05:18Z</time></trkpt>
</trkseg></trk>
<trk>
<name>hbcbc120</name>
<cmt>r</cmt>
<desc>Braine-le-Comte Sentier n°120 Rue Docteur Oblin / Sentier de Messines / Chemin des Dames / Chemin de Feluy</desc>
<link href="https://chemins.be/brainelecomte/sentier/120"/><trkseg>
<trkpt lat="50.602876" lon="4.145880"><time>2026-05-03T05:05:18Z</time></trkpt>
<trkpt lat="50.601775" lon="4.147408"><time>2026-05-03T05:15:18Z</time></trkpt>
<trkpt lat="50.601409" lon="4.148159"><time>2026-05-03T05:25:18Z</time></trkpt>
</trkseg></trk>
<trk>
<name>hbcbc120</name>
<cmt>v</cmt>
<desc>Braine-le-Comte Sentier n°120 Rue Docteur Oblin / Sentier de Messines / Chemin des Dames / Chemin de Feluy</desc>
<link href="https://chemins.be/brainelecomte/sentier/120"/><trkseg>
<trkpt lat="50.601409" lon="4.148159"><time>2026-05-03T05:25:18Z</time></trkpt>
<trkpt lat="50.600403" lon="4.150326"><time>2026-05-03T05:35:18Z</time></trkpt>
</trkseg></trk>
<trk>
<name>hbcbc120</name>
<cmt>r</cmt>
<desc>Braine-le-Comte Sentier n°120 Rue Docteur Oblin / Sentier de Messines / Chemin des Dames / Chemin de Feluy</desc>
<link href="https://chemins.be/brainelecomte/sentier/120"/><trkseg>
<trkpt lat="50.600403" lon="4.150326"><time>2026-05-03T05:35:18Z</time></trkpt>
<trkpt lat="50.599509" lon="4.149296"><time>2026-05-03T05:45:18Z</time></trkpt>
</trkseg></trk>
<trk>
<name>hbcbc120</name>
<cmt>q</cmt>
<desc>Braine-le-Comte Sentier n°120 Rue Docteur Oblin / Sentier de Messines / Chemin des Dames / Chemin de Feluy</desc>
<link href="https://chemins.be/brainelecomte/sentier/120"/><trkseg>
<trkpt lat="50.599509" lon="4.149296"><time>2026-05-03T05:45:18Z</time></trkpt>
<trkpt lat="50.598565" lon="4.149420"><time>2026-05-03T05:55:18Z</time></trkpt>
</trkseg></trk>
<trk>
<name>hbcbc120</name>
<cmt>r</cmt>
<desc>Braine-le-Comte Sentier n°120 Rue Docteur Oblin / Sentier de Messines / Chemin des Dames / Chemin de Feluy</desc>
<link href="https://chemins.be/brainelecomte/sentier/120"/><trkseg>
<trkpt lat="50.598565" lon="4.149420"><time>2026-05-03T05:55:18Z</time></trkpt>
<trkpt lat="50.597779" lon="4.150394"><time>2026-05-03T06:05:18Z</time></trkpt>
</trkseg></trk>
<trk>
<name>hbcbc120</name>
<cmt>q</cmt>
<desc>Braine-le-Comte Sentier n°120 Rue Docteur Oblin / Sentier de Messines / Chemin des Dames / Chemin de Feluy</desc>
<link href="https://chemins.be/brainelecomte/sentier/120"/><trkseg>
<trkpt lat="50.597779" lon="4.150394"><time>2026-05-03T06:05:18Z</time></trkpt>
<trkpt lat="50.595859" lon="4.151991"><time>2026-05-03T06:15:18Z</time></trkpt>
<trkpt lat="50.595674" lon="4.152815"><time>2026-05-03T06:25:18Z</time></trkpt>
<trkpt lat="50.591249" lon="4.157845"><time>2026-05-03T06:35:18Z</time></trkpt>
<trkpt lat="50.590061" lon="4.159098"><time>2026-05-03T06:45:18Z</time></trkpt>
</trkseg>
</trk>
<trk>
<name>hbcbc121</name>
<cmt>q</cmt>
<desc>Braine-le-Comte Sentier n°121 </desc>
<link href="https://chemins.be/brainelecomte/sentier/121"/><trkseg>
<trkpt lat="50.594904" lon="4.151347"><time>2026-05-03T03:35:18Z</time></trkpt>
<trkpt lat="50.595887" lon="4.152025"><time>2026-05-03T03:45:18Z</time></trkpt>
</trkseg>
</trk>
<trk>
<name>hbcbc122</name>
<cmt>q</cmt>
<desc>Braine-le-Comte Sentier n°122 </desc>
<link href="https://chemins.be/brainelecomte/sentier/122"/><trkseg>
<trkpt lat="50.570276" lon="4.130143"><time>2026-05-03T03:35:18Z</time></trkpt>
<trkpt lat="50.571542" lon="4.131743"><time>2026-05-03T03:45:18Z</time></trkpt>
<trkpt lat="50.573384" lon="4.132585"><time>2026-05-03T03:55:18Z</time></trkpt>
<trkpt lat="50.574202" lon="4.133323"><time>2026-05-03T04:05:18Z</time></trkpt>
<trkpt lat="50.574409" lon="4.132945"><time>2026-05-03T04:15:18Z</time></trkpt>
<trkpt lat="50.575666" lon="4.134185"><time>2026-05-03T04:25:18Z</time></trkpt>
<trkpt lat="50.576905" lon="4.135586"><time>2026-05-03T04:35:18Z</time></trkpt>
<trkpt lat="50.577606" lon="4.135790"><time>2026-05-03T04:45:18Z</time></trkpt>
<trkpt lat="50.578036" lon="4.136852"><time>2026-05-03T04:55:18Z</time></trkpt>
<trkpt lat="50.579187" lon="4.139631"><time>2026-05-03T05:05:18Z</time></trkpt>
<trkpt lat="50.579310" lon="4.139561"><time>2026-05-03T05:15:18Z</time></trkpt>
<trkpt lat="50.579350" lon="4.139601"><time>2026-05-03T05:25:18Z</time></trkpt>
<trkpt lat="50.579730" lon="4.140011"><time>2026-05-03T05:35:18Z</time></trkpt>
<trkpt lat="50.579910" lon="4.140241"><time>2026-05-03T05:45:18Z</time></trkpt>
<trkpt lat="50.580136" lon="4.140644"><time>2026-05-03T05:55:18Z</time></trkpt>
<trkpt lat="50.581015" lon="4.142275"><time>2026-05-03T06:05:18Z</time></trkpt>
</trkseg></trk>
<trk>
<name>hbcbc122</name>
<cmt>v</cmt>
<desc>Braine-le-Comte Sentier n°122 </desc>
<link href="https://chemins.be/brainelecomte/sentier/122"/><trkseg>
<trkpt lat="50.581015" lon="4.142275"><time>2026-05-03T06:05:18Z</time></trkpt>
<trkpt lat="50.581962" lon="4.144120"><time>2026-05-03T06:15:18Z</time></trkpt>
</trkseg>
</trk>
<trk>
<name>hbcbc123</name>
<cmt>v</cmt>
<desc>Braine-le-Comte Sentier n°123 </desc>
<link href="https://chemins.be/brainelecomte/sentier/123"/><trkseg>
<trkpt lat="50.590651" lon="4.167272"><time>2026-05-03T03:35:18Z</time></trkpt>
<trkpt lat="50.591111" lon="4.166962"><time>2026-05-03T03:45:18Z</time></trkpt>
<trkpt lat="50.592041" lon="4.166432"><time>2026-05-03T03:55:18Z</time></trkpt>
</trkseg></trk>
<trk>
<name>hbcbc123</name>
<cmt>q</cmt>
<desc>Braine-le-Comte Sentier n°123 </desc>
<link href="https://chemins.be/brainelecomte/sentier/123"/><trkseg>
<trkpt lat="50.592041" lon="4.166432"><time>2026-05-03T03:55:18Z</time></trkpt>
<trkpt lat="50.592051" lon="4.166442"><time>2026-05-03T04:05:18Z</time></trkpt>
<trkpt lat="50.594521" lon="4.164902"><time>2026-05-03T04:15:18Z</time></trkpt>
<trkpt lat="50.598101" lon="4.162792"><time>2026-05-03T04:25:18Z</time></trkpt>
<trkpt lat="50.598547" lon="4.162309"><time>2026-05-03T04:35:18Z</time></trkpt>
<trkpt lat="50.599167" lon="4.161837"><time>2026-05-03T04:45:18Z</time></trkpt>
<trkpt lat="50.600985" lon="4.161740"><time>2026-05-03T04:55:18Z</time></trkpt>
</trkseg>
</trk>
<trk>
<name>hbcbc124</name>
<cmt>v</cmt>
<desc>Braine-le-Comte Sentier n°124 </desc>
<link href="https://chemins.be/brainelecomte/sentier/124"/><trkseg>
<trkpt lat="50.601475" lon="4.148111"><time>2026-05-03T03:35:18Z</time></trkpt>
<trkpt lat="50.600385" lon="4.150394"><time>2026-05-03T03:45:18Z</time></trkpt>
</trkseg></trk>
<trk>
<name>hbcbc124</name>
<cmt>q</cmt>
<desc>Braine-le-Comte Sentier n°124 </desc>
<link href="https://chemins.be/brainelecomte/sentier/124"/><trkseg>
<trkpt lat="50.600385" lon="4.150394"><time>2026-05-03T03:45:18Z</time></trkpt>
<trkpt lat="50.599922" lon="4.151296"><time>2026-05-03T03:55:18Z</time></trkpt>
<trkpt lat="50.598658" lon="4.151785"><time>2026-05-03T04:05:18Z</time></trkpt>
</trkseg>
</trk>
<trk>
<name>hbcbc125</name>
<cmt>q</cmt>
<desc>Braine-le-Comte Sentier n°125 Avenue des Châtaigniers</desc>
<link href="https://chemins.be/brainelecomte/sentier/125"/><trkseg>
<trkpt lat="50.604991" lon="4.160491"><time>2026-05-03T03:35:18Z</time></trkpt>
<trkpt lat="50.604664" lon="4.158785"><time>2026-05-03T03:45:18Z</time></trkpt>
<trkpt lat="50.605522" lon="4.158227"><time>2026-05-03T03:55:18Z</time></trkpt>
</trkseg></trk>
<trk>
<name>hbcbc125</name>
<cmt>r</cmt>
<desc>Braine-le-Comte Sentier n°125 Avenue des Châtaigniers</desc>
<link href="https://chemins.be/brainelecomte/sentier/125"/><trkseg>
<trkpt lat="50.605522" lon="4.158227"><time>2026-05-03T03:55:18Z</time></trkpt>
<trkpt lat="50.605855" lon="4.157519"><time>2026-05-03T04:05:18Z</time></trkpt>
<trkpt lat="50.605787" lon="4.157272"><time>2026-05-03T04:15:18Z</time></trkpt>
</trkseg></trk>
<trk>
<name>hbcbc125</name>
<cmt>v</cmt>
<desc>Braine-le-Comte Sentier n°125 Avenue des Châtaigniers</desc>
<link href="https://chemins.be/brainelecomte/sentier/125"/><trkseg>
<trkpt lat="50.605787" lon="4.157272"><time>2026-05-03T04:15:18Z</time></trkpt>
<trkpt lat="50.606171" lon="4.156872"><time>2026-05-03T04:25:18Z</time></trkpt>
<trkpt lat="50.606121" lon="4.156662"><time>2026-05-03T04:35:18Z</time></trkpt>
<trkpt lat="50.606451" lon="4.156462"><time>2026-05-03T04:45:18Z</time></trkpt>
</trkseg>
</trk>
<trk>
<name>hbcbc126</name>
<cmt>q</cmt>
<desc>Braine-le-Comte Sentier n°126 </desc>
<link href="https://chemins.be/brainelecomte/sentier/126"/><trkseg>
<trkpt lat="50.602979" lon="4.154767"><time>2026-05-03T03:35:18Z</time></trkpt>
<trkpt lat="50.603725" lon="4.155631"><time>2026-05-03T03:45:18Z</time></trkpt>
<trkpt lat="50.604195" lon="4.155550"><time>2026-05-03T03:55:18Z</time></trkpt>
<trkpt lat="50.605567" lon="4.156749"><time>2026-05-03T04:05:18Z</time></trkpt>
</trkseg>
</trk>
<trk>
<name>hbcbc127</name>
<cmt>q</cmt>
<desc>Braine-le-Comte Sentier n°127 </desc>
<link href="https://chemins.be/brainelecomte/sentier/127"/><trkseg>
<trkpt lat="50.602958" lon="4.154768"><time>2026-05-03T03:35:18Z</time></trkpt>
<trkpt lat="50.603178" lon="4.155675"><time>2026-05-03T03:45:18Z</time></trkpt>
<trkpt lat="50.603596" lon="4.156490"><time>2026-05-03T03:55:18Z</time></trkpt>
</trkseg>
</trk>
<trk>
<name>hbcbc128</name>
<cmt>q</cmt>
<desc>Braine-le-Comte Sentier n°128 Avenue des Chênes / Sentier des Coudriers / Sentier des Prés à la Braine</desc>
<link href="https://chemins.be/brainelecomte/sentier/128"/><trkseg>
<trkpt lat="50.599544" lon="4.161852"><time>2026-05-03T03:35:18Z</time></trkpt>
<trkpt lat="50.600197" lon="4.160747"><time>2026-05-03T03:45:18Z</time></trkpt>
</trkseg></trk>
<trk>
<name>hbcbc128</name>
<cmt>d</cmt>
<desc>Braine-le-Comte Sentier n°128 Avenue des Chênes / Sentier des Coudriers / Sentier des Prés à la Braine</desc>
<link href="https://chemins.be/brainelecomte/sentier/128"/><trkseg>
<trkpt lat="50.600197" lon="4.160747"><time>2026-05-03T03:45:18Z</time></trkpt>
<trkpt lat="50.600393" lon="4.160415"><time>2026-05-03T03:55:18Z</time></trkpt>
<trkpt lat="50.601955" lon="4.159234"><time>2026-05-03T04:05:18Z</time></trkpt>
</trkseg></trk>
<trk>
<name>hbcbc128</name>
<cmt>r</cmt>
<desc>Braine-le-Comte Sentier n°128 Avenue des Chênes / Sentier des Coudriers / Sentier des Prés à la Braine</desc>
<link href="https://chemins.be/brainelecomte/sentier/128"/><trkseg>
<trkpt lat="50.601955" lon="4.159234"><time>2026-05-03T04:05:18Z</time></trkpt>
<trkpt lat="50.601996" lon="4.159084"><time>2026-05-03T04:15:18Z</time></trkpt>
<trkpt lat="50.602521" lon="4.158282"><time>2026-05-03T04:25:18Z</time></trkpt>
</trkseg></trk>
<trk>
<name>hbcbc128</name>
<cmt>v</cmt>
<desc>Braine-le-Comte Sentier n°128 Avenue des Chênes / Sentier des Coudriers / Sentier des Prés à la Braine</desc>
<link href="https://chemins.be/brainelecomte/sentier/128"/><trkseg>
<trkpt lat="50.602521" lon="4.158282"><time>2026-05-03T04:25:18Z</time></trkpt>
<trkpt lat="50.603251" lon="4.157852"><time>2026-05-03T04:35:18Z</time></trkpt>
</trkseg></trk>
<trk>
<name>hbcbc128</name>
<cmt>q</cmt>
<desc>Braine-le-Comte Sentier n°128 Avenue des Chênes / Sentier des Coudriers / Sentier des Prés à la Braine</desc>
<link href="https://chemins.be/brainelecomte/sentier/128"/><trkseg>
<trkpt lat="50.603251" lon="4.157852"><time>2026-05-03T04:35:18Z</time></trkpt>
<trkpt lat="50.603651" lon="4.156272"><time>2026-05-03T04:45:18Z</time></trkpt>
<trkpt lat="50.604541" lon="4.154752"><time>2026-05-03T04:55:18Z</time></trkpt>
</trkseg></trk>
<trk>
<name>hbcbc128</name>
<cmt>v</cmt>
<desc>Braine-le-Comte Sentier n°128 Avenue des Chênes / Sentier des Coudriers / Sentier des Prés à la Braine</desc>
<link href="https://chemins.be/brainelecomte/sentier/128"/><trkseg>
<trkpt lat="50.604541" lon="4.154752"><time>2026-05-03T04:55:18Z</time></trkpt>
<trkpt lat="50.604541" lon="4.154762"><time>2026-05-03T05:05:18Z</time></trkpt>
<trkpt lat="50.605111" lon="4.154222"><time>2026-05-03T05:15:18Z</time></trkpt>
<trkpt lat="50.605401" lon="4.153222"><time>2026-05-03T05:25:18Z</time></trkpt>
<trkpt lat="50.606161" lon="4.151392"><time>2026-05-03T05:35:18Z</time></trkpt>
<trkpt lat="50.606011" lon="4.149962"><time>2026-05-03T05:45:18Z</time></trkpt>
<trkpt lat="50.606191" lon="4.149462"><time>2026-05-03T05:55:18Z</time></trkpt>
<trkpt lat="50.605861" lon="4.148271"><time>2026-05-03T06:05:18Z</time></trkpt>
<trkpt lat="50.605891" lon="4.147351"><time>2026-05-03T06:15:18Z</time></trkpt>
<trkpt lat="50.605491" lon="4.144721"><time>2026-05-03T06:25:18Z</time></trkpt>
<trkpt lat="50.604831" lon="4.144041"><time>2026-05-03T06:35:18Z</time></trkpt>
</trkseg></trk>
<trk>
<name>hbcbc128</name>
<cmt>q</cmt>
<desc>Braine-le-Comte Sentier n°128 Avenue des Chênes / Sentier des Coudriers / Sentier des Prés à la Braine</desc>
<link href="https://chemins.be/brainelecomte/sentier/128"/><trkseg>
<trkpt lat="50.604831" lon="4.144041"><time>2026-05-03T06:35:18Z</time></trkpt>
<trkpt lat="50.604521" lon="4.142221"><time>2026-05-03T06:45:18Z</time></trkpt>
<trkpt lat="50.603851" lon="4.140131"><time>2026-05-03T06:55:18Z</time></trkpt>
<trkpt lat="50.603901" lon="4.138161"><time>2026-05-03T07:05:18Z</time></trkpt>
<trkpt lat="50.603061" lon="4.136881"><time>2026-05-03T07:15:18Z</time></trkpt>
</trkseg>
</trk>
<trk>
<name>hbcbc129</name>
<cmt>v</cmt>
<desc>Braine-le-Comte Sentier n°129 </desc>
<link href="https://chemins.be/brainelecomte/sentier/129"/><trkseg>
<trkpt lat="50.606097" lon="4.150669"><time>2026-05-03T03:35:18Z</time></trkpt>
<trkpt lat="50.606492" lon="4.150512"><time>2026-05-03T03:45:18Z</time></trkpt>
<trkpt lat="50.606663" lon="4.150426"><time>2026-05-03T03:55:18Z</time></trkpt>
</trkseg>
</trk>
<trk>
<name>hbcbc130</name>
<cmt>q</cmt>
<desc>Braine-le-Comte Sentier n°130 Sentier de la Voie du Tram / Sentier Chapelle à fourmis / Square de la Liberté / Rue R. Lepers</desc>
<link href="https://chemins.be/brainelecomte/sentier/130"/><trkseg>
<trkpt lat="50.609529" lon="4.169373"><time>2026-05-03T03:35:18Z</time></trkpt>
<trkpt lat="50.609014" lon="4.168386"><time>2026-05-03T03:45:18Z</time></trkpt>
</trkseg></trk>
<trk>
<name>hbcbc130</name>
<cmt>d</cmt>
<desc>Braine-le-Comte Sentier n°130 Sentier de la Voie du Tram / Sentier Chapelle à fourmis / Square de la Liberté / Rue R. Lepers</desc>
<link href="https://chemins.be/brainelecomte/sentier/130"/><trkseg>
<trkpt lat="50.609014" lon="4.168386"><time>2026-05-03T03:45:18Z</time></trkpt>
<trkpt lat="50.608760" lon="4.167059"><time>2026-05-03T03:55:18Z</time></trkpt>
</trkseg></trk>
<trk>
<name>hbcbc130</name>
<cmt>v</cmt>
<desc>Braine-le-Comte Sentier n°130 Sentier de la Voie du Tram / Sentier Chapelle à fourmis / Square de la Liberté / Rue R. Lepers</desc>
<link href="https://chemins.be/brainelecomte/sentier/130"/><trkseg>
<trkpt lat="50.608760" lon="4.167059"><time>2026-05-03T03:55:18Z</time></trkpt>
<trkpt lat="50.608515" lon="4.165322"><time>2026-05-03T04:05:18Z</time></trkpt>
<trkpt lat="50.608214" lon="4.163261"><time>2026-05-03T04:15:18Z</time></trkpt>
<trkpt lat="50.608014" lon="4.161666"><time>2026-05-03T04:25:18Z</time></trkpt>
<trkpt lat="50.607353" lon="4.159253"><time>2026-05-03T04:35:18Z</time></trkpt>
<trkpt lat="50.606684" lon="4.157278"><time>2026-05-03T04:45:18Z</time></trkpt>
<trkpt lat="50.606485" lon="4.156516"><time>2026-05-03T04:55:18Z</time></trkpt>
<trkpt lat="50.606394" lon="4.155697"><time>2026-05-03T05:05:18Z</time></trkpt>
<trkpt lat="50.606774" lon="4.152093"><time>2026-05-03T05:15:18Z</time></trkpt>
<trkpt lat="50.606827" lon="4.151584"><time>2026-05-03T05:25:18Z</time></trkpt>
<trkpt lat="50.606844" lon="4.151273"><time>2026-05-03T05:35:18Z</time></trkpt>
<trkpt lat="50.606717" lon="4.150369"><time>2026-05-03T05:45:18Z</time></trkpt>
<trkpt lat="50.606653" lon="4.149805"><time>2026-05-03T05:55:18Z</time></trkpt>
<trkpt lat="50.606859" lon="4.149662"><time>2026-05-03T06:05:18Z</time></trkpt>
<trkpt lat="50.607264" lon="4.149590"><time>2026-05-03T06:15:18Z</time></trkpt>
<trkpt lat="50.607378" lon="4.148487"><time>2026-05-03T06:25:18Z</time></trkpt>
<trkpt lat="50.607378" lon="4.148148"><time>2026-05-03T06:35:18Z</time></trkpt>
<trkpt lat="50.607637" lon="4.147526"><time>2026-05-03T06:45:18Z</time></trkpt>
<trkpt lat="50.608077" lon="4.146807"><time>2026-05-03T06:55:18Z</time></trkpt>
</trkseg></trk>
<trk>
<name>hbcbc130</name>
<cmt>r</cmt>
<desc>Braine-le-Comte Sentier n°130 Sentier de la Voie du Tram / Sentier Chapelle à fourmis / Square de la Liberté / Rue R. Lepers</desc>
<link href="https://chemins.be/brainelecomte/sentier/130"/><trkseg>
<trkpt lat="50.608077" lon="4.146807"><time>2026-05-03T06:55:18Z</time></trkpt>
<trkpt lat="50.609695" lon="4.144326"><time>2026-05-03T07:05:18Z</time></trkpt>
</trkseg></trk>
<trk>
<name>hbcbc130</name>
<cmt>q</cmt>
<desc>Braine-le-Comte Sentier n°130 Sentier de la Voie du Tram / Sentier Chapelle à fourmis / Square de la Liberté / Rue R. Lepers</desc>
<link href="https://chemins.be/brainelecomte/sentier/130"/><trkseg>
<trkpt lat="50.609695" lon="4.144326"><time>2026-05-03T07:05:18Z</time></trkpt>
<trkpt lat="50.609967" lon="4.143854"><time>2026-05-03T07:15:18Z</time></trkpt>
<trkpt lat="50.610425" lon="4.142961"><time>2026-05-03T07:25:18Z</time></trkpt>
</trkseg>
</trk>
<trk>
<name>hbcbc131</name>
<cmt>d</cmt>
<desc>Braine-le-Comte Sentier n°131 Avenue de la Hêtraie</desc>
<link href="https://chemins.be/brainelecomte/sentier/131"/><trkseg>
<trkpt lat="50.600071" lon="4.159302"><time>2026-05-03T03:35:18Z</time></trkpt>
<trkpt lat="50.600191" lon="4.159922"><time>2026-05-03T03:45:18Z</time></trkpt>
<trkpt lat="50.600379" lon="4.160389"><time>2026-05-03T03:55:18Z</time></trkpt>
<trkpt lat="50.600181" lon="4.160711"><time>2026-05-03T04:05:18Z</time></trkpt>
<trkpt lat="50.600113" lon="4.161869"><time>2026-05-03T04:15:18Z</time></trkpt>
<trkpt lat="50.599886" lon="4.164013"><time>2026-05-03T04:25:18Z</time></trkpt>
</trkseg></trk>
<trk>
<name>hbcbc131</name>
<cmt>v</cmt>
<desc>Braine-le-Comte Sentier n°131 Avenue de la Hêtraie</desc>
<link href="https://chemins.be/brainelecomte/sentier/131"/><trkseg>
<trkpt lat="50.599886" lon="4.164013"><time>2026-05-03T04:25:18Z</time></trkpt>
<trkpt lat="50.599423" lon="4.164514"><time>2026-05-03T04:35:18Z</time></trkpt>
<trkpt lat="50.599727" lon="4.165251"><time>2026-05-03T04:45:18Z</time></trkpt>
</trkseg>
</trk>
<trk>
<name>hbcbc132</name>
<cmt>q</cmt>
<desc>Braine-le-Comte Sentier n°132 </desc>
<link href="https://chemins.be/brainelecomte/sentier/132"/><trkseg>
<trkpt lat="50.602268" lon="4.156071"><time>2026-05-03T03:35:18Z</time></trkpt>
<trkpt lat="50.601795" lon="4.156325"><time>2026-05-03T03:45:18Z</time></trkpt>
<trkpt lat="50.600100" lon="4.158807"><time>2026-05-03T03:55:18Z</time></trkpt>
</trkseg>
</trk>
<trk>
<name>hbcbc133</name>
<cmt>v</cmt>
<desc>Braine-le-Comte Sentier n°133 Sentier des Coudriers</desc>
<link href="https://chemins.be/brainelecomte/sentier/133"/><trkseg>
<trkpt lat="50.604511" lon="4.160992"><time>2026-05-03T03:35:18Z</time></trkpt>
<trkpt lat="50.604201" lon="4.159892"><time>2026-05-03T03:45:18Z</time></trkpt>
<trkpt lat="50.604071" lon="4.159922"><time>2026-05-03T03:55:18Z</time></trkpt>
<trkpt lat="50.604001" lon="4.159882"><time>2026-05-03T04:05:18Z</time></trkpt>
<trkpt lat="50.603881" lon="4.159582"><time>2026-05-03T04:15:18Z</time></trkpt>
<trkpt lat="50.603271" lon="4.157862"><time>2026-05-03T04:25:18Z</time></trkpt>
</trkseg>
</trk>
<trk>
<name>hbcbc134</name>
<cmt>q</cmt>
<desc>Braine-le-Comte Sentier n°134 </desc>
<link href="https://chemins.be/brainelecomte/sentier/134"/><trkseg>
<trkpt lat="50.600273" lon="4.160628"><time>2026-05-03T03:35:18Z</time></trkpt>
<trkpt lat="50.600551" lon="4.161379"><time>2026-05-03T03:45:18Z</time></trkpt>
<trkpt lat="50.600970" lon="4.161773"><time>2026-05-03T03:55:18Z</time></trkpt>
<trkpt lat="50.601601" lon="4.163741"><time>2026-05-03T04:05:18Z</time></trkpt>
<trkpt lat="50.602255" lon="4.164033"><time>2026-05-03T04:15:18Z</time></trkpt>
<trkpt lat="50.603486" lon="4.164445"><time>2026-05-03T04:25:18Z</time></trkpt>
<trkpt lat="50.604902" lon="4.164136"><time>2026-05-03T04:35:18Z</time></trkpt>
<trkpt lat="50.605011" lon="4.164754"><time>2026-05-03T04:45:18Z</time></trkpt>
</trkseg></trk>
<trk>
<name>hbcbc134</name>
<cmt>d</cmt>
<desc>Braine-le-Comte Sentier n°134 </desc>
<link href="https://chemins.be/brainelecomte/sentier/134"/><trkseg>
<trkpt lat="50.605011" lon="4.164754"><time>2026-05-03T04:45:18Z</time></trkpt>
<trkpt lat="50.605255" lon="4.164679"><time>2026-05-03T04:55:18Z</time></trkpt>
<trkpt lat="50.606688" lon="4.166164"><time>2026-05-03T05:05:18Z</time></trkpt>
</trkseg>
</trk>
<trk>
<name>hbcbc135</name>
<cmt>r</cmt>
<desc>Braine-le-Comte Sentier n°135 Avenue des Sapinières / Avenue du Bois</desc>
<link href="https://chemins.be/brainelecomte/sentier/135"/><trkseg>
<trkpt lat="50.604302" lon="4.161909"><time>2026-05-03T03:35:18Z</time></trkpt>
<trkpt lat="50.602701" lon="4.163102"><time>2026-05-03T03:45:18Z</time></trkpt>
<trkpt lat="50.602681" lon="4.163404"><time>2026-05-03T03:55:18Z</time></trkpt>
<trkpt lat="50.602245" lon="4.163748"><time>2026-05-03T04:05:18Z</time></trkpt>
</trkseg></trk>
<trk>
<name>hbcbc135</name>
<cmt>v</cmt>
<desc>Braine-le-Comte Sentier n°135 Avenue des Sapinières / Avenue du Bois</desc>
<link href="https://chemins.be/brainelecomte/sentier/135"/><trkseg>
<trkpt lat="50.602245" lon="4.163748"><time>2026-05-03T04:05:18Z</time></trkpt>
<trkpt lat="50.602330" lon="4.164082"><time>2026-05-03T04:15:18Z</time></trkpt>
<trkpt lat="50.601570" lon="4.164756"><time>2026-05-03T04:25:18Z</time></trkpt>
<trkpt lat="50.601147" lon="4.164902"><time>2026-05-03T04:35:18Z</time></trkpt>
</trkseg></trk>
<trk>
<name>hbcbc135</name>
<cmt>r</cmt>
<desc>Braine-le-Comte Sentier n°135 Avenue des Sapinières / Avenue du Bois</desc>
<link href="https://chemins.be/brainelecomte/sentier/135"/><trkseg>
<trkpt lat="50.601147" lon="4.164902"><time>2026-05-03T04:35:18Z</time></trkpt>
<trkpt lat="50.600802" lon="4.165112"><time>2026-05-03T04:45:18Z</time></trkpt>
<trkpt lat="50.600061" lon="4.166061"><time>2026-05-03T04:55:18Z</time></trkpt>
</trkseg>
</trk>
<trk>
<name>hbcbc136</name>
<cmt>r</cmt>
<desc>Braine-le-Comte Sentier n°136 Rue Oscar Denayst / Sentier des Aulnes</desc>
<link href="https://chemins.be/brainelecomte/sentier/136"/><trkseg>
<trkpt lat="50.605080" lon="4.165196"><time>2026-05-03T03:35:18Z</time></trkpt>
<trkpt lat="50.605613" lon="4.166409"><time>2026-05-03T03:45:18Z</time></trkpt>
<trkpt lat="50.606135" lon="4.166788"><time>2026-05-03T03:55:18Z</time></trkpt>
</trkseg></trk>
<trk>
<name>hbcbc136</name>
<cmt>v</cmt>
<desc>Braine-le-Comte Sentier n°136 Rue Oscar Denayst / Sentier des Aulnes</desc>
<link href="https://chemins.be/brainelecomte/sentier/136"/><trkseg>
<trkpt lat="50.606135" lon="4.166788"><time>2026-05-03T03:55:18Z</time></trkpt>
<trkpt lat="50.606145" lon="4.167310"><time>2026-05-03T04:05:18Z</time></trkpt>
<trkpt lat="50.607237" lon="4.169609"><time>2026-05-03T04:15:18Z</time></trkpt>
</trkseg>
</trk>
<trk>
<name>hbcbc137</name>
<cmt>v</cmt>
<desc>Braine-le-Comte Sentier n°137 Sentier du Point du Jour / Sentier du Point Du Jour</desc>
<link href="https://chemins.be/brainelecomte/sentier/137"/><trkseg>
<trkpt lat="50.601405" lon="4.182530"><time>2026-05-03T03:35:18Z</time></trkpt>
<trkpt lat="50.601914" lon="4.179971"><time>2026-05-03T03:45:18Z</time></trkpt>
<trkpt lat="50.601958" lon="4.179618"><time>2026-05-03T03:55:18Z</time></trkpt>
<trkpt lat="50.602438" lon="4.176197"><time>2026-05-03T04:05:18Z</time></trkpt>
<trkpt lat="50.602784" lon="4.173300"><time>2026-05-03T04:15:18Z</time></trkpt>
<trkpt lat="50.603240" lon="4.171801"><time>2026-05-03T04:25:18Z</time></trkpt>
<trkpt lat="50.603821" lon="4.169821"><time>2026-05-03T04:35:18Z</time></trkpt>
<trkpt lat="50.604062" lon="4.168859"><time>2026-05-03T04:45:18Z</time></trkpt>
</trkseg></trk>
<trk>
<name>hbcbc137</name>
<cmt>d</cmt>
<desc>Braine-le-Comte Sentier n°137 Sentier du Point du Jour / Sentier du Point Du Jour</desc>
<link href="https://chemins.be/brainelecomte/sentier/137"/><trkseg>
<trkpt lat="50.604062" lon="4.168859"><time>2026-05-03T04:45:18Z</time></trkpt>
<trkpt lat="50.604643" lon="4.166893"><time>2026-05-03T04:55:18Z</time></trkpt>
</trkseg></trk>
<trk>
<name>hbcbc137</name>
<cmt>r</cmt>
<desc>Braine-le-Comte Sentier n°137 Sentier du Point du Jour / Sentier du Point Du Jour</desc>
<link href="https://chemins.be/brainelecomte/sentier/137"/><trkseg>
<trkpt lat="50.604643" lon="4.166893"><time>2026-05-03T04:55:18Z</time></trkpt>
<trkpt lat="50.605062" lon="4.165196"><time>2026-05-03T05:05:18Z</time></trkpt>
</trkseg>
</trk>
<trk>
<name>hbcbc138</name>
<cmt>v</cmt>
<desc>Braine-le-Comte Sentier n°138 Sentier de l'Hermitage</desc>
<link href="https://chemins.be/brainelecomte/sentier/138"/><trkseg>
<trkpt lat="50.609566" lon="4.165106"><time>2026-05-03T03:35:18Z</time></trkpt>
<trkpt lat="50.608488" lon="4.165210"><time>2026-05-03T03:45:18Z</time></trkpt>
<trkpt lat="50.607742" lon="4.165538"><time>2026-05-03T03:55:18Z</time></trkpt>
<trkpt lat="50.607104" lon="4.165936"><time>2026-05-03T04:05:18Z</time></trkpt>
</trkseg></trk>
<trk>
<name>hbcbc138</name>
<cmt>q</cmt>
<desc>Braine-le-Comte Sentier n°138 Sentier de l'Hermitage</desc>
<link href="https://chemins.be/brainelecomte/sentier/138"/><trkseg>
<trkpt lat="50.607104" lon="4.165936"><time>2026-05-03T04:05:18Z</time></trkpt>
<trkpt lat="50.606610" lon="4.166221"><time>2026-05-03T04:15:18Z</time></trkpt>
<trkpt lat="50.606449" lon="4.166320"><time>2026-05-03T04:25:18Z</time></trkpt>
<trkpt lat="50.606169" lon="4.166595"><time>2026-05-03T04:35:18Z</time></trkpt>
</trkseg></trk>
<trk>
<name>hbcbc138</name>
<cmt>v</cmt>
<desc>Braine-le-Comte Sentier n°138 Sentier de l'Hermitage</desc>
<link href="https://chemins.be/brainelecomte/sentier/138"/><trkseg>
<trkpt lat="50.606169" lon="4.166595"><time>2026-05-03T04:35:18Z</time></trkpt>
<trkpt lat="50.606117" lon="4.166766"><time>2026-05-03T04:45:18Z</time></trkpt>
</trkseg>
</trk>
<trk>
<name>hbcbc138bis</name>
<cmt>v</cmt>
<desc>Braine-le-Comte Sentier n°138bis </desc>
<link href="https://chemins.be/brainelecomte/sentier/138bis"/><trkseg>
<trkpt lat="50.607120" lon="4.165951"><time>2026-05-03T03:35:18Z</time></trkpt>
<trkpt lat="50.607239" lon="4.166329"><time>2026-05-03T03:45:18Z</time></trkpt>
<trkpt lat="50.607335" lon="4.166609"><time>2026-05-03T03:55:18Z</time></trkpt>
<trkpt lat="50.606891" lon="4.167049"><time>2026-05-03T04:05:18Z</time></trkpt>
<trkpt lat="50.606816" lon="4.167027"><time>2026-05-03T04:15:18Z</time></trkpt>
<trkpt lat="50.606716" lon="4.166820"><time>2026-05-03T04:25:18Z</time></trkpt>
<trkpt lat="50.606507" lon="4.166730"><time>2026-05-03T04:35:18Z</time></trkpt>
<trkpt lat="50.606332" lon="4.166673"><time>2026-05-03T04:45:18Z</time></trkpt>
<trkpt lat="50.606289" lon="4.166741"><time>2026-05-03T04:55:18Z</time></trkpt>
<trkpt lat="50.606173" lon="4.166619"><time>2026-05-03T05:05:18Z</time></trkpt>
</trkseg>
</trk>
<trk>
<name>hbcbc139</name>
<cmt>q</cmt>
<desc>Braine-le-Comte Sentier n°139 Sentier du Vivier des Loges</desc>
<link href="https://chemins.be/brainelecomte/sentier/139"/><trkseg>
<trkpt lat="50.609511" lon="4.164386"><time>2026-05-03T03:35:18Z</time></trkpt>
<trkpt lat="50.609090" lon="4.165207"><time>2026-05-03T03:45:18Z</time></trkpt>
<trkpt lat="50.608696" lon="4.166268"><time>2026-05-03T03:55:18Z</time></trkpt>
<trkpt lat="50.608213" lon="4.167471"><time>2026-05-03T04:05:18Z</time></trkpt>
<trkpt lat="50.607469" lon="4.169071"><time>2026-05-03T04:15:18Z</time></trkpt>
</trkseg></trk>
<trk>
<name>hbcbc139</name>
<cmt>v</cmt>
<desc>Braine-le-Comte Sentier n°139 Sentier du Vivier des Loges</desc>
<link href="https://chemins.be/brainelecomte/sentier/139"/><trkseg>
<trkpt lat="50.607469" lon="4.169071"><time>2026-05-03T04:15:18Z</time></trkpt>
<trkpt lat="50.607219" lon="4.169595"><time>2026-05-03T04:25:18Z</time></trkpt>
<trkpt lat="50.606341" lon="4.171816"><time>2026-05-03T04:35:18Z</time></trkpt>
<trkpt lat="50.606064" lon="4.172552"><time>2026-05-03T04:45:18Z</time></trkpt>
<trkpt lat="50.606085" lon="4.174346"><time>2026-05-03T04:55:18Z</time></trkpt>
<trkpt lat="50.606122" lon="4.175038"><time>2026-05-03T05:05:18Z</time></trkpt>
</trkseg></trk>
<trk>
<name>hbcbc139</name>
<cmt>q</cmt>
<desc>Braine-le-Comte Sentier n°139 Sentier du Vivier des Loges</desc>
<link href="https://chemins.be/brainelecomte/sentier/139"/><trkseg>
<trkpt lat="50.606122" lon="4.175038"><time>2026-05-03T05:05:18Z</time></trkpt>
<trkpt lat="50.606313" lon="4.176167"><time>2026-05-03T05:15:18Z</time></trkpt>
</trkseg>
</trk>
<trk>
<name>hbcbc140</name>
<cmt>r</cmt>
<desc>Braine-le-Comte Sentier n°140 </desc>
<link href="https://chemins.be/brainelecomte/sentier/140"/><trkseg>
<trkpt lat="50.608752" lon="4.135614"><time>2026-05-03T03:35:18Z</time></trkpt>
<trkpt lat="50.606737" lon="4.134130"><time>2026-05-03T03:45:18Z</time></trkpt>
<trkpt lat="50.605343" lon="4.133323"><time>2026-05-03T03:55:18Z</time></trkpt>
</trkseg></trk>
<trk>
<name>hbcbc140</name>
<cmt>q</cmt>
<desc>Braine-le-Comte Sentier n°140 </desc>
<link href="https://chemins.be/brainelecomte/sentier/140"/><trkseg>
<trkpt lat="50.605343" lon="4.133323"><time>2026-05-03T03:55:18Z</time></trkpt>
<trkpt lat="50.604824" lon="4.133018"><time>2026-05-03T04:05:18Z</time></trkpt>
<trkpt lat="50.604478" lon="4.133149"><time>2026-05-03T04:15:18Z</time></trkpt>
</trkseg>
</trk>
<trk>
<name>hbcbc141</name>
<cmt>r</cmt>
<desc>Braine-le-Comte Sentier n°141 Rue des États-Unis</desc>
<link href="https://chemins.be/brainelecomte/sentier/141"/><trkseg>
<trkpt lat="50.603649" lon="4.131916"><time>2026-05-03T03:35:18Z</time></trkpt>
<trkpt lat="50.604481" lon="4.133124"><time>2026-05-03T03:45:18Z</time></trkpt>
<trkpt lat="50.605372" lon="4.133966"><time>2026-05-03T03:55:18Z</time></trkpt>
<trkpt lat="50.607331" lon="4.136716"><time>2026-05-03T04:05:18Z</time></trkpt>
</trkseg>
</trk>
<trk>
<name>hbcbc142</name>
<cmt>v</cmt>
<desc>Braine-le-Comte Sentier n°142 </desc>
<link href="https://chemins.be/brainelecomte/sentier/142"/><trkseg>
<trkpt lat="50.604740" lon="4.131954"><time>2026-05-03T03:35:18Z</time></trkpt>
<trkpt lat="50.604545" lon="4.132957"><time>2026-05-03T03:45:18Z</time></trkpt>
<trkpt lat="50.604500" lon="4.133170"><time>2026-05-03T03:55:18Z</time></trkpt>
</trkseg></trk>
<trk>
<name>hbcbc142</name>
<cmt>r</cmt>
<desc>Braine-le-Comte Sentier n°142 </desc>
<link href="https://chemins.be/brainelecomte/sentier/142"/><trkseg>
<trkpt lat="50.604500" lon="4.133170"><time>2026-05-03T03:55:18Z</time></trkpt>
<trkpt lat="50.604620" lon="4.133318"><time>2026-05-03T04:05:18Z</time></trkpt>
</trkseg></trk>
<trk>
<name>hbcbc142</name>
<cmt>q</cmt>
<desc>Braine-le-Comte Sentier n°142 </desc>
<link href="https://chemins.be/brainelecomte/sentier/142"/><trkseg>
<trkpt lat="50.604620" lon="4.133318"><time>2026-05-03T04:05:18Z</time></trkpt>
<trkpt lat="50.604454" lon="4.135850"><time>2026-05-03T04:15:18Z</time></trkpt>
</trkseg>
</trk>
<trk>
<name>hbcbc143</name>
<cmt>v</cmt>
<desc>Braine-le-Comte Sentier n°143 Sentier du Caillou / Chemin du Pont Laroche</desc>
<link href="https://chemins.be/brainelecomte/sentier/143"/><trkseg>
<trkpt lat="50.616636" lon="4.138186"><time>2026-05-03T03:35:18Z</time></trkpt>
<trkpt lat="50.616547" lon="4.138412"><time>2026-05-03T03:45:18Z</time></trkpt>
<trkpt lat="50.616423" lon="4.139190"><time>2026-05-03T03:55:18Z</time></trkpt>
<trkpt lat="50.616352" lon="4.139968"><time>2026-05-03T04:05:18Z</time></trkpt>
</trkseg></trk>
<trk>
<name>hbcbc143</name>
<cmt>r</cmt>
<desc>Braine-le-Comte Sentier n°143 Sentier du Caillou / Chemin du Pont Laroche</desc>
<link href="https://chemins.be/brainelecomte/sentier/143"/><trkseg>
<trkpt lat="50.616352" lon="4.139968"><time>2026-05-03T04:05:18Z</time></trkpt>
<trkpt lat="50.616966" lon="4.141349"><time>2026-05-03T04:15:18Z</time></trkpt>
</trkseg></trk>
<trk>
<name>hbcbc143</name>
<cmt>v</cmt>
<desc>Braine-le-Comte Sentier n°143 Sentier du Caillou / Chemin du Pont Laroche</desc>
<link href="https://chemins.be/brainelecomte/sentier/143"/><trkseg>
<trkpt lat="50.616966" lon="4.141349"><time>2026-05-03T04:15:18Z</time></trkpt>
<trkpt lat="50.617228" lon="4.141800"><time>2026-05-03T04:25:18Z</time></trkpt>
<trkpt lat="50.617652" lon="4.142547"><time>2026-05-03T04:35:18Z</time></trkpt>
<trkpt lat="50.617889" lon="4.144199"><time>2026-05-03T04:45:18Z</time></trkpt>
</trkseg></trk>
<trk>
<name>hbcbc143</name>
<cmt>q</cmt>
<desc>Braine-le-Comte Sentier n°143 Sentier du Caillou / Chemin du Pont Laroche</desc>
<link href="https://chemins.be/brainelecomte/sentier/143"/><trkseg>
<trkpt lat="50.617889" lon="4.144199"><time>2026-05-03T04:45:18Z</time></trkpt>
<trkpt lat="50.618205" lon="4.144834"><time>2026-05-03T04:55:18Z</time></trkpt>
<trkpt lat="50.620008" lon="4.147694"><time>2026-05-03T05:05:18Z</time></trkpt>
<trkpt lat="50.621220" lon="4.151574"><time>2026-05-03T05:15:18Z</time></trkpt>
<trkpt lat="50.622602" lon="4.154883"><time>2026-05-03T05:25:18Z</time></trkpt>
</trkseg>
</trk>
<trk>
<name>hbcbc144</name>
<cmt>q</cmt>
<desc>Braine-le-Comte Sentier n°144 Chemin du Pont Renier / Avenue du Stade</desc>
<link href="https://chemins.be/brainelecomte/sentier/144"/><trkseg>
<trkpt lat="50.623138" lon="4.174064"><time>2026-05-03T03:35:18Z</time></trkpt>
<trkpt lat="50.621806" lon="4.173109"><time>2026-05-03T03:45:18Z</time></trkpt>
<trkpt lat="50.621491" lon="4.172672"><time>2026-05-03T03:55:18Z</time></trkpt>
<trkpt lat="50.621310" lon="4.172178"><time>2026-05-03T04:05:18Z</time></trkpt>
<trkpt lat="50.621349" lon="4.168362"><time>2026-05-03T04:15:18Z</time></trkpt>
<trkpt lat="50.621337" lon="4.166780"><time>2026-05-03T04:25:18Z</time></trkpt>
<trkpt lat="50.620380" lon="4.164169"><time>2026-05-03T04:35:18Z</time></trkpt>
<trkpt lat="50.619787" lon="4.161733"><time>2026-05-03T04:45:18Z</time></trkpt>
</trkseg></trk>
<trk>
<name>hbcbc144</name>
<cmt>r</cmt>
<desc>Braine-le-Comte Sentier n°144 Chemin du Pont Renier / Avenue du Stade</desc>
<link href="https://chemins.be/brainelecomte/sentier/144"/><trkseg>
<trkpt lat="50.619787" lon="4.161733"><time>2026-05-03T04:45:18Z</time></trkpt>
<trkpt lat="50.619253" lon="4.161827"><time>2026-05-03T04:55:18Z</time></trkpt>
<trkpt lat="50.619264" lon="4.161123"><time>2026-05-03T05:05:18Z</time></trkpt>
<trkpt lat="50.618904" lon="4.157209"><time>2026-05-03T05:15:18Z</time></trkpt>
</trkseg></trk>
<trk>
<name>hbcbc144</name>
<cmt>q</cmt>
<desc>Braine-le-Comte Sentier n°144 Chemin du Pont Renier / Avenue du Stade</desc>
<link href="https://chemins.be/brainelecomte/sentier/144"/><trkseg>
<trkpt lat="50.618904" lon="4.157209"><time>2026-05-03T05:15:18Z</time></trkpt>
<trkpt lat="50.618501" lon="4.154832"><time>2026-05-03T05:25:18Z</time></trkpt>
<trkpt lat="50.618088" lon="4.154188"><time>2026-05-03T05:35:18Z</time></trkpt>
<trkpt lat="50.618000" lon="4.152841"><time>2026-05-03T05:45:18Z</time></trkpt>
</trkseg></trk>
<trk>
<name>hbcbc144</name>
<cmt>s</cmt>
<desc>Braine-le-Comte Sentier n°144 Chemin du Pont Renier / Avenue du Stade</desc>
<link href="https://chemins.be/brainelecomte/sentier/144"/><trkseg>
<trkpt lat="50.618000" lon="4.152841"><time>2026-05-03T05:45:18Z</time></trkpt>
<trkpt lat="50.617798" lon="4.152240"><time>2026-05-03T05:55:18Z</time></trkpt>
</trkseg></trk>
<trk>
<name>hbcbc144</name>
<cmt>q</cmt>
<desc>Braine-le-Comte Sentier n°144 Chemin du Pont Renier / Avenue du Stade</desc>
<link href="https://chemins.be/brainelecomte/sentier/144"/><trkseg>
<trkpt lat="50.617798" lon="4.152240"><time>2026-05-03T05:55:18Z</time></trkpt>
<trkpt lat="50.616819" lon="4.149339"><time>2026-05-03T06:05:18Z</time></trkpt>
<trkpt lat="50.616029" lon="4.148360"><time>2026-05-03T06:15:18Z</time></trkpt>
<trkpt lat="50.615299" lon="4.146772"><time>2026-05-03T06:25:18Z</time></trkpt>
<trkpt lat="50.614559" lon="4.144472"><time>2026-05-03T06:35:18Z</time></trkpt>
<trkpt lat="50.612696" lon="4.141073"><time>2026-05-03T06:45:18Z</time></trkpt>
</trkseg>
</trk>
<trk>
<name>hbcbc145</name>
<cmt>q</cmt>
<desc>Braine-le-Comte Sentier n°145 </desc>
<link href="https://chemins.be/brainelecomte/sentier/145"/><trkseg>
<trkpt lat="50.621543" lon="4.141907"><time>2026-05-03T03:35:18Z</time></trkpt>
<trkpt lat="50.621454" lon="4.142487"><time>2026-05-03T03:45:18Z</time></trkpt>
<trkpt lat="50.622610" lon="4.144954"><time>2026-05-03T03:55:18Z</time></trkpt>
<trkpt lat="50.623357" lon="4.145177"><time>2026-05-03T04:05:18Z</time></trkpt>
<trkpt lat="50.623609" lon="4.145345"><time>2026-05-03T04:15:18Z</time></trkpt>
<trkpt lat="50.625373" lon="4.146538"><time>2026-05-03T04:25:18Z</time></trkpt>
<trkpt lat="50.625851" lon="4.147313"><time>2026-05-03T04:35:18Z</time></trkpt>
<trkpt lat="50.626348" lon="4.148710"><time>2026-05-03T04:45:18Z</time></trkpt>
<trkpt lat="50.627094" lon="4.148834"><time>2026-05-03T04:55:18Z</time></trkpt>
</trkseg>
</trk>
<trk>
<name>hbcbc146</name>
<cmt>q</cmt>
<desc>Braine-le-Comte Sentier n°146 </desc>
<link href="https://chemins.be/brainelecomte/sentier/146"/><trkseg>
<trkpt lat="50.623669" lon="4.156969"><time>2026-05-03T03:35:18Z</time></trkpt>
<trkpt lat="50.625357" lon="4.158840"><time>2026-05-03T03:45:18Z</time></trkpt>
</trkseg>
</trk>
<trk>
<name>hbcbc147</name>
<cmt>q</cmt>
<desc>Braine-le-Comte Sentier n°147 </desc>
<link href="https://chemins.be/brainelecomte/sentier/147"/><trkseg>
<trkpt lat="50.626158" lon="4.157999"><time>2026-05-03T03:35:18Z</time></trkpt>
<trkpt lat="50.624306" lon="4.159947"><time>2026-05-03T03:45:18Z</time></trkpt>
<trkpt lat="50.623778" lon="4.160548"><time>2026-05-03T03:55:18Z</time></trkpt>
</trkseg>
</trk>
<trk>
<name>hbcbc148</name>
<cmt>s</cmt>
<desc>Braine-le-Comte Sentier n°148 </desc>
<link href="https://chemins.be/brainelecomte/sentier/148"/><trkseg>
<trkpt lat="50.619383" lon="4.151110"><time>2026-05-03T03:35:18Z</time></trkpt>
<trkpt lat="50.619097" lon="4.150604"><time>2026-05-03T03:45:18Z</time></trkpt>
<trkpt lat="50.618054" lon="4.149462"><time>2026-05-03T03:55:18Z</time></trkpt>
<trkpt lat="50.617322" lon="4.149162"><time>2026-05-03T04:05:18Z</time></trkpt>
</trkseg>
</trk>
<trk>
<name>hbcbc149</name>
<cmt>q</cmt>
<desc>Braine-le-Comte Sentier n°149 </desc>
<link href="https://chemins.be/brainelecomte/sentier/149"/><trkseg>
<trkpt lat="50.618098" lon="4.154210"><time>2026-05-03T03:35:18Z</time></trkpt>
<trkpt lat="50.617758" lon="4.154845"><time>2026-05-03T03:45:18Z</time></trkpt>
<trkpt lat="50.617026" lon="4.155149"><time>2026-05-03T03:55:18Z</time></trkpt>
<trkpt lat="50.615076" lon="4.157046"><time>2026-05-03T04:05:18Z</time></trkpt>
</trkseg>
</trk>
<trk>
<name>hbcbc150</name>
<cmt>v</cmt>
<desc>Braine-le-Comte Sentier n°150 </desc>
<link href="https://chemins.be/brainelecomte/sentier/150"/><trkseg>
<trkpt lat="50.617311" lon="4.176442"><time>2026-05-03T03:35:18Z</time></trkpt>
<trkpt lat="50.617384" lon="4.174108"><time>2026-05-03T03:45:18Z</time></trkpt>
</trkseg></trk>
<trk>
<name>hbcbc150</name>
<cmt>d</cmt>
<desc>Braine-le-Comte Sentier n°150 </desc>
<link href="https://chemins.be/brainelecomte/sentier/150"/><trkseg>
<trkpt lat="50.617384" lon="4.174108"><time>2026-05-03T03:45:18Z</time></trkpt>
<trkpt lat="50.617396" lon="4.172487"><time>2026-05-03T03:55:18Z</time></trkpt>
<trkpt lat="50.616347" lon="4.170642"><time>2026-05-03T04:05:18Z</time></trkpt>
<trkpt lat="50.616166" lon="4.169711"><time>2026-05-03T04:15:18Z</time></trkpt>
<trkpt lat="50.615571" lon="4.166672"><time>2026-05-03T04:25:18Z</time></trkpt>
<trkpt lat="50.614781" lon="4.166071"><time>2026-05-03T04:35:18Z</time></trkpt>
</trkseg></trk>
<trk>
<name>hbcbc150</name>
<cmt>v</cmt>
<desc>Braine-le-Comte Sentier n°150 </desc>
<link href="https://chemins.be/brainelecomte/sentier/150"/><trkseg>
<trkpt lat="50.614781" lon="4.166071"><time>2026-05-03T04:35:18Z</time></trkpt>
<trkpt lat="50.614562" lon="4.164550"><time>2026-05-03T04:45:18Z</time></trkpt>
<trkpt lat="50.614142" lon="4.161630"><time>2026-05-03T04:55:18Z</time></trkpt>
</trkseg></trk>
<trk>
<name>hbcbc150</name>
<cmt>d</cmt>
<desc>Braine-le-Comte Sentier n°150 </desc>
<link href="https://chemins.be/brainelecomte/sentier/150"/><trkseg>
<trkpt lat="50.614142" lon="4.161630"><time>2026-05-03T04:55:18Z</time></trkpt>
<trkpt lat="50.614195" lon="4.156815"><time>2026-05-03T05:05:18Z</time></trkpt>
<trkpt lat="50.612964" lon="4.148987"><time>2026-05-03T05:15:18Z</time></trkpt>
<trkpt lat="50.612441" lon="4.148094"><time>2026-05-03T05:25:18Z</time></trkpt>
</trkseg>
</trk>
<trk>
<name>hbcbc151</name>
<cmt>r</cmt>
<desc>Braine-le-Comte Sentier n°151 Rue de Ronquière / Sentier de Ronquières / Avenue de la Houssière</desc>
<link href="https://chemins.be/brainelecomte/sentier/151"/><trkseg>
<trkpt lat="50.609631" lon="4.144312"><time>2026-05-03T03:35:18Z</time></trkpt>
<trkpt lat="50.609774" lon="4.146805"><time>2026-05-03T03:45:18Z</time></trkpt>
<trkpt lat="50.609615" lon="4.148665"><time>2026-05-03T03:55:18Z</time></trkpt>
</trkseg></trk>
<trk>
<name>hbcbc151</name>
<cmt>v</cmt>
<desc>Braine-le-Comte Sentier n°151 Rue de Ronquière / Sentier de Ronquières / Avenue de la Houssière</desc>
<link href="https://chemins.be/brainelecomte/sentier/151"/><trkseg>
<trkpt lat="50.609615" lon="4.148665"><time>2026-05-03T03:55:18Z</time></trkpt>
<trkpt lat="50.609441" lon="4.150371"><time>2026-05-03T04:05:18Z</time></trkpt>
<trkpt lat="50.609508" lon="4.152730"><time>2026-05-03T04:15:18Z</time></trkpt>
<trkpt lat="50.609710" lon="4.154806"><time>2026-05-03T04:25:18Z</time></trkpt>
<trkpt lat="50.609800" lon="4.154919"><time>2026-05-03T04:35:18Z</time></trkpt>
<trkpt lat="50.610028" lon="4.156966"><time>2026-05-03T04:45:18Z</time></trkpt>
<trkpt lat="50.610523" lon="4.157247"><time>2026-05-03T04:55:18Z</time></trkpt>
</trkseg></trk>
<trk>
<name>hbcbc151</name>
<cmt>r</cmt>
<desc>Braine-le-Comte Sentier n°151 Rue de Ronquière / Sentier de Ronquières / Avenue de la Houssière</desc>
<link href="https://chemins.be/brainelecomte/sentier/151"/><trkseg>
<trkpt lat="50.610523" lon="4.157247"><time>2026-05-03T04:55:18Z</time></trkpt>
<trkpt lat="50.609766" lon="4.160437"><time>2026-05-03T05:05:18Z</time></trkpt>
<trkpt lat="50.610436" lon="4.164014"><time>2026-05-03T05:15:18Z</time></trkpt>
<trkpt lat="50.610548" lon="4.166034"><time>2026-05-03T05:25:18Z</time></trkpt>
<trkpt lat="50.609742" lon="4.166636"><time>2026-05-03T05:35:18Z</time></trkpt>
</trkseg></trk>
<trk>
<name>hbcbc151</name>
<cmt>q</cmt>
<desc>Braine-le-Comte Sentier n°151 Rue de Ronquière / Sentier de Ronquières / Avenue de la Houssière</desc>
<link href="https://chemins.be/brainelecomte/sentier/151"/><trkseg>
<trkpt lat="50.609742" lon="4.166636"><time>2026-05-03T05:35:18Z</time></trkpt>
<trkpt lat="50.610121" lon="4.168777"><time>2026-05-03T05:45:18Z</time></trkpt>
</trkseg></trk>
<trk>
<name>hbcbc151</name>
<cmt>v</cmt>
<desc>Braine-le-Comte Sentier n°151 Rue de Ronquière / Sentier de Ronquières / Avenue de la Houssière</desc>
<link href="https://chemins.be/brainelecomte/sentier/151"/><trkseg>
<trkpt lat="50.610121" lon="4.168777"><time>2026-05-03T05:45:18Z</time></trkpt>
<trkpt lat="50.610079" lon="4.170699"><time>2026-05-03T05:55:18Z</time></trkpt>
<trkpt lat="50.609817" lon="4.174882"><time>2026-05-03T06:05:18Z</time></trkpt>
</trkseg>
</trk>
<trk>
<name>hbcbc152</name>
<cmt>r</cmt>
<desc>Braine-le-Comte Sentier n°152 Sentier de Ronquières</desc>
<link href="https://chemins.be/brainelecomte/sentier/152"/><trkseg>
<trkpt lat="50.610550" lon="4.166099"><time>2026-05-03T03:35:18Z</time></trkpt>
<trkpt lat="50.610699" lon="4.167143"><time>2026-05-03T03:45:18Z</time></trkpt>
</trkseg></trk>
<trk>
<name>hbcbc152</name>
<cmt>v</cmt>
<desc>Braine-le-Comte Sentier n°152 Sentier de Ronquières</desc>
<link href="https://chemins.be/brainelecomte/sentier/152"/><trkseg>
<trkpt lat="50.610699" lon="4.167143"><time>2026-05-03T03:45:18Z</time></trkpt>
<trkpt lat="50.610597" lon="4.168120"><time>2026-05-03T03:55:18Z</time></trkpt>
<trkpt lat="50.610134" lon="4.168788"><time>2026-05-03T04:05:18Z</time></trkpt>
<trkpt lat="50.609869" lon="4.168863"><time>2026-05-03T04:15:18Z</time></trkpt>
<trkpt lat="50.609555" lon="4.168864"><time>2026-05-03T04:25:18Z</time></trkpt>
<trkpt lat="50.609590" lon="4.168497"><time>2026-05-03T04:35:18Z</time></trkpt>
<trkpt lat="50.609041" lon="4.168400"><time>2026-05-03T04:45:18Z</time></trkpt>
</trkseg>
</trk>
<trk>
<name>hbcbc153</name>
<cmt>d</cmt>
<desc>Braine-le-Comte Sentier n°153 </desc>
<link href="https://chemins.be/brainelecomte/sentier/153"/><trkseg>
<trkpt lat="50.612522" lon="4.165368"><time>2026-05-03T03:35:18Z</time></trkpt>
<trkpt lat="50.614558" lon="4.164550"><time>2026-05-03T03:45:18Z</time></trkpt>
<trkpt lat="50.614842" lon="4.164406"><time>2026-05-03T03:55:18Z</time></trkpt>
<trkpt lat="50.614776" lon="4.163814"><time>2026-05-03T04:05:18Z</time></trkpt>
<trkpt lat="50.615588" lon="4.163488"><time>2026-05-03T04:15:18Z</time></trkpt>
<trkpt lat="50.616388" lon="4.163677"><time>2026-05-03T04:25:18Z</time></trkpt>
<trkpt lat="50.617369" lon="4.163419"><time>2026-05-03T04:35:18Z</time></trkpt>
<trkpt lat="50.619090" lon="4.162200"><time>2026-05-03T04:45:18Z</time></trkpt>
</trkseg>
</trk>
<trk>
<name>hbcbc154</name>
<cmt>d</cmt>
<desc>Braine-le-Comte Sentier n°154 Chemin du Pont Renier / Rue du Pire</desc>
<link href="https://chemins.be/brainelecomte/sentier/154"/><trkseg>
<trkpt lat="50.609799" lon="4.173861"><time>2026-05-03T03:35:18Z</time></trkpt>
<trkpt lat="50.611225" lon="4.173272"><time>2026-05-03T03:45:18Z</time></trkpt>
<trkpt lat="50.613312" lon="4.170384"><time>2026-05-03T03:55:18Z</time></trkpt>
</trkseg></trk>
<trk>
<name>hbcbc154</name>
<cmt>v</cmt>
<desc>Braine-le-Comte Sentier n°154 Chemin du Pont Renier / Rue du Pire</desc>
<link href="https://chemins.be/brainelecomte/sentier/154"/><trkseg>
<trkpt lat="50.613312" lon="4.170384"><time>2026-05-03T03:55:18Z</time></trkpt>
<trkpt lat="50.614349" lon="4.170223"><time>2026-05-03T04:05:18Z</time></trkpt>
<trkpt lat="50.616194" lon="4.169671"><time>2026-05-03T04:15:18Z</time></trkpt>
</trkseg></trk>
<trk>
<name>hbcbc154</name>
<cmt>d</cmt>
<desc>Braine-le-Comte Sentier n°154 Chemin du Pont Renier / Rue du Pire</desc>
<link href="https://chemins.be/brainelecomte/sentier/154"/><trkseg>
<trkpt lat="50.616194" lon="4.169671"><time>2026-05-03T04:15:18Z</time></trkpt>
<trkpt lat="50.617042" lon="4.168981"><time>2026-05-03T04:25:18Z</time></trkpt>
<trkpt lat="50.618818" lon="4.168869"><time>2026-05-03T04:35:18Z</time></trkpt>
<trkpt lat="50.619373" lon="4.168432"><time>2026-05-03T04:45:18Z</time></trkpt>
<trkpt lat="50.619536" lon="4.168040"><time>2026-05-03T04:55:18Z</time></trkpt>
</trkseg></trk>
<trk>
<name>hbcbc154</name>
<cmt>v</cmt>
<desc>Braine-le-Comte Sentier n°154 Chemin du Pont Renier / Rue du Pire</desc>
<link href="https://chemins.be/brainelecomte/sentier/154"/><trkseg>
<trkpt lat="50.619536" lon="4.168040"><time>2026-05-03T04:55:18Z</time></trkpt>
<trkpt lat="50.619522" lon="4.167171"><time>2026-05-03T05:05:18Z</time></trkpt>
</trkseg></trk>
<trk>
<name>hbcbc154</name>
<cmt>d</cmt>
<desc>Braine-le-Comte Sentier n°154 Chemin du Pont Renier / Rue du Pire</desc>
<link href="https://chemins.be/brainelecomte/sentier/154"/><trkseg>
<trkpt lat="50.619522" lon="4.167171"><time>2026-05-03T05:05:18Z</time></trkpt>
<trkpt lat="50.620780" lon="4.166711"><time>2026-05-03T05:15:18Z</time></trkpt>
<trkpt lat="50.621337" lon="4.166935"><time>2026-05-03T05:25:18Z</time></trkpt>
<trkpt lat="50.623099" lon="4.166899"><time>2026-05-03T05:35:18Z</time></trkpt>
<trkpt lat="50.623926" lon="4.166712"><time>2026-05-03T05:45:18Z</time></trkpt>
</trkseg></trk>
<trk>
<name>hbcbc154</name>
<cmt>r</cmt>
<desc>Braine-le-Comte Sentier n°154 Chemin du Pont Renier / Rue du Pire</desc>
<link href="https://chemins.be/brainelecomte/sentier/154"/><trkseg>
<trkpt lat="50.623926" lon="4.166712"><time>2026-05-03T05:45:18Z</time></trkpt>
<trkpt lat="50.624593" lon="4.167416"><time>2026-05-03T05:55:18Z</time></trkpt>
</trkseg></trk>
<trk>
<name>hbcbc154</name>
<cmt>q</cmt>
<desc>Braine-le-Comte Sentier n°154 Chemin du Pont Renier / Rue du Pire</desc>
<link href="https://chemins.be/brainelecomte/sentier/154"/><trkseg>
<trkpt lat="50.624593" lon="4.167416"><time>2026-05-03T05:55:18Z</time></trkpt>
<trkpt lat="50.625015" lon="4.167386"><time>2026-05-03T06:05:18Z</time></trkpt>
</trkseg>
</trk>
<trk>
<name>hbcbc155</name>
<cmt>s</cmt>
<desc>Braine-le-Comte Sentier n°155 </desc>
<link href="https://chemins.be/brainelecomte/sentier/155"/><trkseg>
<trkpt lat="50.608273" lon="4.163233"><time>2026-05-03T03:35:18Z</time></trkpt>
<trkpt lat="50.610375" lon="4.166172"><time>2026-05-03T03:45:18Z</time></trkpt>
</trkseg>
</trk>
<trk>
<name>hbcbc156</name>
<cmt>d</cmt>
<desc>Braine-le-Comte Sentier n°156 </desc>
<link href="https://chemins.be/brainelecomte/sentier/156"/><trkseg>
<trkpt lat="50.610063" lon="4.170685"><time>2026-05-03T03:35:18Z</time></trkpt>
<trkpt lat="50.611216" lon="4.173251"><time>2026-05-03T03:45:18Z</time></trkpt>
<trkpt lat="50.612015" lon="4.172164"><time>2026-05-03T03:55:18Z</time></trkpt>
<trkpt lat="50.612600" lon="4.172843"><time>2026-05-03T04:05:18Z</time></trkpt>
<trkpt lat="50.612881" lon="4.172822"><time>2026-05-03T04:15:18Z</time></trkpt>
<trkpt lat="50.614520" lon="4.173644"><time>2026-05-03T04:25:18Z</time></trkpt>
</trkseg>
</trk>
<trk>
<name>hbcbc157</name>
<cmt>r</cmt>
<desc>Braine-le-Comte Sentier n°157 Drève des Chasseurs / Sentier del Tienne à l'Houche</desc>
<link href="https://chemins.be/brainelecomte/sentier/157"/><trkseg>
<trkpt lat="50.609195" lon="4.174362"><time>2026-05-03T03:35:18Z</time></trkpt>
<trkpt lat="50.609800" lon="4.174932"><time>2026-05-03T03:45:18Z</time></trkpt>
</trkseg></trk>
<trk>
<name>hbcbc157</name>
<cmt>d</cmt>
<desc>Braine-le-Comte Sentier n°157 Drève des Chasseurs / Sentier del Tienne à l'Houche</desc>
<link href="https://chemins.be/brainelecomte/sentier/157"/><trkseg>
<trkpt lat="50.609800" lon="4.174932"><time>2026-05-03T03:45:18Z</time></trkpt>
<trkpt lat="50.610499" lon="4.175046"><time>2026-05-03T03:55:18Z</time></trkpt>
<trkpt lat="50.611157" lon="4.175425"><time>2026-05-03T04:05:18Z</time></trkpt>
<trkpt lat="50.611501" lon="4.176726"><time>2026-05-03T04:15:18Z</time></trkpt>
</trkseg></trk>
<trk>
<name>hbcbc157</name>
<cmt>v</cmt>
<desc>Braine-le-Comte Sentier n°157 Drève des Chasseurs / Sentier del Tienne à l'Houche</desc>
<link href="https://chemins.be/brainelecomte/sentier/157"/><trkseg>
<trkpt lat="50.611501" lon="4.176726"><time>2026-05-03T04:15:18Z</time></trkpt>
<trkpt lat="50.613045" lon="4.180916"><time>2026-05-03T04:25:18Z</time></trkpt>
<trkpt lat="50.613306" lon="4.181282"><time>2026-05-03T04:35:18Z</time></trkpt>
</trkseg></trk>
<trk>
<name>hbcbc157</name>
<cmt>q</cmt>
<desc>Braine-le-Comte Sentier n°157 Drève des Chasseurs / Sentier del Tienne à l'Houche</desc>
<link href="https://chemins.be/brainelecomte/sentier/157"/><trkseg>
<trkpt lat="50.613306" lon="4.181282"><time>2026-05-03T04:35:18Z</time></trkpt>
<trkpt lat="50.615058" lon="4.186546"><time>2026-05-03T04:45:18Z</time></trkpt>
</trkseg></trk>
<trk>
<name>hbcbc157</name>
<cmt>v</cmt>
<desc>Braine-le-Comte Sentier n°157 Drève des Chasseurs / Sentier del Tienne à l'Houche</desc>
<link href="https://chemins.be/brainelecomte/sentier/157"/><trkseg>
<trkpt lat="50.615058" lon="4.186546"><time>2026-05-03T04:45:18Z</time></trkpt>
<trkpt lat="50.617306" lon="4.192684"><time>2026-05-03T04:55:18Z</time></trkpt>
<trkpt lat="50.617938" lon="4.194405"><time>2026-05-03T05:05:18Z</time></trkpt>
<trkpt lat="50.618570" lon="4.196113"><time>2026-05-03T05:15:18Z</time></trkpt>
</trkseg>
</trk>
<trk>
<name>hbcbc158</name>
<cmt>q</cmt>
<desc>Braine-le-Comte Sentier n°158 Avenue du Marouset</desc>
<link href="https://chemins.be/brainelecomte/sentier/158"/><trkseg>
<trkpt lat="50.609017" lon="4.174476"><time>2026-05-03T03:35:18Z</time></trkpt>
<trkpt lat="50.607732" lon="4.174783"><time>2026-05-03T03:45:18Z</time></trkpt>
<trkpt lat="50.606928" lon="4.175433"><time>2026-05-03T03:55:18Z</time></trkpt>
<trkpt lat="50.605413" lon="4.177547"><time>2026-05-03T04:05:18Z</time></trkpt>
</trkseg>
</trk>
<trk>
<name>hbcbc159</name>
<cmt>v</cmt>
<desc>Braine-le-Comte Sentier n°159 Rue Maurice Brancart / Sentier de Virginal</desc>
<link href="https://chemins.be/brainelecomte/sentier/159"/><trkseg>
<trkpt lat="50.633798" lon="4.198511"><time>2026-05-03T03:35:18Z</time></trkpt>
<trkpt lat="50.632464" lon="4.196209"><time>2026-05-03T03:45:18Z</time></trkpt>
<trkpt lat="50.629857" lon="4.193075"><time>2026-05-03T03:55:18Z</time></trkpt>
<trkpt lat="50.624931" lon="4.187243"><time>2026-05-03T04:05:18Z</time></trkpt>
<trkpt lat="50.621823" lon="4.183326"><time>2026-05-03T04:15:18Z</time></trkpt>
</trkseg>
</trk>
<trk>
<name>hbcbc160</name>
<cmt>q</cmt>
<desc>Braine-le-Comte Sentier n°160 </desc>
<link href="https://chemins.be/brainelecomte/sentier/160"/><trkseg>
<trkpt lat="50.623140" lon="4.174940"><time>2026-05-03T03:35:18Z</time></trkpt>
<trkpt lat="50.624804" lon="4.175527"><time>2026-05-03T03:45:18Z</time></trkpt>
</trkseg>
</trk>
<trk>
<name>hbcbc161</name>
<cmt>v</cmt>
<desc>Braine-le-Comte Sentier n°161 Ruelle à Coquelets</desc>
<link href="https://chemins.be/brainelecomte/sentier/161"/><trkseg>
<trkpt lat="50.609158" lon="4.134521"><time>2026-05-03T03:35:18Z</time></trkpt>
<trkpt lat="50.609337" lon="4.134152"><time>2026-05-03T03:45:18Z</time></trkpt>
<trkpt lat="50.609210" lon="4.133517"><time>2026-05-03T03:55:18Z</time></trkpt>
<trkpt lat="50.609246" lon="4.133305"><time>2026-05-03T04:05:18Z</time></trkpt>
<trkpt lat="50.609165" lon="4.133164"><time>2026-05-03T04:15:18Z</time></trkpt>
<trkpt lat="50.609128" lon="4.132769"><time>2026-05-03T04:25:18Z</time></trkpt>
<trkpt lat="50.609402" lon="4.132020"><time>2026-05-03T04:35:18Z</time></trkpt>
<trkpt lat="50.608735" lon="4.131297"><time>2026-05-03T04:45:18Z</time></trkpt>
</trkseg></trk>
<trk>
<name>hbcbc161</name>
<cmt>s</cmt>
<desc>Braine-le-Comte Sentier n°161 Ruelle à Coquelets</desc>
<link href="https://chemins.be/brainelecomte/sentier/161"/><trkseg>
<trkpt lat="50.608735" lon="4.131297"><time>2026-05-03T04:45:18Z</time></trkpt>
<trkpt lat="50.608314" lon="4.129317"><time>2026-05-03T04:55:18Z</time></trkpt>
</trkseg>
</trk>
<trk>
<name>hbcbc163</name>
<cmt>v</cmt>
<desc>Braine-le-Comte Sentier n°163 Ruelle Larcée</desc>
<link href="https://chemins.be/brainelecomte/sentier/163"/><trkseg>
<trkpt lat="50.610036" lon="4.137257"><time>2026-05-03T03:35:18Z</time></trkpt>
<trkpt lat="50.609910" lon="4.137357"><time>2026-05-03T03:45:18Z</time></trkpt>
<trkpt lat="50.609776" lon="4.137456"><time>2026-05-03T03:55:18Z</time></trkpt>
<trkpt lat="50.609686" lon="4.137541"><time>2026-05-03T04:05:18Z</time></trkpt>
<trkpt lat="50.609984" lon="4.138444"><time>2026-05-03T04:15:18Z</time></trkpt>
<trkpt lat="50.610175" lon="4.139461"><time>2026-05-03T04:25:18Z</time></trkpt>
<trkpt lat="50.610067" lon="4.139532"><time>2026-05-03T04:35:18Z</time></trkpt>
</trkseg>
</trk>
<trk>
<name>hbcbc164</name>
<cmt>s</cmt>
<desc>Braine-le-Comte Sentier n°164 </desc>
<link href="https://chemins.be/brainelecomte/sentier/164"/><trkseg>
<trkpt lat="50.610098" lon="4.139099"><time>2026-05-03T03:35:19Z</time></trkpt>
<trkpt lat="50.609324" lon="4.138218"><time>2026-05-03T03:45:19Z</time></trkpt>
</trkseg></trk>
<trk>
<name>hbcbc164</name>
<cmt>r</cmt>
<desc>Braine-le-Comte Sentier n°164 </desc>
<link href="https://chemins.be/brainelecomte/sentier/164"/><trkseg>
<trkpt lat="50.609324" lon="4.138218"><time>2026-05-03T03:45:19Z</time></trkpt>
<trkpt lat="50.608416" lon="4.136579"><time>2026-05-03T03:55:19Z</time></trkpt>
</trkseg>
</trk>
<trk>
<name>hbcbc167</name>
<cmt>r</cmt>
<desc>Braine-le-Comte Sentier n°167 Rue des Bas-Fossés</desc>
<link href="https://chemins.be/brainelecomte/sentier/167"/><trkseg>
<trkpt lat="50.612919" lon="4.135546"><time>2026-05-03T03:35:19Z</time></trkpt>
<trkpt lat="50.611138" lon="4.134447"><time>2026-05-03T03:45:19Z</time></trkpt>
<trkpt lat="50.609864" lon="4.133889"><time>2026-05-03T03:55:19Z</time></trkpt>
</trkseg>
</trk>
<trk>
<name>hbcbc169</name>
<cmt>q</cmt>
<desc>Braine-le-Comte Sentier n°169 </desc>
<link href="https://chemins.be/brainelecomte/sentier/169"/><trkseg>
<trkpt lat="50.608731" lon="4.141036"><time>2026-05-03T03:35:19Z</time></trkpt>
<trkpt lat="50.608486" lon="4.140218"><time>2026-05-03T03:45:19Z</time></trkpt>
<trkpt lat="50.608492" lon="4.138734"><time>2026-05-03T03:55:19Z</time></trkpt>
<trkpt lat="50.608391" lon="4.137505"><time>2026-05-03T04:05:19Z</time></trkpt>
</trkseg>
</trk>
<trk>
<name>hbcbc170</name>
<cmt>s</cmt>
<desc>Braine-le-Comte Sentier n°170 </desc>
<link href="https://chemins.be/brainelecomte/sentier/170"/><trkseg>
<trkpt lat="50.610049" lon="4.139560"><time>2026-05-03T03:35:19Z</time></trkpt>
<trkpt lat="50.609159" lon="4.139607"><time>2026-05-03T03:45:19Z</time></trkpt>
<trkpt lat="50.608271" lon="4.140332"><time>2026-05-03T03:55:19Z</time></trkpt>
<trkpt lat="50.607922" lon="4.141011"><time>2026-05-03T04:05:19Z</time></trkpt>
</trkseg>
</trk>
<trk>
<name>hbcbc171</name>
<cmt>q</cmt>
<desc>Braine-le-Comte Sentier n°171 </desc>
<link href="https://chemins.be/brainelecomte/sentier/171"/><trkseg>
<trkpt lat="50.607886" lon="4.142515"><time>2026-05-03T03:35:19Z</time></trkpt>
<trkpt lat="50.607107" lon="4.141940"><time>2026-05-03T03:45:19Z</time></trkpt>
<trkpt lat="50.606405" lon="4.141228"><time>2026-05-03T03:55:19Z</time></trkpt>
</trkseg>
</trk>
<trk>
<name>hbcbc172</name>
<cmt>v</cmt>
<desc>Braine-le-Comte Sentier n°172 Sentier de la Fontaine Saint-Nicolas / Sentier de la fontaine Saint Nicolas</desc>
<link href="https://chemins.be/brainelecomte/sentier/172"/><trkseg>
<trkpt lat="50.599348" lon="4.177679"><time>2026-05-03T03:35:19Z</time></trkpt>
<trkpt lat="50.599595" lon="4.175220"><time>2026-05-03T03:45:19Z</time></trkpt>
<trkpt lat="50.599555" lon="4.172692"><time>2026-05-03T03:55:19Z</time></trkpt>
<trkpt lat="50.599689" lon="4.171914"><time>2026-05-03T04:05:19Z</time></trkpt>
<trkpt lat="50.599840" lon="4.171264"><time>2026-05-03T04:15:19Z</time></trkpt>
</trkseg></trk>
<trk>
<name>hbcbc172</name>
<cmt>q</cmt>
<desc>Braine-le-Comte Sentier n°172 Sentier de la Fontaine Saint-Nicolas / Sentier de la fontaine Saint Nicolas</desc>
<link href="https://chemins.be/brainelecomte/sentier/172"/><trkseg>
<trkpt lat="50.599840" lon="4.171264"><time>2026-05-03T04:15:19Z</time></trkpt>
<trkpt lat="50.599819" lon="4.169174"><time>2026-05-03T04:25:19Z</time></trkpt>
</trkseg></trk>
<trk>
<name>hbcbc172</name>
<cmt>v</cmt>
<desc>Braine-le-Comte Sentier n°172 Sentier de la Fontaine Saint-Nicolas / Sentier de la fontaine Saint Nicolas</desc>
<link href="https://chemins.be/brainelecomte/sentier/172"/><trkseg>
<trkpt lat="50.599819" lon="4.169174"><time>2026-05-03T04:25:19Z</time></trkpt>
<trkpt lat="50.599647" lon="4.168383"><time>2026-05-03T04:35:19Z</time></trkpt>
<trkpt lat="50.599968" lon="4.166687"><time>2026-05-03T04:45:19Z</time></trkpt>
<trkpt lat="50.600111" lon="4.166319"><time>2026-05-03T04:55:19Z</time></trkpt>
</trkseg>
</trk>
<trk>
<name>hbcbc173</name>
<cmt>q</cmt>
<desc>Braine-le-Comte Sentier n°173 </desc>
<link href="https://chemins.be/brainelecomte/sentier/173"/><trkseg>
<trkpt lat="50.574446" lon="4.102396"><time>2026-05-03T03:35:19Z</time></trkpt>
<trkpt lat="50.573776" lon="4.103400"><time>2026-05-03T03:45:19Z</time></trkpt>
<trkpt lat="50.571289" lon="4.104440"><time>2026-05-03T03:55:19Z</time></trkpt>
<trkpt lat="50.570483" lon="4.105225"><time>2026-05-03T04:05:19Z</time></trkpt>
<trkpt lat="50.569606" lon="4.105014"><time>2026-05-03T04:15:19Z</time></trkpt>
</trkseg>
</trk>
<trk>
<name>hbcbc174</name>
<cmt>v</cmt>
<desc>Braine-le-Comte Sentier n°174 Sentier de la Maison des Gardes</desc>
<link href="https://chemins.be/brainelecomte/sentier/174"/><trkseg>
<trkpt lat="50.599240" lon="4.177722"><time>2026-05-03T03:35:19Z</time></trkpt>
<trkpt lat="50.603461" lon="4.180827"><time>2026-05-03T03:45:19Z</time></trkpt>
<trkpt lat="50.606126" lon="4.182850"><time>2026-05-03T03:55:19Z</time></trkpt>
<trkpt lat="50.609330" lon="4.185310"><time>2026-05-03T04:05:19Z</time></trkpt>
<trkpt lat="50.614055" lon="4.188768"><time>2026-05-03T04:15:19Z</time></trkpt>
</trkseg></trk>
<trk>
<name>hbcbc174</name>
<cmt>q</cmt>
<desc>Braine-le-Comte Sentier n°174 Sentier de la Maison des Gardes</desc>
<link href="https://chemins.be/brainelecomte/sentier/174"/><trkseg>
<trkpt lat="50.614055" lon="4.188768"><time>2026-05-03T04:15:19Z</time></trkpt>
<trkpt lat="50.620095" lon="4.193507"><time>2026-05-03T04:25:19Z</time></trkpt>
</trkseg></trk>
<trk>
<name>hbcbc174</name>
<cmt>v</cmt>
<desc>Braine-le-Comte Sentier n°174 Sentier de la Maison des Gardes</desc>
<link href="https://chemins.be/brainelecomte/sentier/174"/><trkseg>
<trkpt lat="50.620095" lon="4.193507"><time>2026-05-03T04:25:19Z</time></trkpt>
<trkpt lat="50.623098" lon="4.193934"><time>2026-05-03T04:35:19Z</time></trkpt>
<trkpt lat="50.626839" lon="4.194528"><time>2026-05-03T04:45:19Z</time></trkpt>
<trkpt lat="50.631532" lon="4.195232"><time>2026-05-03T04:55:19Z</time></trkpt>
</trkseg>
</trk>
<trk>
<name>hbcbc174bis</name>
<cmt>d</cmt>
<desc>Braine-le-Comte Sentier n°174bis </desc>
<link href="https://chemins.be/brainelecomte/sentier/174bis"/><trkseg>
<trkpt lat="50.616793" lon="4.192163"><time>2026-05-03T03:35:19Z</time></trkpt>
<trkpt lat="50.616435" lon="4.193068"><time>2026-05-03T03:45:19Z</time></trkpt>
<trkpt lat="50.616139" lon="4.193790"><time>2026-05-03T03:55:19Z</time></trkpt>
</trkseg>
</trk>
<trk>
<name>hbcbc175</name>
<cmt>v</cmt>
<desc>Braine-le-Comte Sentier n°175 Sentier d'Henripont</desc>
<link href="https://chemins.be/brainelecomte/sentier/175"/><trkseg>
<trkpt lat="50.601767" lon="4.183800"><time>2026-05-03T03:35:19Z</time></trkpt>
<trkpt lat="50.602540" lon="4.183514"><time>2026-05-03T03:45:19Z</time></trkpt>
<trkpt lat="50.603546" lon="4.183411"><time>2026-05-03T03:55:19Z</time></trkpt>
<trkpt lat="50.603942" lon="4.183240"><time>2026-05-03T04:05:19Z</time></trkpt>
<trkpt lat="50.603924" lon="4.183255"><time>2026-05-03T04:15:19Z</time></trkpt>
<trkpt lat="50.604337" lon="4.183126"><time>2026-05-03T04:25:19Z</time></trkpt>
<trkpt lat="50.604652" lon="4.183139"><time>2026-05-03T04:35:19Z</time></trkpt>
<trkpt lat="50.604804" lon="4.183096"><time>2026-05-03T04:45:19Z</time></trkpt>
<trkpt lat="50.605119" lon="4.183066"><time>2026-05-03T04:55:19Z</time></trkpt>
<trkpt lat="50.605460" lon="4.182952"><time>2026-05-03T05:05:19Z</time></trkpt>
<trkpt lat="50.606153" lon="4.182878"><time>2026-05-03T05:15:19Z</time></trkpt>
<trkpt lat="50.608462" lon="4.182333"><time>2026-05-03T05:25:19Z</time></trkpt>
</trkseg>
</trk>
<trk>
<name>hbcbc179</name>
<cmt>q</cmt>
<desc>Braine-le-Comte Sentier n°179 </desc>
<link href="https://chemins.be/brainelecomte/sentier/179"/><trkseg>
<trkpt lat="50.575400" lon="4.130452"><time>2026-05-03T03:35:19Z</time></trkpt>
<trkpt lat="50.574174" lon="4.133267"><time>2026-05-03T03:45:19Z</time></trkpt>
<trkpt lat="50.575498" lon="4.137739"><time>2026-05-03T03:55:19Z</time></trkpt>
</trkseg>
</trk>
<trk>
<name>hbcbc18</name>
<cmt>q</cmt>
<desc>Braine-le-Comte Sentier n°18 </desc>
<link href="https://chemins.be/brainelecomte/sentier/18"/><trkseg>
<trkpt lat="50.631607" lon="4.193516"><time>2026-05-03T03:35:19Z</time></trkpt>
<trkpt lat="50.631811" lon="4.198987"><time>2026-05-03T03:45:19Z</time></trkpt>
</trkseg>
</trk>
<trk>
<name>hbcbc180</name>
<cmt>q</cmt>
<desc>Braine-le-Comte Sentier n°180 </desc>
<link href="https://chemins.be/brainelecomte/sentier/180"/><trkseg>
<trkpt lat="50.599679" lon="4.077322"><time>2026-05-03T03:35:19Z</time></trkpt>
<trkpt lat="50.598660" lon="4.074971"><time>2026-05-03T03:45:19Z</time></trkpt>
</trkseg>
</trk>
<trk>
<name>hbcbc181</name>
<cmt>q</cmt>
<desc>Braine-le-Comte Sentier n°181 </desc>
<link href="https://chemins.be/brainelecomte/sentier/181"/><trkseg>
<trkpt lat="50.602259" lon="4.075473"><time>2026-05-03T03:35:19Z</time></trkpt>
<trkpt lat="50.602080" lon="4.074623"><time>2026-05-03T03:45:19Z</time></trkpt>
<trkpt lat="50.599917" lon="4.073112"><time>2026-05-03T03:55:19Z</time></trkpt>
</trkseg>
</trk>
<trk>
<name>hbcbc182</name>
<cmt>q</cmt>
<desc>Braine-le-Comte Sentier n°182 </desc>
<link href="https://chemins.be/brainelecomte/sentier/182"/><trkseg>
<trkpt lat="50.611843" lon="4.083747"><time>2026-05-03T03:35:19Z</time></trkpt>
<trkpt lat="50.612565" lon="4.083876"><time>2026-05-03T03:45:19Z</time></trkpt>
</trkseg>
</trk>
<trk>
<name>hbcbc183</name>
<cmt>q</cmt>
<desc>Braine-le-Comte Sentier n°183 </desc>
<link href="https://chemins.be/brainelecomte/sentier/183"/><trkseg>
<trkpt lat="50.612596" lon="4.090025"><time>2026-05-03T03:35:19Z</time></trkpt>
<trkpt lat="50.613195" lon="4.089221"><time>2026-05-03T03:45:19Z</time></trkpt>
<trkpt lat="50.615659" lon="4.089521"><time>2026-05-03T03:55:19Z</time></trkpt>
</trkseg>
</trk>
<trk>
<name>hbcbc184</name>
<cmt>q</cmt>
<desc>Braine-le-Comte Sentier n°184 </desc>
<link href="https://chemins.be/brainelecomte/sentier/184"/><trkseg>
<trkpt lat="50.630443" lon="4.192108"><time>2026-05-03T03:35:19Z</time></trkpt>
<trkpt lat="50.629648" lon="4.193413"><time>2026-05-03T03:45:19Z</time></trkpt>
<trkpt lat="50.627769" lon="4.196623"><time>2026-05-03T03:55:19Z</time></trkpt>
<trkpt lat="50.625610" lon="4.199713"><time>2026-05-03T04:05:19Z</time></trkpt>
</trkseg>
</trk>
<trk>
<name>hbcbc186</name>
<cmt>q</cmt>
<desc>Braine-le-Comte Sentier n°186 </desc>
<link href="https://chemins.be/brainelecomte/sentier/186"/><trkseg>
<trkpt lat="50.601504" lon="4.182374"><time>2026-05-03T03:35:19Z</time></trkpt>
<trkpt lat="50.601909" lon="4.182500"><time>2026-05-03T03:45:19Z</time></trkpt>
<trkpt lat="50.602143" lon="4.182880"><time>2026-05-03T03:55:19Z</time></trkpt>
</trkseg>
</trk>
<trk>
<name>hbcbc187</name>
<cmt>v</cmt>
<desc>Braine-le-Comte Sentier n°187 </desc>
<link href="https://chemins.be/brainelecomte/sentier/187"/><trkseg>
<trkpt lat="50.603573" lon="4.183440"><time>2026-05-03T03:35:19Z</time></trkpt>
<trkpt lat="50.603871" lon="4.183933"><time>2026-05-03T03:45:19Z</time></trkpt>
</trkseg>
</trk>
<trk>
<name>hbcbc188</name>
<cmt>v</cmt>
<desc>Braine-le-Comte Sentier n°188 Sentier de la Triherée</desc>
<link href="https://chemins.be/brainelecomte/sentier/188"/><trkseg>
<trkpt lat="50.593466" lon="4.165571"><time>2026-05-03T03:35:19Z</time></trkpt>
<trkpt lat="50.595453" lon="4.165760"><time>2026-05-03T03:45:19Z</time></trkpt>
<trkpt lat="50.596289" lon="4.165841"><time>2026-05-03T03:55:19Z</time></trkpt>
<trkpt lat="50.597071" lon="4.165866"><time>2026-05-03T04:05:19Z</time></trkpt>
<trkpt lat="50.597620" lon="4.166217"><time>2026-05-03T04:15:19Z</time></trkpt>
<trkpt lat="50.598826" lon="4.166664"><time>2026-05-03T04:25:19Z</time></trkpt>
<trkpt lat="50.599203" lon="4.166521"><time>2026-05-03T04:35:19Z</time></trkpt>
<trkpt lat="50.600002" lon="4.166037"><time>2026-05-03T04:45:19Z</time></trkpt>
</trkseg>
</trk>
<trk>
<name>hbcbc189</name>
<cmt>q</cmt>
<desc>Braine-le-Comte Sentier n°189 </desc>
<link href="https://chemins.be/brainelecomte/sentier/189"/><trkseg>
<trkpt lat="50.589098" lon="4.156001"><time>2026-05-03T03:35:19Z</time></trkpt>
<trkpt lat="50.588183" lon="4.154941"><time>2026-05-03T03:45:19Z</time></trkpt>
<trkpt lat="50.587501" lon="4.154066"><time>2026-05-03T03:55:19Z</time></trkpt>
<trkpt lat="50.586574" lon="4.152017"><time>2026-05-03T04:05:19Z</time></trkpt>
<trkpt lat="50.585599" lon="4.151206"><time>2026-05-03T04:15:19Z</time></trkpt>
</trkseg></trk>
<trk>
<name>hbcbc189</name>
<cmt>v</cmt>
<desc>Braine-le-Comte Sentier n°189 </desc>
<link href="https://chemins.be/brainelecomte/sentier/189"/><trkseg>
<trkpt lat="50.585599" lon="4.151206"><time>2026-05-03T04:15:19Z</time></trkpt>
<trkpt lat="50.585549" lon="4.150918"><time>2026-05-03T04:25:19Z</time></trkpt>
</trkseg></trk>
<trk>
<name>hbcbc189</name>
<cmt>q</cmt>
<desc>Braine-le-Comte Sentier n°189 </desc>
<link href="https://chemins.be/brainelecomte/sentier/189"/><trkseg>
<trkpt lat="50.585549" lon="4.150918"><time>2026-05-03T04:25:19Z</time></trkpt>
<trkpt lat="50.584148" lon="4.148613"><time>2026-05-03T04:35:19Z</time></trkpt>
<trkpt lat="50.584093" lon="4.147506"><time>2026-05-03T04:45:19Z</time></trkpt>
<trkpt lat="50.582943" lon="4.145592"><time>2026-05-03T04:55:19Z</time></trkpt>
<trkpt lat="50.582155" lon="4.143834"><time>2026-05-03T05:05:19Z</time></trkpt>
</trkseg>
</trk>
<trk>
<name>hbcbc19</name>
<cmt>v</cmt>
<desc>Braine-le-Comte Chemin n°19 Chemin de Cocréamont</desc>
<link href="https://chemins.be/brainelecomte/chemin/19"/><trkseg>
<trkpt lat="50.630122" lon="4.129724"><time>2026-05-03T03:35:19Z</time></trkpt>
<trkpt lat="50.629357" lon="4.129007"><time>2026-05-03T03:45:19Z</time></trkpt>
<trkpt lat="50.628628" lon="4.128460"><time>2026-05-03T03:55:19Z</time></trkpt>
<trkpt lat="50.627231" lon="4.126875"><time>2026-05-03T04:05:19Z</time></trkpt>
<trkpt lat="50.626794" lon="4.126064"><time>2026-05-03T04:15:19Z</time></trkpt>
<trkpt lat="50.625682" lon="4.125479"><time>2026-05-03T04:25:19Z</time></trkpt>
<trkpt lat="50.624145" lon="4.125585"><time>2026-05-03T04:35:19Z</time></trkpt>
</trkseg>
</trk>
<trk>
<name>hbcbc2</name>
<cmt>r</cmt>
<desc>Braine-le-Comte Chemin n°2 Drève du Long Jour / Point du Jour</desc>
<link href="https://chemins.be/brainelecomte/chemin/2"/><trkseg>
<trkpt lat="50.609036" lon="4.174663"><time>2026-05-03T03:35:19Z</time></trkpt>
<trkpt lat="50.609248" lon="4.175968"><time>2026-05-03T03:45:19Z</time></trkpt>
<trkpt lat="50.609738" lon="4.177435"><time>2026-05-03T03:55:19Z</time></trkpt>
<trkpt lat="50.609771" lon="4.178079"><time>2026-05-03T04:05:19Z</time></trkpt>
</trkseg></trk>
<trk>
<name>hbcbc2</name>
<cmt>s</cmt>
<desc>Braine-le-Comte Chemin n°2 Drève du Long Jour / Point du Jour</desc>
<link href="https://chemins.be/brainelecomte/chemin/2"/><trkseg>
<trkpt lat="50.609771" lon="4.178079"><time>2026-05-03T04:05:19Z</time></trkpt>
<trkpt lat="50.609493" lon="4.183512"><time>2026-05-03T04:15:19Z</time></trkpt>
</trkseg></trk>
<trk>
<name>hbcbc2</name>
<cmt>r</cmt>
<desc>Braine-le-Comte Chemin n°2 Drève du Long Jour / Point du Jour</desc>
<link href="https://chemins.be/brainelecomte/chemin/2"/><trkseg>
<trkpt lat="50.609493" lon="4.183512"><time>2026-05-03T04:15:19Z</time></trkpt>
<trkpt lat="50.609177" lon="4.187744"><time>2026-05-03T04:25:19Z</time></trkpt>
<trkpt lat="50.609417" lon="4.189306"><time>2026-05-03T04:35:19Z</time></trkpt>
</trkseg>
</trk>
<trk>
<name>hbcbc24</name>
<cmt>v</cmt>
<desc>Braine-le-Comte Chemin n°24 </desc>
<link href="https://chemins.be/brainelecomte/chemin/24"/><trkseg>
<trkpt lat="50.623763" lon="4.160989"><time>2026-05-03T03:35:19Z</time></trkpt>
<trkpt lat="50.621516" lon="4.161253"><time>2026-05-03T03:45:19Z</time></trkpt>
<trkpt lat="50.619297" lon="4.161814"><time>2026-05-03T03:55:19Z</time></trkpt>
</trkseg>
</trk>
<trk>
<name>hbcbc34</name>
<cmt>v</cmt>
<desc>Braine-le-Comte Chemin n°34 Chemin du Poreau</desc>
<link href="https://chemins.be/brainelecomte/chemin/34"/><trkseg>
<trkpt lat="50.599295" lon="4.116475"><time>2026-05-03T03:35:19Z</time></trkpt>
<trkpt lat="50.599890" lon="4.117447"><time>2026-05-03T03:45:19Z</time></trkpt>
<trkpt lat="50.600242" lon="4.117967"><time>2026-05-03T03:55:19Z</time></trkpt>
<trkpt lat="50.601224" lon="4.119092"><time>2026-05-03T04:05:19Z</time></trkpt>
<trkpt lat="50.602541" lon="4.121190"><time>2026-05-03T04:15:19Z</time></trkpt>
<trkpt lat="50.603695" lon="4.122724"><time>2026-05-03T04:25:19Z</time></trkpt>
<trkpt lat="50.604669" lon="4.123962"><time>2026-05-03T04:35:19Z</time></trkpt>
<trkpt lat="50.604705" lon="4.124117"><time>2026-05-03T04:45:19Z</time></trkpt>
<trkpt lat="50.604661" lon="4.124612"><time>2026-05-03T04:55:19Z</time></trkpt>
<trkpt lat="50.604688" lon="4.124725"><time>2026-05-03T05:05:19Z</time></trkpt>
<trkpt lat="50.604751" lon="4.124823"><time>2026-05-03T05:15:19Z</time></trkpt>
</trkseg>
</trk>
<trk>
<name>hbcbc35</name>
<cmt>v</cmt>
<desc>Braine-le-Comte Chemin n°35 </desc>
<link href="https://chemins.be/brainelecomte/chemin/35"/><trkseg>
<trkpt lat="50.598439" lon="4.112653"><time>2026-05-03T03:35:19Z</time></trkpt>
<trkpt lat="50.597333" lon="4.110491"><time>2026-05-03T03:45:19Z</time></trkpt>
<trkpt lat="50.596315" lon="4.108018"><time>2026-05-03T03:55:19Z</time></trkpt>
</trkseg>
</trk>
<trk>
<name>hbcbc37</name>
<cmt>v</cmt>
<desc>Braine-le-Comte Chemin n°37 </desc>
<link href="https://chemins.be/brainelecomte/chemin/37"/><trkseg>
<trkpt lat="50.607672" lon="4.124142"><time>2026-05-03T03:35:19Z</time></trkpt>
<trkpt lat="50.607642" lon="4.124394"><time>2026-05-03T03:45:19Z</time></trkpt>
<trkpt lat="50.607577" lon="4.124909"><time>2026-05-03T03:55:19Z</time></trkpt>
</trkseg>
</trk>
<trk>
<name>hbcbc42</name>
<cmt>v</cmt>
<desc>Braine-le-Comte Chemin n°42 </desc>
<link href="https://chemins.be/brainelecomte/chemin/42"/><trkseg>
<trkpt lat="50.602347" lon="4.083291"><time>2026-05-03T03:35:19Z</time></trkpt>
<trkpt lat="50.601557" lon="4.080245"><time>2026-05-03T03:45:19Z</time></trkpt>
</trkseg></trk>
<trk>
<name>hbcbc42</name>
<cmt>d</cmt>
<desc>Braine-le-Comte Chemin n°42 </desc>
<link href="https://chemins.be/brainelecomte/chemin/42"/><trkseg>
<trkpt lat="50.601557" lon="4.080245"><time>2026-05-03T03:45:19Z</time></trkpt>
<trkpt lat="50.601194" lon="4.078834"><time>2026-05-03T03:55:19Z</time></trkpt>
<trkpt lat="50.599806" lon="4.077261"><time>2026-05-03T04:05:19Z</time></trkpt>
</trkseg>
</trk>
<trk>
<name>hbcbc45</name>
<cmt>r</cmt>
<desc>Braine-le-Comte Chemin n°45 </desc>
<link href="https://chemins.be/brainelecomte/chemin/45"/><trkseg>
<trkpt lat="50.612140" lon="4.112487"><time>2026-05-03T03:35:19Z</time></trkpt>
<trkpt lat="50.612902" lon="4.111788"><time>2026-05-03T03:45:19Z</time></trkpt>
<trkpt lat="50.614021" lon="4.108682"><time>2026-05-03T03:55:19Z</time></trkpt>
<trkpt lat="50.614182" lon="4.108187"><time>2026-05-03T04:05:19Z</time></trkpt>
<trkpt lat="50.614117" lon="4.107410"><time>2026-05-03T04:15:19Z</time></trkpt>
<trkpt lat="50.614242" lon="4.106999"><time>2026-05-03T04:25:19Z</time></trkpt>
</trkseg>
</trk>
<trk>
<name>hbcbc49bis</name>
<cmt>v</cmt>
<desc>Braine-le-Comte Chemin n°49bis </desc>
<link href="https://chemins.be/brainelecomte/chemin/49bis"/><trkseg>
<trkpt lat="50.606000" lon="4.108277"><time>2026-05-03T03:35:19Z</time></trkpt>
<trkpt lat="50.604734" lon="4.105530"><time>2026-05-03T03:45:19Z</time></trkpt>
</trkseg>
</trk>
<trk>
<name>hbcbc50</name>
<cmt>v</cmt>
<desc>Braine-le-Comte Chemin n°50 </desc>
<link href="https://chemins.be/brainelecomte/chemin/50"/><trkseg>
<trkpt lat="50.619559" lon="4.132645"><time>2026-05-03T03:35:19Z</time></trkpt>
<trkpt lat="50.619794" lon="4.131819"><time>2026-05-03T03:45:19Z</time></trkpt>
</trkseg>
</trk>
<trk>
<name>hbcbc51</name>
<cmt>r</cmt>
<desc>Braine-le-Comte Chemin n°51 </desc>
<link href="https://chemins.be/brainelecomte/chemin/51"/><trkseg>
<trkpt lat="50.624328" lon="4.102806"><time>2026-05-03T03:35:19Z</time></trkpt>
<trkpt lat="50.623527" lon="4.104050"><time>2026-05-03T03:45:19Z</time></trkpt>
<trkpt lat="50.623354" lon="4.104522"><time>2026-05-03T03:55:19Z</time></trkpt>
</trkseg></trk>
<trk>
<name>hbcbc51</name>
<cmt>v</cmt>
<desc>Braine-le-Comte Chemin n°51 </desc>
<link href="https://chemins.be/brainelecomte/chemin/51"/><trkseg>
<trkpt lat="50.623354" lon="4.104522"><time>2026-05-03T03:55:19Z</time></trkpt>
<trkpt lat="50.623142" lon="4.105222"><time>2026-05-03T04:05:19Z</time></trkpt>
</trkseg>
</trk>
<trk>
<name>hbcbc52</name>
<cmt>v</cmt>
<desc>Braine-le-Comte Chemin n°52 Chemin vert</desc>
<link href="https://chemins.be/brainelecomte/chemin/52"/><trkseg>
<trkpt lat="50.598916" lon="4.115898"><time>2026-05-03T03:35:19Z</time></trkpt>
<trkpt lat="50.598252" lon="4.116679"><time>2026-05-03T03:45:19Z</time></trkpt>
</trkseg></trk>
<trk>
<name>hbcbc52</name>
<cmt>r</cmt>
<desc>Braine-le-Comte Chemin n°52 Chemin vert</desc>
<link href="https://chemins.be/brainelecomte/chemin/52"/><trkseg>
<trkpt lat="50.598252" lon="4.116679"><time>2026-05-03T03:45:19Z</time></trkpt>
<trkpt lat="50.598722" lon="4.117523"><time>2026-05-03T03:55:19Z</time></trkpt>
</trkseg></trk>
<trk>
<name>hbcbc52</name>
<cmt>v</cmt>
<desc>Braine-le-Comte Chemin n°52 Chemin vert</desc>
<link href="https://chemins.be/brainelecomte/chemin/52"/><trkseg>
<trkpt lat="50.598722" lon="4.117523"><time>2026-05-03T03:55:19Z</time></trkpt>
<trkpt lat="50.601308" lon="4.120307"><time>2026-05-03T04:05:19Z</time></trkpt>
<trkpt lat="50.603319" lon="4.123362"><time>2026-05-03T04:15:19Z</time></trkpt>
<trkpt lat="50.604670" lon="4.124569"><time>2026-05-03T04:25:19Z</time></trkpt>
</trkseg>
</trk>
<trk>
<name>hbcbc53</name>
<cmt>v</cmt>
<desc>Braine-le-Comte Chemin n°53 Ruelle Baubecq</desc>
<link href="https://chemins.be/brainelecomte/chemin/53"/><trkseg>
<trkpt lat="50.602369" lon="4.125005"><time>2026-05-03T03:35:19Z</time></trkpt>
<trkpt lat="50.602756" lon="4.124947"><time>2026-05-03T03:45:19Z</time></trkpt>
<trkpt lat="50.602846" lon="4.124847"><time>2026-05-03T03:55:19Z</time></trkpt>
<trkpt lat="50.602890" lon="4.124748"><time>2026-05-03T04:05:19Z</time></trkpt>
<trkpt lat="50.602908" lon="4.124649"><time>2026-05-03T04:15:19Z</time></trkpt>
<trkpt lat="50.602952" lon="4.124296"><time>2026-05-03T04:25:19Z</time></trkpt>
<trkpt lat="50.603024" lon="4.123985"><time>2026-05-03T04:35:19Z</time></trkpt>
<trkpt lat="50.603319" lon="4.123347"><time>2026-05-03T04:45:19Z</time></trkpt>
</trkseg>
</trk>
<trk>
<name>hbcbc55</name>
<cmt>r</cmt>
<desc>Braine-le-Comte Chemin n°55 Rue de l'Industrie / Chemin du Chevauchoire de Binche</desc>
<link href="https://chemins.be/brainelecomte/chemin/55"/><trkseg>
<trkpt lat="50.604244" lon="4.135327"><time>2026-05-03T03:35:19Z</time></trkpt>
<trkpt lat="50.603651" lon="4.136074"><time>2026-05-03T03:45:19Z</time></trkpt>
</trkseg></trk>
<trk>
<name>hbcbc55</name>
<cmt>s</cmt>
<desc>Braine-le-Comte Chemin n°55 Rue de l'Industrie / Chemin du Chevauchoire de Binche</desc>
<link href="https://chemins.be/brainelecomte/chemin/55"/><trkseg>
<trkpt lat="50.603651" lon="4.136074"><time>2026-05-03T03:45:19Z</time></trkpt>
<trkpt lat="50.603179" lon="4.136928"><time>2026-05-03T03:55:19Z</time></trkpt>
</trkseg></trk>
<trk>
<name>hbcbc55</name>
<cmt>r</cmt>
<desc>Braine-le-Comte Chemin n°55 Rue de l'Industrie / Chemin du Chevauchoire de Binche</desc>
<link href="https://chemins.be/brainelecomte/chemin/55"/><trkseg>
<trkpt lat="50.603179" lon="4.136928"><time>2026-05-03T03:55:19Z</time></trkpt>
<trkpt lat="50.602888" lon="4.137511"><time>2026-05-03T04:05:19Z</time></trkpt>
</trkseg></trk>
<trk>
<name>hbcbc55</name>
<cmt>q</cmt>
<desc>Braine-le-Comte Chemin n°55 Rue de l'Industrie / Chemin du Chevauchoire de Binche</desc>
<link href="https://chemins.be/brainelecomte/chemin/55"/><trkseg>
<trkpt lat="50.602888" lon="4.137511"><time>2026-05-03T04:05:19Z</time></trkpt>
<trkpt lat="50.602011" lon="4.138241"><time>2026-05-03T04:15:19Z</time></trkpt>
<trkpt lat="50.601695" lon="4.138640"><time>2026-05-03T04:25:19Z</time></trkpt>
</trkseg></trk>
<trk>
<name>hbcbc55</name>
<cmt>r</cmt>
<desc>Braine-le-Comte Chemin n°55 Rue de l'Industrie / Chemin du Chevauchoire de Binche</desc>
<link href="https://chemins.be/brainelecomte/chemin/55"/><trkseg>
<trkpt lat="50.601695" lon="4.138640"><time>2026-05-03T04:25:19Z</time></trkpt>
<trkpt lat="50.601273" lon="4.138537"><time>2026-05-03T04:35:19Z</time></trkpt>
</trkseg>
</trk>
<trk>
<name>hbcbc59</name>
<cmt>q</cmt>
<desc>Braine-le-Comte Chemin n°59 </desc>
<link href="https://chemins.be/brainelecomte/chemin/59"/><trkseg>
<trkpt lat="50.614098" lon="4.166284"><time>2026-05-03T03:35:19Z</time></trkpt>
<trkpt lat="50.614370" lon="4.168308"><time>2026-05-03T03:45:19Z</time></trkpt>
<trkpt lat="50.614311" lon="4.171856"><time>2026-05-03T03:55:19Z</time></trkpt>
<trkpt lat="50.614515" lon="4.173694"><time>2026-05-03T04:05:19Z</time></trkpt>
<trkpt lat="50.615128" lon="4.175375"><time>2026-05-03T04:15:19Z</time></trkpt>
</trkseg>
</trk>
<trk>
<name>hbcbc59bis</name>
<cmt>d</cmt>
<desc>Braine-le-Comte Chemin n°59bis </desc>
<link href="https://chemins.be/brainelecomte/chemin/59bis"/><trkseg>
<trkpt lat="50.619574" lon="4.167917"><time>2026-05-03T03:35:19Z</time></trkpt>
<trkpt lat="50.619546" lon="4.169183"><time>2026-05-03T03:45:19Z</time></trkpt>
<trkpt lat="50.618587" lon="4.171050"><time>2026-05-03T03:55:19Z</time></trkpt>
<trkpt lat="50.618246" lon="4.176317"><time>2026-05-03T04:05:19Z</time></trkpt>
</trkseg>
</trk>
<trk>
<name>hbcbc60</name>
<cmt>q</cmt>
<desc>Braine-le-Comte Sentier n°60 </desc>
<link href="https://chemins.be/brainelecomte/sentier/60"/><trkseg>
<trkpt lat="50.619081" lon="4.128009"><time>2026-05-03T03:35:19Z</time></trkpt>
<trkpt lat="50.622566" lon="4.122015"><time>2026-05-03T03:45:19Z</time></trkpt>
<trkpt lat="50.626064" lon="4.119755"><time>2026-05-03T03:55:19Z</time></trkpt>
<trkpt lat="50.630035" lon="4.117151"><time>2026-05-03T04:05:19Z</time></trkpt>
<trkpt lat="50.630715" lon="4.116322"><time>2026-05-03T04:15:19Z</time></trkpt>
<trkpt lat="50.632277" lon="4.114848"><time>2026-05-03T04:25:19Z</time></trkpt>
<trkpt lat="50.633897" lon="4.114137"><time>2026-05-03T04:35:19Z</time></trkpt>
</trkseg>
</trk>
<trk>
<name>hbcbc61</name>
<cmt>v</cmt>
<desc>Braine-le-Comte Sentier n°61 Chemin des 10 Maisons</desc>
<link href="https://chemins.be/brainelecomte/sentier/61"/><trkseg>
<trkpt lat="50.614601" lon="4.131753"><time>2026-05-03T03:35:19Z</time></trkpt>
<trkpt lat="50.614942" lon="4.131624"><time>2026-05-03T03:45:19Z</time></trkpt>
<trkpt lat="50.615443" lon="4.131546"><time>2026-05-03T03:55:19Z</time></trkpt>
</trkseg></trk>
<trk>
<name>hbcbc61</name>
<cmt>q</cmt>
<desc>Braine-le-Comte Sentier n°61 Chemin des 10 Maisons</desc>
<link href="https://chemins.be/brainelecomte/sentier/61"/><trkseg>
<trkpt lat="50.615443" lon="4.131546"><time>2026-05-03T03:55:19Z</time></trkpt>
<trkpt lat="50.616846" lon="4.130911"><time>2026-05-03T04:05:19Z</time></trkpt>
</trkseg></trk>
<trk>
<name>hbcbc61</name>
<cmt>r</cmt>
<desc>Braine-le-Comte Sentier n°61 Chemin des 10 Maisons</desc>
<link href="https://chemins.be/brainelecomte/sentier/61"/><trkseg>
<trkpt lat="50.616846" lon="4.130911"><time>2026-05-03T04:05:19Z</time></trkpt>
<trkpt lat="50.617374" lon="4.130164"><time>2026-05-03T04:15:19Z</time></trkpt>
</trkseg></trk>
<trk>
<name>hbcbc61</name>
<cmt>v</cmt>
<desc>Braine-le-Comte Sentier n°61 Chemin des 10 Maisons</desc>
<link href="https://chemins.be/brainelecomte/sentier/61"/><trkseg>
<trkpt lat="50.617374" lon="4.130164"><time>2026-05-03T04:15:19Z</time></trkpt>
<trkpt lat="50.619869" lon="4.131855"><time>2026-05-03T04:25:19Z</time></trkpt>
<trkpt lat="50.621218" lon="4.132606"><time>2026-05-03T04:35:19Z</time></trkpt>
<trkpt lat="50.622466" lon="4.133622"><time>2026-05-03T04:45:19Z</time></trkpt>
</trkseg></trk>
<trk>
<name>hbcbc61</name>
<cmt>q</cmt>
<desc>Braine-le-Comte Sentier n°61 Chemin des 10 Maisons</desc>
<link href="https://chemins.be/brainelecomte/sentier/61"/><trkseg>
<trkpt lat="50.622466" lon="4.133622"><time>2026-05-03T04:45:19Z</time></trkpt>
<trkpt lat="50.622768" lon="4.133812"><time>2026-05-03T04:55:19Z</time></trkpt>
<trkpt lat="50.623662" lon="4.133559"><time>2026-05-03T05:05:19Z</time></trkpt>
<trkpt lat="50.625652" lon="4.134189"><time>2026-05-03T05:15:19Z</time></trkpt>
<trkpt lat="50.629375" lon="4.132799"><time>2026-05-03T05:25:19Z</time></trkpt>
</trkseg>
</trk>
<trk>
<name>hbcbc62</name>
<cmt>q</cmt>
<desc>Braine-le-Comte Sentier n°62 </desc>
<link href="https://chemins.be/brainelecomte/sentier/62"/><trkseg>
<trkpt lat="50.628044" lon="4.120944"><time>2026-05-03T03:35:19Z</time></trkpt>
<trkpt lat="50.628044" lon="4.119921"><time>2026-05-03T03:45:19Z</time></trkpt>
<trkpt lat="50.628275" lon="4.118391"><time>2026-05-03T03:55:19Z</time></trkpt>
<trkpt lat="50.627295" lon="4.113777"><time>2026-05-03T04:05:19Z</time></trkpt>
<trkpt lat="50.627341" lon="4.112404"><time>2026-05-03T04:15:19Z</time></trkpt>
<trkpt lat="50.627032" lon="4.110838"><time>2026-05-03T04:25:19Z</time></trkpt>
<trkpt lat="50.626810" lon="4.108399"><time>2026-05-03T04:35:19Z</time></trkpt>
<trkpt lat="50.626755" lon="4.104815"><time>2026-05-03T04:45:19Z</time></trkpt>
</trkseg>
</trk>
<trk>
<name>hbcbc63</name>
<cmt>q</cmt>
<desc>Braine-le-Comte Sentier n°63 </desc>
<link href="https://chemins.be/brainelecomte/sentier/63"/><trkseg>
<trkpt lat="50.626649" lon="4.104805"><time>2026-05-03T03:35:19Z</time></trkpt>
<trkpt lat="50.625361" lon="4.106733"><time>2026-05-03T03:45:19Z</time></trkpt>
<trkpt lat="50.623711" lon="4.108603"><time>2026-05-03T03:55:19Z</time></trkpt>
<trkpt lat="50.621668" lon="4.114050"><time>2026-05-03T04:05:19Z</time></trkpt>
<trkpt lat="50.621209" lon="4.115284"><time>2026-05-03T04:15:19Z</time></trkpt>
</trkseg>
</trk>
<trk>
<name>hbcbc64</name>
<cmt>q</cmt>
<desc>Braine-le-Comte Sentier n°64 </desc>
<link href="https://chemins.be/brainelecomte/sentier/64"/><trkseg>
<trkpt lat="50.622799" lon="4.133829"><time>2026-05-03T03:35:19Z</time></trkpt>
<trkpt lat="50.625066" lon="4.132318"><time>2026-05-03T03:45:19Z</time></trkpt>
<trkpt lat="50.626182" lon="4.131632"><time>2026-05-03T03:55:19Z</time></trkpt>
<trkpt lat="50.628006" lon="4.128757"><time>2026-05-03T04:05:19Z</time></trkpt>
<trkpt lat="50.628676" lon="4.128502"><time>2026-05-03T04:15:19Z</time></trkpt>
<trkpt lat="50.629417" lon="4.128220"><time>2026-05-03T04:25:19Z</time></trkpt>
<trkpt lat="50.630960" lon="4.126203"><time>2026-05-03T04:35:19Z</time></trkpt>
</trkseg>
</trk>
<trk>
<name>hbcbc65</name>
<cmt>v</cmt>
<desc>Braine-le-Comte Sentier n°65 </desc>
<link href="https://chemins.be/brainelecomte/sentier/65"/><trkseg>
<trkpt lat="50.623109" lon="4.142592"><time>2026-05-03T03:35:19Z</time></trkpt>
<trkpt lat="50.623422" lon="4.141672"><time>2026-05-03T03:45:19Z</time></trkpt>
</trkseg></trk>
<trk>
<name>hbcbc65</name>
<cmt>q</cmt>
<desc>Braine-le-Comte Sentier n°65 </desc>
<link href="https://chemins.be/brainelecomte/sentier/65"/><trkseg>
<trkpt lat="50.623422" lon="4.141672"><time>2026-05-03T03:45:19Z</time></trkpt>
<trkpt lat="50.625020" lon="4.140915"><time>2026-05-03T03:55:19Z</time></trkpt>
<trkpt lat="50.626299" lon="4.141785"><time>2026-05-03T04:05:19Z</time></trkpt>
<trkpt lat="50.628701" lon="4.141443"><time>2026-05-03T04:15:19Z</time></trkpt>
</trkseg>
</trk>
<trk>
<name>hbcbc66</name>
<cmt>q</cmt>
<desc>Braine-le-Comte Sentier n°66 </desc>
<link href="https://chemins.be/brainelecomte/sentier/66"/><trkseg>
<trkpt lat="50.625889" lon="4.111417"><time>2026-05-03T03:35:19Z</time></trkpt>
<trkpt lat="50.624800" lon="4.114807"><time>2026-05-03T03:45:19Z</time></trkpt>
<trkpt lat="50.624237" lon="4.117976"><time>2026-05-03T03:55:19Z</time></trkpt>
<trkpt lat="50.622599" lon="4.122046"><time>2026-05-03T04:05:19Z</time></trkpt>
</trkseg>
</trk>
<trk>
<name>hbcbc67</name>
<cmt>q</cmt>
<desc>Braine-le-Comte Sentier n°67 Route de Petit-Roeulx</desc>
<link href="https://chemins.be/brainelecomte/sentier/67"/><trkseg>
<trkpt lat="50.614600" lon="4.130207"><time>2026-05-03T03:35:19Z</time></trkpt>
<trkpt lat="50.616691" lon="4.120457"><time>2026-05-03T03:45:19Z</time></trkpt>
<trkpt lat="50.617105" lon="4.108921"><time>2026-05-03T03:55:19Z</time></trkpt>
<trkpt lat="50.619436" lon="4.102089"><time>2026-05-03T04:05:19Z</time></trkpt>
<trkpt lat="50.619946" lon="4.100835"><time>2026-05-03T04:15:19Z</time></trkpt>
<trkpt lat="50.621434" lon="4.098848"><time>2026-05-03T04:25:19Z</time></trkpt>
<trkpt lat="50.621854" lon="4.097984"><time>2026-05-03T04:35:19Z</time></trkpt>
</trkseg>
</trk>
<trk>
<name>hbcbc68</name>
<cmt>q</cmt>
<desc>Braine-le-Comte Sentier n°68 </desc>
<link href="https://chemins.be/brainelecomte/sentier/68"/><trkseg>
<trkpt lat="50.611514" lon="4.100883"><time>2026-05-03T03:35:19Z</time></trkpt>
<trkpt lat="50.613774" lon="4.096420"><time>2026-05-03T03:45:19Z</time></trkpt>
<trkpt lat="50.616306" lon="4.090497"><time>2026-05-03T03:55:19Z</time></trkpt>
</trkseg>
</trk>
<trk>
<name>hbcbc69</name>
<cmt>q</cmt>
<desc>Braine-le-Comte Sentier n°69 Rue d'Horrues</desc>
<link href="https://chemins.be/brainelecomte/sentier/69"/><trkseg>
<trkpt lat="50.611107" lon="4.129410"><time>2026-05-03T03:35:19Z</time></trkpt>
<trkpt lat="50.610753" lon="4.127527"><time>2026-05-03T03:45:19Z</time></trkpt>
<trkpt lat="50.610488" lon="4.120735"><time>2026-05-03T03:55:19Z</time></trkpt>
<trkpt lat="50.610856" lon="4.117795"><time>2026-05-03T04:05:19Z</time></trkpt>
<trkpt lat="50.610856" lon="4.116508"><time>2026-05-03T04:15:19Z</time></trkpt>
<trkpt lat="50.610604" lon="4.114491"><time>2026-05-03T04:25:19Z</time></trkpt>
<trkpt lat="50.610808" lon="4.112409"><time>2026-05-03T04:35:19Z</time></trkpt>
<trkpt lat="50.610515" lon="4.109341"><time>2026-05-03T04:45:19Z</time></trkpt>
<trkpt lat="50.610372" lon="4.108965"><time>2026-05-03T04:55:19Z</time></trkpt>
</trkseg></trk>
<trk>
<name>hbcbc69</name>
<cmt>v</cmt>
<desc>Braine-le-Comte Sentier n°69 Rue d'Horrues</desc>
<link href="https://chemins.be/brainelecomte/sentier/69"/><trkseg>
<trkpt lat="50.610372" lon="4.108965"><time>2026-05-03T04:55:19Z</time></trkpt>
<trkpt lat="50.610761" lon="4.108400"><time>2026-05-03T05:05:19Z</time></trkpt>
<trkpt lat="50.610961" lon="4.107170"><time>2026-05-03T05:15:19Z</time></trkpt>
<trkpt lat="50.610711" lon="4.104060"><time>2026-05-03T05:25:19Z</time></trkpt>
<trkpt lat="50.610361" lon="4.103170"><time>2026-05-03T05:35:19Z</time></trkpt>
</trkseg>
</trk>
<trk>
<name>hbcbc7</name>
<cmt>r</cmt>
<desc>Braine-le-Comte Chemin n°7 Charly des Bois / Rue du Pire</desc>
<link href="https://chemins.be/brainelecomte/chemin/7"/><trkseg>
<trkpt lat="50.619471" lon="4.197607"><time>2026-05-03T03:35:19Z</time></trkpt>
<trkpt lat="50.619810" lon="4.195670"><time>2026-05-03T03:45:19Z</time></trkpt>
<trkpt lat="50.620148" lon="4.193394"><time>2026-05-03T03:55:19Z</time></trkpt>
<trkpt lat="50.621030" lon="4.187936"><time>2026-05-03T04:05:19Z</time></trkpt>
</trkseg>
</trk>
<trk>
<name>hbcbc70</name>
<cmt>q</cmt>
<desc>Braine-le-Comte Sentier n°70 </desc>
<link href="https://chemins.be/brainelecomte/sentier/70"/><trkseg>
<trkpt lat="50.615872" lon="4.108163"><time>2026-05-03T03:35:19Z</time></trkpt>
<trkpt lat="50.614534" lon="4.108934"><time>2026-05-03T03:45:19Z</time></trkpt>
<trkpt lat="50.614012" lon="4.108640"><time>2026-05-03T03:55:19Z</time></trkpt>
<trkpt lat="50.611597" lon="4.105898"><time>2026-05-03T04:05:19Z</time></trkpt>
<trkpt lat="50.610792" lon="4.105024"><time>2026-05-03T04:15:19Z</time></trkpt>
<trkpt lat="50.609226" lon="4.106290"><time>2026-05-03T04:25:19Z</time></trkpt>
<trkpt lat="50.607723" lon="4.109537"><time>2026-05-03T04:35:19Z</time></trkpt>
<trkpt lat="50.607497" lon="4.111140"><time>2026-05-03T04:45:19Z</time></trkpt>
</trkseg>
</trk>
<trk>
<name>hbcbc71</name>
<cmt>q</cmt>
<desc>Braine-le-Comte Sentier n°71 </desc>
<link href="https://chemins.be/brainelecomte/sentier/71"/><trkseg>
<trkpt lat="50.615962" lon="4.108276"><time>2026-05-03T03:35:19Z</time></trkpt>
<trkpt lat="50.615659" lon="4.109351"><time>2026-05-03T03:45:19Z</time></trkpt>
<trkpt lat="50.615579" lon="4.109804"><time>2026-05-03T03:55:19Z</time></trkpt>
<trkpt lat="50.615166" lon="4.109947"><time>2026-05-03T04:05:19Z</time></trkpt>
<trkpt lat="50.614771" lon="4.110204"><time>2026-05-03T04:15:19Z</time></trkpt>
<trkpt lat="50.614388" lon="4.111859"><time>2026-05-03T04:25:19Z</time></trkpt>
<trkpt lat="50.614940" lon="4.113467"><time>2026-05-03T04:35:19Z</time></trkpt>
<trkpt lat="50.614872" lon="4.115135"><time>2026-05-03T04:45:19Z</time></trkpt>
<trkpt lat="50.614308" lon="4.116621"><time>2026-05-03T04:55:19Z</time></trkpt>
<trkpt lat="50.613366" lon="4.117290"><time>2026-05-03T05:05:19Z</time></trkpt>
<trkpt lat="50.613104" lon="4.116769"><time>2026-05-03T05:15:19Z</time></trkpt>
<trkpt lat="50.612546" lon="4.116518"><time>2026-05-03T05:25:19Z</time></trkpt>
<trkpt lat="50.609642" lon="4.116335"><time>2026-05-03T05:35:19Z</time></trkpt>
<trkpt lat="50.607906" lon="4.115794"><time>2026-05-03T05:45:19Z</time></trkpt>
</trkseg>
</trk>
<trk>
<name>hbcbc72</name>
<cmt>q</cmt>
<desc>Braine-le-Comte Sentier n°72 </desc>
<link href="https://chemins.be/brainelecomte/sentier/72"/><trkseg>
<trkpt lat="50.609787" lon="4.103715"><time>2026-05-03T03:35:19Z</time></trkpt>
<trkpt lat="50.608446" lon="4.103056"><time>2026-05-03T03:45:19Z</time></trkpt>
<trkpt lat="50.607724" lon="4.102621"><time>2026-05-03T03:55:19Z</time></trkpt>
</trkseg>
</trk>
<trk>
<name>hbcbc73</name>
<cmt>q</cmt>
<desc>Braine-le-Comte Sentier n°73 </desc>
<link href="https://chemins.be/brainelecomte/sentier/73"/><trkseg>
<trkpt lat="50.611717" lon="4.091627"><time>2026-05-03T03:35:19Z</time></trkpt>
<trkpt lat="50.612652" lon="4.089970"><time>2026-05-03T03:45:19Z</time></trkpt>
<trkpt lat="50.612396" lon="4.086493"><time>2026-05-03T03:55:19Z</time></trkpt>
<trkpt lat="50.612134" lon="4.084841"><time>2026-05-03T04:05:19Z</time></trkpt>
<trkpt lat="50.611658" lon="4.083129"><time>2026-05-03T04:15:19Z</time></trkpt>
<trkpt lat="50.611353" lon="4.082824"><time>2026-05-03T04:25:19Z</time></trkpt>
</trkseg>
</trk>
<trk>
<name>hbcbc74</name>
<cmt>q</cmt>
<desc>Braine-le-Comte Sentier n°74 </desc>
<link href="https://chemins.be/brainelecomte/sentier/74"/><trkseg>
<trkpt lat="50.610914" lon="4.086602"><time>2026-05-03T03:35:19Z</time></trkpt>
<trkpt lat="50.612060" lon="4.084970"><time>2026-05-03T03:45:19Z</time></trkpt>
</trkseg>
</trk>
<trk>
<name>hbcbc75</name>
<cmt>q</cmt>
<desc>Braine-le-Comte Sentier n°75 </desc>
<link href="https://chemins.be/brainelecomte/sentier/75"/><trkseg>
<trkpt lat="50.609624" lon="4.082108"><time>2026-05-03T03:35:19Z</time></trkpt>
<trkpt lat="50.608088" lon="4.082494"><time>2026-05-03T03:45:19Z</time></trkpt>
<trkpt lat="50.606590" lon="4.082159"><time>2026-05-03T03:55:19Z</time></trkpt>
<trkpt lat="50.605550" lon="4.081155"><time>2026-05-03T04:05:19Z</time></trkpt>
</trkseg>
</trk>
<trk>
<name>hbcbc76</name>
<cmt>q</cmt>
<desc>Braine-le-Comte Sentier n°76 </desc>
<link href="https://chemins.be/brainelecomte/sentier/76"/><trkseg>
<trkpt lat="50.605379" lon="4.073511"><time>2026-05-03T03:35:19Z</time></trkpt>
<trkpt lat="50.606192" lon="4.068025"><time>2026-05-03T03:45:19Z</time></trkpt>
<trkpt lat="50.606098" lon="4.066090"><time>2026-05-03T03:55:19Z</time></trkpt>
</trkseg>
</trk>
<trk>
<name>hbcbc77</name>
<cmt>q</cmt>
<desc>Braine-le-Comte Sentier n°77 </desc>
<link href="https://chemins.be/brainelecomte/sentier/77"/><trkseg>
<trkpt lat="50.609177" lon="4.080211"><time>2026-05-03T03:35:19Z</time></trkpt>
<trkpt lat="50.608033" lon="4.079369"><time>2026-05-03T03:45:19Z</time></trkpt>
<trkpt lat="50.604411" lon="4.076704"><time>2026-05-03T03:55:19Z</time></trkpt>
<trkpt lat="50.604217" lon="4.075717"><time>2026-05-03T04:05:19Z</time></trkpt>
<trkpt lat="50.603719" lon="4.074863"><time>2026-05-03T04:15:19Z</time></trkpt>
</trkseg>
</trk>
<trk>
<name>hbcbc78</name>
<cmt>q</cmt>
<desc>Braine-le-Comte Sentier n°78 </desc>
<link href="https://chemins.be/brainelecomte/sentier/78"/><trkseg>
<trkpt lat="50.608245" lon="4.069512"><time>2026-05-03T03:35:19Z</time></trkpt>
<trkpt lat="50.609485" lon="4.067471"><time>2026-05-03T03:45:19Z</time></trkpt>
<trkpt lat="50.609701" lon="4.066613"><time>2026-05-03T03:55:19Z</time></trkpt>
</trkseg>
</trk>
<trk>
<name>hbcbc79</name>
<cmt>q</cmt>
<desc>Braine-le-Comte Sentier n°79 Chemin d'Horrues</desc>
<link href="https://chemins.be/brainelecomte/sentier/79"/><trkseg>
<trkpt lat="50.608184" lon="4.073268"><time>2026-05-03T03:35:19Z</time></trkpt>
<trkpt lat="50.608611" lon="4.071796"><time>2026-05-03T03:45:19Z</time></trkpt>
</trkseg>
</trk>
<trk>
<name>hbcbc8</name>
<cmt>d</cmt>
<desc>Braine-le-Comte Chemin n°8 </desc>
<link href="https://chemins.be/brainelecomte/chemin/8"/><trkseg>
<trkpt lat="50.623539" lon="4.156806"><time>2026-05-03T03:35:19Z</time></trkpt>
<trkpt lat="50.623075" lon="4.156810"><time>2026-05-03T03:45:19Z</time></trkpt>
</trkseg></trk>
<trk>
<name>hbcbc8</name>
<cmt>s</cmt>
<desc>Braine-le-Comte Chemin n°8 </desc>
<link href="https://chemins.be/brainelecomte/chemin/8"/><trkseg>
<trkpt lat="50.623075" lon="4.156810"><time>2026-05-03T03:45:19Z</time></trkpt>
<trkpt lat="50.622623" lon="4.156814"><time>2026-05-03T03:55:19Z</time></trkpt>
</trkseg></trk>
<trk>
<name>hbcbc8</name>
<cmt>d</cmt>
<desc>Braine-le-Comte Chemin n°8 </desc>
<link href="https://chemins.be/brainelecomte/chemin/8"/><trkseg>
<trkpt lat="50.622623" lon="4.156814"><time>2026-05-03T03:55:19Z</time></trkpt>
<trkpt lat="50.621622" lon="4.156823"><time>2026-05-03T04:05:19Z</time></trkpt>
<trkpt lat="50.620609" lon="4.156428"><time>2026-05-03T04:15:19Z</time></trkpt>
</trkseg>
</trk>
<trk>
<name>hbcbc80</name>
<cmt>q</cmt>
<desc>Braine-le-Comte Sentier n°80 Chemin de Mariemont</desc>
<link href="https://chemins.be/brainelecomte/sentier/80"/><trkseg>
<trkpt lat="50.595770" lon="4.081099"><time>2026-05-03T03:35:19Z</time></trkpt>
<trkpt lat="50.596390" lon="4.081194"><time>2026-05-03T03:45:19Z</time></trkpt>
<trkpt lat="50.596842" lon="4.082025"><time>2026-05-03T03:55:19Z</time></trkpt>
<trkpt lat="50.597003" lon="4.081798"><time>2026-05-03T04:05:19Z</time></trkpt>
<trkpt lat="50.597175" lon="4.082122"><time>2026-05-03T04:15:19Z</time></trkpt>
<trkpt lat="50.599170" lon="4.081855"><time>2026-05-03T04:25:19Z</time></trkpt>
<trkpt lat="50.601254" lon="4.081179"><time>2026-05-03T04:35:19Z</time></trkpt>
<trkpt lat="50.601830" lon="4.081359"><time>2026-05-03T04:45:19Z</time></trkpt>
<trkpt lat="50.603233" lon="4.081647"><time>2026-05-03T04:55:19Z</time></trkpt>
<trkpt lat="50.603918" lon="4.082307"><time>2026-05-03T05:05:19Z</time></trkpt>
<trkpt lat="50.604217" lon="4.083153"><time>2026-05-03T05:15:19Z</time></trkpt>
<trkpt lat="50.605298" lon="4.084163"><time>2026-05-03T05:25:19Z</time></trkpt>
</trkseg>
</trk>
<trk>
<name>hbcbc81</name>
<cmt>q</cmt>
<desc>Braine-le-Comte Sentier n°81 </desc>
<link href="https://chemins.be/brainelecomte/sentier/81"/><trkseg>
<trkpt lat="50.602826" lon="4.077902"><time>2026-05-03T03:35:19Z</time></trkpt>
<trkpt lat="50.602461" lon="4.078159"><time>2026-05-03T03:45:19Z</time></trkpt>
<trkpt lat="50.601595" lon="4.080348"><time>2026-05-03T03:55:19Z</time></trkpt>
</trkseg>
</trk>
<trk>
<name>hbcbc82</name>
<cmt>q</cmt>
<desc>Braine-le-Comte Sentier n°82 </desc>
<link href="https://chemins.be/brainelecomte/sentier/82"/><trkseg>
<trkpt lat="50.597220" lon="4.082263"><time>2026-05-03T03:35:19Z</time></trkpt>
<trkpt lat="50.597707" lon="4.082994"><time>2026-05-03T03:45:19Z</time></trkpt>
<trkpt lat="50.597457" lon="4.083674"><time>2026-05-03T03:55:19Z</time></trkpt>
<trkpt lat="50.597442" lon="4.088321"><time>2026-05-03T04:05:19Z</time></trkpt>
<trkpt lat="50.600252" lon="4.094590"><time>2026-05-03T04:15:19Z</time></trkpt>
</trkseg>
</trk>
<trk>
<name>hbcbc83</name>
<cmt>q</cmt>
<desc>Braine-le-Comte Sentier n°83 </desc>
<link href="https://chemins.be/brainelecomte/sentier/83"/><trkseg>
<trkpt lat="50.599889" lon="4.085693"><time>2026-05-03T03:35:19Z</time></trkpt>
<trkpt lat="50.600643" lon="4.088627"><time>2026-05-03T03:45:19Z</time></trkpt>
<trkpt lat="50.599954" lon="4.093843"><time>2026-05-03T03:55:19Z</time></trkpt>
</trkseg>
</trk>
<trk>
<name>hbcbc84</name>
<cmt>q</cmt>
<desc>Braine-le-Comte Sentier n°84 </desc>
<link href="https://chemins.be/brainelecomte/sentier/84"/><trkseg>
<trkpt lat="50.606181" lon="4.087235"><time>2026-05-03T03:35:19Z</time></trkpt>
<trkpt lat="50.606074" lon="4.087715"><time>2026-05-03T03:45:19Z</time></trkpt>
<trkpt lat="50.606126" lon="4.088315"><time>2026-05-03T03:55:19Z</time></trkpt>
<trkpt lat="50.606252" lon="4.088710"><time>2026-05-03T04:05:19Z</time></trkpt>
</trkseg>
</trk>
<trk>
<name>hbcbc85</name>
<cmt>v</cmt>
<desc>Braine-le-Comte Sentier n°85 </desc>
<link href="https://chemins.be/brainelecomte/sentier/85"/><trkseg>
<trkpt lat="50.603902" lon="4.122906"><time>2026-05-03T03:35:19Z</time></trkpt>
<trkpt lat="50.605004" lon="4.120937"><time>2026-05-03T03:45:19Z</time></trkpt>
<trkpt lat="50.605605" lon="4.120157"><time>2026-05-03T03:55:19Z</time></trkpt>
<trkpt lat="50.606869" lon="4.118413"><time>2026-05-03T04:05:19Z</time></trkpt>
</trkseg></trk>
<trk>
<name>hbcbc85</name>
<cmt>q</cmt>
<desc>Braine-le-Comte Sentier n°85 </desc>
<link href="https://chemins.be/brainelecomte/sentier/85"/><trkseg>
<trkpt lat="50.606869" lon="4.118413"><time>2026-05-03T04:05:19Z</time></trkpt>
<trkpt lat="50.608313" lon="4.116851"><time>2026-05-03T04:15:19Z</time></trkpt>
</trkseg>
</trk>
<trk>
<name>hbcbc86</name>
<cmt>q</cmt>
<desc>Braine-le-Comte Sentier n°86 </desc>
<link href="https://chemins.be/brainelecomte/sentier/86"/><trkseg>
<trkpt lat="50.606336" lon="4.109200"><time>2026-05-03T03:35:19Z</time></trkpt>
<trkpt lat="50.604893" lon="4.111353"><time>2026-05-03T03:45:19Z</time></trkpt>
<trkpt lat="50.605074" lon="4.111596"><time>2026-05-03T03:55:19Z</time></trkpt>
<trkpt lat="50.605356" lon="4.115580"><time>2026-05-03T04:05:19Z</time></trkpt>
</trkseg>
</trk>
<trk>
<name>hbcbc87</name>
<cmt>q</cmt>
<desc>Braine-le-Comte Sentier n°87 </desc>
<link href="https://chemins.be/brainelecomte/sentier/87"/><trkseg>
<trkpt lat="50.606799" lon="4.113942"><time>2026-05-03T03:35:19Z</time></trkpt>
<trkpt lat="50.605201" lon="4.113277"><time>2026-05-03T03:45:19Z</time></trkpt>
<trkpt lat="50.604076" lon="4.113219"><time>2026-05-03T03:55:19Z</time></trkpt>
</trkseg>
</trk>
<trk>
<name>hbcbc88</name>
<cmt>v</cmt>
<desc>Braine-le-Comte Sentier n°88 </desc>
<link href="https://chemins.be/brainelecomte/sentier/88"/><trkseg>
<trkpt lat="50.606959" lon="4.124236"><time>2026-05-03T03:35:19Z</time></trkpt>
<trkpt lat="50.607057" lon="4.124285"><time>2026-05-03T03:45:19Z</time></trkpt>
<trkpt lat="50.607564" lon="4.124937"><time>2026-05-03T03:55:19Z</time></trkpt>
</trkseg>
</trk>
<trk>
<name>hbcbc89</name>
<cmt>q</cmt>
<desc>Braine-le-Comte Sentier n°89 Sentier de la fosse au poreau / Chemin des Carmes</desc>
<link href="https://chemins.be/brainelecomte/sentier/89"/><trkseg>
<trkpt lat="50.597816" lon="4.116614"><time>2026-05-03T03:35:19Z</time></trkpt>
<trkpt lat="50.598041" lon="4.116333"><time>2026-05-03T03:45:19Z</time></trkpt>
<trkpt lat="50.598704" lon="4.115570"><time>2026-05-03T03:55:19Z</time></trkpt>
</trkseg></trk>
<trk>
<name>hbcbc89</name>
<cmt>r</cmt>
<desc>Braine-le-Comte Sentier n°89 Sentier de la fosse au poreau / Chemin des Carmes</desc>
<link href="https://chemins.be/brainelecomte/sentier/89"/><trkseg>
<trkpt lat="50.598704" lon="4.115570"><time>2026-05-03T03:55:19Z</time></trkpt>
<trkpt lat="50.597544" lon="4.113968"><time>2026-05-03T04:05:19Z</time></trkpt>
</trkseg></trk>
<trk>
<name>hbcbc89</name>
<cmt>v</cmt>
<desc>Braine-le-Comte Sentier n°89 Sentier de la fosse au poreau / Chemin des Carmes</desc>
<link href="https://chemins.be/brainelecomte/sentier/89"/><trkseg>
<trkpt lat="50.597544" lon="4.113968"><time>2026-05-03T04:05:19Z</time></trkpt>
<trkpt lat="50.598396" lon="4.112652"><time>2026-05-03T04:15:19Z</time></trkpt>
</trkseg>
</trk>
<trk>
<name>hbcbc90</name>
<cmt>v</cmt>
<desc>Braine-le-Comte Sentier n°90 </desc>
<link href="https://chemins.be/brainelecomte/sentier/90"/><trkseg>
<trkpt lat="50.600476" lon="4.123467"><time>2026-05-03T03:35:19Z</time></trkpt>
<trkpt lat="50.598515" lon="4.124122"><time>2026-05-03T03:45:19Z</time></trkpt>
</trkseg></trk>
<trk>
<name>hbcbc90</name>
<cmt>d</cmt>
<desc>Braine-le-Comte Sentier n°90 </desc>
<link href="https://chemins.be/brainelecomte/sentier/90"/><trkseg>
<trkpt lat="50.598515" lon="4.124122"><time>2026-05-03T03:45:19Z</time></trkpt>
<trkpt lat="50.598269" lon="4.124529"><time>2026-05-03T03:55:19Z</time></trkpt>
<trkpt lat="50.598372" lon="4.125959"><time>2026-05-03T04:05:19Z</time></trkpt>
<trkpt lat="50.597259" lon="4.128548"><time>2026-05-03T04:15:19Z</time></trkpt>
</trkseg></trk>
<trk>
<name>hbcbc90</name>
<cmt>s</cmt>
<desc>Braine-le-Comte Sentier n°90 </desc>
<link href="https://chemins.be/brainelecomte/sentier/90"/><trkseg>
<trkpt lat="50.597259" lon="4.128548"><time>2026-05-03T04:15:19Z</time></trkpt>
<trkpt lat="50.597062" lon="4.128960"><time>2026-05-03T04:25:19Z</time></trkpt>
</trkseg></trk>
<trk>
<name>hbcbc90</name>
<cmt>d</cmt>
<desc>Braine-le-Comte Sentier n°90 </desc>
<link href="https://chemins.be/brainelecomte/sentier/90"/><trkseg>
<trkpt lat="50.597062" lon="4.128960"><time>2026-05-03T04:25:19Z</time></trkpt>
<trkpt lat="50.596315" lon="4.129389"><time>2026-05-03T04:35:19Z</time></trkpt>
<trkpt lat="50.595735" lon="4.130442"><time>2026-05-03T04:45:19Z</time></trkpt>
</trkseg></trk>
<trk>
<name>hbcbc90</name>
<cmt>v</cmt>
<desc>Braine-le-Comte Sentier n°90 </desc>
<link href="https://chemins.be/brainelecomte/sentier/90"/><trkseg>
<trkpt lat="50.595735" lon="4.130442"><time>2026-05-03T04:45:19Z</time></trkpt>
<trkpt lat="50.595464" lon="4.130934"><time>2026-05-03T04:55:19Z</time></trkpt>
</trkseg>
</trk>
<trk>
<name>hbcbc91</name>
<cmt>q</cmt>
<desc>Braine-le-Comte Sentier n°91 </desc>
<link href="https://chemins.be/brainelecomte/sentier/91"/><trkseg>
<trkpt lat="50.595470" lon="4.110990"><time>2026-05-03T03:35:19Z</time></trkpt>
<trkpt lat="50.592099" lon="4.112384"><time>2026-05-03T03:45:19Z</time></trkpt>
<trkpt lat="50.590798" lon="4.112180"><time>2026-05-03T03:55:19Z</time></trkpt>
</trkseg>
</trk>
<trk>
<name>hbcbc92</name>
<cmt>v</cmt>
<desc>Braine-le-Comte Sentier n°92 </desc>
<link href="https://chemins.be/brainelecomte/sentier/92"/><trkseg>
<trkpt lat="50.594828" lon="4.108473"><time>2026-05-03T03:35:19Z</time></trkpt>
<trkpt lat="50.594556" lon="4.108344"><time>2026-05-03T03:45:19Z</time></trkpt>
<trkpt lat="50.594169" lon="4.107709"><time>2026-05-03T03:55:19Z</time></trkpt>
<trkpt lat="50.591929" lon="4.106893"><time>2026-05-03T04:05:19Z</time></trkpt>
<trkpt lat="50.591095" lon="4.107130"><time>2026-05-03T04:15:19Z</time></trkpt>
<trkpt lat="50.590158" lon="4.106809"><time>2026-05-03T04:25:19Z</time></trkpt>
</trkseg></trk>
<trk>
<name>hbcbc92</name>
<cmt>d</cmt>
<desc>Braine-le-Comte Sentier n°92 </desc>
<link href="https://chemins.be/brainelecomte/sentier/92"/><trkseg>
<trkpt lat="50.590158" lon="4.106809"><time>2026-05-03T04:25:19Z</time></trkpt>
<trkpt lat="50.588300" lon="4.104499"><time>2026-05-03T04:35:19Z</time></trkpt>
<trkpt lat="50.585527" lon="4.101572"><time>2026-05-03T04:45:19Z</time></trkpt>
</trkseg>
</trk>
<trk>
<name>hbcbc93</name>
<cmt>q</cmt>
<desc>Braine-le-Comte Sentier n°93 </desc>
<link href="https://chemins.be/brainelecomte/sentier/93"/><trkseg>
<trkpt lat="50.591657" lon="4.095604"><time>2026-05-03T03:35:19Z</time></trkpt>
<trkpt lat="50.593400" lon="4.091356"><time>2026-05-03T03:45:19Z</time></trkpt>
<trkpt lat="50.594776" lon="4.087279"><time>2026-05-03T03:55:19Z</time></trkpt>
<trkpt lat="50.595294" lon="4.086614"><time>2026-05-03T04:05:19Z</time></trkpt>
</trkseg>
</trk>
<trk>
<name>hbcbc94</name>
<cmt>v</cmt>
<desc>Braine-le-Comte Sentier n°94 </desc>
<link href="https://chemins.be/brainelecomte/sentier/94"/><trkseg>
<trkpt lat="50.596903" lon="4.088818"><time>2026-05-03T03:35:19Z</time></trkpt>
<trkpt lat="50.597428" lon="4.090058"><time>2026-05-03T03:45:19Z</time></trkpt>
</trkseg></trk>
<trk>
<name>hbcbc94</name>
<cmt>q</cmt>
<desc>Braine-le-Comte Sentier n°94 </desc>
<link href="https://chemins.be/brainelecomte/sentier/94"/><trkseg>
<trkpt lat="50.597428" lon="4.090058"><time>2026-05-03T03:45:19Z</time></trkpt>
<trkpt lat="50.597442" lon="4.092318"><time>2026-05-03T03:55:19Z</time></trkpt>
<trkpt lat="50.597016" lon="4.094538"><time>2026-05-03T04:05:19Z</time></trkpt>
</trkseg>
</trk>
<trk>
<name>hbcbc95</name>
<cmt>q</cmt>
<desc>Braine-le-Comte Sentier n°95 </desc>
<link href="https://chemins.be/brainelecomte/sentier/95"/><trkseg>
<trkpt lat="50.586477" lon="4.118591"><time>2026-05-03T03:35:19Z</time></trkpt>
<trkpt lat="50.587035" lon="4.116710"><time>2026-05-03T03:45:19Z</time></trkpt>
<trkpt lat="50.586908" lon="4.116481"><time>2026-05-03T03:55:19Z</time></trkpt>
<trkpt lat="50.586563" lon="4.115444"><time>2026-05-03T04:05:19Z</time></trkpt>
<trkpt lat="50.586327" lon="4.114020"><time>2026-05-03T04:15:19Z</time></trkpt>
<trkpt lat="50.585792" lon="4.111837"><time>2026-05-03T04:25:19Z</time></trkpt>
<trkpt lat="50.584012" lon="4.107106"><time>2026-05-03T04:35:19Z</time></trkpt>
<trkpt lat="50.583477" lon="4.104550"><time>2026-05-03T04:45:19Z</time></trkpt>
</trkseg></trk>
<trk>
<name>hbcbc95</name>
<cmt>r</cmt>
<desc>Braine-le-Comte Sentier n°95 </desc>
<link href="https://chemins.be/brainelecomte/sentier/95"/><trkseg>
<trkpt lat="50.583477" lon="4.104550"><time>2026-05-03T04:45:19Z</time></trkpt>
<trkpt lat="50.583837" lon="4.104344"><time>2026-05-03T04:55:19Z</time></trkpt>
</trkseg></trk>
<trk>
<name>hbcbc95</name>
<cmt>q</cmt>
<desc>Braine-le-Comte Sentier n°95 </desc>
<link href="https://chemins.be/brainelecomte/sentier/95"/><trkseg>
<trkpt lat="50.583837" lon="4.104344"><time>2026-05-03T04:55:19Z</time></trkpt>
<trkpt lat="50.583685" lon="4.102216"><time>2026-05-03T05:05:19Z</time></trkpt>
<trkpt lat="50.584306" lon="4.097589"><time>2026-05-03T05:15:19Z</time></trkpt>
</trkseg>
</trk>
<trk>
<name>hbcbc96</name>
<cmt>q</cmt>
<desc>Braine-le-Comte Sentier n°96 </desc>
<link href="https://chemins.be/brainelecomte/sentier/96"/><trkseg>
<trkpt lat="50.584017" lon="4.126463"><time>2026-05-03T03:35:19Z</time></trkpt>
<trkpt lat="50.585930" lon="4.124102"><time>2026-05-03T03:45:19Z</time></trkpt>
<trkpt lat="50.586355" lon="4.122248"><time>2026-05-03T03:55:19Z</time></trkpt>
<trkpt lat="50.586551" lon="4.122051"><time>2026-05-03T04:05:19Z</time></trkpt>
<trkpt lat="50.586911" lon="4.120884"><time>2026-05-03T04:15:19Z</time></trkpt>
<trkpt lat="50.587608" lon="4.119510"><time>2026-05-03T04:25:19Z</time></trkpt>
</trkseg>
</trk>
<trk>
<name>hbcbc97</name>
<cmt>q</cmt>
<desc>Braine-le-Comte Sentier n°97 </desc>
<link href="https://chemins.be/brainelecomte/sentier/97"/><trkseg>
<trkpt lat="50.579565" lon="4.130735"><time>2026-05-03T03:35:19Z</time></trkpt>
<trkpt lat="50.582077" lon="4.125381"><time>2026-05-03T03:45:19Z</time></trkpt>
</trkseg></trk>
<trk>
<name>hbcbc97</name>
<cmt>v</cmt>
<desc>Braine-le-Comte Sentier n°97 </desc>
<link href="https://chemins.be/brainelecomte/sentier/97"/><trkseg>
<trkpt lat="50.582077" lon="4.125381"><time>2026-05-03T03:45:19Z</time></trkpt>
<trkpt lat="50.582174" lon="4.123597"><time>2026-05-03T03:55:19Z</time></trkpt>
</trkseg></trk>
<trk>
<name>hbcbc97</name>
<cmt>q</cmt>
<desc>Braine-le-Comte Sentier n°97 </desc>
<link href="https://chemins.be/brainelecomte/sentier/97"/><trkseg>
<trkpt lat="50.582174" lon="4.123597"><time>2026-05-03T03:55:19Z</time></trkpt>
<trkpt lat="50.581864" lon="4.123630"><time>2026-05-03T04:05:19Z</time></trkpt>
<trkpt lat="50.581445" lon="4.117854"><time>2026-05-03T04:15:19Z</time></trkpt>
<trkpt lat="50.581563" lon="4.117373"><time>2026-05-03T04:25:19Z</time></trkpt>
<trkpt lat="50.582949" lon="4.111760"><time>2026-05-03T04:35:19Z</time></trkpt>
<trkpt lat="50.582753" lon="4.107425"><time>2026-05-03T04:45:19Z</time></trkpt>
</trkseg>
</trk>
<trk>
<name>hbcbc98</name>
<cmt>q</cmt>
<desc>Braine-le-Comte Sentier n°98 </desc>
<link href="https://chemins.be/brainelecomte/sentier/98"/><trkseg>
<trkpt lat="50.581390" lon="4.107766"><time>2026-05-03T03:35:19Z</time></trkpt>
<trkpt lat="50.581610" lon="4.109401"><time>2026-05-03T03:45:19Z</time></trkpt>
<trkpt lat="50.582659" lon="4.109525"><time>2026-05-03T03:55:19Z</time></trkpt>
<trkpt lat="50.584014" lon="4.111057"><time>2026-05-03T04:05:19Z</time></trkpt>
<trkpt lat="50.584177" lon="4.113572"><time>2026-05-03T04:15:19Z</time></trkpt>
</trkseg>
</trk>
<trk>
<name>hbcbc99</name>
<cmt>v</cmt>
<desc>Braine-le-Comte Sentier n°99 </desc>
<link href="https://chemins.be/brainelecomte/sentier/99"/><trkseg>
<trkpt lat="50.592818" lon="4.100447"><time>2026-05-03T03:35:19Z</time></trkpt>
<trkpt lat="50.590918" lon="4.107045"><time>2026-05-03T03:45:19Z</time></trkpt>
<trkpt lat="50.590235" lon="4.106842"><time>2026-05-03T03:55:19Z</time></trkpt>
<trkpt lat="50.587339" lon="4.113204"><time>2026-05-03T04:05:19Z</time></trkpt>
</trkseg>
</trk>
<trk>
<name>hbcbci1</name>
<cmt>v</cmt>
<desc>Braine-le-Comte Sentier n°i1 </desc>
<link href="https://chemins.be/brainelecomte/sentier/i1"/><trkseg>
<trkpt lat="50.601767" lon="4.172626"><time>2026-05-03T03:35:19Z</time></trkpt>
<trkpt lat="50.601238" lon="4.173589"><time>2026-05-03T03:45:19Z</time></trkpt>
<trkpt lat="50.600898" lon="4.174509"><time>2026-05-03T03:55:19Z</time></trkpt>
<trkpt lat="50.600791" lon="4.175187"><time>2026-05-03T04:05:19Z</time></trkpt>
<trkpt lat="50.600773" lon="4.175300"><time>2026-05-03T04:15:19Z</time></trkpt>
<trkpt lat="50.601007" lon="4.175596"><time>2026-05-03T04:25:19Z</time></trkpt>
<trkpt lat="50.601403" lon="4.175622"><time>2026-05-03T04:35:19Z</time></trkpt>
<trkpt lat="50.601466" lon="4.175778"><time>2026-05-03T04:45:19Z</time></trkpt>
<trkpt lat="50.601790" lon="4.175819"><time>2026-05-03T04:55:19Z</time></trkpt>
<trkpt lat="50.602420" lon="4.176113"><time>2026-05-03T05:05:19Z</time></trkpt>
</trkseg>
</trk>
<trk>
<name>hbcbci10</name>
<cmt>v</cmt>
<desc>Braine-le-Comte Chemin n°i10 </desc>
<link href="https://chemins.be/brainelecomte/chemin/i10"/><trkseg>
<trkpt lat="50.610164" lon="4.152699"><time>2026-05-03T03:35:19Z</time></trkpt>
<trkpt lat="50.609562" lon="4.152702"><time>2026-05-03T03:45:19Z</time></trkpt>
</trkseg>
</trk>
<trk>
<name>hbcbci11</name>
<cmt>v</cmt>
<desc>Braine-le-Comte Chemin n°i11 Sentier de la Voie du Tram</desc>
<link href="https://chemins.be/brainelecomte/chemin/i11"/><trkseg>
<trkpt lat="50.608921" lon="4.173232"><time>2026-05-03T03:35:19Z</time></trkpt>
<trkpt lat="50.608841" lon="4.173161"><time>2026-05-03T03:45:19Z</time></trkpt>
<trkpt lat="50.608597" lon="4.173179"><time>2026-05-03T03:55:19Z</time></trkpt>
<trkpt lat="50.608140" lon="4.173004"><time>2026-05-03T04:05:19Z</time></trkpt>
<trkpt lat="50.607703" lon="4.172772"><time>2026-05-03T04:15:19Z</time></trkpt>
<trkpt lat="50.607348" lon="4.171883"><time>2026-05-03T04:25:19Z</time></trkpt>
<trkpt lat="50.607394" lon="4.171045"><time>2026-05-03T04:35:19Z</time></trkpt>
<trkpt lat="50.607688" lon="4.170525"><time>2026-05-03T04:45:19Z</time></trkpt>
<trkpt lat="50.607985" lon="4.170282"><time>2026-05-03T04:55:19Z</time></trkpt>
<trkpt lat="50.608451" lon="4.169872"><time>2026-05-03T05:05:19Z</time></trkpt>
<trkpt lat="50.608727" lon="4.168543"><time>2026-05-03T05:15:19Z</time></trkpt>
<trkpt lat="50.608724" lon="4.166904"><time>2026-05-03T05:25:19Z</time></trkpt>
</trkseg>
</trk>
<trk>
<name>hbcbci12</name>
<cmt>v</cmt>
<desc>Braine-le-Comte Chemin n°i12 </desc>
<link href="https://chemins.be/brainelecomte/chemin/i12"/><trkseg>
<trkpt lat="50.598002" lon="4.117146"><time>2026-05-03T03:35:19Z</time></trkpt>
<trkpt lat="50.598216" lon="4.116721"><time>2026-05-03T03:45:19Z</time></trkpt>
</trkseg>
</trk>
<trk>
<name>hbcbci13</name>
<cmt>q</cmt>
<desc>Braine-le-Comte Chemin n°i13 </desc>
<link href="https://chemins.be/brainelecomte/chemin/i13"/><trkseg>
<trkpt lat="50.620939" lon="4.141104"><time>2026-05-03T03:35:19Z</time></trkpt>
<trkpt lat="50.621029" lon="4.140751"><time>2026-05-03T03:45:19Z</time></trkpt>
<trkpt lat="50.621019" lon="4.140312"><time>2026-05-03T03:55:19Z</time></trkpt>
<trkpt lat="50.621099" lon="4.140029"><time>2026-05-03T04:05:19Z</time></trkpt>
<trkpt lat="50.621590" lon="4.138303"><time>2026-05-03T04:15:19Z</time></trkpt>
<trkpt lat="50.621788" lon="4.138189"><time>2026-05-03T04:25:19Z</time></trkpt>
<trkpt lat="50.622588" lon="4.138143"><time>2026-05-03T04:35:19Z</time></trkpt>
<trkpt lat="50.622722" lon="4.138001"><time>2026-05-03T04:45:19Z</time></trkpt>
</trkseg>
</trk>
<trk>
<name>hbcbci14</name>
<cmt>v</cmt>
<desc>Braine-le-Comte Sentier n°i14 </desc>
<link href="https://chemins.be/brainelecomte/sentier/i14"/><trkseg>
<trkpt lat="50.605791" lon="4.143772"><time>2026-05-03T03:35:19Z</time></trkpt>
<trkpt lat="50.605505" lon="4.142656"><time>2026-05-03T03:45:19Z</time></trkpt>
<trkpt lat="50.604443" lon="4.141219"><time>2026-05-03T03:55:19Z</time></trkpt>
<trkpt lat="50.603830" lon="4.140124"><time>2026-05-03T04:05:19Z</time></trkpt>
<trkpt lat="50.603326" lon="4.137978"><time>2026-05-03T04:15:19Z</time></trkpt>
<trkpt lat="50.602890" lon="4.137463"><time>2026-05-03T04:25:19Z</time></trkpt>
</trkseg>
</trk>
<trk>
<name>hbcbci15</name>
<cmt>v</cmt>
<desc>Braine-le-Comte Sentier n°i15 </desc>
<link href="https://chemins.be/brainelecomte/sentier/i15"/><trkseg>
<trkpt lat="50.609023" lon="4.168386"><time>2026-05-03T03:35:19Z</time></trkpt>
<trkpt lat="50.608727" lon="4.168430"><time>2026-05-03T03:45:19Z</time></trkpt>
<trkpt lat="50.608394" lon="4.168474"><time>2026-05-03T03:55:19Z</time></trkpt>
<trkpt lat="50.607478" lon="4.169085"><time>2026-05-03T04:05:19Z</time></trkpt>
</trkseg>
</trk>
<trk>
<name>hbcbci16</name>
<cmt>v</cmt>
<desc>Braine-le-Comte Sentier n°i16 Sentier de la Voie du Tram</desc>
<link href="https://chemins.be/brainelecomte/sentier/i16"/><trkseg>
<trkpt lat="50.611456" lon="4.176641"><time>2026-05-03T03:35:19Z</time></trkpt>
<trkpt lat="50.611716" lon="4.176739"><time>2026-05-03T03:45:19Z</time></trkpt>
<trkpt lat="50.612230" lon="4.177104"><time>2026-05-03T03:55:19Z</time></trkpt>
<trkpt lat="50.613192" lon="4.177722"><time>2026-05-03T04:05:19Z</time></trkpt>
<trkpt lat="50.613705" lon="4.178045"><time>2026-05-03T04:15:19Z</time></trkpt>
<trkpt lat="50.614056" lon="4.178128"><time>2026-05-03T04:25:19Z</time></trkpt>
<trkpt lat="50.614721" lon="4.177702"><time>2026-05-03T04:35:19Z</time></trkpt>
<trkpt lat="50.615591" lon="4.176879"><time>2026-05-03T04:45:19Z</time></trkpt>
<trkpt lat="50.615861" lon="4.176623"><time>2026-05-03T04:55:19Z</time></trkpt>
<trkpt lat="50.616112" lon="4.176424"><time>2026-05-03T05:05:19Z</time></trkpt>
</trkseg>
</trk>
<trk>
<name>hbcbci17</name>
<cmt>v</cmt>
<desc>Braine-le-Comte Sentier n°i17 Ruelle Picpus</desc>
<link href="https://chemins.be/brainelecomte/sentier/i17"/><trkseg>
<trkpt lat="50.611810" lon="4.138916"><time>2026-05-03T03:35:19Z</time></trkpt>
<trkpt lat="50.611828" lon="4.138958"><time>2026-05-03T03:45:19Z</time></trkpt>
<trkpt lat="50.611901" lon="4.139480"><time>2026-05-03T03:55:19Z</time></trkpt>
<trkpt lat="50.612386" lon="4.138927"><time>2026-05-03T04:05:19Z</time></trkpt>
<trkpt lat="50.612440" lon="4.138955"><time>2026-05-03T04:15:19Z</time></trkpt>
</trkseg>
</trk>
<trk>
<name>hbcbci18</name>
<cmt>v</cmt>
<desc>Braine-le-Comte Sentier n°i18 Sentier d'el Tienne à l'Houche</desc>
<link href="https://chemins.be/brainelecomte/sentier/i18"/><trkseg>
<trkpt lat="50.612837" lon="4.180479"><time>2026-05-03T03:35:19Z</time></trkpt>
<trkpt lat="50.612999" lon="4.180662"><time>2026-05-03T03:45:19Z</time></trkpt>
<trkpt lat="50.613224" lon="4.180731"><time>2026-05-03T03:55:19Z</time></trkpt>
<trkpt lat="50.614458" lon="4.182154"><time>2026-05-03T04:05:19Z</time></trkpt>
<trkpt lat="50.614847" lon="4.183254"><time>2026-05-03T04:15:19Z</time></trkpt>
<trkpt lat="50.615261" lon="4.183860"><time>2026-05-03T04:25:19Z</time></trkpt>
<trkpt lat="50.615712" lon="4.184692"><time>2026-05-03T04:35:19Z</time></trkpt>
</trkseg>
</trk>
<trk>
<name>hbcbci19</name>
<cmt>v</cmt>
<desc>Braine-le-Comte Sentier n°i19 Sentier d'Henripont</desc>
<link href="https://chemins.be/brainelecomte/sentier/i19"/><trkseg>
<trkpt lat="50.615712" lon="4.184692"><time>2026-05-03T03:35:19Z</time></trkpt>
<trkpt lat="50.615667" lon="4.184848"><time>2026-05-03T03:45:19Z</time></trkpt>
<trkpt lat="50.615255" lon="4.185768"><time>2026-05-03T03:55:19Z</time></trkpt>
<trkpt lat="50.614601" lon="4.187098"><time>2026-05-03T04:05:19Z</time></trkpt>
<trkpt lat="50.613848" lon="4.188656"><time>2026-05-03T04:15:19Z</time></trkpt>
</trkseg>
</trk>
<trk>
<name>hbcbci2</name>
<cmt>v</cmt>
<desc>Braine-le-Comte Chemin n°i2 Sentier de la Voie du Tram</desc>
<link href="https://chemins.be/brainelecomte/chemin/i2"/><trkseg>
<trkpt lat="50.624539" lon="4.178581"><time>2026-05-03T03:35:19Z</time></trkpt>
<trkpt lat="50.622874" lon="4.177471"><time>2026-05-03T03:45:19Z</time></trkpt>
<trkpt lat="50.621293" lon="4.177859"><time>2026-05-03T03:55:19Z</time></trkpt>
<trkpt lat="50.621113" lon="4.178072"><time>2026-05-03T04:05:19Z</time></trkpt>
<trkpt lat="50.619373" lon="4.180439"><time>2026-05-03T04:15:19Z</time></trkpt>
<trkpt lat="50.618609" lon="4.180625"><time>2026-05-03T04:25:19Z</time></trkpt>
<trkpt lat="50.618123" lon="4.180203"><time>2026-05-03T04:35:19Z</time></trkpt>
<trkpt lat="50.617732" lon="4.177548"><time>2026-05-03T04:45:19Z</time></trkpt>
<trkpt lat="50.617596" lon="4.176772"><time>2026-05-03T04:55:19Z</time></trkpt>
<trkpt lat="50.617317" lon="4.176448"><time>2026-05-03T05:05:19Z</time></trkpt>
<trkpt lat="50.617065" lon="4.176421"><time>2026-05-03T05:15:19Z</time></trkpt>
</trkseg>
</trk>
<trk>
<name>hbcbci20</name>
<cmt>v</cmt>
<desc>Braine-le-Comte Sentier n°i20 Sentier del tienne à l'Houche / Sentier du Rû</desc>
<link href="https://chemins.be/brainelecomte/sentier/i20"/><trkseg>
<trkpt lat="50.604982" lon="4.160379"><time>2026-05-03T03:35:19Z</time></trkpt>
<trkpt lat="50.605612" lon="4.160701"><time>2026-05-03T03:45:19Z</time></trkpt>
<trkpt lat="50.605693" lon="4.160729"><time>2026-05-03T03:55:19Z</time></trkpt>
<trkpt lat="50.605998" lon="4.160714"><time>2026-05-03T04:05:19Z</time></trkpt>
<trkpt lat="50.606034" lon="4.160742"><time>2026-05-03T04:15:19Z</time></trkpt>
<trkpt lat="50.606627" lon="4.160471"><time>2026-05-03T04:25:19Z</time></trkpt>
</trkseg>
</trk>
<trk>
<name>hbcbci21</name>
<cmt>v</cmt>
<desc>Braine-le-Comte Chemin n°i21 Chemin Royal</desc>
<link href="https://chemins.be/brainelecomte/chemin/i21"/><trkseg>
<trkpt lat="50.626566" lon="4.144950"><time>2026-05-03T03:35:19Z</time></trkpt>
<trkpt lat="50.626655" lon="4.144681"><time>2026-05-03T03:45:19Z</time></trkpt>
<trkpt lat="50.628437" lon="4.141111"><time>2026-05-03T03:55:19Z</time></trkpt>
<trkpt lat="50.629637" lon="4.138744"><time>2026-05-03T04:05:19Z</time></trkpt>
<trkpt lat="50.630640" lon="4.136902"><time>2026-05-03T04:15:19Z</time></trkpt>
</trkseg>
</trk>
<trk>
<name>hbcbci22</name>
<cmt>v</cmt>
<desc>Braine-le-Comte Chemin n°i22 </desc>
<link href="https://chemins.be/brainelecomte/chemin/i22"/><trkseg>
<trkpt lat="50.613575" lon="4.136241"><time>2026-05-03T03:35:19Z</time></trkpt>
<trkpt lat="50.613532" lon="4.136137"><time>2026-05-03T03:45:19Z</time></trkpt>
<trkpt lat="50.613407" lon="4.136035"><time>2026-05-03T03:55:19Z</time></trkpt>
<trkpt lat="50.613347" lon="4.136029"><time>2026-05-03T04:05:19Z</time></trkpt>
<trkpt lat="50.613276" lon="4.136009"><time>2026-05-03T04:15:19Z</time></trkpt>
<trkpt lat="50.612884" lon="4.135598"><time>2026-05-03T04:25:19Z</time></trkpt>
</trkseg>
</trk>
<trk>
<name>hbcbci23</name>
<cmt>v</cmt>
<desc>Braine-le-Comte Chemin n°i23 </desc>
<link href="https://chemins.be/brainelecomte/chemin/i23"/><trkseg>
<trkpt lat="50.616109" lon="4.137726"><time>2026-05-03T03:35:19Z</time></trkpt>
<trkpt lat="50.616289" lon="4.137210"><time>2026-05-03T03:45:19Z</time></trkpt>
<trkpt lat="50.616637" lon="4.135660"><time>2026-05-03T03:55:19Z</time></trkpt>
</trkseg>
</trk>
<trk>
<name>hbcbci24</name>
<cmt>v</cmt>
<desc>Braine-le-Comte Chemin n°i24 </desc>
<link href="https://chemins.be/brainelecomte/chemin/i24"/><trkseg>
<trkpt lat="50.611631" lon="4.093891"><time>2026-05-03T03:35:19Z</time></trkpt>
<trkpt lat="50.611685" lon="4.093911"><time>2026-05-03T03:45:19Z</time></trkpt>
<trkpt lat="50.611750" lon="4.093931"><time>2026-05-03T03:55:19Z</time></trkpt>
<trkpt lat="50.611797" lon="4.093954"><time>2026-05-03T04:05:19Z</time></trkpt>
<trkpt lat="50.611862" lon="4.093997"><time>2026-05-03T04:15:19Z</time></trkpt>
<trkpt lat="50.611925" lon="4.094065"><time>2026-05-03T04:25:19Z</time></trkpt>
<trkpt lat="50.612362" lon="4.094705"><time>2026-05-03T04:35:19Z</time></trkpt>
<trkpt lat="50.612648" lon="4.095059"><time>2026-05-03T04:45:19Z</time></trkpt>
<trkpt lat="50.612682" lon="4.095140"><time>2026-05-03T04:55:19Z</time></trkpt>
<trkpt lat="50.612699" lon="4.095193"><time>2026-05-03T05:05:19Z</time></trkpt>
<trkpt lat="50.612709" lon="4.095247"><time>2026-05-03T05:15:19Z</time></trkpt>
<trkpt lat="50.612702" lon="4.095311"><time>2026-05-03T05:25:19Z</time></trkpt>
<trkpt lat="50.612665" lon="4.095408"><time>2026-05-03T05:35:19Z</time></trkpt>
<trkpt lat="50.612624" lon="4.095478"><time>2026-05-03T05:45:19Z</time></trkpt>
<trkpt lat="50.612614" lon="4.095531"><time>2026-05-03T05:55:19Z</time></trkpt>
<trkpt lat="50.612621" lon="4.095590"><time>2026-05-03T06:05:19Z</time></trkpt>
<trkpt lat="50.612648" lon="4.095638"><time>2026-05-03T06:15:19Z</time></trkpt>
<trkpt lat="50.612777" lon="4.095848"><time>2026-05-03T06:25:19Z</time></trkpt>
<trkpt lat="50.612839" lon="4.095917"><time>2026-05-03T06:35:19Z</time></trkpt>
<trkpt lat="50.612910" lon="4.095971"><time>2026-05-03T06:45:19Z</time></trkpt>
<trkpt lat="50.613199" lon="4.096143"><time>2026-05-03T06:55:19Z</time></trkpt>
<trkpt lat="50.613438" lon="4.096229"><time>2026-05-03T07:05:19Z</time></trkpt>
<trkpt lat="50.613645" lon="4.096304"><time>2026-05-03T07:15:19Z</time></trkpt>
<trkpt lat="50.613860" lon="4.096422"><time>2026-05-03T07:25:19Z</time></trkpt>
<trkpt lat="50.613991" lon="4.096499"><time>2026-05-03T07:35:19Z</time></trkpt>
<trkpt lat="50.614050" lon="4.096534"><time>2026-05-03T07:45:19Z</time></trkpt>
</trkseg>
</trk>
<trk>
<name>hbcbci25</name>
<cmt>q</cmt>
<desc>Braine-le-Comte Chemin n°i25 Sentier Jean Bleu</desc>
<link href="https://chemins.be/brainelecomte/chemin/i25"/><trkseg>
<trkpt lat="50.598169" lon="4.161029"><time>2026-05-03T03:35:19Z</time></trkpt>
<trkpt lat="50.596120" lon="4.165853"><time>2026-05-03T03:45:19Z</time></trkpt>
</trkseg>
</trk>
<trk>
<name>hbcbci26</name>
<cmt>v</cmt>
<desc>Braine-le-Comte Chemin n°i26 </desc>
<link href="https://chemins.be/brainelecomte/chemin/i26"/><trkseg>
<trkpt lat="50.609498" lon="4.162941"><time>2026-05-03T03:35:19Z</time></trkpt>
<trkpt lat="50.608219" lon="4.163256"><time>2026-05-03T03:45:19Z</time></trkpt>
</trkseg>
</trk>
<trk>
<name>hbcbci27</name>
<cmt>v</cmt>
<desc>Braine-le-Comte Sentier n°i27 </desc>
<link href="https://chemins.be/brainelecomte/sentier/i27"/><trkseg>
<trkpt lat="50.609766" lon="4.160556"><time>2026-05-03T03:35:19Z</time></trkpt>
<trkpt lat="50.609454" lon="4.160579"><time>2026-05-03T03:45:19Z</time></trkpt>
<trkpt lat="50.609119" lon="4.160732"><time>2026-05-03T03:55:19Z</time></trkpt>
</trkseg>
</trk>
<trk>
<name>hbcbci28</name>
<cmt>v</cmt>
<desc>Braine-le-Comte Chemin n°i28 </desc>
<link href="https://chemins.be/brainelecomte/chemin/i28"/><trkseg>
<trkpt lat="50.618482" lon="4.152716"><time>2026-05-03T03:35:19Z</time></trkpt>
<trkpt lat="50.617782" lon="4.152261"><time>2026-05-03T03:45:19Z</time></trkpt>
</trkseg>
</trk>
<trk>
<name>hbcbci29</name>
<cmt>v</cmt>
<desc>Braine-le-Comte Chemin n°i29 </desc>
<link href="https://chemins.be/brainelecomte/chemin/i29"/><trkseg>
<trkpt lat="50.623750" lon="4.157960"><time>2026-05-03T03:35:19Z</time></trkpt>
<trkpt lat="50.622495" lon="4.156793"><time>2026-05-03T03:45:19Z</time></trkpt>
</trkseg>
</trk>
<trk>
<name>hbcbci3</name>
<cmt>v</cmt>
<desc>Braine-le-Comte Sentier n°i3 </desc>
<link href="https://chemins.be/brainelecomte/sentier/i3"/><trkseg>
<trkpt lat="50.599472" lon="4.176676"><time>2026-05-03T03:35:19Z</time></trkpt>
<trkpt lat="50.599832" lon="4.176829"><time>2026-05-03T03:45:19Z</time></trkpt>
<trkpt lat="50.600191" lon="4.176432"><time>2026-05-03T03:55:19Z</time></trkpt>
<trkpt lat="50.600791" lon="4.175356"><time>2026-05-03T04:05:19Z</time></trkpt>
<trkpt lat="50.601491" lon="4.174534"><time>2026-05-03T04:15:19Z</time></trkpt>
<trkpt lat="50.602021" lon="4.174137"><time>2026-05-03T04:25:19Z</time></trkpt>
</trkseg>
</trk>
<trk>
<name>hbcbci30</name>
<cmt>v</cmt>
<desc>Braine-le-Comte Chemin n°i30 </desc>
<link href="https://chemins.be/brainelecomte/chemin/i30"/><trkseg>
<trkpt lat="50.585581" lon="4.151210"><time>2026-05-03T03:35:19Z</time></trkpt>
<trkpt lat="50.585681" lon="4.151566"><time>2026-05-03T03:45:19Z</time></trkpt>
<trkpt lat="50.586499" lon="4.152553"><time>2026-05-03T03:55:19Z</time></trkpt>
<trkpt lat="50.586709" lon="4.152557"><time>2026-05-03T04:05:19Z</time></trkpt>
<trkpt lat="50.586758" lon="4.152437"><time>2026-05-03T04:15:19Z</time></trkpt>
</trkseg>
</trk>
<trk>
<name>hbcbci31</name>
<cmt>q</cmt>
<desc>Braine-le-Comte Chemin n°i31 </desc>
<link href="https://chemins.be/brainelecomte/chemin/i31"/><trkseg>
<trkpt lat="50.586356" lon="4.135494"><time>2026-05-03T03:35:19Z</time></trkpt>
<trkpt lat="50.589822" lon="4.140713"><time>2026-05-03T03:45:19Z</time></trkpt>
</trkseg>
</trk>
<trk>
<name>hbcbci32</name>
<cmt>v</cmt>
<desc>Braine-le-Comte Chemin n°i32 </desc>
<link href="https://chemins.be/brainelecomte/chemin/i32"/><trkseg>
<trkpt lat="50.613279" lon="4.148643"><time>2026-05-03T03:35:19Z</time></trkpt>
<trkpt lat="50.613584" lon="4.149021"><time>2026-05-03T03:45:19Z</time></trkpt>
<trkpt lat="50.613889" lon="4.149021"><time>2026-05-03T03:55:19Z</time></trkpt>
<trkpt lat="50.614700" lon="4.150120"><time>2026-05-03T04:05:19Z</time></trkpt>
<trkpt lat="50.615261" lon="4.151090"><time>2026-05-03T04:15:19Z</time></trkpt>
<trkpt lat="50.618338" lon="4.154531"><time>2026-05-03T04:25:19Z</time></trkpt>
</trkseg>
</trk>
<trk>
<name>hbcbci33</name>
<cmt>v</cmt>
<desc>Braine-le-Comte Chemin n°i33 </desc>
<link href="https://chemins.be/brainelecomte/chemin/i33"/><trkseg>
<trkpt lat="50.585134" lon="4.127451"><time>2026-05-03T03:35:19Z</time></trkpt>
<trkpt lat="50.586052" lon="4.125979"><time>2026-05-03T03:45:19Z</time></trkpt>
<trkpt lat="50.586104" lon="4.125717"><time>2026-05-03T03:55:19Z</time></trkpt>
</trkseg>
</trk>
<trk>
<name>hbcbci34</name>
<cmt>v</cmt>
<desc>Braine-le-Comte Chemin n°i34 </desc>
<link href="https://chemins.be/brainelecomte/chemin/i34"/><trkseg>
<trkpt lat="50.585662" lon="4.125352"><time>2026-05-03T03:35:19Z</time></trkpt>
<trkpt lat="50.585918" lon="4.124108"><time>2026-05-03T03:45:19Z</time></trkpt>
</trkseg>
</trk>
<trk>
<name>hbcbci35</name>
<cmt>v</cmt>
<desc>Braine-le-Comte Sentier n°i35 Sentier des Fées</desc>
<link href="https://chemins.be/brainelecomte/sentier/i35"/><trkseg>
<trkpt lat="50.610917" lon="4.186465"><time>2026-05-03T03:35:19Z</time></trkpt>
<trkpt lat="50.610219" lon="4.188181"><time>2026-05-03T03:45:19Z</time></trkpt>
<trkpt lat="50.610296" lon="4.189623"><time>2026-05-03T03:55:19Z</time></trkpt>
<trkpt lat="50.610557" lon="4.190344"><time>2026-05-03T04:05:19Z</time></trkpt>
</trkseg>
</trk>
<trk>
<name>hbcbci36</name>
<cmt>v</cmt>
<desc>Braine-le-Comte Sentier n°i36 </desc>
<link href="https://chemins.be/brainelecomte/sentier/i36"/><trkseg>
<trkpt lat="50.599566" lon="4.131280"><time>2026-05-03T03:35:19Z</time></trkpt>
<trkpt lat="50.598949" lon="4.130500"><time>2026-05-03T03:45:19Z</time></trkpt>
</trkseg></trk>
<trk>
<name>hbcbci36</name>
<cmt>d</cmt>
<desc>Braine-le-Comte Sentier n°i36 </desc>
<link href="https://chemins.be/brainelecomte/sentier/i36"/><trkseg>
<trkpt lat="50.598949" lon="4.130500"><time>2026-05-03T03:45:19Z</time></trkpt>
<trkpt lat="50.597266" lon="4.128509"><time>2026-05-03T03:55:19Z</time></trkpt>
</trkseg>
</trk>
<trk>
<name>hbcbci37</name>
<cmt>r</cmt>
<desc>Braine-le-Comte Chemin n°i37 </desc>
<link href="https://chemins.be/brainelecomte/chemin/i37"/><trkseg>
<trkpt lat="50.599348" lon="4.131809"><time>2026-05-03T03:35:19Z</time></trkpt>
<trkpt lat="50.598714" lon="4.131007"><time>2026-05-03T03:45:19Z</time></trkpt>
</trkseg></trk>
<trk>
<name>hbcbci37</name>
<cmt>d</cmt>
<desc>Braine-le-Comte Chemin n°i37 </desc>
<link href="https://chemins.be/brainelecomte/chemin/i37"/><trkseg>
<trkpt lat="50.598714" lon="4.131007"><time>2026-05-03T03:45:19Z</time></trkpt>
<trkpt lat="50.598714" lon="4.131007"><time>2026-05-03T03:55:19Z</time></trkpt>
<trkpt lat="50.597532" lon="4.129513"><time>2026-05-03T04:05:19Z</time></trkpt>
</trkseg></trk>
<trk>
<name>hbcbci37</name>
<cmt>v</cmt>
<desc>Braine-le-Comte Chemin n°i37 </desc>
<link href="https://chemins.be/brainelecomte/chemin/i37"/><trkseg>
<trkpt lat="50.597532" lon="4.129513"><time>2026-05-03T04:05:19Z</time></trkpt>
<trkpt lat="50.597042" lon="4.128896"><time>2026-05-03T04:15:19Z</time></trkpt>
</trkseg></trk>
<trk>
<name>hbcbci37</name>
<cmt>d</cmt>
<desc>Braine-le-Comte Chemin n°i37 </desc>
<link href="https://chemins.be/brainelecomte/chemin/i37"/><trkseg>
<trkpt lat="50.597042" lon="4.128896"><time>2026-05-03T04:15:19Z</time></trkpt>
<trkpt lat="50.596040" lon="4.127883"><time>2026-05-03T04:25:19Z</time></trkpt>
<trkpt lat="50.594718" lon="4.126865"><time>2026-05-03T04:35:19Z</time></trkpt>
<trkpt lat="50.591666" lon="4.125749"><time>2026-05-03T04:45:19Z</time></trkpt>
</trkseg>
</trk>
<trk>
<name>hbcbci38</name>
<cmt>v</cmt>
<desc>Braine-le-Comte Chemin n°i38 </desc>
<link href="https://chemins.be/brainelecomte/chemin/i38"/><trkseg>
<trkpt lat="50.609071" lon="4.176879"><time>2026-05-03T03:35:19Z</time></trkpt>
<trkpt lat="50.610015" lon="4.179354"><time>2026-05-03T03:45:19Z</time></trkpt>
<trkpt lat="50.611800" lon="4.182512"><time>2026-05-03T03:55:19Z</time></trkpt>
<trkpt lat="50.613592" lon="4.184926"><time>2026-05-03T04:05:19Z</time></trkpt>
<trkpt lat="50.614286" lon="4.185348"><time>2026-05-03T04:15:19Z</time></trkpt>
<trkpt lat="50.614794" lon="4.185262"><time>2026-05-03T04:25:19Z</time></trkpt>
<trkpt lat="50.615203" lon="4.185569"><time>2026-05-03T04:35:19Z</time></trkpt>
</trkseg>
</trk>
<trk>
<name>hbcbci39</name>
<cmt>v</cmt>
<desc>Braine-le-Comte Chemin n°i39 Chemin Royal</desc>
<link href="https://chemins.be/brainelecomte/chemin/i39"/><trkseg>
<trkpt lat="50.619728" lon="4.195476"><time>2026-05-03T03:35:19Z</time></trkpt>
<trkpt lat="50.613937" lon="4.188595"><time>2026-05-03T03:45:19Z</time></trkpt>
<trkpt lat="50.609404" lon="4.183401"><time>2026-05-03T03:55:19Z</time></trkpt>
<trkpt lat="50.605022" lon="4.178381"><time>2026-05-03T04:05:19Z</time></trkpt>
</trkseg>
</trk>
<trk>
<name>hbcbci4</name>
<cmt>v</cmt>
<desc>Braine-le-Comte Chemin n°i4 Sentier de la fontaine Saint Nicolas</desc>
<link href="https://chemins.be/brainelecomte/chemin/i4"/><trkseg>
<trkpt lat="50.596271" lon="4.165869"><time>2026-05-03T03:35:19Z</time></trkpt>
<trkpt lat="50.596470" lon="4.166575"><time>2026-05-03T03:45:19Z</time></trkpt>
<trkpt lat="50.599404" lon="4.168144"><time>2026-05-03T03:55:19Z</time></trkpt>
<trkpt lat="50.599576" lon="4.168864"><time>2026-05-03T04:05:19Z</time></trkpt>
<trkpt lat="50.600540" lon="4.170060"><time>2026-05-03T04:15:19Z</time></trkpt>
<trkpt lat="50.603276" lon="4.171744"><time>2026-05-03T04:25:19Z</time></trkpt>
</trkseg>
</trk>
<trk>
<name>hbcbci40</name>
<cmt>v</cmt>
<desc>Braine-le-Comte Chemin n°i40 </desc>
<link href="https://chemins.be/brainelecomte/chemin/i40"/><trkseg>
<trkpt lat="50.608961" lon="4.174397"><time>2026-05-03T03:35:19Z</time></trkpt>
<trkpt lat="50.608107" lon="4.175885"><time>2026-05-03T03:45:19Z</time></trkpt>
<trkpt lat="50.607222" lon="4.175992"><time>2026-05-03T03:55:19Z</time></trkpt>
<trkpt lat="50.606246" lon="4.176521"><time>2026-05-03T04:05:19Z</time></trkpt>
</trkseg>
</trk>
<trk>
<name>hbcbci5</name>
<cmt>v</cmt>
<desc>Braine-le-Comte Chemin n°i5 Sentier du Bonhomme de Fer</desc>
<link href="https://chemins.be/brainelecomte/chemin/i5"/><trkseg>
<trkpt lat="50.588268" lon="4.164760"><time>2026-05-03T03:35:19Z</time></trkpt>
<trkpt lat="50.588403" lon="4.164618"><time>2026-05-03T03:45:19Z</time></trkpt>
<trkpt lat="50.588573" lon="4.164547"><time>2026-05-03T03:55:19Z</time></trkpt>
<trkpt lat="50.588789" lon="4.164659"><time>2026-05-03T04:05:19Z</time></trkpt>
<trkpt lat="50.588861" lon="4.164319"><time>2026-05-03T04:15:19Z</time></trkpt>
<trkpt lat="50.588959" lon="4.164220"><time>2026-05-03T04:25:19Z</time></trkpt>
<trkpt lat="50.588914" lon="4.163952"><time>2026-05-03T04:35:19Z</time></trkpt>
<trkpt lat="50.589075" lon="4.163584"><time>2026-05-03T04:45:19Z</time></trkpt>
<trkpt lat="50.589444" lon="4.163526"><time>2026-05-03T04:55:19Z</time></trkpt>
<trkpt lat="50.589696" lon="4.163694"><time>2026-05-03T05:05:19Z</time></trkpt>
<trkpt lat="50.589983" lon="4.163679"><time>2026-05-03T05:15:19Z</time></trkpt>
<trkpt lat="50.590127" lon="4.163735"><time>2026-05-03T05:25:19Z</time></trkpt>
<trkpt lat="50.590425" lon="4.164115"><time>2026-05-03T05:35:19Z</time></trkpt>
<trkpt lat="50.590948" lon="4.165341"><time>2026-05-03T05:45:19Z</time></trkpt>
<trkpt lat="50.592263" lon="4.166663"><time>2026-05-03T05:55:19Z</time></trkpt>
</trkseg>
</trk>
<trk>
<name>hbcbci6</name>
<cmt>v</cmt>
<desc>Braine-le-Comte Chemin n°i6 Sentier de la Haute Houssière</desc>
<link href="https://chemins.be/brainelecomte/chemin/i6"/><trkseg>
<trkpt lat="50.590816" lon="4.167150"><time>2026-05-03T03:35:19Z</time></trkpt>
<trkpt lat="50.590563" lon="4.166388"><time>2026-05-03T03:45:19Z</time></trkpt>
<trkpt lat="50.590410" lon="4.165824"><time>2026-05-03T03:55:19Z</time></trkpt>
<trkpt lat="50.590084" lon="4.164992"><time>2026-05-03T04:05:19Z</time></trkpt>
<trkpt lat="50.589742" lon="4.164669"><time>2026-05-03T04:15:19Z</time></trkpt>
<trkpt lat="50.589302" lon="4.164628"><time>2026-05-03T04:25:19Z</time></trkpt>
<trkpt lat="50.588843" lon="4.164743"><time>2026-05-03T04:35:19Z</time></trkpt>
<trkpt lat="50.588448" lon="4.165098"><time>2026-05-03T04:45:19Z</time></trkpt>
</trkseg>
</trk>
<trk>
<name>hbcbci7</name>
<cmt>v</cmt>
<desc>Braine-le-Comte Sentier n°i7 </desc>
<link href="https://chemins.be/brainelecomte/sentier/i7"/><trkseg>
<trkpt lat="50.588277" lon="4.164859"><time>2026-05-03T03:35:19Z</time></trkpt>
<trkpt lat="50.588385" lon="4.164759"><time>2026-05-03T03:45:19Z</time></trkpt>
<trkpt lat="50.588583" lon="4.164773"><time>2026-05-03T03:55:19Z</time></trkpt>
<trkpt lat="50.588789" lon="4.164729"><time>2026-05-03T04:05:19Z</time></trkpt>
</trkseg>
</trk>
<trk>
<name>hbcbci8</name>
<cmt>v</cmt>
<desc>Braine-le-Comte Chemin n°i8 </desc>
<link href="https://chemins.be/brainelecomte/chemin/i8"/><trkseg>
<trkpt lat="50.591122" lon="4.166965"><time>2026-05-03T03:35:19Z</time></trkpt>
<trkpt lat="50.591930" lon="4.166735"><time>2026-05-03T03:45:19Z</time></trkpt>
<trkpt lat="50.592317" lon="4.166804"><time>2026-05-03T03:55:19Z</time></trkpt>
<trkpt lat="50.593916" lon="4.166247"><time>2026-05-03T04:05:19Z</time></trkpt>
<trkpt lat="50.594266" lon="4.165398"><time>2026-05-03T04:15:19Z</time></trkpt>
<trkpt lat="50.594301" lon="4.165242"><time>2026-05-03T04:25:19Z</time></trkpt>
<trkpt lat="50.594804" lon="4.164958"><time>2026-05-03T04:35:19Z</time></trkpt>
<trkpt lat="50.595389" lon="4.165209"><time>2026-05-03T04:45:19Z</time></trkpt>
</trkseg>
</trk>
<trk>
<name>hbcbci9</name>
<cmt>v</cmt>
<desc>Braine-le-Comte Chemin n°i9 Sentier de la Triherée</desc>
<link href="https://chemins.be/brainelecomte/chemin/i9"/><trkseg>
<trkpt lat="50.592937" lon="4.166646"><time>2026-05-03T03:35:19Z</time></trkpt>
<trkpt lat="50.594854" lon="4.167923"><time>2026-05-03T03:45:19Z</time></trkpt>
<trkpt lat="50.595187" lon="4.167964"><time>2026-05-03T03:55:19Z</time></trkpt>
<trkpt lat="50.595438" lon="4.167328"><time>2026-05-03T04:05:19Z</time></trkpt>
<trkpt lat="50.595372" lon="4.165788"><time>2026-05-03T04:15:19Z</time></trkpt>
<trkpt lat="50.595803" lon="4.165589"><time>2026-05-03T04:25:19Z</time></trkpt>
</trkseg>
</trk>
<trk>
<name>hbcbcL123</name>
<cmt>v</cmt>
<desc>Braine-le-Comte Chemin n°L123 ex ligne SNCB</desc>
<link href="https://chemins.be/brainelecomte/chemin/L123"/><trkseg>
<trkpt lat="50.633940" lon="4.119372"><time>2026-05-03T03:35:19Z</time></trkpt>
<trkpt lat="50.632620" lon="4.120227"><time>2026-05-03T03:45:19Z</time></trkpt>
<trkpt lat="50.631615" lon="4.121109"><time>2026-05-03T03:55:19Z</time></trkpt>
<trkpt lat="50.631202" lon="4.121563"><time>2026-05-03T04:05:19Z</time></trkpt>
<trkpt lat="50.630817" lon="4.122046"><time>2026-05-03T04:15:19Z</time></trkpt>
<trkpt lat="50.629929" lon="4.123209"><time>2026-05-03T04:25:19Z</time></trkpt>
<trkpt lat="50.627290" lon="4.126890"><time>2026-05-03T04:35:19Z</time></trkpt>
<trkpt lat="50.625492" lon="4.129451"><time>2026-05-03T04:45:19Z</time></trkpt>
<trkpt lat="50.624291" lon="4.131082"><time>2026-05-03T04:55:19Z</time></trkpt>
<trkpt lat="50.622839" lon="4.133167"><time>2026-05-03T05:05:19Z</time></trkpt>
<trkpt lat="50.618383" lon="4.139393"><time>2026-05-03T05:15:19Z</time></trkpt>
<trkpt lat="50.614964" lon="4.144109"><time>2026-05-03T05:25:19Z</time></trkpt>
<trkpt lat="50.613171" lon="4.145409"><time>2026-05-03T05:35:19Z</time></trkpt>
<trkpt lat="50.612191" lon="4.145201"><time>2026-05-03T05:45:19Z</time></trkpt>
<trkpt lat="50.611179" lon="4.145075"><time>2026-05-03T05:55:19Z</time></trkpt>
</trkseg>
</trk>
<trk>
<name>hbchp11</name>
<cmt>q</cmt>
<desc>Henripont Sentier n°11 Rue de la Senette</desc>
<link href="https://chemins.be/henripont/sentier/11"/><trkseg>
<trkpt lat="50.592832" lon="4.184583"><time>2026-05-03T03:35:19Z</time></trkpt>
<trkpt lat="50.592663" lon="4.186067"><time>2026-05-03T03:45:19Z</time></trkpt>
<trkpt lat="50.592620" lon="4.186731"><time>2026-05-03T03:55:19Z</time></trkpt>
</trkseg></trk>
<trk>
<name>hbchp11</name>
<cmt>r</cmt>
<desc>Henripont Sentier n°11 Rue de la Senette</desc>
<link href="https://chemins.be/henripont/sentier/11"/><trkseg>
<trkpt lat="50.592620" lon="4.186731"><time>2026-05-03T03:55:19Z</time></trkpt>
<trkpt lat="50.593078" lon="4.186870"><time>2026-05-03T04:05:19Z</time></trkpt>
</trkseg></trk>
<trk>
<name>hbchp11</name>
<cmt>q</cmt>
<desc>Henripont Sentier n°11 Rue de la Senette</desc>
<link href="https://chemins.be/henripont/sentier/11"/><trkseg>
<trkpt lat="50.593078" lon="4.186870"><time>2026-05-03T04:05:19Z</time></trkpt>
<trkpt lat="50.593061" lon="4.187251"><time>2026-05-03T04:15:19Z</time></trkpt>
<trkpt lat="50.594025" lon="4.188674"><time>2026-05-03T04:25:19Z</time></trkpt>
<trkpt lat="50.594324" lon="4.190156"><time>2026-05-03T04:35:19Z</time></trkpt>
</trkseg>
</trk>
<trk>
<name>hbchp12</name>
<cmt>q</cmt>
<desc>Henripont Sentier n°12 </desc>
<link href="https://chemins.be/henripont/sentier/12"/><trkseg>
<trkpt lat="50.594306" lon="4.190142"><time>2026-05-03T03:35:19Z</time></trkpt>
<trkpt lat="50.593721" lon="4.189862"><time>2026-05-03T03:45:19Z</time></trkpt>
<trkpt lat="50.592975" lon="4.190034"><time>2026-05-03T03:55:19Z</time></trkpt>
</trkseg>
</trk>
<trk>
<name>hbchp13</name>
<cmt>v</cmt>
<desc>Henripont Sentier n°13 </desc>
<link href="https://chemins.be/henripont/sentier/13"/><trkseg>
<trkpt lat="50.597920" lon="4.190256"><time>2026-05-03T03:35:19Z</time></trkpt>
<trkpt lat="50.597606" lon="4.190440"><time>2026-05-03T03:45:19Z</time></trkpt>
<trkpt lat="50.597193" lon="4.190724"><time>2026-05-03T03:55:19Z</time></trkpt>
</trkseg></trk>
<trk>
<name>hbchp13</name>
<cmt>q</cmt>
<desc>Henripont Sentier n°13 </desc>
<link href="https://chemins.be/henripont/sentier/13"/><trkseg>
<trkpt lat="50.597193" lon="4.190724"><time>2026-05-03T03:55:19Z</time></trkpt>
<trkpt lat="50.596672" lon="4.191207"><time>2026-05-03T04:05:19Z</time></trkpt>
<trkpt lat="50.595944" lon="4.191435"><time>2026-05-03T04:15:19Z</time></trkpt>
<trkpt lat="50.595944" lon="4.191464"><time>2026-05-03T04:25:19Z</time></trkpt>
<trkpt lat="50.595639" lon="4.191973"><time>2026-05-03T04:35:19Z</time></trkpt>
</trkseg>
</trk>
<trk>
<name>hbchp14</name>
<cmt>v</cmt>
<desc>Henripont Sentier n°14 </desc>
<link href="https://chemins.be/henripont/sentier/14"/><trkseg>
<trkpt lat="50.598270" lon="4.189859"><time>2026-05-03T03:35:19Z</time></trkpt>
<trkpt lat="50.598090" lon="4.189605"><time>2026-05-03T03:45:19Z</time></trkpt>
</trkseg></trk>
<trk>
<name>hbchp14</name>
<cmt>q</cmt>
<desc>Henripont Sentier n°14 </desc>
<link href="https://chemins.be/henripont/sentier/14"/><trkseg>
<trkpt lat="50.598090" lon="4.189605"><time>2026-05-03T03:45:19Z</time></trkpt>
<trkpt lat="50.597676" lon="4.189056"><time>2026-05-03T03:55:19Z</time></trkpt>
<trkpt lat="50.597207" lon="4.188351"><time>2026-05-03T04:05:19Z</time></trkpt>
<trkpt lat="50.596847" lon="4.188042"><time>2026-05-03T04:15:19Z</time></trkpt>
<trkpt lat="50.596811" lon="4.188099"><time>2026-05-03T04:25:19Z</time></trkpt>
<trkpt lat="50.596442" lon="4.188100"><time>2026-05-03T04:35:19Z</time></trkpt>
<trkpt lat="50.595149" lon="4.188755"><time>2026-05-03T04:45:19Z</time></trkpt>
<trkpt lat="50.594673" lon="4.188870"><time>2026-05-03T04:55:19Z</time></trkpt>
<trkpt lat="50.594007" lon="4.188703"><time>2026-05-03T05:05:19Z</time></trkpt>
</trkseg>
</trk>
<trk>
<name>hbchp15</name>
<cmt>d</cmt>
<desc>Henripont Sentier n°15 Sentier du Castia</desc>
<link href="https://chemins.be/henripont/sentier/15"/><trkseg>
<trkpt lat="50.594835" lon="4.183671"><time>2026-05-03T03:35:19Z</time></trkpt>
<trkpt lat="50.593987" lon="4.181443"><time>2026-05-03T03:45:19Z</time></trkpt>
<trkpt lat="50.593465" lon="4.181572"><time>2026-05-03T03:55:19Z</time></trkpt>
</trkseg></trk>
<trk>
<name>hbchp15</name>
<cmt>v</cmt>
<desc>Henripont Sentier n°15 Sentier du Castia</desc>
<link href="https://chemins.be/henripont/sentier/15"/><trkseg>
<trkpt lat="50.593465" lon="4.181572"><time>2026-05-03T03:55:19Z</time></trkpt>
<trkpt lat="50.593482" lon="4.180372"><time>2026-05-03T04:05:19Z</time></trkpt>
<trkpt lat="50.594281" lon="4.179691"><time>2026-05-03T04:15:19Z</time></trkpt>
<trkpt lat="50.594721" lon="4.179505"><time>2026-05-03T04:25:19Z</time></trkpt>
<trkpt lat="50.594872" lon="4.178290"><time>2026-05-03T04:35:19Z</time></trkpt>
<trkpt lat="50.595075" lon="4.176044"><time>2026-05-03T04:45:19Z</time></trkpt>
<trkpt lat="50.595235" lon="4.174828"><time>2026-05-03T04:55:19Z</time></trkpt>
<trkpt lat="50.595519" lon="4.173048"><time>2026-05-03T05:05:19Z</time></trkpt>
<trkpt lat="50.595858" lon="4.171478"><time>2026-05-03T05:15:19Z</time></trkpt>
</trkseg>
</trk>
<trk>
<name>hbchp16</name>
<cmt>v</cmt>
<desc>Henripont Sentier n°16 Allée de la Chapelle / Sentier de la Fontaine Saint-Nicolas</desc>
<link href="https://chemins.be/henripont/sentier/16"/><trkseg>
<trkpt lat="50.597535" lon="4.185652"><time>2026-05-03T03:35:19Z</time></trkpt>
<trkpt lat="50.597769" lon="4.185411"><time>2026-05-03T03:45:19Z</time></trkpt>
<trkpt lat="50.598037" lon="4.184634"><time>2026-05-03T03:55:19Z</time></trkpt>
<trkpt lat="50.598288" lon="4.184053"><time>2026-05-03T04:05:19Z</time></trkpt>
<trkpt lat="50.598396" lon="4.183799"><time>2026-05-03T04:15:19Z</time></trkpt>
<trkpt lat="50.598770" lon="4.181989"><time>2026-05-03T04:25:19Z</time></trkpt>
</trkseg></trk>
<trk>
<name>hbchp16</name>
<cmt>d</cmt>
<desc>Henripont Sentier n°16 Allée de la Chapelle / Sentier de la Fontaine Saint-Nicolas</desc>
<link href="https://chemins.be/henripont/sentier/16"/><trkseg>
<trkpt lat="50.598770" lon="4.181989"><time>2026-05-03T04:25:19Z</time></trkpt>
<trkpt lat="50.598778" lon="4.181467"><time>2026-05-03T04:35:19Z</time></trkpt>
<trkpt lat="50.598633" lon="4.180394"><time>2026-05-03T04:45:19Z</time></trkpt>
<trkpt lat="50.599394" lon="4.178427"><time>2026-05-03T04:55:19Z</time></trkpt>
</trkseg>
</trk>
<trk>
<name>hbchp17</name>
<cmt>v</cmt>
<desc>Henripont Sentier n°17 </desc>
<link href="https://chemins.be/henripont/sentier/17"/><trkseg>
<trkpt lat="50.599315" lon="4.185518"><time>2026-05-03T03:35:19Z</time></trkpt>
<trkpt lat="50.599280" lon="4.185773"><time>2026-05-03T03:45:19Z</time></trkpt>
<trkpt lat="50.599407" lon="4.186450"><time>2026-05-03T03:55:19Z</time></trkpt>
<trkpt lat="50.599443" lon="4.186620"><time>2026-05-03T04:05:19Z</time></trkpt>
<trkpt lat="50.599372" lon="4.187157"><time>2026-05-03T04:15:19Z</time></trkpt>
<trkpt lat="50.599094" lon="4.187822"><time>2026-05-03T04:25:19Z</time></trkpt>
<trkpt lat="50.598915" lon="4.188260"><time>2026-05-03T04:35:19Z</time></trkpt>
<trkpt lat="50.598789" lon="4.188317"><time>2026-05-03T04:45:19Z</time></trkpt>
</trkseg>
</trk>
<trk>
<name>hbchp18</name>
<cmt>v</cmt>
<desc>Henripont Sentier n°18 </desc>
<link href="https://chemins.be/henripont/sentier/18"/><trkseg>
<trkpt lat="50.599156" lon="4.188836"><time>2026-05-03T03:35:19Z</time></trkpt>
<trkpt lat="50.599587" lon="4.189419"><time>2026-05-03T03:45:19Z</time></trkpt>
</trkseg>
</trk>
<trk>
<name>hbchp19</name>
<cmt>r</cmt>
<desc>Henripont Sentier n°19 Rue des Bruyères</desc>
<link href="https://chemins.be/henripont/sentier/19"/><trkseg>
<trkpt lat="50.600352" lon="4.187167"><time>2026-05-03T03:35:19Z</time></trkpt>
<trkpt lat="50.600757" lon="4.187688"><time>2026-05-03T03:45:19Z</time></trkpt>
</trkseg>
</trk>
<trk>
<name>hbchp2</name>
<cmt>s</cmt>
<desc>Henripont Chemin n°2 </desc>
<link href="https://chemins.be/henripont/chemin/2"/><trkseg>
<trkpt lat="50.597382" lon="4.191006"><time>2026-05-03T03:35:19Z</time></trkpt>
<trkpt lat="50.597211" lon="4.190738"><time>2026-05-03T03:45:19Z</time></trkpt>
</trkseg></trk>
<trk>
<name>hbchp2</name>
<cmt>v</cmt>
<desc>Henripont Chemin n°2 </desc>
<link href="https://chemins.be/henripont/chemin/2"/><trkseg>
<trkpt lat="50.597211" lon="4.190738"><time>2026-05-03T03:45:19Z</time></trkpt>
<trkpt lat="50.596806" lon="4.190500"><time>2026-05-03T03:55:19Z</time></trkpt>
<trkpt lat="50.596536" lon="4.190331"><time>2026-05-03T04:05:19Z</time></trkpt>
<trkpt lat="50.596446" lon="4.190318"><time>2026-05-03T04:15:19Z</time></trkpt>
<trkpt lat="50.596293" lon="4.190346"><time>2026-05-03T04:25:19Z</time></trkpt>
<trkpt lat="50.596134" lon="4.190261"><time>2026-05-03T04:35:19Z</time></trkpt>
<trkpt lat="50.595628" lon="4.190561"><time>2026-05-03T04:45:19Z</time></trkpt>
<trkpt lat="50.595565" lon="4.190575"><time>2026-05-03T04:55:19Z</time></trkpt>
</trkseg></trk>
<trk>
<name>hbchp2</name>
<cmt>d</cmt>
<desc>Henripont Chemin n°2 </desc>
<link href="https://chemins.be/henripont/chemin/2"/><trkseg>
<trkpt lat="50.595565" lon="4.190575"><time>2026-05-03T04:55:19Z</time></trkpt>
<trkpt lat="50.594360" lon="4.190142"><time>2026-05-03T05:05:19Z</time></trkpt>
</trkseg>
</trk>
<trk>
<name>hbchp20</name>
<cmt>v</cmt>
<desc>Henripont Chemin n°20 Rue de la Senette</desc>
<link href="https://chemins.be/henripont/chemin/20"/><trkseg>
<trkpt lat="50.592620" lon="4.186773"><time>2026-05-03T03:35:19Z</time></trkpt>
<trkpt lat="50.591871" lon="4.185462"><time>2026-05-03T03:45:19Z</time></trkpt>
<trkpt lat="50.591682" lon="4.185364"><time>2026-05-03T03:55:19Z</time></trkpt>
<trkpt lat="50.591107" lon="4.185112"><time>2026-05-03T04:05:19Z</time></trkpt>
<trkpt lat="50.590792" lon="4.184775"><time>2026-05-03T04:15:19Z</time></trkpt>
</trkseg>
</trk>
<trk>
<name>hbchp21</name>
<cmt>q</cmt>
<desc>Henripont Sentier n°21 </desc>
<link href="https://chemins.be/henripont/sentier/21"/><trkseg>
<trkpt lat="50.591871" lon="4.185519"><time>2026-05-03T03:35:19Z</time></trkpt>
<trkpt lat="50.591844" lon="4.185081"><time>2026-05-03T03:45:19Z</time></trkpt>
<trkpt lat="50.592050" lon="4.184530"><time>2026-05-03T03:55:19Z</time></trkpt>
<trkpt lat="50.591959" lon="4.184233"><time>2026-05-03T04:05:19Z</time></trkpt>
<trkpt lat="50.592480" lon="4.183765"><time>2026-05-03T04:15:19Z</time></trkpt>
</trkseg></trk>
<trk>
<name>hbchp21</name>
<cmt>v</cmt>
<desc>Henripont Sentier n°21 </desc>
<link href="https://chemins.be/henripont/sentier/21"/><trkseg>
<trkpt lat="50.592480" lon="4.183765"><time>2026-05-03T04:15:19Z</time></trkpt>
<trkpt lat="50.592686" lon="4.183524"><time>2026-05-03T04:25:19Z</time></trkpt>
<trkpt lat="50.593162" lon="4.182788"><time>2026-05-03T04:35:19Z</time></trkpt>
<trkpt lat="50.593466" lon="4.181601"><time>2026-05-03T04:45:19Z</time></trkpt>
</trkseg>
</trk>
<trk>
<name>hbchp22</name>
<cmt>v</cmt>
<desc>Henripont Sentier n°22 </desc>
<link href="https://chemins.be/henripont/sentier/22"/><trkseg>
<trkpt lat="50.597160" lon="4.186883"><time>2026-05-03T03:35:19Z</time></trkpt>
<trkpt lat="50.596998" lon="4.186968"><time>2026-05-03T03:45:19Z</time></trkpt>
<trkpt lat="50.596819" lon="4.187166"><time>2026-05-03T03:55:19Z</time></trkpt>
<trkpt lat="50.596918" lon="4.187364"><time>2026-05-03T04:05:19Z</time></trkpt>
<trkpt lat="50.596811" lon="4.188028"><time>2026-05-03T04:15:19Z</time></trkpt>
</trkseg></trk>
<trk>
<name>hbchp22</name>
<cmt>q</cmt>
<desc>Henripont Sentier n°22 </desc>
<link href="https://chemins.be/henripont/sentier/22"/><trkseg>
<trkpt lat="50.596811" lon="4.188028"><time>2026-05-03T04:15:19Z</time></trkpt>
<trkpt lat="50.596758" lon="4.188565"><time>2026-05-03T04:25:19Z</time></trkpt>
<trkpt lat="50.596158" lon="4.190361"><time>2026-05-03T04:35:19Z</time></trkpt>
<trkpt lat="50.595953" lon="4.191421"><time>2026-05-03T04:45:19Z</time></trkpt>
</trkseg>
</trk>
<trk>
<name>hbchp23</name>
<cmt>q</cmt>
<desc>Henripont Sentier n°23 </desc>
<link href="https://chemins.be/henripont/sentier/23"/><trkseg>
<trkpt lat="50.595909" lon="4.188369"><time>2026-05-03T03:35:19Z</time></trkpt>
<trkpt lat="50.594570" lon="4.190246"><time>2026-05-03T03:45:19Z</time></trkpt>
</trkseg>
</trk>
<trk>
<name>hbchp7</name>
<cmt>r</cmt>
<desc>Henripont Chemin n°7 Rue de la Bergerie / Allée des Hérons</desc>
<link href="https://chemins.be/henripont/chemin/7"/><trkseg>
<trkpt lat="50.597554" lon="4.185878"><time>2026-05-03T03:35:19Z</time></trkpt>
<trkpt lat="50.597214" lon="4.186784"><time>2026-05-03T03:45:19Z</time></trkpt>
<trkpt lat="50.596989" lon="4.186756"><time>2026-05-03T03:55:19Z</time></trkpt>
<trkpt lat="50.596105" lon="4.185305"><time>2026-05-03T04:05:19Z</time></trkpt>
<trkpt lat="50.596078" lon="4.184980"><time>2026-05-03T04:15:19Z</time></trkpt>
<trkpt lat="50.596177" lon="4.184810"><time>2026-05-03T04:25:19Z</time></trkpt>
<trkpt lat="50.596635" lon="4.184455"><time>2026-05-03T04:35:19Z</time></trkpt>
<trkpt lat="50.596670" lon="4.184017"><time>2026-05-03T04:45:19Z</time></trkpt>
</trkseg>
</trk>
<trk>
<name>hbchp8</name>
<cmt>v</cmt>
<desc>Henripont Chemin n°8 Allée des Hérons</desc>
<link href="https://chemins.be/henripont/chemin/8"/><trkseg>
<trkpt lat="50.595842" lon="4.183710"><time>2026-05-03T03:35:19Z</time></trkpt>
<trkpt lat="50.596042" lon="4.185065"><time>2026-05-03T03:45:19Z</time></trkpt>
</trkseg>
</trk>
<trk>
<name>hbchpi1</name>
<cmt>v</cmt>
<desc>Henripont Sentier n°i1 </desc>
<link href="https://chemins.be/henripont/sentier/i1"/><trkseg>
<trkpt lat="50.598063" lon="4.189634"><time>2026-05-03T03:35:19Z</time></trkpt>
<trkpt lat="50.597802" lon="4.189592"><time>2026-05-03T03:45:19Z</time></trkpt>
<trkpt lat="50.597542" lon="4.189791"><time>2026-05-03T03:55:19Z</time></trkpt>
<trkpt lat="50.597281" lon="4.189524"><time>2026-05-03T04:05:19Z</time></trkpt>
<trkpt lat="50.597155" lon="4.189397"><time>2026-05-03T04:15:19Z</time></trkpt>
<trkpt lat="50.597038" lon="4.189510"><time>2026-05-03T04:25:19Z</time></trkpt>
<trkpt lat="50.596985" lon="4.189821"><time>2026-05-03T04:35:19Z</time></trkpt>
<trkpt lat="50.597345" lon="4.190498"><time>2026-05-03T04:45:19Z</time></trkpt>
</trkseg>
</trk>
<trk>
<name>hbchpi2</name>
<cmt>v</cmt>
<desc>Henripont Sentier n°i2 </desc>
<link href="https://chemins.be/henripont/sentier/i2"/><trkseg>
<trkpt lat="50.598629" lon="4.189250"><time>2026-05-03T03:35:19Z</time></trkpt>
<trkpt lat="50.598504" lon="4.189943"><time>2026-05-03T03:45:19Z</time></trkpt>
</trkseg>
</trk>
<trk>
<name>hbchpi3</name>
<cmt>v</cmt>
<desc>Henripont Sentier n°i3 Sentier de la Fontaine Saint-Nicolas</desc>
<link href="https://chemins.be/henripont/sentier/i3"/><trkseg>
<trkpt lat="50.598794" lon="4.182027"><time>2026-05-03T03:35:19Z</time></trkpt>
<trkpt lat="50.599785" lon="4.183057"><time>2026-05-03T03:45:19Z</time></trkpt>
<trkpt lat="50.600913" lon="4.181195"><time>2026-05-03T03:55:19Z</time></trkpt>
</trkseg>
</trk>
<trk>
<name>hbchy1</name>
<cmt>v</cmt>
<desc>Hennuyères Chemin n°1 </desc>
<link href="https://chemins.be/hennuyeres/chemin/1"/><trkseg>
<trkpt lat="50.636669" lon="4.169832"><time>2026-05-03T03:35:19Z</time></trkpt>
<trkpt lat="50.636731" lon="4.168755"><time>2026-05-03T03:45:19Z</time></trkpt>
<trkpt lat="50.637121" lon="4.166077"><time>2026-05-03T03:55:19Z</time></trkpt>
</trkseg></trk>
<trk>
<name>hbchy1</name>
<cmt>q</cmt>
<desc>Hennuyères Chemin n°1 </desc>
<link href="https://chemins.be/hennuyeres/chemin/1"/><trkseg>
<trkpt lat="50.637121" lon="4.166077"><time>2026-05-03T03:55:19Z</time></trkpt>
<trkpt lat="50.636900" lon="4.165944"><time>2026-05-03T04:05:19Z</time></trkpt>
<trkpt lat="50.635291" lon="4.165435"><time>2026-05-03T04:15:19Z</time></trkpt>
<trkpt lat="50.634817" lon="4.164774"><time>2026-05-03T04:25:19Z</time></trkpt>
<trkpt lat="50.634741" lon="4.164276"><time>2026-05-03T04:35:19Z</time></trkpt>
</trkseg>
</trk>
<trk>
<name>hbchy10</name>
<cmt>v</cmt>
<desc>Hennuyères Chemin n°10 </desc>
<link href="https://chemins.be/hennuyeres/chemin/10"/><trkseg>
<trkpt lat="50.637137" lon="4.194929"><time>2026-05-03T03:35:19Z</time></trkpt>
<trkpt lat="50.638121" lon="4.194248"><time>2026-05-03T03:45:19Z</time></trkpt>
</trkseg>
</trk>
<trk>
<name>hbchy14</name>
<cmt>r</cmt>
<desc>Hennuyères Chemin n°14 Avenue Fontaine de l'Hermite</desc>
<link href="https://chemins.be/hennuyeres/chemin/14"/><trkseg>
<trkpt lat="50.633631" lon="4.190474"><time>2026-05-03T03:35:19Z</time></trkpt>
<trkpt lat="50.633377" lon="4.191039"><time>2026-05-03T03:45:19Z</time></trkpt>
<trkpt lat="50.633436" lon="4.191654"><time>2026-05-03T03:55:19Z</time></trkpt>
<trkpt lat="50.633734" lon="4.191976"><time>2026-05-03T04:05:19Z</time></trkpt>
</trkseg></trk>
<trk>
<name>hbchy14</name>
<cmt>v</cmt>
<desc>Hennuyères Chemin n°14 Avenue Fontaine de l'Hermite</desc>
<link href="https://chemins.be/hennuyeres/chemin/14"/><trkseg>
<trkpt lat="50.633734" lon="4.191976"><time>2026-05-03T04:05:19Z</time></trkpt>
<trkpt lat="50.633962" lon="4.192134"><time>2026-05-03T04:15:19Z</time></trkpt>
</trkseg></trk>
<trk>
<name>hbchy14</name>
<cmt>s</cmt>
<desc>Hennuyères Chemin n°14 Avenue Fontaine de l'Hermite</desc>
<link href="https://chemins.be/hennuyeres/chemin/14"/><trkseg>
<trkpt lat="50.633962" lon="4.192134"><time>2026-05-03T04:15:19Z</time></trkpt>
<trkpt lat="50.634701" lon="4.192777"><time>2026-05-03T04:25:19Z</time></trkpt>
</trkseg></trk>
<trk>
<name>hbchy14</name>
<cmt>r</cmt>
<desc>Hennuyères Chemin n°14 Avenue Fontaine de l'Hermite</desc>
<link href="https://chemins.be/hennuyeres/chemin/14"/><trkseg>
<trkpt lat="50.634701" lon="4.192777"><time>2026-05-03T04:25:19Z</time></trkpt>
<trkpt lat="50.635235" lon="4.193125"><time>2026-05-03T04:35:19Z</time></trkpt>
<trkpt lat="50.636172" lon="4.192667"><time>2026-05-03T04:45:19Z</time></trkpt>
<trkpt lat="50.637695" lon="4.193192"><time>2026-05-03T04:55:19Z</time></trkpt>
<trkpt lat="50.638167" lon="4.194286"><time>2026-05-03T05:05:19Z</time></trkpt>
<trkpt lat="50.638706" lon="4.195636"><time>2026-05-03T05:15:19Z</time></trkpt>
<trkpt lat="50.638721" lon="4.195889"><time>2026-05-03T05:25:19Z</time></trkpt>
</trkseg>
</trk>
<trk>
<name>hbchy16</name>
<cmt>d</cmt>
<desc>Hennuyères Chemin n°16 </desc>
<link href="https://chemins.be/hennuyeres/chemin/16"/><trkseg>
<trkpt lat="50.643879" lon="4.170696"><time>2026-05-03T03:35:19Z</time></trkpt>
<trkpt lat="50.644122" lon="4.169847"><time>2026-05-03T03:45:19Z</time></trkpt>
</trkseg></trk>
<trk>
<name>hbchy16</name>
<cmt>s</cmt>
<desc>Hennuyères Chemin n°16 </desc>
<link href="https://chemins.be/hennuyeres/chemin/16"/><trkseg>
<trkpt lat="50.644122" lon="4.169847"><time>2026-05-03T03:45:19Z</time></trkpt>
<trkpt lat="50.644255" lon="4.169236"><time>2026-05-03T03:55:19Z</time></trkpt>
</trkseg>
</trk>
<trk>
<name>hbchy18</name>
<cmt>v</cmt>
<desc>Hennuyères Chemin n°18 Chemin du Laid Trô / Chemin d'Hodimont / Chemin Saint-Antoine</desc>
<link href="https://chemins.be/hennuyeres/chemin/18"/><trkseg>
<trkpt lat="50.647238" lon="4.183622"><time>2026-05-03T03:35:19Z</time></trkpt>
<trkpt lat="50.648131" lon="4.185386"><time>2026-05-03T03:45:19Z</time></trkpt>
<trkpt lat="50.648697" lon="4.185073"><time>2026-05-03T03:55:19Z</time></trkpt>
<trkpt lat="50.650574" lon="4.189591"><time>2026-05-03T04:05:19Z</time></trkpt>
<trkpt lat="50.651061" lon="4.191017"><time>2026-05-03T04:15:19Z</time></trkpt>
</trkseg></trk>
<trk>
<name>hbchy18</name>
<cmt>s</cmt>
<desc>Hennuyères Chemin n°18 Chemin du Laid Trô / Chemin d'Hodimont / Chemin Saint-Antoine</desc>
<link href="https://chemins.be/hennuyeres/chemin/18"/><trkseg>
<trkpt lat="50.651061" lon="4.191017"><time>2026-05-03T04:15:19Z</time></trkpt>
<trkpt lat="50.651403" lon="4.191157"><time>2026-05-03T04:25:19Z</time></trkpt>
<trkpt lat="50.653061" lon="4.193866"><time>2026-05-03T04:35:19Z</time></trkpt>
<trkpt lat="50.653781" lon="4.194090"><time>2026-05-03T04:45:19Z</time></trkpt>
</trkseg></trk>
<trk>
<name>hbchy18</name>
<cmt>v</cmt>
<desc>Hennuyères Chemin n°18 Chemin du Laid Trô / Chemin d'Hodimont / Chemin Saint-Antoine</desc>
<link href="https://chemins.be/hennuyeres/chemin/18"/><trkseg>
<trkpt lat="50.653781" lon="4.194090"><time>2026-05-03T04:45:19Z</time></trkpt>
<trkpt lat="50.654141" lon="4.194626"><time>2026-05-03T04:55:19Z</time></trkpt>
</trkseg>
</trk>
<trk>
<name>hbchy19</name>
<cmt>r</cmt>
<desc>Hennuyères Chemin n°19 </desc>
<link href="https://chemins.be/hennuyeres/chemin/19"/><trkseg>
<trkpt lat="50.633821" lon="4.192162"><time>2026-05-03T03:35:19Z</time></trkpt>
<trkpt lat="50.633536" lon="4.193750"><time>2026-05-03T03:45:19Z</time></trkpt>
<trkpt lat="50.633957" lon="4.194959"><time>2026-05-03T03:55:19Z</time></trkpt>
<trkpt lat="50.634053" lon="4.195631"><time>2026-05-03T04:05:19Z</time></trkpt>
</trkseg>
</trk>
<trk>
<name>hbchy20</name>
<cmt>d</cmt>
<desc>Hennuyères Chemin n°20 </desc>
<link href="https://chemins.be/hennuyeres/chemin/20"/><trkseg>
<trkpt lat="50.633540" lon="4.190349"><time>2026-05-03T03:35:19Z</time></trkpt>
<trkpt lat="50.632296" lon="4.190250"><time>2026-05-03T03:45:19Z</time></trkpt>
<trkpt lat="50.630831" lon="4.191276"><time>2026-05-03T03:55:19Z</time></trkpt>
<trkpt lat="50.629960" lon="4.191615"><time>2026-05-03T04:05:19Z</time></trkpt>
</trkseg>
</trk>
<trk>
<name>hbchy22</name>
<cmt>v</cmt>
<desc>Hennuyères Chemin n°22 Chemin du Laid Trô</desc>
<link href="https://chemins.be/hennuyeres/chemin/22"/><trkseg>
<trkpt lat="50.648175" lon="4.185337"><time>2026-05-03T03:35:19Z</time></trkpt>
<trkpt lat="50.647405" lon="4.186131"><time>2026-05-03T03:45:19Z</time></trkpt>
<trkpt lat="50.647016" lon="4.186989"><time>2026-05-03T03:55:19Z</time></trkpt>
<trkpt lat="50.645600" lon="4.190308"><time>2026-05-03T04:05:19Z</time></trkpt>
<trkpt lat="50.644529" lon="4.192113"><time>2026-05-03T04:15:19Z</time></trkpt>
<trkpt lat="50.643442" lon="4.193753"><time>2026-05-03T04:25:19Z</time></trkpt>
<trkpt lat="50.643212" lon="4.194100"><time>2026-05-03T04:35:19Z</time></trkpt>
<trkpt lat="50.643013" lon="4.195465"><time>2026-05-03T04:45:19Z</time></trkpt>
</trkseg>
</trk>
<trk>
<name>hbchy24</name>
<cmt>v</cmt>
<desc>Hennuyères Chemin n°24 </desc>
<link href="https://chemins.be/hennuyeres/chemin/24"/><trkseg>
<trkpt lat="50.658011" lon="4.185221"><time>2026-05-03T03:35:19Z</time></trkpt>
<trkpt lat="50.657894" lon="4.185532"><time>2026-05-03T03:45:19Z</time></trkpt>
<trkpt lat="50.657751" lon="4.185929"><time>2026-05-03T03:55:19Z</time></trkpt>
<trkpt lat="50.657599" lon="4.186354"><time>2026-05-03T04:05:19Z</time></trkpt>
<trkpt lat="50.657527" lon="4.186552"><time>2026-05-03T04:15:19Z</time></trkpt>
<trkpt lat="50.657465" lon="4.186679"><time>2026-05-03T04:25:19Z</time></trkpt>
<trkpt lat="50.657411" lon="4.186793"><time>2026-05-03T04:35:19Z</time></trkpt>
<trkpt lat="50.657375" lon="4.186835"><time>2026-05-03T04:45:19Z</time></trkpt>
<trkpt lat="50.657213" lon="4.187076"><time>2026-05-03T04:55:19Z</time></trkpt>
<trkpt lat="50.656523" lon="4.187928"><time>2026-05-03T05:05:19Z</time></trkpt>
<trkpt lat="50.656397" lon="4.188112"><time>2026-05-03T05:15:19Z</time></trkpt>
<trkpt lat="50.656173" lon="4.188537"><time>2026-05-03T05:25:19Z</time></trkpt>
<trkpt lat="50.656128" lon="4.188650"><time>2026-05-03T05:35:19Z</time></trkpt>
<trkpt lat="50.656021" lon="4.188962"><time>2026-05-03T05:45:19Z</time></trkpt>
<trkpt lat="50.655761" lon="4.189712"><time>2026-05-03T05:55:19Z</time></trkpt>
<trkpt lat="50.655654" lon="4.190052"><time>2026-05-03T06:05:19Z</time></trkpt>
<trkpt lat="50.655511" lon="4.190477"><time>2026-05-03T06:15:19Z</time></trkpt>
<trkpt lat="50.655421" lon="4.190689"><time>2026-05-03T06:25:19Z</time></trkpt>
</trkseg>
</trk>
<trk>
<name>hbchy27</name>
<cmt>v</cmt>
<desc>Hennuyères Chemin n°27 Chemin Lacroix</desc>
<link href="https://chemins.be/hennuyeres/chemin/27"/><trkseg>
<trkpt lat="50.654072" lon="4.178731"><time>2026-05-03T03:35:19Z</time></trkpt>
<trkpt lat="50.654206" lon="4.178561"><time>2026-05-03T03:45:19Z</time></trkpt>
<trkpt lat="50.654745" lon="4.178261"><time>2026-05-03T03:55:19Z</time></trkpt>
<trkpt lat="50.655068" lon="4.177709"><time>2026-05-03T04:05:19Z</time></trkpt>
<trkpt lat="50.655625" lon="4.177735"><time>2026-05-03T04:15:19Z</time></trkpt>
<trkpt lat="50.656344" lon="4.177378"><time>2026-05-03T04:25:19Z</time></trkpt>
<trkpt lat="50.657108" lon="4.177389"><time>2026-05-03T04:35:19Z</time></trkpt>
<trkpt lat="50.658107" lon="4.178163"><time>2026-05-03T04:45:19Z</time></trkpt>
<trkpt lat="50.658414" lon="4.178586"><time>2026-05-03T04:55:19Z</time></trkpt>
<trkpt lat="50.658864" lon="4.178867"><time>2026-05-03T05:05:19Z</time></trkpt>
<trkpt lat="50.659252" lon="4.179041"><time>2026-05-03T05:15:19Z</time></trkpt>
</trkseg></trk>
<trk>
<name>hbchy27</name>
<cmt>d</cmt>
<desc>Hennuyères Chemin n°27 Chemin Lacroix</desc>
<link href="https://chemins.be/hennuyeres/chemin/27"/><trkseg>
<trkpt lat="50.659252" lon="4.179041"><time>2026-05-03T05:15:19Z</time></trkpt>
<trkpt lat="50.660056" lon="4.179415"><time>2026-05-03T05:25:19Z</time></trkpt>
</trkseg></trk>
<trk>
<name>hbchy27</name>
<cmt>v</cmt>
<desc>Hennuyères Chemin n°27 Chemin Lacroix</desc>
<link href="https://chemins.be/hennuyeres/chemin/27"/><trkseg>
<trkpt lat="50.660056" lon="4.179415"><time>2026-05-03T05:25:19Z</time></trkpt>
<trkpt lat="50.661231" lon="4.180527"><time>2026-05-03T05:35:19Z</time></trkpt>
<trkpt lat="50.661780" lon="4.180850"><time>2026-05-03T05:45:19Z</time></trkpt>
<trkpt lat="50.662372" lon="4.180225"><time>2026-05-03T05:55:19Z</time></trkpt>
</trkseg>
</trk>
<trk>
<name>hbchy28</name>
<cmt>v</cmt>
<desc>Hennuyères Chemin n°28 Chemin d'Amont</desc>
<link href="https://chemins.be/hennuyeres/chemin/28"/><trkseg>
<trkpt lat="50.639630" lon="4.168171"><time>2026-05-03T03:35:19Z</time></trkpt>
<trkpt lat="50.640010" lon="4.166842"><time>2026-05-03T03:45:19Z</time></trkpt>
</trkseg></trk>
<trk>
<name>hbchy28</name>
<cmt>s</cmt>
<desc>Hennuyères Chemin n°28 Chemin d'Amont</desc>
<link href="https://chemins.be/hennuyeres/chemin/28"/><trkseg>
<trkpt lat="50.640010" lon="4.166842"><time>2026-05-03T03:45:19Z</time></trkpt>
<trkpt lat="50.640152" lon="4.166241"><time>2026-05-03T03:55:19Z</time></trkpt>
</trkseg></trk>
<trk>
<name>hbchy28</name>
<cmt>r</cmt>
<desc>Hennuyères Chemin n°28 Chemin d'Amont</desc>
<link href="https://chemins.be/hennuyeres/chemin/28"/><trkseg>
<trkpt lat="50.640152" lon="4.166241"><time>2026-05-03T03:55:19Z</time></trkpt>
<trkpt lat="50.640253" lon="4.165738"><time>2026-05-03T04:05:19Z</time></trkpt>
</trkseg></trk>
<trk>
<name>hbchy28</name>
<cmt>v</cmt>
<desc>Hennuyères Chemin n°28 Chemin d'Amont</desc>
<link href="https://chemins.be/hennuyeres/chemin/28"/><trkseg>
<trkpt lat="50.640253" lon="4.165738"><time>2026-05-03T04:05:19Z</time></trkpt>
<trkpt lat="50.640772" lon="4.162885"><time>2026-05-03T04:15:19Z</time></trkpt>
<trkpt lat="50.640789" lon="4.162310"><time>2026-05-03T04:25:19Z</time></trkpt>
</trkseg></trk>
<trk>
<name>hbchy28</name>
<cmt>q</cmt>
<desc>Hennuyères Chemin n°28 Chemin d'Amont</desc>
<link href="https://chemins.be/hennuyeres/chemin/28"/><trkseg>
<trkpt lat="50.640789" lon="4.162310"><time>2026-05-03T04:25:19Z</time></trkpt>
<trkpt lat="50.641006" lon="4.160507"><time>2026-05-03T04:35:19Z</time></trkpt>
<trkpt lat="50.640652" lon="4.156113"><time>2026-05-03T04:45:19Z</time></trkpt>
</trkseg>
</trk>
<trk>
<name>hbchy29</name>
<cmt>v</cmt>
<desc>Hennuyères Chemin n°29 Rue d'Ascotte</desc>
<link href="https://chemins.be/hennuyeres/chemin/29"/><trkseg>
<trkpt lat="50.634728" lon="4.164311"><time>2026-05-03T03:35:19Z</time></trkpt>
<trkpt lat="50.633985" lon="4.164176"><time>2026-05-03T03:45:19Z</time></trkpt>
<trkpt lat="50.632926" lon="4.163619"><time>2026-05-03T03:55:19Z</time></trkpt>
<trkpt lat="50.632933" lon="4.163256"><time>2026-05-03T04:05:19Z</time></trkpt>
<trkpt lat="50.632744" lon="4.162358"><time>2026-05-03T04:15:19Z</time></trkpt>
<trkpt lat="50.632523" lon="4.161843"><time>2026-05-03T04:25:19Z</time></trkpt>
<trkpt lat="50.632283" lon="4.161079"><time>2026-05-03T04:35:19Z</time></trkpt>
</trkseg></trk>
<trk>
<name>hbchy29</name>
<cmt>q</cmt>
<desc>Hennuyères Chemin n°29 Rue d'Ascotte</desc>
<link href="https://chemins.be/hennuyeres/chemin/29"/><trkseg>
<trkpt lat="50.632283" lon="4.161079"><time>2026-05-03T04:35:19Z</time></trkpt>
<trkpt lat="50.631423" lon="4.158348"><time>2026-05-03T04:45:19Z</time></trkpt>
<trkpt lat="50.630390" lon="4.156854"><time>2026-05-03T04:55:19Z</time></trkpt>
<trkpt lat="50.629840" lon="4.155320"><time>2026-05-03T05:05:19Z</time></trkpt>
<trkpt lat="50.628479" lon="4.152555"><time>2026-05-03T05:15:19Z</time></trkpt>
</trkseg>
</trk>
<trk>
<name>hbchy30</name>
<cmt>q</cmt>
<desc>Hennuyères Sentier n°30 </desc>
<link href="https://chemins.be/hennuyeres/sentier/30"/><trkseg>
<trkpt lat="50.629706" lon="4.185269"><time>2026-05-03T03:35:19Z</time></trkpt>
<trkpt lat="50.629520" lon="4.188302"><time>2026-05-03T03:45:19Z</time></trkpt>
<trkpt lat="50.629229" lon="4.190891"><time>2026-05-03T03:55:19Z</time></trkpt>
</trkseg>
</trk>
<trk>
<name>hbchy31</name>
<cmt>q</cmt>
<desc>Hennuyères Sentier n°31 </desc>
<link href="https://chemins.be/hennuyeres/sentier/31"/><trkseg>
<trkpt lat="50.630482" lon="4.181366"><time>2026-05-03T03:35:19Z</time></trkpt>
<trkpt lat="50.631908" lon="4.181864"><time>2026-05-03T03:45:19Z</time></trkpt>
<trkpt lat="50.633454" lon="4.184439"><time>2026-05-03T03:55:19Z</time></trkpt>
<trkpt lat="50.633759" lon="4.185366"><time>2026-05-03T04:05:19Z</time></trkpt>
<trkpt lat="50.634031" lon="4.187169"><time>2026-05-03T04:15:19Z</time></trkpt>
</trkseg></trk>
<trk>
<name>hbchy31</name>
<cmt>v</cmt>
<desc>Hennuyères Sentier n°31 </desc>
<link href="https://chemins.be/hennuyeres/sentier/31"/><trkseg>
<trkpt lat="50.634031" lon="4.187169"><time>2026-05-03T04:15:19Z</time></trkpt>
<trkpt lat="50.633977" lon="4.187598"><time>2026-05-03T04:25:19Z</time></trkpt>
<trkpt lat="50.634870" lon="4.188216"><time>2026-05-03T04:35:19Z</time></trkpt>
</trkseg></trk>
<trk>
<name>hbchy31</name>
<cmt>r</cmt>
<desc>Hennuyères Sentier n°31 </desc>
<link href="https://chemins.be/hennuyeres/sentier/31"/><trkseg>
<trkpt lat="50.634870" lon="4.188216"><time>2026-05-03T04:35:19Z</time></trkpt>
<trkpt lat="50.635752" lon="4.189038"><time>2026-05-03T04:45:19Z</time></trkpt>
</trkseg></trk>
<trk>
<name>hbchy31</name>
<cmt>q</cmt>
<desc>Hennuyères Sentier n°31 </desc>
<link href="https://chemins.be/hennuyeres/sentier/31"/><trkseg>
<trkpt lat="50.635752" lon="4.189038"><time>2026-05-03T04:45:19Z</time></trkpt>
<trkpt lat="50.636797" lon="4.190089"><time>2026-05-03T04:55:19Z</time></trkpt>
<trkpt lat="50.636884" lon="4.190621"><time>2026-05-03T05:05:19Z</time></trkpt>
<trkpt lat="50.637613" lon="4.190501"><time>2026-05-03T05:15:19Z</time></trkpt>
<trkpt lat="50.638633" lon="4.191459"><time>2026-05-03T05:25:19Z</time></trkpt>
</trkseg></trk>
<trk>
<name>hbchy31</name>
<cmt>v</cmt>
<desc>Hennuyères Sentier n°31 </desc>
<link href="https://chemins.be/hennuyeres/sentier/31"/><trkseg>
<trkpt lat="50.638633" lon="4.191459"><time>2026-05-03T05:25:19Z</time></trkpt>
<trkpt lat="50.639241" lon="4.192332"><time>2026-05-03T05:35:19Z</time></trkpt>
<trkpt lat="50.639472" lon="4.192071"><time>2026-05-03T05:45:19Z</time></trkpt>
<trkpt lat="50.639940" lon="4.192985"><time>2026-05-03T05:55:19Z</time></trkpt>
</trkseg>
</trk>
<trk>
<name>hbchy32</name>
<cmt>q</cmt>
<desc>Hennuyères Sentier n°32 </desc>
<link href="https://chemins.be/hennuyeres/sentier/32"/><trkseg>
<trkpt lat="50.628281" lon="4.177208"><time>2026-05-03T03:35:19Z</time></trkpt>
<trkpt lat="50.627709" lon="4.176796"><time>2026-05-03T03:45:19Z</time></trkpt>
<trkpt lat="50.624824" lon="4.175560"><time>2026-05-03T03:55:19Z</time></trkpt>
</trkseg>
</trk>
<trk>
<name>hbchy33</name>
<cmt>q</cmt>
<desc>Hennuyères Sentier n°33 </desc>
<link href="https://chemins.be/hennuyeres/sentier/33"/><trkseg>
<trkpt lat="50.628699" lon="4.141408"><time>2026-05-03T03:35:19Z</time></trkpt>
<trkpt lat="50.630534" lon="4.140525"><time>2026-05-03T03:45:19Z</time></trkpt>
<trkpt lat="50.631718" lon="4.141130"><time>2026-05-03T03:55:19Z</time></trkpt>
</trkseg>
</trk>
<trk>
<name>hbchy34</name>
<cmt>q</cmt>
<desc>Hennuyères Sentier n°34 </desc>
<link href="https://chemins.be/hennuyeres/sentier/34"/><trkseg>
<trkpt lat="50.654066" lon="4.178825"><time>2026-05-03T03:35:19Z</time></trkpt>
<trkpt lat="50.654886" lon="4.179641"><time>2026-05-03T03:45:19Z</time></trkpt>
<trkpt lat="50.658346" lon="4.178447"><time>2026-05-03T03:55:19Z</time></trkpt>
</trkseg></trk>
<trk>
<name>hbchy34</name>
<cmt>v</cmt>
<desc>Hennuyères Sentier n°34 </desc>
<link href="https://chemins.be/hennuyeres/sentier/34"/><trkseg>
<trkpt lat="50.658346" lon="4.178447"><time>2026-05-03T03:55:19Z</time></trkpt>
<trkpt lat="50.658869" lon="4.178855"><time>2026-05-03T04:05:19Z</time></trkpt>
</trkseg></trk>
<trk>
<name>hbchy34</name>
<cmt>q</cmt>
<desc>Hennuyères Sentier n°34 </desc>
<link href="https://chemins.be/hennuyeres/sentier/34"/><trkseg>
<trkpt lat="50.658869" lon="4.178855"><time>2026-05-03T04:05:19Z</time></trkpt>
<trkpt lat="50.659998" lon="4.178243"><time>2026-05-03T04:15:19Z</time></trkpt>
<trkpt lat="50.660699" lon="4.178640"><time>2026-05-03T04:25:19Z</time></trkpt>
<trkpt lat="50.662950" lon="4.177567"><time>2026-05-03T04:35:19Z</time></trkpt>
</trkseg>
</trk>
<trk>
<name>hbchy35</name>
<cmt>q</cmt>
<desc>Hennuyères Sentier n°35 </desc>
<link href="https://chemins.be/hennuyeres/sentier/35"/><trkseg>
<trkpt lat="50.658842" lon="4.178866"><time>2026-05-03T03:35:19Z</time></trkpt>
<trkpt lat="50.659964" lon="4.174059"><time>2026-05-03T03:45:19Z</time></trkpt>
</trkseg>
</trk>
<trk>
<name>hbchy36</name>
<cmt>q</cmt>
<desc>Hennuyères Sentier n°36 </desc>
<link href="https://chemins.be/hennuyeres/sentier/36"/><trkseg>
<trkpt lat="50.658879" lon="4.178976"><time>2026-05-03T03:35:19Z</time></trkpt>
<trkpt lat="50.658916" lon="4.180923"><time>2026-05-03T03:45:19Z</time></trkpt>
<trkpt lat="50.659464" lon="4.181196"><time>2026-05-03T03:55:19Z</time></trkpt>
<trkpt lat="50.659515" lon="4.181486"><time>2026-05-03T04:05:19Z</time></trkpt>
<trkpt lat="50.660402" lon="4.181692"><time>2026-05-03T04:15:19Z</time></trkpt>
<trkpt lat="50.661920" lon="4.182902"><time>2026-05-03T04:25:19Z</time></trkpt>
</trkseg>
</trk>
<trk>
<name>hbchy37</name>
<cmt>v</cmt>
<desc>Hennuyères Sentier n°37 </desc>
<link href="https://chemins.be/hennuyeres/sentier/37"/><trkseg>
<trkpt lat="50.640577" lon="4.173570"><time>2026-05-03T03:35:19Z</time></trkpt>
<trkpt lat="50.640860" lon="4.174381"><time>2026-05-03T03:45:19Z</time></trkpt>
<trkpt lat="50.641173" lon="4.175201"><time>2026-05-03T03:55:19Z</time></trkpt>
<trkpt lat="50.641274" lon="4.175849"><time>2026-05-03T04:05:19Z</time></trkpt>
<trkpt lat="50.642949" lon="4.177476"><time>2026-05-03T04:15:19Z</time></trkpt>
<trkpt lat="50.645094" lon="4.179502"><time>2026-05-03T04:25:19Z</time></trkpt>
<trkpt lat="50.645171" lon="4.179316"><time>2026-05-03T04:35:19Z</time></trkpt>
</trkseg></trk>
<trk>
<name>hbchy37</name>
<cmt>q</cmt>
<desc>Hennuyères Sentier n°37 </desc>
<link href="https://chemins.be/hennuyeres/sentier/37"/><trkseg>
<trkpt lat="50.645171" lon="4.179316"><time>2026-05-03T04:35:19Z</time></trkpt>
<trkpt lat="50.645816" lon="4.180071"><time>2026-05-03T04:45:19Z</time></trkpt>
<trkpt lat="50.645892" lon="4.179947"><time>2026-05-03T04:55:19Z</time></trkpt>
<trkpt lat="50.646964" lon="4.180509"><time>2026-05-03T05:05:19Z</time></trkpt>
<trkpt lat="50.648072" lon="4.182535"><time>2026-05-03T05:15:19Z</time></trkpt>
<trkpt lat="50.648192" lon="4.182397"><time>2026-05-03T05:25:19Z</time></trkpt>
</trkseg></trk>
<trk>
<name>hbchy37</name>
<cmt>v</cmt>
<desc>Hennuyères Sentier n°37 </desc>
<link href="https://chemins.be/hennuyeres/sentier/37"/><trkseg>
<trkpt lat="50.648192" lon="4.182397"><time>2026-05-03T05:25:19Z</time></trkpt>
<trkpt lat="50.648698" lon="4.183702"><time>2026-05-03T05:35:19Z</time></trkpt>
</trkseg>
</trk>
<trk>
<name>hbchy38</name>
<cmt>v</cmt>
<desc>Hennuyères Sentier n°38 Sentier du Warichaix</desc>
<link href="https://chemins.be/hennuyeres/sentier/38"/><trkseg>
<trkpt lat="50.647237" lon="4.177019"><time>2026-05-03T03:35:19Z</time></trkpt>
<trkpt lat="50.648398" lon="4.177863"><time>2026-05-03T03:45:19Z</time></trkpt>
<trkpt lat="50.648785" lon="4.178328"><time>2026-05-03T03:55:19Z</time></trkpt>
<trkpt lat="50.649082" lon="4.178567"><time>2026-05-03T04:05:19Z</time></trkpt>
<trkpt lat="50.649415" lon="4.178509"><time>2026-05-03T04:15:19Z</time></trkpt>
<trkpt lat="50.649531" lon="4.178509"><time>2026-05-03T04:25:19Z</time></trkpt>
<trkpt lat="50.649784" lon="4.179116"><time>2026-05-03T04:35:19Z</time></trkpt>
<trkpt lat="50.650027" lon="4.179256"><time>2026-05-03T04:45:19Z</time></trkpt>
<trkpt lat="50.650207" lon="4.179043"><time>2026-05-03T04:55:19Z</time></trkpt>
<trkpt lat="50.650477" lon="4.179297"><time>2026-05-03T05:05:19Z</time></trkpt>
<trkpt lat="50.650567" lon="4.179466"><time>2026-05-03T05:15:19Z</time></trkpt>
<trkpt lat="50.650621" lon="4.179678"><time>2026-05-03T05:25:19Z</time></trkpt>
<trkpt lat="50.650910" lon="4.180341"><time>2026-05-03T05:35:19Z</time></trkpt>
<trkpt lat="50.652531" lon="4.182470"><time>2026-05-03T05:45:19Z</time></trkpt>
<trkpt lat="50.652648" lon="4.182442"><time>2026-05-03T05:55:19Z</time></trkpt>
</trkseg>
</trk>
<trk>
<name>hbchy39</name>
<cmt>q</cmt>
<desc>Hennuyères Sentier n°39 </desc>
<link href="https://chemins.be/hennuyeres/sentier/39"/><trkseg>
<trkpt lat="50.650553" lon="4.178421"><time>2026-05-03T03:35:19Z</time></trkpt>
<trkpt lat="50.651374" lon="4.178619"><time>2026-05-03T03:45:19Z</time></trkpt>
<trkpt lat="50.651815" lon="4.177812"><time>2026-05-03T03:55:19Z</time></trkpt>
</trkseg>
</trk>
<trk>
<name>hbchy40</name>
<cmt>q</cmt>
<desc>Hennuyères Sentier n°40 </desc>
<link href="https://chemins.be/hennuyeres/sentier/40"/><trkseg>
<trkpt lat="50.641598" lon="4.184422"><time>2026-05-03T03:35:19Z</time></trkpt>
<trkpt lat="50.642850" lon="4.179787"><time>2026-05-03T03:45:19Z</time></trkpt>
<trkpt lat="50.642915" lon="4.177556"><time>2026-05-03T03:55:19Z</time></trkpt>
<trkpt lat="50.643253" lon="4.176680"><time>2026-05-03T04:05:19Z</time></trkpt>
</trkseg>
</trk>
<trk>
<name>hbchy41</name>
<cmt>v</cmt>
<desc>Hennuyères Sentier n°41 Chemin Sainte-Anne</desc>
<link href="https://chemins.be/hennuyeres/sentier/41"/><trkseg>
<trkpt lat="50.642920" lon="4.173879"><time>2026-05-03T03:35:19Z</time></trkpt>
<trkpt lat="50.642863" lon="4.173990"><time>2026-05-03T03:45:19Z</time></trkpt>
<trkpt lat="50.642474" lon="4.174111"><time>2026-05-03T03:55:19Z</time></trkpt>
</trkseg></trk>
<trk>
<name>hbchy41</name>
<cmt>r</cmt>
<desc>Hennuyères Sentier n°41 Chemin Sainte-Anne</desc>
<link href="https://chemins.be/hennuyeres/sentier/41"/><trkseg>
<trkpt lat="50.642474" lon="4.174111"><time>2026-05-03T03:55:19Z</time></trkpt>
<trkpt lat="50.642403" lon="4.174638"><time>2026-05-03T04:05:19Z</time></trkpt>
</trkseg></trk>
<trk>
<name>hbchy41</name>
<cmt>v</cmt>
<desc>Hennuyères Sentier n°41 Chemin Sainte-Anne</desc>
<link href="https://chemins.be/hennuyeres/sentier/41"/><trkseg>
<trkpt lat="50.642403" lon="4.174638"><time>2026-05-03T04:05:19Z</time></trkpt>
<trkpt lat="50.641941" lon="4.175119"><time>2026-05-03T04:15:19Z</time></trkpt>
<trkpt lat="50.641785" lon="4.175338"><time>2026-05-03T04:25:19Z</time></trkpt>
<trkpt lat="50.641305" lon="4.175802"><time>2026-05-03T04:35:19Z</time></trkpt>
<trkpt lat="50.640383" lon="4.176684"><time>2026-05-03T04:45:19Z</time></trkpt>
</trkseg></trk>
<trk>
<name>hbchy41</name>
<cmt>q</cmt>
<desc>Hennuyères Sentier n°41 Chemin Sainte-Anne</desc>
<link href="https://chemins.be/hennuyeres/sentier/41"/><trkseg>
<trkpt lat="50.640383" lon="4.176684"><time>2026-05-03T04:45:19Z</time></trkpt>
<trkpt lat="50.640307" lon="4.176882"><time>2026-05-03T04:55:19Z</time></trkpt>
<trkpt lat="50.639006" lon="4.176865"><time>2026-05-03T05:05:19Z</time></trkpt>
<trkpt lat="50.637912" lon="4.176916"><time>2026-05-03T05:15:19Z</time></trkpt>
<trkpt lat="50.637634" lon="4.176616"><time>2026-05-03T05:25:19Z</time></trkpt>
</trkseg>
</trk>
<trk>
<name>hbchy42</name>
<cmt>q</cmt>
<desc>Hennuyères Sentier n°42 </desc>
<link href="https://chemins.be/hennuyeres/sentier/42"/><trkseg>
<trkpt lat="50.640293" lon="4.177107"><time>2026-05-03T03:35:19Z</time></trkpt>
<trkpt lat="50.641284" lon="4.180000"><time>2026-05-03T03:45:19Z</time></trkpt>
<trkpt lat="50.641284" lon="4.182205"><time>2026-05-03T03:55:19Z</time></trkpt>
<trkpt lat="50.641578" lon="4.184428"><time>2026-05-03T04:05:19Z</time></trkpt>
</trkseg>
</trk>
<trk>
<name>hbchy43</name>
<cmt>v</cmt>
<desc>Hennuyères Sentier n°43 Sentier du Village</desc>
<link href="https://chemins.be/hennuyeres/sentier/43"/><trkseg>
<trkpt lat="50.638738" lon="4.169914"><time>2026-05-03T03:35:19Z</time></trkpt>
<trkpt lat="50.638137" lon="4.170610"><time>2026-05-03T03:45:19Z</time></trkpt>
<trkpt lat="50.638139" lon="4.171543"><time>2026-05-03T03:55:19Z</time></trkpt>
<trkpt lat="50.638491" lon="4.172743"><time>2026-05-03T04:05:19Z</time></trkpt>
<trkpt lat="50.638609" lon="4.173096"><time>2026-05-03T04:15:19Z</time></trkpt>
<trkpt lat="50.638754" lon="4.174212"><time>2026-05-03T04:25:19Z</time></trkpt>
<trkpt lat="50.638755" lon="4.175157"><time>2026-05-03T04:35:19Z</time></trkpt>
</trkseg></trk>
<trk>
<name>hbchy43</name>
<cmt>q</cmt>
<desc>Hennuyères Sentier n°43 Sentier du Village</desc>
<link href="https://chemins.be/hennuyeres/sentier/43"/><trkseg>
<trkpt lat="50.638755" lon="4.175157"><time>2026-05-03T04:35:19Z</time></trkpt>
<trkpt lat="50.639425" lon="4.179817"><time>2026-05-03T04:45:19Z</time></trkpt>
</trkseg>
</trk>
<trk>
<name>hbchy44</name>
<cmt>q</cmt>
<desc>Hennuyères Sentier n°44 </desc>
<link href="https://chemins.be/hennuyeres/sentier/44"/><trkseg>
<trkpt lat="50.638163" lon="4.170736"><time>2026-05-03T03:35:19Z</time></trkpt>
<trkpt lat="50.637249" lon="4.171011"><time>2026-05-03T03:45:19Z</time></trkpt>
<trkpt lat="50.636530" lon="4.171732"><time>2026-05-03T03:55:19Z</time></trkpt>
<trkpt lat="50.635801" lon="4.172522"><time>2026-05-03T04:05:19Z</time></trkpt>
<trkpt lat="50.634755" lon="4.172487"><time>2026-05-03T04:15:19Z</time></trkpt>
<trkpt lat="50.632687" lon="4.174101"><time>2026-05-03T04:25:19Z</time></trkpt>
<trkpt lat="50.630110" lon="4.174521"><time>2026-05-03T04:35:19Z</time></trkpt>
<trkpt lat="50.629072" lon="4.175182"><time>2026-05-03T04:45:19Z</time></trkpt>
<trkpt lat="50.628288" lon="4.177208"><time>2026-05-03T04:55:19Z</time></trkpt>
</trkseg>
</trk>
<trk>
<name>hbchy45</name>
<cmt>v</cmt>
<desc>Hennuyères Sentier n°45 Avenue Saint Hubert</desc>
<link href="https://chemins.be/hennuyeres/sentier/45"/><trkseg>
<trkpt lat="50.639495" lon="4.170717"><time>2026-05-03T03:35:19Z</time></trkpt>
<trkpt lat="50.639046" lon="4.171171"><time>2026-05-03T03:45:19Z</time></trkpt>
</trkseg></trk>
<trk>
<name>hbchy45</name>
<cmt>q</cmt>
<desc>Hennuyères Sentier n°45 Avenue Saint Hubert</desc>
<link href="https://chemins.be/hennuyeres/sentier/45"/><trkseg>
<trkpt lat="50.639046" lon="4.171171"><time>2026-05-03T03:45:19Z</time></trkpt>
<trkpt lat="50.638202" lon="4.171655"><time>2026-05-03T03:55:19Z</time></trkpt>
<trkpt lat="50.638238" lon="4.171811"><time>2026-05-03T04:05:19Z</time></trkpt>
<trkpt lat="50.637989" lon="4.173494"><time>2026-05-03T04:15:19Z</time></trkpt>
<trkpt lat="50.637114" lon="4.174121"><time>2026-05-03T04:25:19Z</time></trkpt>
<trkpt lat="50.636597" lon="4.175881"><time>2026-05-03T04:35:19Z</time></trkpt>
<trkpt lat="50.635715" lon="4.176851"><time>2026-05-03T04:45:19Z</time></trkpt>
<trkpt lat="50.634077" lon="4.177778"><time>2026-05-03T04:55:19Z</time></trkpt>
<trkpt lat="50.632040" lon="4.177846"><time>2026-05-03T05:05:19Z</time></trkpt>
</trkseg>
</trk>
<trk>
<name>hbchy46</name>
<cmt>q</cmt>
<desc>Hennuyères Sentier n°46 </desc>
<link href="https://chemins.be/hennuyeres/sentier/46"/><trkseg>
<trkpt lat="50.638070" lon="4.168275"><time>2026-05-03T03:35:19Z</time></trkpt>
<trkpt lat="50.636895" lon="4.167588"><time>2026-05-03T03:45:19Z</time></trkpt>
<trkpt lat="50.635650" lon="4.165667"><time>2026-05-03T03:55:19Z</time></trkpt>
</trkseg>
</trk>
<trk>
<name>hbchy47</name>
<cmt>q</cmt>
<desc>Hennuyères Sentier n°47 </desc>
<link href="https://chemins.be/hennuyeres/sentier/47"/><trkseg>
<trkpt lat="50.637931" lon="4.168008"><time>2026-05-03T03:35:19Z</time></trkpt>
<trkpt lat="50.637499" lon="4.166657"><time>2026-05-03T03:45:19Z</time></trkpt>
<trkpt lat="50.637184" lon="4.165583"><time>2026-05-03T03:55:19Z</time></trkpt>
<trkpt lat="50.637195" lon="4.165411"><time>2026-05-03T04:05:19Z</time></trkpt>
<trkpt lat="50.637163" lon="4.164964"><time>2026-05-03T04:15:19Z</time></trkpt>
</trkseg></trk>
<trk>
<name>hbchy47</name>
<cmt>s</cmt>
<desc>Hennuyères Sentier n°47 </desc>
<link href="https://chemins.be/hennuyeres/sentier/47"/><trkseg>
<trkpt lat="50.637163" lon="4.164964"><time>2026-05-03T04:15:19Z</time></trkpt>
<trkpt lat="50.635913" lon="4.163157"><time>2026-05-03T04:25:19Z</time></trkpt>
<trkpt lat="50.634443" lon="4.161741"><time>2026-05-03T04:35:19Z</time></trkpt>
</trkseg>
</trk>
<trk>
<name>hbchy48</name>
<cmt>q</cmt>
<desc>Hennuyères Sentier n°48 </desc>
<link href="https://chemins.be/hennuyeres/sentier/48"/><trkseg>
<trkpt lat="50.638854" lon="4.161351"><time>2026-05-03T03:35:19Z</time></trkpt>
<trkpt lat="50.639083" lon="4.155137"><time>2026-05-03T03:45:19Z</time></trkpt>
<trkpt lat="50.638865" lon="4.154416"><time>2026-05-03T03:55:19Z</time></trkpt>
</trkseg>
</trk>
<trk>
<name>hbchy49</name>
<cmt>q</cmt>
<desc>Hennuyères Sentier n°49 </desc>
<link href="https://chemins.be/hennuyeres/sentier/49"/><trkseg>
<trkpt lat="50.634206" lon="4.145560"><time>2026-05-03T03:35:19Z</time></trkpt>
<trkpt lat="50.634216" lon="4.146624"><time>2026-05-03T03:45:19Z</time></trkpt>
<trkpt lat="50.634608" lon="4.150246"><time>2026-05-03T03:55:19Z</time></trkpt>
<trkpt lat="50.635361" lon="4.154088"><time>2026-05-03T04:05:19Z</time></trkpt>
<trkpt lat="50.636113" lon="4.160380"><time>2026-05-03T04:15:19Z</time></trkpt>
<trkpt lat="50.636809" lon="4.162714"><time>2026-05-03T04:25:19Z</time></trkpt>
<trkpt lat="50.637827" lon="4.164156"><time>2026-05-03T04:35:19Z</time></trkpt>
<trkpt lat="50.638045" lon="4.165341"><time>2026-05-03T04:45:19Z</time></trkpt>
</trkseg>
</trk>
<trk>
<name>hbchy5</name>
<cmt>v</cmt>
<desc>Hennuyères Chemin n°5 Sentier du Goutteux</desc>
<link href="https://chemins.be/hennuyeres/chemin/5"/><trkseg>
<trkpt lat="50.647411" lon="4.173554"><time>2026-05-03T03:35:19Z</time></trkpt>
<trkpt lat="50.646979" lon="4.173302"><time>2026-05-03T03:45:19Z</time></trkpt>
<trkpt lat="50.646943" lon="4.173245"><time>2026-05-03T03:55:19Z</time></trkpt>
<trkpt lat="50.646861" lon="4.173090"><time>2026-05-03T04:05:19Z</time></trkpt>
<trkpt lat="50.646807" lon="4.172963"><time>2026-05-03T04:15:19Z</time></trkpt>
<trkpt lat="50.646789" lon="4.172906"><time>2026-05-03T04:25:19Z</time></trkpt>
<trkpt lat="50.646726" lon="4.172652"><time>2026-05-03T04:35:19Z</time></trkpt>
<trkpt lat="50.646465" lon="4.172399"><time>2026-05-03T04:45:19Z</time></trkpt>
<trkpt lat="50.646321" lon="4.172201"><time>2026-05-03T04:55:19Z</time></trkpt>
<trkpt lat="50.646032" lon="4.171835"><time>2026-05-03T05:05:19Z</time></trkpt>
<trkpt lat="50.645942" lon="4.171779"><time>2026-05-03T05:15:19Z</time></trkpt>
<trkpt lat="50.645879" lon="4.171751"><time>2026-05-03T05:25:19Z</time></trkpt>
<trkpt lat="50.645807" lon="4.171737"><time>2026-05-03T05:35:19Z</time></trkpt>
<trkpt lat="50.645654" lon="4.171723"><time>2026-05-03T05:45:19Z</time></trkpt>
<trkpt lat="50.645367" lon="4.171668"><time>2026-05-03T05:55:19Z</time></trkpt>
<trkpt lat="50.645277" lon="4.171626"><time>2026-05-03T06:05:19Z</time></trkpt>
<trkpt lat="50.645196" lon="4.171584"><time>2026-05-03T06:15:19Z</time></trkpt>
<trkpt lat="50.644602" lon="4.171134"><time>2026-05-03T06:25:19Z</time></trkpt>
<trkpt lat="50.643872" lon="4.170716"><time>2026-05-03T06:35:19Z</time></trkpt>
<trkpt lat="50.643067" lon="4.170115"><time>2026-05-03T06:45:19Z</time></trkpt>
<trkpt lat="50.642549" lon="4.169517"><time>2026-05-03T06:55:19Z</time></trkpt>
<trkpt lat="50.642073" lon="4.169391"><time>2026-05-03T07:05:19Z</time></trkpt>
<trkpt lat="50.641173" lon="4.168872"><time>2026-05-03T07:15:19Z</time></trkpt>
<trkpt lat="50.640840" lon="4.168831"><time>2026-05-03T07:25:19Z</time></trkpt>
<trkpt lat="50.640355" lon="4.168847"><time>2026-05-03T07:35:19Z</time></trkpt>
<trkpt lat="50.639616" lon="4.168144"><time>2026-05-03T07:45:19Z</time></trkpt>
<trkpt lat="50.639058" lon="4.167920"><time>2026-05-03T07:55:19Z</time></trkpt>
<trkpt lat="50.638457" lon="4.168756"><time>2026-05-03T08:05:19Z</time></trkpt>
</trkseg>
</trk>
<trk>
<name>hbchy50</name>
<cmt>s</cmt>
<desc>Hennuyères Sentier n°50 Rue du Ronchy</desc>
<link href="https://chemins.be/hennuyeres/sentier/50"/><trkseg>
<trkpt lat="50.642417" lon="4.173806"><time>2026-05-03T03:35:19Z</time></trkpt>
<trkpt lat="50.642033" lon="4.173484"><time>2026-05-03T03:45:19Z</time></trkpt>
<trkpt lat="50.641904" lon="4.173217"><time>2026-05-03T03:55:19Z</time></trkpt>
</trkseg></trk>
<trk>
<name>hbchy50</name>
<cmt>b</cmt>
<desc>Hennuyères Sentier n°50 Rue du Ronchy</desc>
<link href="https://chemins.be/hennuyeres/sentier/50"/><trkseg>
<trkpt lat="50.641904" lon="4.173217"><time>2026-05-03T03:55:19Z</time></trkpt>
<trkpt lat="50.641663" lon="4.172557"><time>2026-05-03T04:05:19Z</time></trkpt>
<trkpt lat="50.641393" lon="4.172120"><time>2026-05-03T04:15:19Z</time></trkpt>
</trkseg></trk>
<trk>
<name>hbchy50</name>
<cmt>r</cmt>
<desc>Hennuyères Sentier n°50 Rue du Ronchy</desc>
<link href="https://chemins.be/hennuyeres/sentier/50"/><trkseg>
<trkpt lat="50.641393" lon="4.172120"><time>2026-05-03T04:15:19Z</time></trkpt>
<trkpt lat="50.641295" lon="4.172232"><time>2026-05-03T04:25:19Z</time></trkpt>
</trkseg></trk>
<trk>
<name>hbchy50</name>
<cmt>d</cmt>
<desc>Hennuyères Sentier n°50 Rue du Ronchy</desc>
<link href="https://chemins.be/hennuyeres/sentier/50"/><trkseg>
<trkpt lat="50.641295" lon="4.172232"><time>2026-05-03T04:25:19Z</time></trkpt>
<trkpt lat="50.640603" lon="4.171236"><time>2026-05-03T04:35:19Z</time></trkpt>
<trkpt lat="50.640037" lon="4.171005"><time>2026-05-03T04:45:19Z</time></trkpt>
<trkpt lat="50.639876" lon="4.171119"><time>2026-05-03T04:55:19Z</time></trkpt>
</trkseg></trk>
<trk>
<name>hbchy50</name>
<cmt>q</cmt>
<desc>Hennuyères Sentier n°50 Rue du Ronchy</desc>
<link href="https://chemins.be/hennuyeres/sentier/50"/><trkseg>
<trkpt lat="50.639876" lon="4.171119"><time>2026-05-03T04:55:19Z</time></trkpt>
<trkpt lat="50.639724" lon="4.171238"><time>2026-05-03T05:05:19Z</time></trkpt>
</trkseg>
</trk>
<trk>
<name>hbchy51</name>
<cmt>d</cmt>
<desc>Hennuyères Sentier n°51 </desc>
<link href="https://chemins.be/hennuyeres/sentier/51"/><trkseg>
<trkpt lat="50.642156" lon="4.172707"><time>2026-05-03T03:35:19Z</time></trkpt>
<trkpt lat="50.641903" lon="4.173214"><time>2026-05-03T03:45:19Z</time></trkpt>
<trkpt lat="50.640865" lon="4.174240"><time>2026-05-03T03:55:19Z</time></trkpt>
</trkseg>
</trk>
<trk>
<name>hbchy52</name>
<cmt>q</cmt>
<desc>Hennuyères Sentier n°52 Rue du Chenois</desc>
<link href="https://chemins.be/hennuyeres/sentier/52"/><trkseg>
<trkpt lat="50.638771" lon="4.168359"><time>2026-05-03T03:35:19Z</time></trkpt>
<trkpt lat="50.639564" lon="4.168950"><time>2026-05-03T03:45:19Z</time></trkpt>
</trkseg></trk>
<trk>
<name>hbchy52</name>
<cmt>v</cmt>
<desc>Hennuyères Sentier n°52 Rue du Chenois</desc>
<link href="https://chemins.be/hennuyeres/sentier/52"/><trkseg>
<trkpt lat="50.639564" lon="4.168950"><time>2026-05-03T03:45:19Z</time></trkpt>
<trkpt lat="50.639987" lon="4.169386"><time>2026-05-03T03:55:19Z</time></trkpt>
</trkseg></trk>
<trk>
<name>hbchy52</name>
<cmt>q</cmt>
<desc>Hennuyères Sentier n°52 Rue du Chenois</desc>
<link href="https://chemins.be/hennuyeres/sentier/52"/><trkseg>
<trkpt lat="50.639987" lon="4.169386"><time>2026-05-03T03:55:19Z</time></trkpt>
<trkpt lat="50.640347" lon="4.169922"><time>2026-05-03T04:05:19Z</time></trkpt>
</trkseg></trk>
<trk>
<name>hbchy52</name>
<cmt>r</cmt>
<desc>Hennuyères Sentier n°52 Rue du Chenois</desc>
<link href="https://chemins.be/hennuyeres/sentier/52"/><trkseg>
<trkpt lat="50.640347" lon="4.169922"><time>2026-05-03T04:05:19Z</time></trkpt>
<trkpt lat="50.641600" lon="4.171500"><time>2026-05-03T04:15:19Z</time></trkpt>
</trkseg>
</trk>
<trk>
<name>hbchy53</name>
<cmt>r</cmt>
<desc>Hennuyères Sentier n°53 </desc>
<link href="https://chemins.be/hennuyeres/sentier/53"/><trkseg>
<trkpt lat="50.638467" lon="4.168968"><time>2026-05-03T03:35:19Z</time></trkpt>
<trkpt lat="50.638979" lon="4.169051"><time>2026-05-03T03:45:19Z</time></trkpt>
</trkseg></trk>
<trk>
<name>hbchy53</name>
<cmt>v</cmt>
<desc>Hennuyères Sentier n°53 </desc>
<link href="https://chemins.be/hennuyeres/sentier/53"/><trkseg>
<trkpt lat="50.638979" lon="4.169051"><time>2026-05-03T03:45:19Z</time></trkpt>
<trkpt lat="50.639546" lon="4.168950"><time>2026-05-03T03:55:19Z</time></trkpt>
</trkseg>
</trk>
<trk>
<name>hbchy54</name>
<cmt>v</cmt>
<desc>Hennuyères Sentier n°54 </desc>
<link href="https://chemins.be/hennuyeres/sentier/54"/><trkseg>
<trkpt lat="50.639862" lon="4.170178"><time>2026-05-03T03:35:19Z</time></trkpt>
<trkpt lat="50.639844" lon="4.169882"><time>2026-05-03T03:45:19Z</time></trkpt>
<trkpt lat="50.640005" lon="4.169457"><time>2026-05-03T03:55:19Z</time></trkpt>
</trkseg>
</trk>
<trk>
<name>hbchy57</name>
<cmt>q</cmt>
<desc>Hennuyères Sentier n°57 </desc>
<link href="https://chemins.be/hennuyeres/sentier/57"/><trkseg>
<trkpt lat="50.644283" lon="4.188188"><time>2026-05-03T03:35:19Z</time></trkpt>
<trkpt lat="50.642993" lon="4.185573"><time>2026-05-03T03:45:19Z</time></trkpt>
<trkpt lat="50.642661" lon="4.184901"><time>2026-05-03T03:55:19Z</time></trkpt>
<trkpt lat="50.641619" lon="4.184972"><time>2026-05-03T04:05:19Z</time></trkpt>
</trkseg>
</trk>
<trk>
<name>hbchy58</name>
<cmt>v</cmt>
<desc>Hennuyères Sentier n°58 </desc>
<link href="https://chemins.be/hennuyeres/sentier/58"/><trkseg>
<trkpt lat="50.642058" lon="4.186354"><time>2026-05-03T03:35:19Z</time></trkpt>
<trkpt lat="50.642131" lon="4.186157"><time>2026-05-03T03:45:19Z</time></trkpt>
<trkpt lat="50.642488" lon="4.185753"><time>2026-05-03T03:55:19Z</time></trkpt>
</trkseg></trk>
<trk>
<name>hbchy58</name>
<cmt>q</cmt>
<desc>Hennuyères Sentier n°58 </desc>
<link href="https://chemins.be/hennuyeres/sentier/58"/><trkseg>
<trkpt lat="50.642488" lon="4.185753"><time>2026-05-03T03:55:19Z</time></trkpt>
<trkpt lat="50.642681" lon="4.185921"><time>2026-05-03T04:05:19Z</time></trkpt>
<trkpt lat="50.642982" lon="4.185597"><time>2026-05-03T04:15:19Z</time></trkpt>
<trkpt lat="50.645223" lon="4.183186"><time>2026-05-03T04:25:19Z</time></trkpt>
<trkpt lat="50.645854" lon="4.181881"><time>2026-05-03T04:35:19Z</time></trkpt>
</trkseg>
</trk>
<trk>
<name>hbchy59</name>
<cmt>v</cmt>
<desc>Hennuyères Sentier n°59 </desc>
<link href="https://chemins.be/hennuyeres/sentier/59"/><trkseg>
<trkpt lat="50.639861" lon="4.182758"><time>2026-05-03T03:35:19Z</time></trkpt>
<trkpt lat="50.639801" lon="4.183016"><time>2026-05-03T03:45:19Z</time></trkpt>
</trkseg></trk>
<trk>
<name>hbchy59</name>
<cmt>q</cmt>
<desc>Hennuyères Sentier n°59 </desc>
<link href="https://chemins.be/hennuyeres/sentier/59"/><trkseg>
<trkpt lat="50.639801" lon="4.183016"><time>2026-05-03T03:45:19Z</time></trkpt>
<trkpt lat="50.639902" lon="4.184359"><time>2026-05-03T03:55:19Z</time></trkpt>
<trkpt lat="50.639766" lon="4.184801"><time>2026-05-03T04:05:19Z</time></trkpt>
<trkpt lat="50.639793" lon="4.185119"><time>2026-05-03T04:15:19Z</time></trkpt>
</trkseg>
</trk>
<trk>
<name>hbchy60</name>
<cmt>q</cmt>
<desc>Hennuyères Sentier n°60 </desc>
<link href="https://chemins.be/hennuyeres/sentier/60"/><trkseg>
<trkpt lat="50.632046" lon="4.177812"><time>2026-05-03T03:35:19Z</time></trkpt>
<trkpt lat="50.633875" lon="4.179666"><time>2026-05-03T03:45:19Z</time></trkpt>
<trkpt lat="50.634833" lon="4.179683"><time>2026-05-03T03:55:19Z</time></trkpt>
<trkpt lat="50.636804" lon="4.180541"><time>2026-05-03T04:05:19Z</time></trkpt>
<trkpt lat="50.638181" lon="4.181803"><time>2026-05-03T04:15:19Z</time></trkpt>
<trkpt lat="50.639760" lon="4.181992"><time>2026-05-03T04:25:19Z</time></trkpt>
</trkseg>
</trk>
<trk>
<name>hbchy61</name>
<cmt>v</cmt>
<desc>Hennuyères Sentier n°61 Rue du Grand Péril</desc>
<link href="https://chemins.be/hennuyeres/sentier/61"/><trkseg>
<trkpt lat="50.642286" lon="4.187629"><time>2026-05-03T03:35:19Z</time></trkpt>
<trkpt lat="50.642477" lon="4.187633"><time>2026-05-03T03:45:19Z</time></trkpt>
<trkpt lat="50.642618" lon="4.188298"><time>2026-05-03T03:55:19Z</time></trkpt>
<trkpt lat="50.643405" lon="4.189560"><time>2026-05-03T04:05:19Z</time></trkpt>
<trkpt lat="50.643266" lon="4.189753"><time>2026-05-03T04:15:19Z</time></trkpt>
</trkseg></trk>
<trk>
<name>hbchy61</name>
<cmt>q</cmt>
<desc>Hennuyères Sentier n°61 Rue du Grand Péril</desc>
<link href="https://chemins.be/hennuyeres/sentier/61"/><trkseg>
<trkpt lat="50.643266" lon="4.189753"><time>2026-05-03T04:15:19Z</time></trkpt>
<trkpt lat="50.643891" lon="4.191192"><time>2026-05-03T04:25:19Z</time></trkpt>
<trkpt lat="50.644537" lon="4.192068"><time>2026-05-03T04:35:19Z</time></trkpt>
<trkpt lat="50.644942" lon="4.192617"><time>2026-05-03T04:45:19Z</time></trkpt>
<trkpt lat="50.648582" lon="4.193160"><time>2026-05-03T04:55:19Z</time></trkpt>
</trkseg></trk>
<trk>
<name>hbchy61</name>
<cmt>v</cmt>
<desc>Hennuyères Sentier n°61 Rue du Grand Péril</desc>
<link href="https://chemins.be/hennuyeres/sentier/61"/><trkseg>
<trkpt lat="50.648582" lon="4.193160"><time>2026-05-03T04:55:19Z</time></trkpt>
<trkpt lat="50.651118" lon="4.191031"><time>2026-05-03T05:05:19Z</time></trkpt>
</trkseg></trk>
<trk>
<name>hbchy61</name>
<cmt>s</cmt>
<desc>Hennuyères Sentier n°61 Rue du Grand Péril</desc>
<link href="https://chemins.be/hennuyeres/sentier/61"/><trkseg>
<trkpt lat="50.651118" lon="4.191031"><time>2026-05-03T05:05:19Z</time></trkpt>
<trkpt lat="50.653312" lon="4.190282"><time>2026-05-03T05:15:19Z</time></trkpt>
<trkpt lat="50.654188" lon="4.191810"><time>2026-05-03T05:25:19Z</time></trkpt>
<trkpt lat="50.654721" lon="4.192222"><time>2026-05-03T05:35:19Z</time></trkpt>
</trkseg>
</trk>
<trk>
<name>hbchy62</name>
<cmt>q</cmt>
<desc>Hennuyères Sentier n°62 </desc>
<link href="https://chemins.be/hennuyeres/sentier/62"/><trkseg>
<trkpt lat="50.655162" lon="4.191491"><time>2026-05-03T03:35:19Z</time></trkpt>
<trkpt lat="50.655795" lon="4.192138"><time>2026-05-03T03:45:19Z</time></trkpt>
</trkseg>
</trk>
<trk>
<name>hbchy63</name>
<cmt>q</cmt>
<desc>Hennuyères Sentier n°63 </desc>
<link href="https://chemins.be/hennuyeres/sentier/63"/><trkseg>
<trkpt lat="50.647021" lon="4.186986"><time>2026-05-03T03:35:19Z</time></trkpt>
<trkpt lat="50.648811" lon="4.189192"><time>2026-05-03T03:45:19Z</time></trkpt>
<trkpt lat="50.650487" lon="4.190514"><time>2026-05-03T03:55:19Z</time></trkpt>
<trkpt lat="50.650749" lon="4.190119"><time>2026-05-03T04:05:19Z</time></trkpt>
</trkseg>
</trk>
<trk>
<name>hbchy64</name>
<cmt>v</cmt>
<desc>Hennuyères Sentier n°64 </desc>
<link href="https://chemins.be/hennuyeres/sentier/64"/><trkseg>
<trkpt lat="50.641453" lon="4.192677"><time>2026-05-03T03:35:19Z</time></trkpt>
<trkpt lat="50.640582" lon="4.190857"><time>2026-05-03T03:45:19Z</time></trkpt>
<trkpt lat="50.640674" lon="4.190677"><time>2026-05-03T03:55:19Z</time></trkpt>
</trkseg></trk>
<trk>
<name>hbchy64</name>
<cmt>q</cmt>
<desc>Hennuyères Sentier n°64 </desc>
<link href="https://chemins.be/hennuyeres/sentier/64"/><trkseg>
<trkpt lat="50.640674" lon="4.190677"><time>2026-05-03T03:55:19Z</time></trkpt>
<trkpt lat="50.640435" lon="4.190085"><time>2026-05-03T04:05:19Z</time></trkpt>
<trkpt lat="50.640593" lon="4.189269"><time>2026-05-03T04:15:19Z</time></trkpt>
<trkpt lat="50.639678" lon="4.187810"><time>2026-05-03T04:25:19Z</time></trkpt>
<trkpt lat="50.639662" lon="4.187244"><time>2026-05-03T04:35:19Z</time></trkpt>
<trkpt lat="50.639177" lon="4.186497"><time>2026-05-03T04:45:19Z</time></trkpt>
<trkpt lat="50.638780" lon="4.186239"><time>2026-05-03T04:55:19Z</time></trkpt>
</trkseg></trk>
<trk>
<name>hbchy64</name>
<cmt>v</cmt>
<desc>Hennuyères Sentier n°64 </desc>
<link href="https://chemins.be/hennuyeres/sentier/64"/><trkseg>
<trkpt lat="50.638780" lon="4.186239"><time>2026-05-03T04:55:19Z</time></trkpt>
<trkpt lat="50.638649" lon="4.185433"><time>2026-05-03T05:05:19Z</time></trkpt>
</trkseg>
</trk>
<trk>
<name>hbchy65</name>
<cmt>q</cmt>
<desc>Hennuyères Sentier n°65 </desc>
<link href="https://chemins.be/hennuyeres/sentier/65"/><trkseg>
<trkpt lat="50.642011" lon="4.191999"><time>2026-05-03T03:35:19Z</time></trkpt>
<trkpt lat="50.644547" lon="4.192085"><time>2026-05-03T03:45:19Z</time></trkpt>
</trkseg>
</trk>
<trk>
<name>hbchy66</name>
<cmt>v</cmt>
<desc>Hennuyères Sentier n°66 </desc>
<link href="https://chemins.be/hennuyeres/sentier/66"/><trkseg>
<trkpt lat="50.641791" lon="4.188758"><time>2026-05-03T03:35:19Z</time></trkpt>
<trkpt lat="50.642967" lon="4.190242"><time>2026-05-03T03:45:19Z</time></trkpt>
</trkseg>
</trk>
<trk>
<name>hbchy67</name>
<cmt>q</cmt>
<desc>Hennuyères Sentier n°67 </desc>
<link href="https://chemins.be/hennuyeres/sentier/67"/><trkseg>
<trkpt lat="50.642487" lon="4.189613"><time>2026-05-03T03:35:19Z</time></trkpt>
<trkpt lat="50.641632" lon="4.190960"><time>2026-05-03T03:45:19Z</time></trkpt>
<trkpt lat="50.640957" lon="4.191784"><time>2026-05-03T03:55:19Z</time></trkpt>
<trkpt lat="50.639493" lon="4.193724"><time>2026-05-03T04:05:19Z</time></trkpt>
<trkpt lat="50.639999" lon="4.194685"><time>2026-05-03T04:15:19Z</time></trkpt>
</trkseg>
</trk>
<trk>
<name>hbchy68</name>
<cmt>q</cmt>
<desc>Hennuyères Sentier n°68 </desc>
<link href="https://chemins.be/hennuyeres/sentier/68"/><trkseg>
<trkpt lat="50.642626" lon="4.188303"><time>2026-05-03T03:35:19Z</time></trkpt>
<trkpt lat="50.642177" lon="4.189242"><time>2026-05-03T03:45:19Z</time></trkpt>
</trkseg>
</trk>
<trk>
<name>hbchy7</name>
<cmt>v</cmt>
<desc>Hennuyères Chemin n°7 </desc>
<link href="https://chemins.be/hennuyeres/chemin/7"/><trkseg>
<trkpt lat="50.626453" lon="4.156963"><time>2026-05-03T03:35:19Z</time></trkpt>
<trkpt lat="50.625854" lon="4.158733"><time>2026-05-03T03:45:19Z</time></trkpt>
</trkseg>
</trk>
<trk>
<name>hbchy70</name>
<cmt>q</cmt>
<desc>Hennuyères Sentier n°70 </desc>
<link href="https://chemins.be/hennuyeres/sentier/70"/><trkseg>
<trkpt lat="50.648969" lon="4.185699"><time>2026-05-03T03:35:19Z</time></trkpt>
<trkpt lat="50.649916" lon="4.185922"><time>2026-05-03T03:45:19Z</time></trkpt>
<trkpt lat="50.650774" lon="4.185937"><time>2026-05-03T03:55:19Z</time></trkpt>
</trkseg></trk>
<trk>
<name>hbchy70</name>
<cmt>s</cmt>
<desc>Hennuyères Sentier n°70 </desc>
<link href="https://chemins.be/hennuyeres/sentier/70"/><trkseg>
<trkpt lat="50.650774" lon="4.185937"><time>2026-05-03T03:55:19Z</time></trkpt>
<trkpt lat="50.651396" lon="4.185948"><time>2026-05-03T04:05:19Z</time></trkpt>
<trkpt lat="50.652076" lon="4.183922"><time>2026-05-03T04:15:19Z</time></trkpt>
<trkpt lat="50.652637" lon="4.182566"><time>2026-05-03T04:25:19Z</time></trkpt>
</trkseg>
</trk>
<trk>
<name>hbchy71</name>
<cmt>s</cmt>
<desc>Hennuyères Sentier n°71 </desc>
<link href="https://chemins.be/hennuyeres/sentier/71"/><trkseg>
<trkpt lat="50.652090" lon="4.197990"><time>2026-05-03T03:35:19Z</time></trkpt>
<trkpt lat="50.650920" lon="4.194462"><time>2026-05-03T03:45:19Z</time></trkpt>
<trkpt lat="50.650616" lon="4.192042"><time>2026-05-03T03:55:19Z</time></trkpt>
</trkseg>
</trk>
<trk>
<name>hbchy72</name>
<cmt>q</cmt>
<desc>Hennuyères Sentier n°72 </desc>
<link href="https://chemins.be/hennuyeres/sentier/72"/><trkseg>
<trkpt lat="50.647769" lon="4.177411"><time>2026-05-03T03:35:19Z</time></trkpt>
<trkpt lat="50.648134" lon="4.176452"><time>2026-05-03T03:45:19Z</time></trkpt>
<trkpt lat="50.648638" lon="4.175126"><time>2026-05-03T03:55:19Z</time></trkpt>
<trkpt lat="50.648654" lon="4.174385"><time>2026-05-03T04:05:19Z</time></trkpt>
</trkseg>
</trk>
<trk>
<name>hbchy73</name>
<cmt>q</cmt>
<desc>Hennuyères Sentier n°73 </desc>
<link href="https://chemins.be/hennuyeres/sentier/73"/><trkseg>
<trkpt lat="50.649302" lon="4.172049"><time>2026-05-03T03:35:19Z</time></trkpt>
<trkpt lat="50.650527" lon="4.171706"><time>2026-05-03T03:45:19Z</time></trkpt>
<trkpt lat="50.651457" lon="4.170261"><time>2026-05-03T03:55:19Z</time></trkpt>
<trkpt lat="50.652037" lon="4.168552"><time>2026-05-03T04:05:19Z</time></trkpt>
<trkpt lat="50.654840" lon="4.166914"><time>2026-05-03T04:15:19Z</time></trkpt>
</trkseg>
</trk>
<trk>
<name>hbchy74</name>
<cmt>q</cmt>
<desc>Hennuyères Sentier n°74 </desc>
<link href="https://chemins.be/hennuyeres/sentier/74"/><trkseg>
<trkpt lat="50.649090" lon="4.172369"><time>2026-05-03T03:35:19Z</time></trkpt>
<trkpt lat="50.645257" lon="4.168559"><time>2026-05-03T03:45:19Z</time></trkpt>
<trkpt lat="50.644876" lon="4.168623"><time>2026-05-03T03:55:19Z</time></trkpt>
<trkpt lat="50.644581" lon="4.168301"><time>2026-05-03T04:05:19Z</time></trkpt>
</trkseg>
</trk>
<trk>
<name>hbchy75</name>
<cmt>q</cmt>
<desc>Hennuyères Sentier n°75 </desc>
<link href="https://chemins.be/hennuyeres/sentier/75"/><trkseg>
<trkpt lat="50.645410" lon="4.166867"><time>2026-05-03T03:35:19Z</time></trkpt>
<trkpt lat="50.646738" lon="4.165168"><time>2026-05-03T03:45:19Z</time></trkpt>
<trkpt lat="50.647919" lon="4.164816"><time>2026-05-03T03:55:19Z</time></trkpt>
<trkpt lat="50.649421" lon="4.163203"><time>2026-05-03T04:05:19Z</time></trkpt>
</trkseg>
</trk>
<trk>
<name>hbchy76</name>
<cmt>q</cmt>
<desc>Hennuyères Sentier n°76 </desc>
<link href="https://chemins.be/hennuyeres/sentier/76"/><trkseg>
<trkpt lat="50.634007" lon="4.157966"><time>2026-05-03T03:35:19Z</time></trkpt>
<trkpt lat="50.635240" lon="4.156615"><time>2026-05-03T03:45:19Z</time></trkpt>
<trkpt lat="50.637341" lon="4.155310"><time>2026-05-03T03:55:19Z</time></trkpt>
</trkseg>
</trk>
<trk>
<name>hbchy77</name>
<cmt>v</cmt>
<desc>Hennuyères Sentier n°77 </desc>
<link href="https://chemins.be/hennuyeres/sentier/77"/><trkseg>
<trkpt lat="50.632768" lon="4.148353"><time>2026-05-03T03:35:19Z</time></trkpt>
<trkpt lat="50.632784" lon="4.147727"><time>2026-05-03T03:45:19Z</time></trkpt>
</trkseg></trk>
<trk>
<name>hbchy77</name>
<cmt>q</cmt>
<desc>Hennuyères Sentier n°77 </desc>
<link href="https://chemins.be/hennuyeres/sentier/77"/><trkseg>
<trkpt lat="50.632784" lon="4.147727"><time>2026-05-03T03:45:19Z</time></trkpt>
<trkpt lat="50.633223" lon="4.147083"><time>2026-05-03T03:55:19Z</time></trkpt>
<trkpt lat="50.634208" lon="4.146705"><time>2026-05-03T04:05:19Z</time></trkpt>
</trkseg>
</trk>
<trk>
<name>hbchy78</name>
<cmt>q</cmt>
<desc>Hennuyères Sentier n°78 </desc>
<link href="https://chemins.be/hennuyeres/sentier/78"/><trkseg>
<trkpt lat="50.629866" lon="4.155351"><time>2026-05-03T03:35:19Z</time></trkpt>
<trkpt lat="50.628441" lon="4.152418"><time>2026-05-03T03:45:19Z</time></trkpt>
<trkpt lat="50.627565" lon="4.150598"><time>2026-05-03T03:55:19Z</time></trkpt>
<trkpt lat="50.627599" lon="4.149298"><time>2026-05-03T04:05:19Z</time></trkpt>
<trkpt lat="50.627157" lon="4.148862"><time>2026-05-03T04:15:19Z</time></trkpt>
</trkseg>
</trk>
<trk>
<name>hbchy79</name>
<cmt>q</cmt>
<desc>Hennuyères Sentier n°79 </desc>
<link href="https://chemins.be/hennuyeres/sentier/79"/><trkseg>
<trkpt lat="50.634966" lon="4.165011"><time>2026-05-03T03:35:19Z</time></trkpt>
<trkpt lat="50.634209" lon="4.167355"><time>2026-05-03T03:45:19Z</time></trkpt>
<trkpt lat="50.634372" lon="4.167526"><time>2026-05-03T03:55:19Z</time></trkpt>
<trkpt lat="50.633969" lon="4.169011"><time>2026-05-03T04:05:19Z</time></trkpt>
<trkpt lat="50.634742" lon="4.172444"><time>2026-05-03T04:15:19Z</time></trkpt>
<trkpt lat="50.634519" lon="4.173217"><time>2026-05-03T04:25:19Z</time></trkpt>
<trkpt lat="50.634478" lon="4.173878"><time>2026-05-03T04:35:19Z</time></trkpt>
</trkseg></trk>
<trk>
<name>hbchy79</name>
<cmt>v</cmt>
<desc>Hennuyères Sentier n°79 </desc>
<link href="https://chemins.be/hennuyeres/sentier/79"/><trkseg>
<trkpt lat="50.634478" lon="4.173878"><time>2026-05-03T04:35:19Z</time></trkpt>
<trkpt lat="50.634646" lon="4.174300"><time>2026-05-03T04:45:19Z</time></trkpt>
<trkpt lat="50.634756" lon="4.175585"><time>2026-05-03T04:55:19Z</time></trkpt>
<trkpt lat="50.634847" lon="4.176066"><time>2026-05-03T05:05:19Z</time></trkpt>
<trkpt lat="50.634857" lon="4.176843"><time>2026-05-03T05:15:19Z</time></trkpt>
<trkpt lat="50.634968" lon="4.178553"><time>2026-05-03T05:25:19Z</time></trkpt>
</trkseg></trk>
<trk>
<name>hbchy79</name>
<cmt>q</cmt>
<desc>Hennuyères Sentier n°79 </desc>
<link href="https://chemins.be/hennuyeres/sentier/79"/><trkseg>
<trkpt lat="50.634968" lon="4.178553"><time>2026-05-03T05:25:19Z</time></trkpt>
<trkpt lat="50.634817" lon="4.179727"><time>2026-05-03T05:35:19Z</time></trkpt>
</trkseg>
</trk>
<trk>
<name>hbchy80</name>
<cmt>q</cmt>
<desc>Hennuyères Sentier n°80 </desc>
<link href="https://chemins.be/hennuyeres/sentier/80"/><trkseg>
<trkpt lat="50.635600" lon="4.169646"><time>2026-05-03T03:35:19Z</time></trkpt>
<trkpt lat="50.635864" lon="4.168942"><time>2026-05-03T03:45:19Z</time></trkpt>
<trkpt lat="50.636895" lon="4.167603"><time>2026-05-03T03:55:19Z</time></trkpt>
</trkseg>
</trk>
<trk>
<name>hbchy81</name>
<cmt>q</cmt>
<desc>Hennuyères Sentier n°81 </desc>
<link href="https://chemins.be/hennuyeres/sentier/81"/><trkseg>
<trkpt lat="50.637806" lon="4.175821"><time>2026-05-03T03:35:19Z</time></trkpt>
<trkpt lat="50.636564" lon="4.175889"><time>2026-05-03T03:45:19Z</time></trkpt>
<trkpt lat="50.634659" lon="4.174224"><time>2026-05-03T03:55:19Z</time></trkpt>
</trkseg>
</trk>
<trk>
<name>hbchy82</name>
<cmt>q</cmt>
<desc>Hennuyères Sentier n°82 </desc>
<link href="https://chemins.be/hennuyeres/sentier/82"/><trkseg>
<trkpt lat="50.636663" lon="4.178179"><time>2026-05-03T03:35:19Z</time></trkpt>
<trkpt lat="50.636575" lon="4.175915"><time>2026-05-03T03:45:19Z</time></trkpt>
</trkseg>
</trk>
<trk>
<name>hbchy83</name>
<cmt>q</cmt>
<desc>Hennuyères Sentier n°83 </desc>
<link href="https://chemins.be/hennuyeres/sentier/83"/><trkseg>
<trkpt lat="50.635318" lon="4.187451"><time>2026-05-03T03:35:19Z</time></trkpt>
<trkpt lat="50.636771" lon="4.182970"><time>2026-05-03T03:45:19Z</time></trkpt>
<trkpt lat="50.638154" lon="4.181734"><time>2026-05-03T03:55:19Z</time></trkpt>
</trkseg>
</trk>
<trk>
<name>hbchy84</name>
<cmt>q</cmt>
<desc>Hennuyères Sentier n°84 </desc>
<link href="https://chemins.be/hennuyeres/sentier/84"/><trkseg>
<trkpt lat="50.632771" lon="4.187358"><time>2026-05-03T03:35:19Z</time></trkpt>
<trkpt lat="50.632956" lon="4.185934"><time>2026-05-03T03:45:19Z</time></trkpt>
<trkpt lat="50.633643" lon="4.184976"><time>2026-05-03T03:55:19Z</time></trkpt>
<trkpt lat="50.634616" lon="4.183622"><time>2026-05-03T04:05:19Z</time></trkpt>
<trkpt lat="50.636096" lon="4.181854"><time>2026-05-03T04:15:19Z</time></trkpt>
<trkpt lat="50.636766" lon="4.180540"><time>2026-05-03T04:25:19Z</time></trkpt>
</trkseg>
</trk>
<trk>
<name>hbchy85</name>
<cmt>r</cmt>
<desc>Hennuyères Sentier n°85 Sentier de la Fête au Bois</desc>
<link href="https://chemins.be/hennuyeres/sentier/85"/><trkseg>
<trkpt lat="50.631972" lon="4.187851"><time>2026-05-03T03:35:19Z</time></trkpt>
<trkpt lat="50.632769" lon="4.187387"><time>2026-05-03T03:45:19Z</time></trkpt>
<trkpt lat="50.633472" lon="4.187340"><time>2026-05-03T03:55:19Z</time></trkpt>
</trkseg></trk>
<trk>
<name>hbchy85</name>
<cmt>v</cmt>
<desc>Hennuyères Sentier n°85 Sentier de la Fête au Bois</desc>
<link href="https://chemins.be/hennuyeres/sentier/85"/><trkseg>
<trkpt lat="50.633472" lon="4.187340"><time>2026-05-03T03:55:19Z</time></trkpt>
<trkpt lat="50.633917" lon="4.187582"><time>2026-05-03T04:05:19Z</time></trkpt>
</trkseg>
</trk>
<trk>
<name>hbchy86</name>
<cmt>q</cmt>
<desc>Hennuyères Sentier n°86 </desc>
<link href="https://chemins.be/hennuyeres/sentier/86"/><trkseg>
<trkpt lat="50.630486" lon="4.181251"><time>2026-05-03T03:35:19Z</time></trkpt>
<trkpt lat="50.629844" lon="4.180804"><time>2026-05-03T03:45:19Z</time></trkpt>
<trkpt lat="50.628793" lon="4.179457"><time>2026-05-03T03:55:19Z</time></trkpt>
<trkpt lat="50.628270" lon="4.177191"><time>2026-05-03T04:05:19Z</time></trkpt>
<trkpt lat="50.626765" lon="4.174463"><time>2026-05-03T04:15:19Z</time></trkpt>
<trkpt lat="50.625837" lon="4.172281"><time>2026-05-03T04:25:19Z</time></trkpt>
<trkpt lat="50.625021" lon="4.171234"><time>2026-05-03T04:35:19Z</time></trkpt>
</trkseg>
</trk>
<trk>
<name>hbchy87</name>
<cmt>q</cmt>
<desc>Hennuyères Sentier n°87 </desc>
<link href="https://chemins.be/hennuyeres/sentier/87"/><trkseg>
<trkpt lat="50.625051" lon="4.167357"><time>2026-05-03T03:35:19Z</time></trkpt>
<trkpt lat="50.626076" lon="4.167339"><time>2026-05-03T03:45:19Z</time></trkpt>
<trkpt lat="50.627280" lon="4.167051"><time>2026-05-03T03:55:19Z</time></trkpt>
<trkpt lat="50.628405" lon="4.167612"><time>2026-05-03T04:05:19Z</time></trkpt>
<trkpt lat="50.629743" lon="4.166715"><time>2026-05-03T04:15:19Z</time></trkpt>
</trkseg>
</trk>
<trk>
<name>hbchy88</name>
<cmt>q</cmt>
<desc>Hennuyères Sentier n°88 </desc>
<link href="https://chemins.be/hennuyeres/sentier/88"/><trkseg>
<trkpt lat="50.631598" lon="4.178244"><time>2026-05-03T03:35:19Z</time></trkpt>
<trkpt lat="50.631148" lon="4.177669"><time>2026-05-03T03:45:19Z</time></trkpt>
<trkpt lat="50.630086" lon="4.174396"><time>2026-05-03T03:55:19Z</time></trkpt>
<trkpt lat="50.629531" lon="4.172448"><time>2026-05-03T04:05:19Z</time></trkpt>
<trkpt lat="50.629895" lon="4.169289"><time>2026-05-03T04:15:19Z</time></trkpt>
<trkpt lat="50.629721" lon="4.166740"><time>2026-05-03T04:25:19Z</time></trkpt>
</trkseg>
</trk>
<trk>
<name>hbchy89</name>
<cmt>q</cmt>
<desc>Hennuyères Sentier n°89 </desc>
<link href="https://chemins.be/hennuyeres/sentier/89"/><trkseg>
<trkpt lat="50.656277" lon="4.184828"><time>2026-05-03T03:35:19Z</time></trkpt>
<trkpt lat="50.656607" lon="4.185504"><time>2026-05-03T03:45:19Z</time></trkpt>
<trkpt lat="50.657552" lon="4.186518"><time>2026-05-03T03:55:19Z</time></trkpt>
</trkseg>
</trk>
<trk>
<name>hbchy9</name>
<cmt>v</cmt>
<desc>Hennuyères Chemin n°9 </desc>
<link href="https://chemins.be/hennuyeres/chemin/9"/><trkseg>
<trkpt lat="50.638955" lon="4.153580"><time>2026-05-03T03:35:19Z</time></trkpt>
<trkpt lat="50.638836" lon="4.154454"><time>2026-05-03T03:45:19Z</time></trkpt>
</trkseg></trk>
<trk>
<name>hbchy9</name>
<cmt>q</cmt>
<desc>Hennuyères Chemin n°9 </desc>
<link href="https://chemins.be/hennuyeres/chemin/9"/><trkseg>
<trkpt lat="50.638836" lon="4.154454"><time>2026-05-03T03:45:19Z</time></trkpt>
<trkpt lat="50.637279" lon="4.155304"><time>2026-05-03T03:55:19Z</time></trkpt>
<trkpt lat="50.638923" lon="4.161484"><time>2026-05-03T04:05:19Z</time></trkpt>
</trkseg></trk>
<trk>
<name>hbchy9</name>
<cmt>v</cmt>
<desc>Hennuyères Chemin n°9 </desc>
<link href="https://chemins.be/hennuyeres/chemin/9"/><trkseg>
<trkpt lat="50.638923" lon="4.161484"><time>2026-05-03T04:05:19Z</time></trkpt>
<trkpt lat="50.638782" lon="4.164445"><time>2026-05-03T04:15:19Z</time></trkpt>
<trkpt lat="50.638466" lon="4.165286"><time>2026-05-03T04:25:19Z</time></trkpt>
</trkseg>
</trk>
<trk>
<name>hbchy90</name>
<cmt>s</cmt>
<desc>Hennuyères Sentier n°90 </desc>
<link href="https://chemins.be/hennuyeres/sentier/90"/><trkseg>
<trkpt lat="50.651399" lon="4.191144"><time>2026-05-03T03:35:19Z</time></trkpt>
<trkpt lat="50.653077" lon="4.193881"><time>2026-05-03T03:45:19Z</time></trkpt>
<trkpt lat="50.653751" lon="4.194087"><time>2026-05-03T03:55:19Z</time></trkpt>
</trkseg>
</trk>
<trk>
<name>hbchy92</name>
<cmt>q</cmt>
<desc>Hennuyères Sentier n°92 </desc>
<link href="https://chemins.be/hennuyeres/sentier/92"/><trkseg>
<trkpt lat="50.645882" lon="4.160306"><time>2026-05-03T03:35:19Z</time></trkpt>
<trkpt lat="50.645903" lon="4.160313"><time>2026-05-03T03:45:19Z</time></trkpt>
<trkpt lat="50.646257" lon="4.159451"><time>2026-05-03T03:55:19Z</time></trkpt>
</trkseg>
</trk>
<trk>
<name>hbchy93</name>
<cmt>q</cmt>
<desc>Hennuyères Sentier n°93 Rue de la Libération</desc>
<link href="https://chemins.be/hennuyeres/sentier/93"/><trkseg>
<trkpt lat="50.632400" lon="4.148475"><time>2026-05-03T03:35:19Z</time></trkpt>
<trkpt lat="50.632656" lon="4.150132"><time>2026-05-03T03:45:19Z</time></trkpt>
</trkseg>
</trk>
<trk>
<name>hbchy94</name>
<cmt>q</cmt>
<desc>Hennuyères Sentier n°94 </desc>
<link href="https://chemins.be/hennuyeres/sentier/94"/><trkseg>
<trkpt lat="50.636580" lon="4.169809"><time>2026-05-03T03:35:19Z</time></trkpt>
<trkpt lat="50.636245" lon="4.169526"><time>2026-05-03T03:45:19Z</time></trkpt>
<trkpt lat="50.635725" lon="4.169629"><time>2026-05-03T03:55:19Z</time></trkpt>
</trkseg>
</trk>
<trk>
<name>hbchy95</name>
<cmt>q</cmt>
<desc>Hennuyères Sentier n°95 </desc>
<link href="https://chemins.be/hennuyeres/sentier/95"/><trkseg>
<trkpt lat="50.636505" lon="4.169871"><time>2026-05-03T03:35:19Z</time></trkpt>
<trkpt lat="50.636356" lon="4.170163"><time>2026-05-03T03:45:19Z</time></trkpt>
<trkpt lat="50.636571" lon="4.172506"><time>2026-05-03T03:55:19Z</time></trkpt>
<trkpt lat="50.636915" lon="4.173602"><time>2026-05-03T04:05:19Z</time></trkpt>
<trkpt lat="50.637733" lon="4.176205"><time>2026-05-03T04:15:19Z</time></trkpt>
</trkseg>
</trk>
<trk>
<name>hbchy96</name>
<cmt>q</cmt>
<desc>Hennuyères Sentier n°96 </desc>
<link href="https://chemins.be/hennuyeres/sentier/96"/><trkseg>
<trkpt lat="50.632850" lon="4.163172"><time>2026-05-03T03:35:19Z</time></trkpt>
<trkpt lat="50.631564" lon="4.162624"><time>2026-05-03T03:45:19Z</time></trkpt>
<trkpt lat="50.630958" lon="4.162257"><time>2026-05-03T03:55:19Z</time></trkpt>
<trkpt lat="50.630766" lon="4.162273"><time>2026-05-03T04:05:19Z</time></trkpt>
<trkpt lat="50.629864" lon="4.163250"><time>2026-05-03T04:15:19Z</time></trkpt>
</trkseg>
</trk>
<trk>
<name>hbchy97</name>
<cmt>q</cmt>
<desc>Hennuyères Sentier n°97 </desc>
<link href="https://chemins.be/hennuyeres/sentier/97"/><trkseg>
<trkpt lat="50.626883" lon="4.156269"><time>2026-05-03T03:35:19Z</time></trkpt>
<trkpt lat="50.628272" lon="4.158552"><time>2026-05-03T03:45:19Z</time></trkpt>
<trkpt lat="50.629884" lon="4.160001"><time>2026-05-03T03:55:19Z</time></trkpt>
<trkpt lat="50.630975" lon="4.162201"><time>2026-05-03T04:05:19Z</time></trkpt>
</trkseg>
</trk>
<trk>
<name>hbchy98</name>
<cmt>q</cmt>
<desc>Hennuyères Sentier n°98 </desc>
<link href="https://chemins.be/hennuyeres/sentier/98"/><trkseg>
<trkpt lat="50.630491" lon="4.161061"><time>2026-05-03T03:35:19Z</time></trkpt>
<trkpt lat="50.631348" lon="4.159642"><time>2026-05-03T03:45:19Z</time></trkpt>
<trkpt lat="50.631038" lon="4.158315"><time>2026-05-03T03:55:19Z</time></trkpt>
<trkpt lat="50.631126" lon="4.158029"><time>2026-05-03T04:05:19Z</time></trkpt>
</trkseg>
</trk>
<trk>
<name>hbchyi1</name>
<cmt>v</cmt>
<desc>Hennuyères Chemin n°i1 Sentier de la Voie du Tram</desc>
<link href="https://chemins.be/hennuyeres/chemin/i1"/><trkseg>
<trkpt lat="50.624620" lon="4.178580"><time>2026-05-03T03:35:19Z</time></trkpt>
<trkpt lat="50.624908" lon="4.178848"><time>2026-05-03T03:45:19Z</time></trkpt>
<trkpt lat="50.625098" lon="4.179130"><time>2026-05-03T03:55:19Z</time></trkpt>
<trkpt lat="50.625188" lon="4.179327"><time>2026-05-03T04:05:19Z</time></trkpt>
<trkpt lat="50.625269" lon="4.179511"><time>2026-05-03T04:15:19Z</time></trkpt>
<trkpt lat="50.625341" lon="4.179694"><time>2026-05-03T04:25:19Z</time></trkpt>
<trkpt lat="50.625377" lon="4.179835"><time>2026-05-03T04:35:19Z</time></trkpt>
<trkpt lat="50.625459" lon="4.180103"><time>2026-05-03T04:45:19Z</time></trkpt>
<trkpt lat="50.625522" lon="4.180372"><time>2026-05-03T04:55:19Z</time></trkpt>
<trkpt lat="50.625631" lon="4.180696"><time>2026-05-03T05:05:19Z</time></trkpt>
<trkpt lat="50.625712" lon="4.180837"><time>2026-05-03T05:15:19Z</time></trkpt>
<trkpt lat="50.625793" lon="4.180950"><time>2026-05-03T05:25:19Z</time></trkpt>
<trkpt lat="50.626144" lon="4.181189"><time>2026-05-03T05:35:19Z</time></trkpt>
<trkpt lat="50.626692" lon="4.181187"><time>2026-05-03T05:45:19Z</time></trkpt>
<trkpt lat="50.627268" lon="4.181340"><time>2026-05-03T05:55:19Z</time></trkpt>
<trkpt lat="50.627619" lon="4.181763"><time>2026-05-03T06:05:19Z</time></trkpt>
<trkpt lat="50.627916" lon="4.182185"><time>2026-05-03T06:15:19Z</time></trkpt>
<trkpt lat="50.628501" lon="4.182480"><time>2026-05-03T06:25:19Z</time></trkpt>
<trkpt lat="50.628816" lon="4.182408"><time>2026-05-03T06:35:19Z</time></trkpt>
<trkpt lat="50.629535" lon="4.182179"><time>2026-05-03T06:45:19Z</time></trkpt>
<trkpt lat="50.630191" lon="4.182459"><time>2026-05-03T06:55:19Z</time></trkpt>
</trkseg>
</trk>
<trk>
<name>hbchyi10</name>
<cmt>v</cmt>
<desc>Hennuyères Sentier n°i10 </desc>
<link href="https://chemins.be/hennuyeres/sentier/i10"/><trkseg>
<trkpt lat="50.648792" lon="4.192982"><time>2026-05-03T03:35:19Z</time></trkpt>
<trkpt lat="50.649312" lon="4.193210"><time>2026-05-03T03:45:19Z</time></trkpt>
<trkpt lat="50.650461" lon="4.192154"><time>2026-05-03T03:55:19Z</time></trkpt>
<trkpt lat="50.650597" lon="4.192386"><time>2026-05-03T04:05:19Z</time></trkpt>
<trkpt lat="50.651360" lon="4.192065"><time>2026-05-03T04:15:19Z</time></trkpt>
<trkpt lat="50.651723" lon="4.192729"><time>2026-05-03T04:25:19Z</time></trkpt>
<trkpt lat="50.651609" lon="4.193141"><time>2026-05-03T04:35:19Z</time></trkpt>
<trkpt lat="50.652050" lon="4.193980"><time>2026-05-03T04:45:19Z</time></trkpt>
<trkpt lat="50.652969" lon="4.195270"><time>2026-05-03T04:55:19Z</time></trkpt>
</trkseg>
</trk>
<trk>
<name>hbchyi2</name>
<cmt>q</cmt>
<desc>Hennuyères Sentier n°i2 </desc>
<link href="https://chemins.be/hennuyeres/sentier/i2"/><trkseg>
<trkpt lat="50.635616" lon="4.192881"><time>2026-05-03T03:35:19Z</time></trkpt>
<trkpt lat="50.635575" lon="4.192800"><time>2026-05-03T03:45:19Z</time></trkpt>
<trkpt lat="50.635408" lon="4.192757"><time>2026-05-03T03:55:19Z</time></trkpt>
<trkpt lat="50.635230" lon="4.192679"><time>2026-05-03T04:05:19Z</time></trkpt>
<trkpt lat="50.635133" lon="4.192574"><time>2026-05-03T04:15:19Z</time></trkpt>
<trkpt lat="50.635084" lon="4.192196"><time>2026-05-03T04:25:19Z</time></trkpt>
<trkpt lat="50.634975" lon="4.191724"><time>2026-05-03T04:35:19Z</time></trkpt>
<trkpt lat="50.634773" lon="4.191673"><time>2026-05-03T04:45:19Z</time></trkpt>
</trkseg>
</trk>
<trk>
<name>hbchyi3</name>
<cmt>v</cmt>
<desc>Hennuyères Chemin n°i3 </desc>
<link href="https://chemins.be/hennuyeres/chemin/i3"/><trkseg>
<trkpt lat="50.648582" lon="4.193211"><time>2026-05-03T03:35:19Z</time></trkpt>
<trkpt lat="50.645741" lon="4.195271"><time>2026-05-03T03:45:19Z</time></trkpt>
<trkpt lat="50.644145" lon="4.195819"><time>2026-05-03T03:55:19Z</time></trkpt>
<trkpt lat="50.643374" lon="4.196591"><time>2026-05-03T04:05:19Z</time></trkpt>
<trkpt lat="50.640473" lon="4.197812"><time>2026-05-03T04:15:19Z</time></trkpt>
<trkpt lat="50.640247" lon="4.197621"><time>2026-05-03T04:25:19Z</time></trkpt>
<trkpt lat="50.639914" lon="4.196762"><time>2026-05-03T04:35:19Z</time></trkpt>
<trkpt lat="50.639524" lon="4.196379"><time>2026-05-03T04:45:19Z</time></trkpt>
</trkseg>
</trk>
<trk>
<name>hbchyi4</name>
<cmt>v</cmt>
<desc>Hennuyères Chemin n°i4 </desc>
<link href="https://chemins.be/hennuyeres/chemin/i4"/><trkseg>
<trkpt lat="50.647123" lon="4.204283"><time>2026-05-03T03:35:19Z</time></trkpt>
<trkpt lat="50.646894" lon="4.203579"><time>2026-05-03T03:45:19Z</time></trkpt>
<trkpt lat="50.644902" lon="4.201743"><time>2026-05-03T03:55:19Z</time></trkpt>
<trkpt lat="50.643803" lon="4.199992"><time>2026-05-03T04:05:19Z</time></trkpt>
<trkpt lat="50.642693" lon="4.199854"><time>2026-05-03T04:15:19Z</time></trkpt>
<trkpt lat="50.642333" lon="4.198824"><time>2026-05-03T04:25:19Z</time></trkpt>
<trkpt lat="50.641890" lon="4.198692"><time>2026-05-03T04:35:19Z</time></trkpt>
<trkpt lat="50.641492" lon="4.198573"><time>2026-05-03T04:45:19Z</time></trkpt>
<trkpt lat="50.640184" lon="4.198050"><time>2026-05-03T04:55:19Z</time></trkpt>
<trkpt lat="50.640059" lon="4.197865"><time>2026-05-03T05:05:19Z</time></trkpt>
</trkseg>
</trk>
<trk>
<name>hbchyi5</name>
<cmt>v</cmt>
<desc>Hennuyères Chemin n°i5 </desc>
<link href="https://chemins.be/hennuyeres/chemin/i5"/><trkseg>
<trkpt lat="50.648699" lon="4.183734"><time>2026-05-03T03:35:19Z</time></trkpt>
<trkpt lat="50.648968" lon="4.184345"><time>2026-05-03T03:45:19Z</time></trkpt>
<trkpt lat="50.648740" lon="4.185139"><time>2026-05-03T03:55:19Z</time></trkpt>
</trkseg>
</trk>
<trk>
<name>hbchyi6</name>
<cmt>q</cmt>
<desc>Hennuyères Chemin n°i6 </desc>
<link href="https://chemins.be/hennuyeres/chemin/i6"/><trkseg>
<trkpt lat="50.636312" lon="4.198401"><time>2026-05-03T03:35:19Z</time></trkpt>
<trkpt lat="50.636727" lon="4.197400"><time>2026-05-03T03:45:19Z</time></trkpt>
</trkseg>
</trk>
<trk>
<name>hbchyi7</name>
<cmt>v</cmt>
<desc>Hennuyères Chemin n°i7 </desc>
<link href="https://chemins.be/hennuyeres/chemin/i7"/><trkseg>
<trkpt lat="50.639097" lon="4.196061"><time>2026-05-03T03:35:19Z</time></trkpt>
<trkpt lat="50.638662" lon="4.197896"><time>2026-05-03T03:45:19Z</time></trkpt>
<trkpt lat="50.638328" lon="4.198711"><time>2026-05-03T03:55:19Z</time></trkpt>
</trkseg>
</trk>
<trk>
<name>hbchyi8</name>
<cmt>v</cmt>
<desc>Hennuyères Sentier n°i8 </desc>
<link href="https://chemins.be/hennuyeres/sentier/i8"/><trkseg>
<trkpt lat="50.641265" lon="4.201219"><time>2026-05-03T03:35:19Z</time></trkpt>
<trkpt lat="50.641880" lon="4.198730"><time>2026-05-03T03:45:19Z</time></trkpt>
</trkseg>
</trk>
<trk>
<name>hbchyi9</name>
<cmt>q</cmt>
<desc>Hennuyères Chemin n°i9 </desc>
<link href="https://chemins.be/hennuyeres/chemin/i9"/><trkseg>
<trkpt lat="50.646595" lon="4.158216"><time>2026-05-03T03:35:19Z</time></trkpt>
<trkpt lat="50.646554" lon="4.160934"><time>2026-05-03T03:45:19Z</time></trkpt>
<trkpt lat="50.647316" lon="4.162486"><time>2026-05-03T03:55:19Z</time></trkpt>
<trkpt lat="50.647402" lon="4.164904"><time>2026-05-03T04:05:19Z</time></trkpt>
<trkpt lat="50.647302" lon="4.166384"><time>2026-05-03T04:15:19Z</time></trkpt>
<trkpt lat="50.648019" lon="4.168974"><time>2026-05-03T04:25:19Z</time></trkpt>
<trkpt lat="50.648967" lon="4.171606"><time>2026-05-03T04:35:19Z</time></trkpt>
</trkseg>
</trk>
<trk>
<name>hbchyLi5</name>
<cmt>v</cmt>
<desc>Hennuyères Chemin n°Li5 Crète du Haut Bois / Chemin de la Sablière</desc>
<link href="https://chemins.be/hennuyeres/chemin/Li5"/><trkseg>
<trkpt lat="50.638764" lon="4.200755"><time>2026-05-03T03:35:19Z</time></trkpt>
<trkpt lat="50.638343" lon="4.198731"><time>2026-05-03T03:45:19Z</time></trkpt>
</trkseg></trk>
<trk>
<name>hbchyLi5</name>
<cmt>q</cmt>
<desc>Hennuyères Chemin n°Li5 Crète du Haut Bois / Chemin de la Sablière</desc>
<link href="https://chemins.be/hennuyeres/chemin/Li5"/><trkseg>
<trkpt lat="50.638343" lon="4.198731"><time>2026-05-03T03:45:19Z</time></trkpt>
<trkpt lat="50.636690" lon="4.197046"><time>2026-05-03T03:55:19Z</time></trkpt>
<trkpt lat="50.636233" lon="4.195196"><time>2026-05-03T04:05:19Z</time></trkpt>
<trkpt lat="50.635991" lon="4.194441"><time>2026-05-03T04:15:19Z</time></trkpt>
</trkseg></trk>
<trk>
<name>hbchyLi5</name>
<cmt>r</cmt>
<desc>Hennuyères Chemin n°Li5 Crète du Haut Bois / Chemin de la Sablière</desc>
<link href="https://chemins.be/hennuyeres/chemin/Li5"/><trkseg>
<trkpt lat="50.635991" lon="4.194441"><time>2026-05-03T04:15:19Z</time></trkpt>
<trkpt lat="50.634672" lon="4.194143"><time>2026-05-03T04:25:19Z</time></trkpt>
<trkpt lat="50.634392" lon="4.193781"><time>2026-05-03T04:35:19Z</time></trkpt>
<trkpt lat="50.634201" lon="4.193261"><time>2026-05-03T04:45:19Z</time></trkpt>
<trkpt lat="50.633652" lon="4.190585"><time>2026-05-03T04:55:19Z</time></trkpt>
</trkseg></trk>
<trk>
<name>hbchyLi5</name>
<cmt>q</cmt>
<desc>Hennuyères Chemin n°Li5 Crète du Haut Bois / Chemin de la Sablière</desc>
<link href="https://chemins.be/hennuyeres/chemin/Li5"/><trkseg>
<trkpt lat="50.633652" lon="4.190585"><time>2026-05-03T04:55:19Z</time></trkpt>
<trkpt lat="50.633590" lon="4.190367"><time>2026-05-03T05:05:19Z</time></trkpt>
<trkpt lat="50.633296" lon="4.189704"><time>2026-05-03T05:15:19Z</time></trkpt>
<trkpt lat="50.632710" lon="4.189226"><time>2026-05-03T05:25:19Z</time></trkpt>
<trkpt lat="50.631705" lon="4.188446"><time>2026-05-03T05:35:19Z</time></trkpt>
<trkpt lat="50.631486" lon="4.187886"><time>2026-05-03T05:45:19Z</time></trkpt>
<trkpt lat="50.631203" lon="4.186459"><time>2026-05-03T05:55:19Z</time></trkpt>
<trkpt lat="50.630795" lon="4.185971"><time>2026-05-03T06:05:19Z</time></trkpt>
<trkpt lat="50.629854" lon="4.185657"><time>2026-05-03T06:15:19Z</time></trkpt>
</trkseg>
</trk>
<trk>
<name>hbchyp1</name>
<cmt>d</cmt>
<desc>Hennuyères Chemin particulier n°p1 </desc>
<link href="https://chemins.be/hennuyeres/chemin/p1"/><trkseg>
<trkpt lat="50.658011" lon="4.185207"><time>2026-05-03T03:35:19Z</time></trkpt>
<trkpt lat="50.658440" lon="4.184088"><time>2026-05-03T03:45:19Z</time></trkpt>
<trkpt lat="50.658592" lon="4.183564"><time>2026-05-03T03:55:19Z</time></trkpt>
</trkseg></trk>
<trk>
<name>hbchyp1</name>
<cmt>s</cmt>
<desc>Hennuyères Chemin particulier n°p1 </desc>
<link href="https://chemins.be/hennuyeres/chemin/p1"/><trkseg>
<trkpt lat="50.658592" lon="4.183564"><time>2026-05-03T03:55:19Z</time></trkpt>
<trkpt lat="50.658700" lon="4.183309"><time>2026-05-03T04:05:19Z</time></trkpt>
</trkseg></trk>
<trk>
<name>hbchyp1</name>
<cmt>d</cmt>
<desc>Hennuyères Chemin particulier n°p1 </desc>
<link href="https://chemins.be/hennuyeres/chemin/p1"/><trkseg>
<trkpt lat="50.658700" lon="4.183309"><time>2026-05-03T04:05:19Z</time></trkpt>
<trkpt lat="50.659103" lon="4.182586"><time>2026-05-03T04:15:19Z</time></trkpt>
</trkseg></trk>
<trk>
<name>hbchyp1</name>
<cmt>v</cmt>
<desc>Hennuyères Chemin particulier n°p1 </desc>
<link href="https://chemins.be/hennuyeres/chemin/p1"/><trkseg>
<trkpt lat="50.659103" lon="4.182586"><time>2026-05-03T04:15:19Z</time></trkpt>
<trkpt lat="50.659497" lon="4.181467"><time>2026-05-03T04:25:19Z</time></trkpt>
<trkpt lat="50.659109" lon="4.180309"><time>2026-05-03T04:35:19Z</time></trkpt>
<trkpt lat="50.659241" lon="4.179064"><time>2026-05-03T04:45:19Z</time></trkpt>
</trkseg>
</trk>
<trk>
<name>hbcpr12</name>
<cmt>r</cmt>
<desc>Petit-Roeulx-lez-Braine Chemin n°12 Chemin de Glattignies</desc>
<link href="https://chemins.be/petitroeulxlezbraine/chemin/12"/><trkseg>
<trkpt lat="50.627373" lon="4.085828"><time>2026-05-03T03:35:19Z</time></trkpt>
<trkpt lat="50.627290" lon="4.085379"><time>2026-05-03T03:45:19Z</time></trkpt>
<trkpt lat="50.627280" lon="4.085005"><time>2026-05-03T03:55:19Z</time></trkpt>
</trkseg>
</trk>
<trk>
<name>hbcpr18</name>
<cmt>q</cmt>
<desc>Petit-Roeulx-lez-Braine Sentier n°18 </desc>
<link href="https://chemins.be/petitroeulxlezbraine/sentier/18"/><trkseg>
<trkpt lat="50.629273" lon="4.082880"><time>2026-05-03T03:35:19Z</time></trkpt>
<trkpt lat="50.630681" lon="4.083084"><time>2026-05-03T03:45:19Z</time></trkpt>
<trkpt lat="50.632805" lon="4.084007"><time>2026-05-03T03:55:19Z</time></trkpt>
<trkpt lat="50.634118" lon="4.083427"><time>2026-05-03T04:05:19Z</time></trkpt>
<trkpt lat="50.634826" lon="4.083331"><time>2026-05-03T04:15:19Z</time></trkpt>
<trkpt lat="50.636500" lon="4.083942"><time>2026-05-03T04:25:19Z</time></trkpt>
<trkpt lat="50.638364" lon="4.083189"><time>2026-05-03T04:35:19Z</time></trkpt>
</trkseg></trk>
<trk>
<name>hbcpr18</name>
<cmt>v</cmt>
<desc>Petit-Roeulx-lez-Braine Sentier n°18 </desc>
<link href="https://chemins.be/petitroeulxlezbraine/sentier/18"/><trkseg>
<trkpt lat="50.638364" lon="4.083189"><time>2026-05-03T04:35:19Z</time></trkpt>
<trkpt lat="50.639028" lon="4.082545"><time>2026-05-03T04:45:19Z</time></trkpt>
</trkseg></trk>
<trk>
<name>hbcpr18</name>
<cmt>q</cmt>
<desc>Petit-Roeulx-lez-Braine Sentier n°18 </desc>
<link href="https://chemins.be/petitroeulxlezbraine/sentier/18"/><trkseg>
<trkpt lat="50.639028" lon="4.082545"><time>2026-05-03T04:45:19Z</time></trkpt>
<trkpt lat="50.640438" lon="4.081352"><time>2026-05-03T04:55:19Z</time></trkpt>
<trkpt lat="50.641510" lon="4.079335"><time>2026-05-03T05:05:19Z</time></trkpt>
</trkseg>
</trk>
<trk>
<name>hbcpr19</name>
<cmt>q</cmt>
<desc>Petit-Roeulx-lez-Braine Sentier n°19 </desc>
<link href="https://chemins.be/petitroeulxlezbraine/sentier/19"/><trkseg>
<trkpt lat="50.638058" lon="4.080477"><time>2026-05-03T03:35:19Z</time></trkpt>
<trkpt lat="50.636799" lon="4.081829"><time>2026-05-03T03:45:19Z</time></trkpt>
<trkpt lat="50.635778" lon="4.082161"><time>2026-05-03T03:55:19Z</time></trkpt>
<trkpt lat="50.635200" lon="4.083213"><time>2026-05-03T04:05:19Z</time></trkpt>
<trkpt lat="50.634690" lon="4.083341"><time>2026-05-03T04:15:19Z</time></trkpt>
</trkseg>
</trk>
<trk>
<name>hbcpr20</name>
<cmt>q</cmt>
<desc>Petit-Roeulx-lez-Braine Sentier n°20 </desc>
<link href="https://chemins.be/petitroeulxlezbraine/sentier/20"/><trkseg>
<trkpt lat="50.633022" lon="4.078320"><time>2026-05-03T03:35:19Z</time></trkpt>
<trkpt lat="50.633798" lon="4.078696"><time>2026-05-03T03:45:19Z</time></trkpt>
<trkpt lat="50.635078" lon="4.078267"><time>2026-05-03T03:55:19Z</time></trkpt>
<trkpt lat="50.635615" lon="4.077655"><time>2026-05-03T04:05:19Z</time></trkpt>
<trkpt lat="50.636187" lon="4.077923"><time>2026-05-03T04:15:19Z</time></trkpt>
<trkpt lat="50.637622" lon="4.076824"><time>2026-05-03T04:25:19Z</time></trkpt>
</trkseg>
</trk>
<trk>
<name>hbcpr21</name>
<cmt>q</cmt>
<desc>Petit-Roeulx-lez-Braine Sentier n°21 Rue d'Enghien</desc>
<link href="https://chemins.be/petitroeulxlezbraine/sentier/21"/><trkseg>
<trkpt lat="50.636275" lon="4.076931"><time>2026-05-03T03:35:19Z</time></trkpt>
<trkpt lat="50.637779" lon="4.074962"><time>2026-05-03T03:45:19Z</time></trkpt>
</trkseg>
</trk>
<trk>
<name>hbcpr22</name>
<cmt>q</cmt>
<desc>Petit-Roeulx-lez-Braine Sentier n°22 </desc>
<link href="https://chemins.be/petitroeulxlezbraine/sentier/22"/><trkseg>
<trkpt lat="50.636210" lon="4.077977"><time>2026-05-03T03:35:19Z</time></trkpt>
<trkpt lat="50.636928" lon="4.079527"><time>2026-05-03T03:45:19Z</time></trkpt>
<trkpt lat="50.637282" lon="4.079184"><time>2026-05-03T03:55:19Z</time></trkpt>
<trkpt lat="50.638058" lon="4.080622"><time>2026-05-03T04:05:19Z</time></trkpt>
</trkseg>
</trk>
<trk>
<name>hbcpr23</name>
<cmt>q</cmt>
<desc>Petit-Roeulx-lez-Braine Sentier n°23 </desc>
<link href="https://chemins.be/petitroeulxlezbraine/sentier/23"/><trkseg>
<trkpt lat="50.638129" lon="4.077591"><time>2026-05-03T03:35:19Z</time></trkpt>
<trkpt lat="50.638422" lon="4.077231"><time>2026-05-03T03:45:19Z</time></trkpt>
<trkpt lat="50.638517" lon="4.075407"><time>2026-05-03T03:55:19Z</time></trkpt>
<trkpt lat="50.638299" lon="4.074656"><time>2026-05-03T04:05:19Z</time></trkpt>
</trkseg>
</trk>
<trk>
<name>hbcpr24</name>
<cmt>q</cmt>
<desc>Petit-Roeulx-lez-Braine Sentier n°24 </desc>
<link href="https://chemins.be/petitroeulxlezbraine/sentier/24"/><trkseg>
<trkpt lat="50.638963" lon="4.079267"><time>2026-05-03T03:35:19Z</time></trkpt>
<trkpt lat="50.640448" lon="4.081266"><time>2026-05-03T03:45:19Z</time></trkpt>
<trkpt lat="50.640995" lon="4.082889"><time>2026-05-03T03:55:19Z</time></trkpt>
</trkseg>
</trk>
<trk>
<name>hbcpr25</name>
<cmt>q</cmt>
<desc>Petit-Roeulx-lez-Braine Sentier n°25 </desc>
<link href="https://chemins.be/petitroeulxlezbraine/sentier/25"/><trkseg>
<trkpt lat="50.633621" lon="4.086088"><time>2026-05-03T03:35:19Z</time></trkpt>
<trkpt lat="50.633261" lon="4.085294"><time>2026-05-03T03:45:19Z</time></trkpt>
<trkpt lat="50.632859" lon="4.084017"><time>2026-05-03T03:55:19Z</time></trkpt>
<trkpt lat="50.634145" lon="4.083406"><time>2026-05-03T04:05:19Z</time></trkpt>
<trkpt lat="50.635105" lon="4.078277"><time>2026-05-03T04:15:19Z</time></trkpt>
</trkseg>
</trk>
<trk>
<name>hbcpr26</name>
<cmt>q</cmt>
<desc>Petit-Roeulx-lez-Braine Sentier n°26 </desc>
<link href="https://chemins.be/petitroeulxlezbraine/sentier/26"/><trkseg>
<trkpt lat="50.635224" lon="4.089586"><time>2026-05-03T03:35:19Z</time></trkpt>
<trkpt lat="50.635482" lon="4.090460"><time>2026-05-03T03:45:19Z</time></trkpt>
</trkseg>
</trk>
<trk>
<name>hbcpr27</name>
<cmt>q</cmt>
<desc>Petit-Roeulx-lez-Braine Sentier n°27 </desc>
<link href="https://chemins.be/petitroeulxlezbraine/sentier/27"/><trkseg>
<trkpt lat="50.638364" lon="4.077993"><time>2026-05-03T03:35:19Z</time></trkpt>
<trkpt lat="50.638687" lon="4.077532"><time>2026-05-03T03:45:19Z</time></trkpt>
<trkpt lat="50.638510" lon="4.077156"><time>2026-05-03T03:55:19Z</time></trkpt>
<trkpt lat="50.638439" lon="4.077231"><time>2026-05-03T04:05:19Z</time></trkpt>
</trkseg>
</trk>
<trk>
<name>hbcpr28</name>
<cmt>q</cmt>
<desc>Petit-Roeulx-lez-Braine Sentier n°28 </desc>
<link href="https://chemins.be/petitroeulxlezbraine/sentier/28"/><trkseg>
<trkpt lat="50.630518" lon="4.092965"><time>2026-05-03T03:35:19Z</time></trkpt>
<trkpt lat="50.633335" lon="4.093770"><time>2026-05-03T03:45:19Z</time></trkpt>
<trkpt lat="50.635942" lon="4.093180"><time>2026-05-03T03:55:19Z</time></trkpt>
</trkseg>
</trk>
<trk>
<name>hbcpr29</name>
<cmt>q</cmt>
<desc>Petit-Roeulx-lez-Braine Sentier n°29 </desc>
<link href="https://chemins.be/petitroeulxlezbraine/sentier/29"/><trkseg>
<trkpt lat="50.631131" lon="4.091849"><time>2026-05-03T03:35:19Z</time></trkpt>
<trkpt lat="50.632506" lon="4.094617"><time>2026-05-03T03:45:19Z</time></trkpt>
</trkseg>
</trk>
<trk>
<name>hbcpr30</name>
<cmt>q</cmt>
<desc>Petit-Roeulx-lez-Braine Sentier n°30 </desc>
<link href="https://chemins.be/petitroeulxlezbraine/sentier/30"/><trkseg>
<trkpt lat="50.630075" lon="4.098943"><time>2026-05-03T03:35:19Z</time></trkpt>
<trkpt lat="50.631622" lon="4.100797"><time>2026-05-03T03:45:19Z</time></trkpt>
<trkpt lat="50.631796" lon="4.100248"><time>2026-05-03T03:55:19Z</time></trkpt>
<trkpt lat="50.633930" lon="4.102582"><time>2026-05-03T04:05:19Z</time></trkpt>
<trkpt lat="50.637174" lon="4.102102"><time>2026-05-03T04:15:19Z</time></trkpt>
<trkpt lat="50.637680" lon="4.101526"><time>2026-05-03T04:25:19Z</time></trkpt>
<trkpt lat="50.637958" lon="4.100908"><time>2026-05-03T04:35:19Z</time></trkpt>
</trkseg>
</trk>
<trk>
<name>hbcpr32</name>
<cmt>q</cmt>
<desc>Petit-Roeulx-lez-Braine Sentier n°32 </desc>
<link href="https://chemins.be/petitroeulxlezbraine/sentier/32"/><trkseg>
<trkpt lat="50.633063" lon="4.104418"><time>2026-05-03T03:35:19Z</time></trkpt>
<trkpt lat="50.633955" lon="4.102498"><time>2026-05-03T03:45:19Z</time></trkpt>
</trkseg>
</trk>
<trk>
<name>hbcpr33</name>
<cmt>q</cmt>
<desc>Petit-Roeulx-lez-Braine Sentier n°33 </desc>
<link href="https://chemins.be/petitroeulxlezbraine/sentier/33"/><trkseg>
<trkpt lat="50.625527" lon="4.088635"><time>2026-05-03T03:35:19Z</time></trkpt>
<trkpt lat="50.627937" lon="4.089859"><time>2026-05-03T03:45:19Z</time></trkpt>
<trkpt lat="50.628831" lon="4.091089"><time>2026-05-03T03:55:19Z</time></trkpt>
<trkpt lat="50.629520" lon="4.091390"><time>2026-05-03T04:05:19Z</time></trkpt>
</trkseg>
</trk>
<trk>
<name>hbcpr34</name>
<cmt>q</cmt>
<desc>Petit-Roeulx-lez-Braine Sentier n°34 </desc>
<link href="https://chemins.be/petitroeulxlezbraine/sentier/34"/><trkseg>
<trkpt lat="50.625664" lon="4.095966"><time>2026-05-03T03:35:19Z</time></trkpt>
<trkpt lat="50.629049" lon="4.101144"><time>2026-05-03T03:45:19Z</time></trkpt>
<trkpt lat="50.632519" lon="4.105821"><time>2026-05-03T03:55:19Z</time></trkpt>
</trkseg>
</trk>
<trk>
<name>hbcpr35</name>
<cmt>q</cmt>
<desc>Petit-Roeulx-lez-Braine Sentier n°35 </desc>
<link href="https://chemins.be/petitroeulxlezbraine/sentier/35"/><trkseg>
<trkpt lat="50.624994" lon="4.083692"><time>2026-05-03T03:35:19Z</time></trkpt>
<trkpt lat="50.625162" lon="4.082701"><time>2026-05-03T03:45:19Z</time></trkpt>
<trkpt lat="50.626871" lon="4.078122"><time>2026-05-03T03:55:19Z</time></trkpt>
</trkseg>
</trk>
<trk>
<name>hbcpr36</name>
<cmt>q</cmt>
<desc>Petit-Roeulx-lez-Braine Sentier n°36 </desc>
<link href="https://chemins.be/petitroeulxlezbraine/sentier/36"/><trkseg>
<trkpt lat="50.625820" lon="4.083418"><time>2026-05-03T03:35:19Z</time></trkpt>
<trkpt lat="50.625605" lon="4.083631"><time>2026-05-03T03:45:19Z</time></trkpt>
<trkpt lat="50.625031" lon="4.083695"><time>2026-05-03T03:55:19Z</time></trkpt>
<trkpt lat="50.624698" lon="4.084099"><time>2026-05-03T04:05:19Z</time></trkpt>
<trkpt lat="50.623603" lon="4.084012"><time>2026-05-03T04:15:19Z</time></trkpt>
<trkpt lat="50.622313" lon="4.083910"><time>2026-05-03T04:25:19Z</time></trkpt>
<trkpt lat="50.620663" lon="4.084004"><time>2026-05-03T04:35:19Z</time></trkpt>
</trkseg>
</trk>
<trk>
<name>hbcpr37</name>
<cmt>q</cmt>
<desc>Petit-Roeulx-lez-Braine Sentier n°37 </desc>
<link href="https://chemins.be/petitroeulxlezbraine/sentier/37"/><trkseg>
<trkpt lat="50.624389" lon="4.086493"><time>2026-05-03T03:35:19Z</time></trkpt>
<trkpt lat="50.624675" lon="4.085531"><time>2026-05-03T03:45:19Z</time></trkpt>
<trkpt lat="50.624994" lon="4.083692"><time>2026-05-03T03:55:19Z</time></trkpt>
<trkpt lat="50.624174" lon="4.082990"><time>2026-05-03T04:05:19Z</time></trkpt>
<trkpt lat="50.623352" lon="4.081525"><time>2026-05-03T04:15:19Z</time></trkpt>
<trkpt lat="50.623242" lon="4.080381"><time>2026-05-03T04:25:19Z</time></trkpt>
<trkpt lat="50.622737" lon="4.079692"><time>2026-05-03T04:35:19Z</time></trkpt>
<trkpt lat="50.622400" lon="4.074578"><time>2026-05-03T04:45:19Z</time></trkpt>
</trkseg>
</trk>
<trk>
<name>hbcpr38</name>
<cmt>q</cmt>
<desc>Petit-Roeulx-lez-Braine Sentier n°38 </desc>
<link href="https://chemins.be/petitroeulxlezbraine/sentier/38"/><trkseg>
<trkpt lat="50.624429" lon="4.087878"><time>2026-05-03T03:35:19Z</time></trkpt>
<trkpt lat="50.624407" lon="4.086479"><time>2026-05-03T03:45:19Z</time></trkpt>
<trkpt lat="50.625744" lon="4.085157"><time>2026-05-03T03:55:19Z</time></trkpt>
<trkpt lat="50.626739" lon="4.084176"><time>2026-05-03T04:05:19Z</time></trkpt>
<trkpt lat="50.627114" lon="4.083015"><time>2026-05-03T04:15:19Z</time></trkpt>
<trkpt lat="50.627767" lon="4.081696"><time>2026-05-03T04:25:19Z</time></trkpt>
<trkpt lat="50.628302" lon="4.079771"><time>2026-05-03T04:35:19Z</time></trkpt>
</trkseg>
</trk>
<trk>
<name>hbcpr39</name>
<cmt>q</cmt>
<desc>Petit-Roeulx-lez-Braine Sentier n°39 </desc>
<link href="https://chemins.be/petitroeulxlezbraine/sentier/39"/><trkseg>
<trkpt lat="50.617713" lon="4.069774"><time>2026-05-03T03:35:19Z</time></trkpt>
<trkpt lat="50.617422" lon="4.071938"><time>2026-05-03T03:45:19Z</time></trkpt>
<trkpt lat="50.617469" lon="4.072870"><time>2026-05-03T03:55:19Z</time></trkpt>
<trkpt lat="50.618203" lon="4.076889"><time>2026-05-03T04:05:19Z</time></trkpt>
<trkpt lat="50.621383" lon="4.081987"><time>2026-05-03T04:15:19Z</time></trkpt>
<trkpt lat="50.621687" lon="4.083157"><time>2026-05-03T04:25:19Z</time></trkpt>
<trkpt lat="50.622967" lon="4.084846"><time>2026-05-03T04:35:19Z</time></trkpt>
<trkpt lat="50.623675" lon="4.085953"><time>2026-05-03T04:45:19Z</time></trkpt>
<trkpt lat="50.624372" lon="4.086545"><time>2026-05-03T04:55:19Z</time></trkpt>
</trkseg>
</trk>
<trk>
<name>hbcpr40</name>
<cmt>q</cmt>
<desc>Petit-Roeulx-lez-Braine Sentier n°40 </desc>
<link href="https://chemins.be/petitroeulxlezbraine/sentier/40"/><trkseg>
<trkpt lat="50.624258" lon="4.083000"><time>2026-05-03T03:35:19Z</time></trkpt>
<trkpt lat="50.622265" lon="4.085867"><time>2026-05-03T03:45:19Z</time></trkpt>
<trkpt lat="50.621710" lon="4.087961"><time>2026-05-03T03:55:19Z</time></trkpt>
<trkpt lat="50.620719" lon="4.088699"><time>2026-05-03T04:05:19Z</time></trkpt>
<trkpt lat="50.619967" lon="4.089008"><time>2026-05-03T04:15:19Z</time></trkpt>
<trkpt lat="50.619478" lon="4.089371"><time>2026-05-03T04:25:19Z</time></trkpt>
<trkpt lat="50.616292" lon="4.090476"><time>2026-05-03T04:35:19Z</time></trkpt>
</trkseg>
</trk>
<trk>
<name>hbcpr41</name>
<cmt>q</cmt>
<desc>Petit-Roeulx-lez-Braine Sentier n°41 </desc>
<link href="https://chemins.be/petitroeulxlezbraine/sentier/41"/><trkseg>
<trkpt lat="50.624417" lon="4.087214"><time>2026-05-03T03:35:19Z</time></trkpt>
<trkpt lat="50.624180" lon="4.086684"><time>2026-05-03T03:45:19Z</time></trkpt>
</trkseg>
</trk>
<trk>
<name>hbcpr42</name>
<cmt>q</cmt>
<desc>Petit-Roeulx-lez-Braine Sentier n°42 </desc>
<link href="https://chemins.be/petitroeulxlezbraine/sentier/42"/><trkseg>
<trkpt lat="50.625832" lon="4.091968"><time>2026-05-03T03:35:19Z</time></trkpt>
<trkpt lat="50.626648" lon="4.091299"><time>2026-05-03T03:45:19Z</time></trkpt>
<trkpt lat="50.626926" lon="4.090874"><time>2026-05-03T03:55:19Z</time></trkpt>
<trkpt lat="50.627393" lon="4.090532"><time>2026-05-03T04:05:19Z</time></trkpt>
<trkpt lat="50.627841" lon="4.089851"><time>2026-05-03T04:15:19Z</time></trkpt>
<trkpt lat="50.628382" lon="4.089001"><time>2026-05-03T04:25:19Z</time></trkpt>
</trkseg></trk>
<trk>
<name>hbcpr42</name>
<cmt>r</cmt>
<desc>Petit-Roeulx-lez-Braine Sentier n°42 </desc>
<link href="https://chemins.be/petitroeulxlezbraine/sentier/42"/><trkseg>
<trkpt lat="50.628382" lon="4.089001"><time>2026-05-03T04:25:19Z</time></trkpt>
<trkpt lat="50.628818" lon="4.089674"><time>2026-05-03T04:35:19Z</time></trkpt>
</trkseg></trk>
<trk>
<name>hbcpr42</name>
<cmt>q</cmt>
<desc>Petit-Roeulx-lez-Braine Sentier n°42 </desc>
<link href="https://chemins.be/petitroeulxlezbraine/sentier/42"/><trkseg>
<trkpt lat="50.628818" lon="4.089674"><time>2026-05-03T04:35:19Z</time></trkpt>
<trkpt lat="50.629911" lon="4.088414"><time>2026-05-03T04:45:19Z</time></trkpt>
</trkseg>
</trk>
<trk>
<name>hbcpr43</name>
<cmt>r</cmt>
<desc>Petit-Roeulx-lez-Braine Sentier n°43 Rue du Cimetière</desc>
<link href="https://chemins.be/petitroeulxlezbraine/sentier/43"/><trkseg>
<trkpt lat="50.625456" lon="4.089073"><time>2026-05-03T03:35:19Z</time></trkpt>
<trkpt lat="50.625817" lon="4.089467"><time>2026-05-03T03:45:19Z</time></trkpt>
<trkpt lat="50.626250" lon="4.089959"><time>2026-05-03T03:55:19Z</time></trkpt>
</trkseg></trk>
<trk>
<name>hbcpr43</name>
<cmt>v</cmt>
<desc>Petit-Roeulx-lez-Braine Sentier n°43 Rue du Cimetière</desc>
<link href="https://chemins.be/petitroeulxlezbraine/sentier/43"/><trkseg>
<trkpt lat="50.626250" lon="4.089959"><time>2026-05-03T03:55:19Z</time></trkpt>
<trkpt lat="50.626935" lon="4.090860"><time>2026-05-03T04:05:19Z</time></trkpt>
</trkseg>
</trk>
<trk>
<name>hbcpr44</name>
<cmt>q</cmt>
<desc>Petit-Roeulx-lez-Braine Sentier n°44 </desc>
<link href="https://chemins.be/petitroeulxlezbraine/sentier/44"/><trkseg>
<trkpt lat="50.624882" lon="4.089374"><time>2026-05-03T03:35:19Z</time></trkpt>
<trkpt lat="50.624704" lon="4.090095"><time>2026-05-03T03:45:19Z</time></trkpt>
<trkpt lat="50.624902" lon="4.090433"><time>2026-05-03T03:55:19Z</time></trkpt>
<trkpt lat="50.625463" lon="4.091942"><time>2026-05-03T04:05:19Z</time></trkpt>
</trkseg>
</trk>
<trk>
<name>hbcpr45</name>
<cmt>q</cmt>
<desc>Petit-Roeulx-lez-Braine Sentier n°45 </desc>
<link href="https://chemins.be/petitroeulxlezbraine/sentier/45"/><trkseg>
<trkpt lat="50.624877" lon="4.091027"><time>2026-05-03T03:35:19Z</time></trkpt>
<trkpt lat="50.624733" lon="4.091127"><time>2026-05-03T03:45:19Z</time></trkpt>
<trkpt lat="50.624555" lon="4.091764"><time>2026-05-03T03:55:19Z</time></trkpt>
<trkpt lat="50.624565" lon="4.092259"><time>2026-05-03T04:05:19Z</time></trkpt>
</trkseg>
</trk>
<trk>
<name>hbcpr46</name>
<cmt>q</cmt>
<desc>Petit-Roeulx-lez-Braine Sentier n°46 </desc>
<link href="https://chemins.be/petitroeulxlezbraine/sentier/46"/><trkseg>
<trkpt lat="50.625922" lon="4.103614"><time>2026-05-03T03:35:19Z</time></trkpt>
<trkpt lat="50.626422" lon="4.102099"><time>2026-05-03T03:45:19Z</time></trkpt>
<trkpt lat="50.625331" lon="4.100819"><time>2026-05-03T03:55:19Z</time></trkpt>
<trkpt lat="50.625429" lon="4.100224"><time>2026-05-03T04:05:19Z</time></trkpt>
<trkpt lat="50.625271" lon="4.097936"><time>2026-05-03T04:15:19Z</time></trkpt>
<trkpt lat="50.625198" lon="4.097823"><time>2026-05-03T04:25:19Z</time></trkpt>
<trkpt lat="50.625892" lon="4.094668"><time>2026-05-03T04:35:19Z</time></trkpt>
<trkpt lat="50.625621" lon="4.094061"><time>2026-05-03T04:45:19Z</time></trkpt>
<trkpt lat="50.626275" lon="4.093139"><time>2026-05-03T04:55:19Z</time></trkpt>
</trkseg>
</trk>
<trk>
<name>hbcpr48</name>
<cmt>q</cmt>
<desc>Petit-Roeulx-lez-Braine Sentier n°48 Rue de la Choque</desc>
<link href="https://chemins.be/petitroeulxlezbraine/sentier/48"/><trkseg>
<trkpt lat="50.623306" lon="4.095856"><time>2026-05-03T03:35:19Z</time></trkpt>
<trkpt lat="50.623892" lon="4.096601"><time>2026-05-03T03:45:19Z</time></trkpt>
<trkpt lat="50.624297" lon="4.096768"><time>2026-05-03T03:55:19Z</time></trkpt>
<trkpt lat="50.625280" lon="4.097936"><time>2026-05-03T04:05:19Z</time></trkpt>
<trkpt lat="50.627254" lon="4.100553"><time>2026-05-03T04:15:19Z</time></trkpt>
<trkpt lat="50.628409" lon="4.102172"><time>2026-05-03T04:25:19Z</time></trkpt>
</trkseg>
</trk>
<trk>
<name>hbcpr49</name>
<cmt>q</cmt>
<desc>Petit-Roeulx-lez-Braine Sentier n°49 </desc>
<link href="https://chemins.be/petitroeulxlezbraine/sentier/49"/><trkseg>
<trkpt lat="50.624499" lon="4.102703"><time>2026-05-03T03:35:19Z</time></trkpt>
<trkpt lat="50.625313" lon="4.100889"><time>2026-05-03T03:45:19Z</time></trkpt>
</trkseg>
</trk>
<trk>
<name>hbcpr50</name>
<cmt>q</cmt>
<desc>Petit-Roeulx-lez-Braine Sentier n°50 </desc>
<link href="https://chemins.be/petitroeulxlezbraine/sentier/50"/><trkseg>
<trkpt lat="50.623555" lon="4.094822"><time>2026-05-03T03:35:19Z</time></trkpt>
<trkpt lat="50.623125" lon="4.095235"><time>2026-05-03T03:45:19Z</time></trkpt>
</trkseg></trk>
<trk>
<name>hbcpr50</name>
<cmt>v</cmt>
<desc>Petit-Roeulx-lez-Braine Sentier n°50 </desc>
<link href="https://chemins.be/petitroeulxlezbraine/sentier/50"/><trkseg>
<trkpt lat="50.623125" lon="4.095235"><time>2026-05-03T03:45:19Z</time></trkpt>
<trkpt lat="50.622487" lon="4.095648"><time>2026-05-03T03:55:19Z</time></trkpt>
</trkseg></trk>
<trk>
<name>hbcpr50</name>
<cmt>q</cmt>
<desc>Petit-Roeulx-lez-Braine Sentier n°50 </desc>
<link href="https://chemins.be/petitroeulxlezbraine/sentier/50"/><trkseg>
<trkpt lat="50.622487" lon="4.095648"><time>2026-05-03T03:55:19Z</time></trkpt>
<trkpt lat="50.622498" lon="4.096482"><time>2026-05-03T04:05:19Z</time></trkpt>
<trkpt lat="50.622050" lon="4.096838"><time>2026-05-03T04:15:19Z</time></trkpt>
<trkpt lat="50.621988" lon="4.097644"><time>2026-05-03T04:25:19Z</time></trkpt>
<trkpt lat="50.621639" lon="4.098084"><time>2026-05-03T04:35:19Z</time></trkpt>
</trkseg>
</trk>
<trk>
<name>hbcpr51</name>
<cmt>q</cmt>
<desc>Petit-Roeulx-lez-Braine Sentier n°51 </desc>
<link href="https://chemins.be/petitroeulxlezbraine/sentier/51"/><trkseg>
<trkpt lat="50.612350" lon="4.081125"><time>2026-05-03T03:35:19Z</time></trkpt>
<trkpt lat="50.612693" lon="4.081871"><time>2026-05-03T03:45:19Z</time></trkpt>
</trkseg></trk>
<trk>
<name>hbcpr51</name>
<cmt>v</cmt>
<desc>Petit-Roeulx-lez-Braine Sentier n°51 </desc>
<link href="https://chemins.be/petitroeulxlezbraine/sentier/51"/><trkseg>
<trkpt lat="50.612693" lon="4.081871"><time>2026-05-03T03:45:19Z</time></trkpt>
<trkpt lat="50.616960" lon="4.086672"><time>2026-05-03T03:55:19Z</time></trkpt>
</trkseg></trk>
<trk>
<name>hbcpr51</name>
<cmt>q</cmt>
<desc>Petit-Roeulx-lez-Braine Sentier n°51 </desc>
<link href="https://chemins.be/petitroeulxlezbraine/sentier/51"/><trkseg>
<trkpt lat="50.616960" lon="4.086672"><time>2026-05-03T03:55:19Z</time></trkpt>
<trkpt lat="50.618541" lon="4.088109"><time>2026-05-03T04:05:19Z</time></trkpt>
<trkpt lat="50.619771" lon="4.089049"><time>2026-05-03T04:15:19Z</time></trkpt>
<trkpt lat="50.620561" lon="4.088959"><time>2026-05-03T04:25:19Z</time></trkpt>
<trkpt lat="50.622421" lon="4.090859"><time>2026-05-03T04:35:19Z</time></trkpt>
<trkpt lat="50.622881" lon="4.090109"><time>2026-05-03T04:45:19Z</time></trkpt>
<trkpt lat="50.623762" lon="4.089389"><time>2026-05-03T04:55:19Z</time></trkpt>
<trkpt lat="50.624372" lon="4.088089"><time>2026-05-03T05:05:19Z</time></trkpt>
</trkseg>
</trk>
<trk>
<name>hbcpr52</name>
<cmt>q</cmt>
<desc>Petit-Roeulx-lez-Braine Sentier n°52 </desc>
<link href="https://chemins.be/petitroeulxlezbraine/sentier/52"/><trkseg>
<trkpt lat="50.621072" lon="4.084571"><time>2026-05-03T03:35:19Z</time></trkpt>
<trkpt lat="50.620397" lon="4.086433"><time>2026-05-03T03:45:19Z</time></trkpt>
<trkpt lat="50.620500" lon="4.088871"><time>2026-05-03T03:55:19Z</time></trkpt>
</trkseg>
</trk>
<trk>
<name>hbcpr53</name>
<cmt>q</cmt>
<desc>Petit-Roeulx-lez-Braine Sentier n°53 </desc>
<link href="https://chemins.be/petitroeulxlezbraine/sentier/53"/><trkseg>
<trkpt lat="50.612195" lon="4.082348"><time>2026-05-03T03:35:19Z</time></trkpt>
<trkpt lat="50.612445" lon="4.080211"><time>2026-05-03T03:45:19Z</time></trkpt>
<trkpt lat="50.612277" lon="4.078906"><time>2026-05-03T03:55:19Z</time></trkpt>
<trkpt lat="50.610800" lon="4.076580"><time>2026-05-03T04:05:19Z</time></trkpt>
</trkseg>
</trk>
<trk>
<name>hbcpr54</name>
<cmt>q</cmt>
<desc>Petit-Roeulx-lez-Braine Sentier n°54 </desc>
<link href="https://chemins.be/petitroeulxlezbraine/sentier/54"/><trkseg>
<trkpt lat="50.611304" lon="4.082811"><time>2026-05-03T03:35:19Z</time></trkpt>
<trkpt lat="50.610898" lon="4.081588"><time>2026-05-03T03:45:19Z</time></trkpt>
<trkpt lat="50.610874" lon="4.080558"><time>2026-05-03T03:55:19Z</time></trkpt>
<trkpt lat="50.610217" lon="4.078842"><time>2026-05-03T04:05:19Z</time></trkpt>
</trkseg>
</trk>
<trk>
<name>hbcpr55</name>
<cmt>q</cmt>
<desc>Petit-Roeulx-lez-Braine Sentier n°55 </desc>
<link href="https://chemins.be/petitroeulxlezbraine/sentier/55"/><trkseg>
<trkpt lat="50.618392" lon="4.075055"><time>2026-05-03T03:35:19Z</time></trkpt>
<trkpt lat="50.618185" lon="4.075113"><time>2026-05-03T03:45:19Z</time></trkpt>
<trkpt lat="50.617157" lon="4.073816"><time>2026-05-03T03:55:19Z</time></trkpt>
<trkpt lat="50.614728" lon="4.071121"><time>2026-05-03T04:05:19Z</time></trkpt>
</trkseg>
</trk>
<trk>
<name>hbcpr56</name>
<cmt>q</cmt>
<desc>Petit-Roeulx-lez-Braine Sentier n°56 </desc>
<link href="https://chemins.be/petitroeulxlezbraine/sentier/56"/><trkseg>
<trkpt lat="50.618633" lon="4.074347"><time>2026-05-03T03:35:19Z</time></trkpt>
<trkpt lat="50.617515" lon="4.072997"><time>2026-05-03T03:45:19Z</time></trkpt>
<trkpt lat="50.617094" lon="4.073862"><time>2026-05-03T03:55:19Z</time></trkpt>
<trkpt lat="50.616593" lon="4.074699"><time>2026-05-03T04:05:19Z</time></trkpt>
<trkpt lat="50.612456" lon="4.080133"><time>2026-05-03T04:15:19Z</time></trkpt>
</trkseg>
</trk>
<trk>
<name>hbcpr57</name>
<cmt>v</cmt>
<desc>Petit-Roeulx-lez-Braine Sentier n°57 </desc>
<link href="https://chemins.be/petitroeulxlezbraine/sentier/57"/><trkseg>
<trkpt lat="50.634404" lon="4.076958"><time>2026-05-03T03:35:19Z</time></trkpt>
<trkpt lat="50.634258" lon="4.076647"><time>2026-05-03T03:45:19Z</time></trkpt>
</trkseg>
</trk>
<trk>
<name>hbcpr58</name>
<cmt>q</cmt>
<desc>Petit-Roeulx-lez-Braine Sentier n°58 Chemin de Rognon</desc>
<link href="https://chemins.be/petitroeulxlezbraine/sentier/58"/><trkseg>
<trkpt lat="50.628204" lon="4.085594"><time>2026-05-03T03:35:19Z</time></trkpt>
<trkpt lat="50.628479" lon="4.085797"><time>2026-05-03T03:45:19Z</time></trkpt>
<trkpt lat="50.628930" lon="4.086166"><time>2026-05-03T03:55:19Z</time></trkpt>
<trkpt lat="50.629441" lon="4.087192"><time>2026-05-03T04:05:19Z</time></trkpt>
</trkseg>
</trk>
<trk>
<name>hbcpr59</name>
<cmt>q</cmt>
<desc>Petit-Roeulx-lez-Braine Sentier n°59 Rue des Cantines</desc>
<link href="https://chemins.be/petitroeulxlezbraine/sentier/59"/><trkseg>
<trkpt lat="50.615649" lon="4.079457"><time>2026-05-03T03:35:19Z</time></trkpt>
<trkpt lat="50.615590" lon="4.079560"><time>2026-05-03T03:45:19Z</time></trkpt>
<trkpt lat="50.614687" lon="4.080007"><time>2026-05-03T03:55:19Z</time></trkpt>
<trkpt lat="50.614628" lon="4.079993"><time>2026-05-03T04:05:19Z</time></trkpt>
</trkseg>
</trk>
<trk>
<name>hbcpr60</name>
<cmt>q</cmt>
<desc>Petit-Roeulx-lez-Braine Sentier n°60 Rue Saint-Jean</desc>
<link href="https://chemins.be/petitroeulxlezbraine/sentier/60"/><trkseg>
<trkpt lat="50.618409" lon="4.081000"><time>2026-05-03T03:35:19Z</time></trkpt>
<trkpt lat="50.619819" lon="4.083009"><time>2026-05-03T03:45:19Z</time></trkpt>
</trkseg>
</trk>
<trk>
<name>hbcpr62</name>
<cmt>q</cmt>
<desc>Petit-Roeulx-lez-Braine Sentier n°62 </desc>
<link href="https://chemins.be/petitroeulxlezbraine/sentier/62"/><trkseg>
<trkpt lat="50.622451" lon="4.090879"><time>2026-05-03T03:35:19Z</time></trkpt>
<trkpt lat="50.622046" lon="4.092888"><time>2026-05-03T03:45:19Z</time></trkpt>
<trkpt lat="50.622209" lon="4.093150"><time>2026-05-03T03:55:19Z</time></trkpt>
</trkseg>
</trk>
<trk>
<name>hbcpr9</name>
<cmt>v</cmt>
<desc>Petit-Roeulx-lez-Braine Chemin n°9 </desc>
<link href="https://chemins.be/petitroeulxlezbraine/chemin/9"/><trkseg>
<trkpt lat="50.638998" lon="4.079160"><time>2026-05-03T03:35:19Z</time></trkpt>
<trkpt lat="50.638161" lon="4.080364"><time>2026-05-03T03:45:19Z</time></trkpt>
<trkpt lat="50.638119" lon="4.080432"><time>2026-05-03T03:55:19Z</time></trkpt>
<trkpt lat="50.638083" lon="4.080503"><time>2026-05-03T04:05:19Z</time></trkpt>
<trkpt lat="50.638078" lon="4.080549"><time>2026-05-03T04:15:19Z</time></trkpt>
<trkpt lat="50.638070" lon="4.080622"><time>2026-05-03T04:25:19Z</time></trkpt>
<trkpt lat="50.638081" lon="4.080689"><time>2026-05-03T04:35:19Z</time></trkpt>
<trkpt lat="50.638097" lon="4.080735"><time>2026-05-03T04:45:19Z</time></trkpt>
<trkpt lat="50.638115" lon="4.080775"><time>2026-05-03T04:55:19Z</time></trkpt>
<trkpt lat="50.638149" lon="4.080832"><time>2026-05-03T05:05:19Z</time></trkpt>
<trkpt lat="50.638300" lon="4.081080"><time>2026-05-03T05:15:19Z</time></trkpt>
<trkpt lat="50.638873" lon="4.081999"><time>2026-05-03T05:25:19Z</time></trkpt>
<trkpt lat="50.638926" lon="4.082098"><time>2026-05-03T05:35:19Z</time></trkpt>
<trkpt lat="50.638971" lon="4.082206"><time>2026-05-03T05:45:19Z</time></trkpt>
<trkpt lat="50.638998" lon="4.082295"><time>2026-05-03T05:55:19Z</time></trkpt>
<trkpt lat="50.639015" lon="4.082421"><time>2026-05-03T06:05:19Z</time></trkpt>
<trkpt lat="50.639008" lon="4.082494"><time>2026-05-03T06:15:19Z</time></trkpt>
<trkpt lat="50.638981" lon="4.082564"><time>2026-05-03T06:25:19Z</time></trkpt>
<trkpt lat="50.638948" lon="4.082625"><time>2026-05-03T06:35:19Z</time></trkpt>
<trkpt lat="50.638848" lon="4.082749"><time>2026-05-03T06:45:19Z</time></trkpt>
<trkpt lat="50.638484" lon="4.083065"><time>2026-05-03T06:55:19Z</time></trkpt>
<trkpt lat="50.638364" lon="4.083161"><time>2026-05-03T07:05:19Z</time></trkpt>
<trkpt lat="50.638348" lon="4.083193"><time>2026-05-03T07:15:19Z</time></trkpt>
<trkpt lat="50.638339" lon="4.083220"><time>2026-05-03T07:25:19Z</time></trkpt>
<trkpt lat="50.638338" lon="4.083274"><time>2026-05-03T07:35:19Z</time></trkpt>
<trkpt lat="50.638344" lon="4.083337"><time>2026-05-03T07:45:19Z</time></trkpt>
<trkpt lat="50.638439" lon="4.083857"><time>2026-05-03T07:55:19Z</time></trkpt>
<trkpt lat="50.638448" lon="4.083986"><time>2026-05-03T08:05:19Z</time></trkpt>
<trkpt lat="50.638454" lon="4.084069"><time>2026-05-03T08:15:19Z</time></trkpt>
<trkpt lat="50.638464" lon="4.084262"><time>2026-05-03T08:25:19Z</time></trkpt>
</trkseg>
</trk>
<trk>
<name>hbcpri1</name>
<cmt>v</cmt>
<desc>Petit-Roeulx-lez-Braine Chemin n°i1 </desc>
<link href="https://chemins.be/petitroeulxlezbraine/chemin/i1"/><trkseg>
<trkpt lat="50.622872" lon="4.094756"><time>2026-05-03T03:35:19Z</time></trkpt>
<trkpt lat="50.622503" lon="4.094503"><time>2026-05-03T03:45:19Z</time></trkpt>
<trkpt lat="50.622403" lon="4.094264"><time>2026-05-03T03:55:19Z</time></trkpt>
<trkpt lat="50.621765" lon="4.094154"><time>2026-05-03T04:05:19Z</time></trkpt>
<trkpt lat="50.621450" lon="4.094071"><time>2026-05-03T04:15:19Z</time></trkpt>
<trkpt lat="50.620883" lon="4.093764"><time>2026-05-03T04:25:19Z</time></trkpt>
<trkpt lat="50.619386" lon="4.091794"><time>2026-05-03T04:35:19Z</time></trkpt>
<trkpt lat="50.618265" lon="4.093157"><time>2026-05-03T04:45:19Z</time></trkpt>
</trkseg>
</trk>
<trk>
<name>hbcpri2</name>
<cmt>v</cmt>
<desc>Petit-Roeulx-lez-Braine Chemin n°i2 </desc>
<link href="https://chemins.be/petitroeulxlezbraine/chemin/i2"/><trkseg>
<trkpt lat="50.637968" lon="4.100883"><time>2026-05-03T03:35:19Z</time></trkpt>
<trkpt lat="50.638010" lon="4.100789"><time>2026-05-03T03:45:19Z</time></trkpt>
<trkpt lat="50.638035" lon="4.100722"><time>2026-05-03T03:55:19Z</time></trkpt>
<trkpt lat="50.638066" lon="4.100607"><time>2026-05-03T04:05:19Z</time></trkpt>
<trkpt lat="50.638125" lon="4.100250"><time>2026-05-03T04:15:19Z</time></trkpt>
<trkpt lat="50.638149" lon="4.100148"><time>2026-05-03T04:25:19Z</time></trkpt>
<trkpt lat="50.638185" lon="4.100041"><time>2026-05-03T04:35:19Z</time></trkpt>
<trkpt lat="50.638222" lon="4.099949"><time>2026-05-03T04:45:19Z</time></trkpt>
<trkpt lat="50.638319" lon="4.099762"><time>2026-05-03T04:55:19Z</time></trkpt>
<trkpt lat="50.638421" lon="4.099542"><time>2026-05-03T05:05:19Z</time></trkpt>
<trkpt lat="50.638481" lon="4.099405"><time>2026-05-03T05:15:19Z</time></trkpt>
<trkpt lat="50.638538" lon="4.099216"><time>2026-05-03T05:25:19Z</time></trkpt>
<trkpt lat="50.638551" lon="4.099150"><time>2026-05-03T05:35:19Z</time></trkpt>
</trkseg>
</trk>
<trk>
<name>hbcpri3</name>
<cmt>q</cmt>
<desc>Petit-Roeulx-lez-Braine Chemin n°i3 </desc>
<link href="https://chemins.be/petitroeulxlezbraine/chemin/i3"/><trkseg>
<trkpt lat="50.640407" lon="4.077511"><time>2026-05-03T03:35:19Z</time></trkpt>
<trkpt lat="50.638995" lon="4.079181"><time>2026-05-03T03:45:19Z</time></trkpt>
</trkseg></trk>
<trk>
<name>hbcpri3</name>
<cmt>v</cmt>
<desc>Petit-Roeulx-lez-Braine Chemin n°i3 </desc>
<link href="https://chemins.be/petitroeulxlezbraine/chemin/i3"/><trkseg>
<trkpt lat="50.638995" lon="4.079181"><time>2026-05-03T03:45:19Z</time></trkpt>
<trkpt lat="50.640407" lon="4.077511"><time>2026-05-03T03:55:19Z</time></trkpt>
</trkseg>
</trk>
<trk>
<name>hbcprp1</name>
<cmt>r</cmt>
<desc>Petit-Roeulx-lez-Braine Chemin particulier n°p1 Hameau du Pirou</desc>
<link href="https://chemins.be/petitroeulxlezbraine/chemin/p1"/><trkseg>
<trkpt lat="50.623296" lon="4.095644"><time>2026-05-03T03:35:19Z</time></trkpt>
<trkpt lat="50.622863" lon="4.094756"><time>2026-05-03T03:45:19Z</time></trkpt>
</trkseg>
</trk>
<trk>
<name>hbcprp2</name>
<cmt>v</cmt>
<desc>Petit-Roeulx-lez-Braine Chemin particulier n°p2 </desc>
<link href="https://chemins.be/petitroeulxlezbraine/chemin/p2"/><trkseg>
<trkpt lat="50.618315" lon="4.081049"><time>2026-05-03T03:35:19Z</time></trkpt>
<trkpt lat="50.617689" lon="4.082311"><time>2026-05-03T03:45:19Z</time></trkpt>
</trkseg>
</trk>
<trk>
<name>hbcrq10</name>
<cmt>r</cmt>
<desc>Ronquières Chemin n°10 La Gratière</desc>
<link href="https://chemins.be/ronquieres/chemin/10"/><trkseg>
<trkpt lat="50.589527" lon="4.233402"><time>2026-05-03T03:35:19Z</time></trkpt>
<trkpt lat="50.589442" lon="4.229702"><time>2026-05-03T03:45:19Z</time></trkpt>
<trkpt lat="50.591089" lon="4.223356"><time>2026-05-03T03:55:19Z</time></trkpt>
<trkpt lat="50.591636" lon="4.222987"><time>2026-05-03T04:05:19Z</time></trkpt>
<trkpt lat="50.591941" lon="4.221814"><time>2026-05-03T04:15:19Z</time></trkpt>
</trkseg>
</trk>
<trk>
<name>hbcrq100</name>
<cmt>d</cmt>
<desc>Ronquières Sentier n°100 </desc>
<link href="https://chemins.be/ronquieres/sentier/100"/><trkseg>
<trkpt lat="50.617068" lon="4.201996"><time>2026-05-03T03:35:19Z</time></trkpt>
<trkpt lat="50.616501" lon="4.201419"><time>2026-05-03T03:45:19Z</time></trkpt>
<trkpt lat="50.615790" lon="4.200913"><time>2026-05-03T03:55:19Z</time></trkpt>
<trkpt lat="50.615232" lon="4.200463"><time>2026-05-03T04:05:19Z</time></trkpt>
<trkpt lat="50.614747" lon="4.200521"><time>2026-05-03T04:15:19Z</time></trkpt>
</trkseg>
</trk>
<trk>
<name>hbcrq101</name>
<cmt>v</cmt>
<desc>Ronquières Sentier n°101 </desc>
<link href="https://chemins.be/ronquieres/sentier/101"/><trkseg>
<trkpt lat="50.618091" lon="4.207207"><time>2026-05-03T03:35:19Z</time></trkpt>
<trkpt lat="50.617498" lon="4.206842"><time>2026-05-03T03:45:19Z</time></trkpt>
<trkpt lat="50.617146" lon="4.206066"><time>2026-05-03T03:55:19Z</time></trkpt>
<trkpt lat="50.616254" lon="4.204924"><time>2026-05-03T04:05:19Z</time></trkpt>
<trkpt lat="50.615490" lon="4.204687"><time>2026-05-03T04:15:19Z</time></trkpt>
<trkpt lat="50.615194" lon="4.205041"><time>2026-05-03T04:25:19Z</time></trkpt>
</trkseg></trk>
<trk>
<name>hbcrq101</name>
<cmt>d</cmt>
<desc>Ronquières Sentier n°101 </desc>
<link href="https://chemins.be/ronquieres/sentier/101"/><trkseg>
<trkpt lat="50.615194" lon="4.205041"><time>2026-05-03T04:25:19Z</time></trkpt>
<trkpt lat="50.614054" lon="4.206458"><time>2026-05-03T04:35:19Z</time></trkpt>
<trkpt lat="50.613730" lon="4.206388"><time>2026-05-03T04:45:19Z</time></trkpt>
</trkseg>
</trk>
<trk>
<name>hbcrq102</name>
<cmt>q</cmt>
<desc>Ronquières Sentier n°102 </desc>
<link href="https://chemins.be/ronquieres/sentier/102"/><trkseg>
<trkpt lat="50.619230" lon="4.198753"><time>2026-05-03T03:35:19Z</time></trkpt>
<trkpt lat="50.618932" lon="4.197666"><time>2026-05-03T03:45:19Z</time></trkpt>
<trkpt lat="50.618660" lon="4.196155"><time>2026-05-03T03:55:19Z</time></trkpt>
</trkseg>
</trk>
<trk>
<name>hbcrq103</name>
<cmt>v</cmt>
<desc>Ronquières Sentier n°103 </desc>
<link href="https://chemins.be/ronquieres/sentier/103"/><trkseg>
<trkpt lat="50.625385" lon="4.199941"><time>2026-05-03T03:35:19Z</time></trkpt>
<trkpt lat="50.625155" lon="4.199864"><time>2026-05-03T03:45:19Z</time></trkpt>
<trkpt lat="50.624841" lon="4.200132"><time>2026-05-03T03:55:19Z</time></trkpt>
<trkpt lat="50.622803" lon="4.201468"><time>2026-05-03T04:05:19Z</time></trkpt>
<trkpt lat="50.622075" lon="4.201781"><time>2026-05-03T04:15:19Z</time></trkpt>
</trkseg>
</trk>
<trk>
<name>hbcrq104</name>
<cmt>v</cmt>
<desc>Ronquières Sentier n°104 </desc>
<link href="https://chemins.be/ronquieres/sentier/104"/><trkseg>
<trkpt lat="50.615735" lon="4.213037"><time>2026-05-03T03:35:19Z</time></trkpt>
<trkpt lat="50.615887" lon="4.212669"><time>2026-05-03T03:45:19Z</time></trkpt>
</trkseg></trk>
<trk>
<name>hbcrq104</name>
<cmt>d</cmt>
<desc>Ronquières Sentier n°104 </desc>
<link href="https://chemins.be/ronquieres/sentier/104"/><trkseg>
<trkpt lat="50.615887" lon="4.212669"><time>2026-05-03T03:45:19Z</time></trkpt>
<trkpt lat="50.615977" lon="4.212414"><time>2026-05-03T03:55:19Z</time></trkpt>
<trkpt lat="50.616101" lon="4.211057"><time>2026-05-03T04:05:19Z</time></trkpt>
<trkpt lat="50.616693" lon="4.209755"><time>2026-05-03T04:15:19Z</time></trkpt>
<trkpt lat="50.617402" lon="4.209414"><time>2026-05-03T04:25:19Z</time></trkpt>
<trkpt lat="50.617942" lon="4.209836"><time>2026-05-03T04:35:19Z</time></trkpt>
</trkseg>
</trk>
<trk>
<name>hbcrq105</name>
<cmt>q</cmt>
<desc>Ronquières Sentier n°105 </desc>
<link href="https://chemins.be/ronquieres/sentier/105"/><trkseg>
<trkpt lat="50.617907" lon="4.210500"><time>2026-05-03T03:35:19Z</time></trkpt>
<trkpt lat="50.618222" lon="4.210386"><time>2026-05-03T03:45:19Z</time></trkpt>
<trkpt lat="50.618266" lon="4.209736"><time>2026-05-03T03:55:19Z</time></trkpt>
<trkpt lat="50.618750" lon="4.209098"><time>2026-05-03T04:05:19Z</time></trkpt>
<trkpt lat="50.620036" lon="4.208924"><time>2026-05-03T04:15:19Z</time></trkpt>
<trkpt lat="50.621292" lon="4.207564"><time>2026-05-03T04:25:19Z</time></trkpt>
<trkpt lat="50.622299" lon="4.207150"><time>2026-05-03T04:35:19Z</time></trkpt>
<trkpt lat="50.624437" lon="4.206915"><time>2026-05-03T04:45:19Z</time></trkpt>
</trkseg></trk>
<trk>
<name>hbcrq105</name>
<cmt>v</cmt>
<desc>Ronquières Sentier n°105 </desc>
<link href="https://chemins.be/ronquieres/sentier/105"/><trkseg>
<trkpt lat="50.624437" lon="4.206915"><time>2026-05-03T04:45:19Z</time></trkpt>
<trkpt lat="50.624437" lon="4.206769"><time>2026-05-03T04:55:19Z</time></trkpt>
<trkpt lat="50.625497" lon="4.205924"><time>2026-05-03T05:05:19Z</time></trkpt>
</trkseg>
</trk>
<trk>
<name>hbcrq106</name>
<cmt>v</cmt>
<desc>Ronquières Sentier n°106 </desc>
<link href="https://chemins.be/ronquieres/sentier/106"/><trkseg>
<trkpt lat="50.616339" lon="4.214024"><time>2026-05-03T03:35:19Z</time></trkpt>
<trkpt lat="50.616221" lon="4.213629"><time>2026-05-03T03:45:19Z</time></trkpt>
<trkpt lat="50.616041" lon="4.213191"><time>2026-05-03T03:55:19Z</time></trkpt>
<trkpt lat="50.617064" lon="4.211888"><time>2026-05-03T04:05:19Z</time></trkpt>
</trkseg></trk>
<trk>
<name>hbcrq106</name>
<cmt>d</cmt>
<desc>Ronquières Sentier n°106 </desc>
<link href="https://chemins.be/ronquieres/sentier/106"/><trkseg>
<trkpt lat="50.617064" lon="4.211888"><time>2026-05-03T04:05:19Z</time></trkpt>
<trkpt lat="50.617323" lon="4.210700"><time>2026-05-03T04:15:19Z</time></trkpt>
<trkpt lat="50.617942" lon="4.209864"><time>2026-05-03T04:25:19Z</time></trkpt>
</trkseg>
</trk>
<trk>
<name>hbcrq107</name>
<cmt>q</cmt>
<desc>Ronquières Sentier n°107 </desc>
<link href="https://chemins.be/ronquieres/sentier/107"/><trkseg>
<trkpt lat="50.617732" lon="4.213666"><time>2026-05-03T03:35:19Z</time></trkpt>
<trkpt lat="50.618847" lon="4.214100"><time>2026-05-03T03:45:19Z</time></trkpt>
<trkpt lat="50.620594" lon="4.216525"><time>2026-05-03T03:55:19Z</time></trkpt>
<trkpt lat="50.622214" lon="4.218131"><time>2026-05-03T04:05:19Z</time></trkpt>
</trkseg>
</trk>
<trk>
<name>hbcrq108</name>
<cmt>q</cmt>
<desc>Ronquières Sentier n°108 </desc>
<link href="https://chemins.be/ronquieres/sentier/108"/><trkseg>
<trkpt lat="50.621398" lon="4.229629"><time>2026-05-03T03:35:19Z</time></trkpt>
<trkpt lat="50.621863" lon="4.228748"><time>2026-05-03T03:45:19Z</time></trkpt>
</trkseg></trk>
<trk>
<name>hbcrq108</name>
<cmt>s</cmt>
<desc>Ronquières Sentier n°108 </desc>
<link href="https://chemins.be/ronquieres/sentier/108"/><trkseg>
<trkpt lat="50.621863" lon="4.228748"><time>2026-05-03T03:45:19Z</time></trkpt>
<trkpt lat="50.622276" lon="4.227966"><time>2026-05-03T03:55:19Z</time></trkpt>
</trkseg>
</trk>
<trk>
<name>hbcrq109</name>
<cmt>q</cmt>
<desc>Ronquières Sentier n°109 </desc>
<link href="https://chemins.be/ronquieres/sentier/109"/><trkseg>
<trkpt lat="50.607333" lon="4.222869"><time>2026-05-03T03:35:19Z</time></trkpt>
<trkpt lat="50.607909" lon="4.223079"><time>2026-05-03T03:45:19Z</time></trkpt>
<trkpt lat="50.608079" lon="4.222852"><time>2026-05-03T03:55:19Z</time></trkpt>
<trkpt lat="50.608898" lon="4.223641"><time>2026-05-03T04:05:19Z</time></trkpt>
</trkseg>
</trk>
<trk>
<name>hbcrq11</name>
<cmt>v</cmt>
<desc>Ronquières Chemin n°11 </desc>
<link href="https://chemins.be/ronquieres/chemin/11"/><trkseg>
<trkpt lat="50.603588" lon="4.249974"><time>2026-05-03T03:35:19Z</time></trkpt>
<trkpt lat="50.605708" lon="4.248782"><time>2026-05-03T03:45:19Z</time></trkpt>
<trkpt lat="50.608072" lon="4.247858"><time>2026-05-03T03:55:19Z</time></trkpt>
<trkpt lat="50.608691" lon="4.247235"><time>2026-05-03T04:05:19Z</time></trkpt>
</trkseg>
</trk>
<trk>
<name>hbcrq12</name>
<cmt>d</cmt>
<desc>Ronquières Chemin n°12 </desc>
<link href="https://chemins.be/ronquieres/chemin/12"/><trkseg>
<trkpt lat="50.623526" lon="4.203698"><time>2026-05-03T03:35:19Z</time></trkpt>
<trkpt lat="50.623138" lon="4.203360"><time>2026-05-03T03:45:19Z</time></trkpt>
<trkpt lat="50.622107" lon="4.201840"><time>2026-05-03T03:55:19Z</time></trkpt>
<trkpt lat="50.621967" lon="4.201188"><time>2026-05-03T04:05:19Z</time></trkpt>
<trkpt lat="50.620975" lon="4.199383"><time>2026-05-03T04:15:19Z</time></trkpt>
<trkpt lat="50.620083" lon="4.198001"><time>2026-05-03T04:25:19Z</time></trkpt>
<trkpt lat="50.619597" lon="4.197437"><time>2026-05-03T04:35:19Z</time></trkpt>
</trkseg>
</trk>
<trk>
<name>hbcrq13</name>
<cmt>s</cmt>
<desc>Ronquières Chemin n°13 Avenue des Tilleuls</desc>
<link href="https://chemins.be/ronquieres/chemin/13"/><trkseg>
<trkpt lat="50.607222" lon="4.224239"><time>2026-05-03T03:35:19Z</time></trkpt>
<trkpt lat="50.615248" lon="4.225842"><time>2026-05-03T03:45:19Z</time></trkpt>
<trkpt lat="50.615458" lon="4.226840"><time>2026-05-03T03:55:19Z</time></trkpt>
</trkseg></trk>
<trk>
<name>hbcrq13</name>
<cmt>r</cmt>
<desc>Ronquières Chemin n°13 Avenue des Tilleuls</desc>
<link href="https://chemins.be/ronquieres/chemin/13"/><trkseg>
<trkpt lat="50.615458" lon="4.226840"><time>2026-05-03T03:55:19Z</time></trkpt>
<trkpt lat="50.616153" lon="4.227583"><time>2026-05-03T04:05:19Z</time></trkpt>
</trkseg></trk>
<trk>
<name>hbcrq13</name>
<cmt>v</cmt>
<desc>Ronquières Chemin n°13 Avenue des Tilleuls</desc>
<link href="https://chemins.be/ronquieres/chemin/13"/><trkseg>
<trkpt lat="50.616153" lon="4.227583"><time>2026-05-03T04:05:19Z</time></trkpt>
<trkpt lat="50.616303" lon="4.228578"><time>2026-05-03T04:15:19Z</time></trkpt>
</trkseg></trk>
<trk>
<name>hbcrq13</name>
<cmt>d</cmt>
<desc>Ronquières Chemin n°13 Avenue des Tilleuls</desc>
<link href="https://chemins.be/ronquieres/chemin/13"/><trkseg>
<trkpt lat="50.616303" lon="4.228578"><time>2026-05-03T04:15:19Z</time></trkpt>
<trkpt lat="50.616906" lon="4.229424"><time>2026-05-03T04:25:19Z</time></trkpt>
<trkpt lat="50.617698" lon="4.229831"><time>2026-05-03T04:35:19Z</time></trkpt>
</trkseg></trk>
<trk>
<name>hbcrq13</name>
<cmt>v</cmt>
<desc>Ronquières Chemin n°13 Avenue des Tilleuls</desc>
<link href="https://chemins.be/ronquieres/chemin/13"/><trkseg>
<trkpt lat="50.617698" lon="4.229831"><time>2026-05-03T04:35:19Z</time></trkpt>
<trkpt lat="50.618444" lon="4.229462"><time>2026-05-03T04:45:19Z</time></trkpt>
</trkseg></trk>
<trk>
<name>hbcrq13</name>
<cmt>r</cmt>
<desc>Ronquières Chemin n°13 Avenue des Tilleuls</desc>
<link href="https://chemins.be/ronquieres/chemin/13"/><trkseg>
<trkpt lat="50.618444" lon="4.229462"><time>2026-05-03T04:45:19Z</time></trkpt>
<trkpt lat="50.619928" lon="4.229867"><time>2026-05-03T04:55:19Z</time></trkpt>
</trkseg>
</trk>
<trk>
<name>hbcrq15</name>
<cmt>v</cmt>
<desc>Ronquières Chemin n°15 </desc>
<link href="https://chemins.be/ronquieres/chemin/15"/><trkseg>
<trkpt lat="50.613474" lon="4.245207"><time>2026-05-03T03:35:19Z</time></trkpt>
<trkpt lat="50.612596" lon="4.245325"><time>2026-05-03T03:45:19Z</time></trkpt>
<trkpt lat="50.612235" lon="4.245594"><time>2026-05-03T03:55:19Z</time></trkpt>
</trkseg></trk>
<trk>
<name>hbcrq15</name>
<cmt>d</cmt>
<desc>Ronquières Chemin n°15 </desc>
<link href="https://chemins.be/ronquieres/chemin/15"/><trkseg>
<trkpt lat="50.612235" lon="4.245594"><time>2026-05-03T03:55:19Z</time></trkpt>
<trkpt lat="50.611581" lon="4.245990"><time>2026-05-03T04:05:19Z</time></trkpt>
</trkseg>
</trk>
<trk>
<name>hbcrq17</name>
<cmt>v</cmt>
<desc>Ronquières Chemin n°17 </desc>
<link href="https://chemins.be/ronquieres/chemin/17"/><trkseg>
<trkpt lat="50.617716" lon="4.229888"><time>2026-05-03T03:35:19Z</time></trkpt>
<trkpt lat="50.618138" lon="4.229873"><time>2026-05-03T03:45:19Z</time></trkpt>
<trkpt lat="50.618804" lon="4.229772"><time>2026-05-03T03:55:19Z</time></trkpt>
<trkpt lat="50.619200" lon="4.230138"><time>2026-05-03T04:05:19Z</time></trkpt>
<trkpt lat="50.619290" lon="4.230406"><time>2026-05-03T04:15:19Z</time></trkpt>
</trkseg></trk>
<trk>
<name>hbcrq17</name>
<cmt>d</cmt>
<desc>Ronquières Chemin n°17 </desc>
<link href="https://chemins.be/ronquieres/chemin/17"/><trkseg>
<trkpt lat="50.619290" lon="4.230406"><time>2026-05-03T04:15:19Z</time></trkpt>
<trkpt lat="50.618994" lon="4.231071"><time>2026-05-03T04:25:19Z</time></trkpt>
<trkpt lat="50.618690" lon="4.232188"><time>2026-05-03T04:35:19Z</time></trkpt>
<trkpt lat="50.618690" lon="4.232669"><time>2026-05-03T04:45:19Z</time></trkpt>
<trkpt lat="50.618055" lon="4.235129"><time>2026-05-03T04:55:19Z</time></trkpt>
<trkpt lat="50.616467" lon="4.238214"><time>2026-05-03T05:05:19Z</time></trkpt>
<trkpt lat="50.615229" lon="4.240902"><time>2026-05-03T05:15:19Z</time></trkpt>
<trkpt lat="50.613262" lon="4.242603"><time>2026-05-03T05:25:19Z</time></trkpt>
</trkseg>
</trk>
<trk>
<name>hbcrq18</name>
<cmt>v</cmt>
<desc>Ronquières Chemin n°18 Chemin Mazette</desc>
<link href="https://chemins.be/ronquieres/chemin/18"/><trkseg>
<trkpt lat="50.616104" lon="4.227519"><time>2026-05-03T03:35:19Z</time></trkpt>
<trkpt lat="50.615594" lon="4.227207"><time>2026-05-03T03:45:19Z</time></trkpt>
<trkpt lat="50.615308" lon="4.227311"><time>2026-05-03T03:55:19Z</time></trkpt>
<trkpt lat="50.614900" lon="4.228229"><time>2026-05-03T04:05:19Z</time></trkpt>
<trkpt lat="50.614785" lon="4.229628"><time>2026-05-03T04:15:19Z</time></trkpt>
<trkpt lat="50.614699" lon="4.232680"><time>2026-05-03T04:25:19Z</time></trkpt>
<trkpt lat="50.614604" lon="4.234049"><time>2026-05-03T04:35:19Z</time></trkpt>
<trkpt lat="50.614162" lon="4.235338"><time>2026-05-03T04:45:19Z</time></trkpt>
<trkpt lat="50.613139" lon="4.237051"><time>2026-05-03T04:55:19Z</time></trkpt>
<trkpt lat="50.612367" lon="4.237787"><time>2026-05-03T05:05:19Z</time></trkpt>
</trkseg>
</trk>
<trk>
<name>hbcrq2</name>
<cmt>v</cmt>
<desc>Ronquières Chemin n°2 Rue Godart / Rue du Chenu</desc>
<link href="https://chemins.be/ronquieres/chemin/2"/><trkseg>
<trkpt lat="50.613466" lon="4.250421"><time>2026-05-03T03:35:19Z</time></trkpt>
<trkpt lat="50.613493" lon="4.244757"><time>2026-05-03T03:45:19Z</time></trkpt>
<trkpt lat="50.612921" lon="4.240723"><time>2026-05-03T03:55:19Z</time></trkpt>
<trkpt lat="50.612363" lon="4.237654"><time>2026-05-03T04:05:19Z</time></trkpt>
<trkpt lat="50.610498" lon="4.232204"><time>2026-05-03T04:15:19Z</time></trkpt>
<trkpt lat="50.609694" lon="4.231002"><time>2026-05-03T04:25:19Z</time></trkpt>
<trkpt lat="50.609231" lon="4.229586"><time>2026-05-03T04:35:19Z</time></trkpt>
<trkpt lat="50.608492" lon="4.226775"><time>2026-05-03T04:45:19Z</time></trkpt>
<trkpt lat="50.607733" lon="4.225437"><time>2026-05-03T04:55:19Z</time></trkpt>
</trkseg></trk>
<trk>
<name>hbcrq2</name>
<cmt>d</cmt>
<desc>Ronquières Chemin n°2 Rue Godart / Rue du Chenu</desc>
<link href="https://chemins.be/ronquieres/chemin/2"/><trkseg>
<trkpt lat="50.607733" lon="4.225437"><time>2026-05-03T04:55:19Z</time></trkpt>
<trkpt lat="50.607404" lon="4.225016"><time>2026-05-03T05:05:19Z</time></trkpt>
</trkseg></trk>
<trk>
<name>hbcrq2</name>
<cmt>s</cmt>
<desc>Ronquières Chemin n°2 Rue Godart / Rue du Chenu</desc>
<link href="https://chemins.be/ronquieres/chemin/2"/><trkseg>
<trkpt lat="50.607404" lon="4.225016"><time>2026-05-03T05:05:19Z</time></trkpt>
<trkpt lat="50.607143" lon="4.224490"><time>2026-05-03T05:15:19Z</time></trkpt>
</trkseg></trk>
<trk>
<name>hbcrq2</name>
<cmt>r</cmt>
<desc>Ronquières Chemin n°2 Rue Godart / Rue du Chenu</desc>
<link href="https://chemins.be/ronquieres/chemin/2"/><trkseg>
<trkpt lat="50.607143" lon="4.224490"><time>2026-05-03T05:15:19Z</time></trkpt>
<trkpt lat="50.607315" lon="4.222891"><time>2026-05-03T05:25:19Z</time></trkpt>
<trkpt lat="50.607287" lon="4.222205"><time>2026-05-03T05:35:19Z</time></trkpt>
<trkpt lat="50.607942" lon="4.220847"><time>2026-05-03T05:45:19Z</time></trkpt>
<trkpt lat="50.608004" lon="4.220634"><time>2026-05-03T05:55:19Z</time></trkpt>
<trkpt lat="50.607887" lon="4.219985"><time>2026-05-03T06:05:19Z</time></trkpt>
<trkpt lat="50.608443" lon="4.218966"><time>2026-05-03T06:15:19Z</time></trkpt>
</trkseg>
</trk>
<trk>
<name>hbcrq20</name>
<cmt>s</cmt>
<desc>Ronquières Chemin n°20 </desc>
<link href="https://chemins.be/ronquieres/chemin/20"/><trkseg>
<trkpt lat="50.595468" lon="4.221273"><time>2026-05-03T03:35:19Z</time></trkpt>
<trkpt lat="50.598664" lon="4.222017"><time>2026-05-03T03:45:19Z</time></trkpt>
<trkpt lat="50.600607" lon="4.220844"><time>2026-05-03T03:55:19Z</time></trkpt>
<trkpt lat="50.601361" lon="4.221116"><time>2026-05-03T04:05:19Z</time></trkpt>
</trkseg></trk>
<trk>
<name>hbcrq20</name>
<cmt>q</cmt>
<desc>Ronquières Chemin n°20 </desc>
<link href="https://chemins.be/ronquieres/chemin/20"/><trkseg>
<trkpt lat="50.601361" lon="4.221116"><time>2026-05-03T04:05:19Z</time></trkpt>
<trkpt lat="50.602673" lon="4.220286"><time>2026-05-03T04:15:19Z</time></trkpt>
<trkpt lat="50.603204" lon="4.220379"><time>2026-05-03T04:25:19Z</time></trkpt>
</trkseg>
</trk>
<trk>
<name>hbcrq22</name>
<cmt>r</cmt>
<desc>Ronquières Chemin n°22 Chemin du Domaine de Combreuil</desc>
<link href="https://chemins.be/ronquieres/chemin/22"/><trkseg>
<trkpt lat="50.592073" lon="4.206618"><time>2026-05-03T03:35:19Z</time></trkpt>
<trkpt lat="50.592135" lon="4.205615"><time>2026-05-03T03:45:19Z</time></trkpt>
<trkpt lat="50.592305" lon="4.204823"><time>2026-05-03T03:55:19Z</time></trkpt>
<trkpt lat="50.592664" lon="4.204427"><time>2026-05-03T04:05:19Z</time></trkpt>
<trkpt lat="50.592959" lon="4.203522"><time>2026-05-03T04:15:19Z</time></trkpt>
</trkseg></trk>
<trk>
<name>hbcrq22</name>
<cmt>q</cmt>
<desc>Ronquières Chemin n°22 Chemin du Domaine de Combreuil</desc>
<link href="https://chemins.be/ronquieres/chemin/22"/><trkseg>
<trkpt lat="50.592959" lon="4.203522"><time>2026-05-03T04:15:19Z</time></trkpt>
<trkpt lat="50.593327" lon="4.202984"><time>2026-05-03T04:25:19Z</time></trkpt>
<trkpt lat="50.593226" lon="4.201685"><time>2026-05-03T04:35:19Z</time></trkpt>
</trkseg>
</trk>
<trk>
<name>hbcrq27</name>
<cmt>q</cmt>
<desc>Ronquières Chemin n°27 </desc>
<link href="https://chemins.be/ronquieres/chemin/27"/><trkseg>
<trkpt lat="50.583456" lon="4.220403"><time>2026-05-03T03:35:19Z</time></trkpt>
<trkpt lat="50.583501" lon="4.220614"><time>2026-05-03T03:45:19Z</time></trkpt>
<trkpt lat="50.583882" lon="4.220875"><time>2026-05-03T03:55:19Z</time></trkpt>
<trkpt lat="50.584696" lon="4.221386"><time>2026-05-03T04:05:19Z</time></trkpt>
</trkseg>
</trk>
<trk>
<name>hbcrq28</name>
<cmt>r</cmt>
<desc>Ronquières Chemin n°28 Charly des Bois</desc>
<link href="https://chemins.be/ronquieres/chemin/28"/><trkseg>
<trkpt lat="50.617450" lon="4.218217"><time>2026-05-03T03:35:19Z</time></trkpt>
<trkpt lat="50.616865" lon="4.217569"><time>2026-05-03T03:45:19Z</time></trkpt>
<trkpt lat="50.616010" lon="4.216766"><time>2026-05-03T03:55:19Z</time></trkpt>
<trkpt lat="50.615479" lon="4.216570"><time>2026-05-03T04:05:19Z</time></trkpt>
<trkpt lat="50.614706" lon="4.216700"><time>2026-05-03T04:15:19Z</time></trkpt>
<trkpt lat="50.614508" lon="4.216672"><time>2026-05-03T04:25:19Z</time></trkpt>
</trkseg></trk>
<trk>
<name>hbcrq28</name>
<cmt>v</cmt>
<desc>Ronquières Chemin n°28 Charly des Bois</desc>
<link href="https://chemins.be/ronquieres/chemin/28"/><trkseg>
<trkpt lat="50.614508" lon="4.216672"><time>2026-05-03T04:25:19Z</time></trkpt>
<trkpt lat="50.614337" lon="4.216136"><time>2026-05-03T04:35:19Z</time></trkpt>
<trkpt lat="50.614272" lon="4.215048"><time>2026-05-03T04:45:19Z</time></trkpt>
<trkpt lat="50.614334" lon="4.214482"><time>2026-05-03T04:55:19Z</time></trkpt>
<trkpt lat="50.615134" lon="4.213929"><time>2026-05-03T05:05:19Z</time></trkpt>
<trkpt lat="50.615358" lon="4.213532"><time>2026-05-03T05:15:19Z</time></trkpt>
<trkpt lat="50.615717" lon="4.213051"><time>2026-05-03T05:25:19Z</time></trkpt>
</trkseg>
</trk>
<trk>
<name>hbcrq29</name>
<cmt>r</cmt>
<desc>Ronquières Chemin n°29 Chemin du Servoir</desc>
<link href="https://chemins.be/ronquieres/chemin/29"/><trkseg>
<trkpt lat="50.601614" lon="4.183984"><time>2026-05-03T03:35:19Z</time></trkpt>
<trkpt lat="50.602587" lon="4.185407"><time>2026-05-03T03:45:19Z</time></trkpt>
<trkpt lat="50.603687" lon="4.187253"><time>2026-05-03T03:55:19Z</time></trkpt>
</trkseg>
</trk>
<trk>
<name>hbcrq3</name>
<cmt>d</cmt>
<desc>Ronquières Chemin n°3 Rue Pied d'Eau / Charly des Bois</desc>
<link href="https://chemins.be/ronquieres/chemin/3"/><trkseg>
<trkpt lat="50.616257" lon="4.227674"><time>2026-05-03T03:35:19Z</time></trkpt>
<trkpt lat="50.616382" lon="4.226727"><time>2026-05-03T03:45:19Z</time></trkpt>
</trkseg></trk>
<trk>
<name>hbcrq3</name>
<cmt>s</cmt>
<desc>Ronquières Chemin n°3 Rue Pied d'Eau / Charly des Bois</desc>
<link href="https://chemins.be/ronquieres/chemin/3"/><trkseg>
<trkpt lat="50.616382" lon="4.226727"><time>2026-05-03T03:45:19Z</time></trkpt>
<trkpt lat="50.616444" lon="4.226218"><time>2026-05-03T03:55:19Z</time></trkpt>
<trkpt lat="50.616732" lon="4.226415"><time>2026-05-03T04:05:19Z</time></trkpt>
<trkpt lat="50.617154" lon="4.226004"><time>2026-05-03T04:15:19Z</time></trkpt>
</trkseg></trk>
<trk>
<name>hbcrq3</name>
<cmt>b</cmt>
<desc>Ronquières Chemin n°3 Rue Pied d'Eau / Charly des Bois</desc>
<link href="https://chemins.be/ronquieres/chemin/3"/><trkseg>
<trkpt lat="50.617154" lon="4.226004"><time>2026-05-03T04:15:19Z</time></trkpt>
<trkpt lat="50.617308" lon="4.225164"><time>2026-05-03T04:25:19Z</time></trkpt>
</trkseg></trk>
<trk>
<name>hbcrq3</name>
<cmt>v</cmt>
<desc>Ronquières Chemin n°3 Rue Pied d'Eau / Charly des Bois</desc>
<link href="https://chemins.be/ronquieres/chemin/3"/><trkseg>
<trkpt lat="50.617308" lon="4.225164"><time>2026-05-03T04:25:19Z</time></trkpt>
<trkpt lat="50.617646" lon="4.223939"><time>2026-05-03T04:35:19Z</time></trkpt>
</trkseg></trk>
<trk>
<name>hbcrq3</name>
<cmt>r</cmt>
<desc>Ronquières Chemin n°3 Rue Pied d'Eau / Charly des Bois</desc>
<link href="https://chemins.be/ronquieres/chemin/3"/><trkseg>
<trkpt lat="50.617646" lon="4.223939"><time>2026-05-03T04:35:19Z</time></trkpt>
<trkpt lat="50.617366" lon="4.223248"><time>2026-05-03T04:45:19Z</time></trkpt>
<trkpt lat="50.617519" lon="4.223078"><time>2026-05-03T04:55:19Z</time></trkpt>
<trkpt lat="50.617858" lon="4.221437"><time>2026-05-03T05:05:19Z</time></trkpt>
<trkpt lat="50.617857" lon="4.220109"><time>2026-05-03T05:15:19Z</time></trkpt>
<trkpt lat="50.617630" lon="4.218400"><time>2026-05-03T05:25:19Z</time></trkpt>
<trkpt lat="50.617942" lon="4.216520"><time>2026-05-03T05:35:19Z</time></trkpt>
<trkpt lat="50.617625" lon="4.214882"><time>2026-05-03T05:45:19Z</time></trkpt>
<trkpt lat="50.617865" lon="4.212295"><time>2026-05-03T05:55:19Z</time></trkpt>
<trkpt lat="50.617945" lon="4.211687"><time>2026-05-03T06:05:19Z</time></trkpt>
<trkpt lat="50.617942" lon="4.209935"><time>2026-05-03T06:15:19Z</time></trkpt>
<trkpt lat="50.618210" lon="4.208408"><time>2026-05-03T06:25:19Z</time></trkpt>
<trkpt lat="50.618128" lon="4.207362"><time>2026-05-03T06:35:19Z</time></trkpt>
<trkpt lat="50.618125" lon="4.205398"><time>2026-05-03T06:45:19Z</time></trkpt>
<trkpt lat="50.618688" lon="4.202754"><time>2026-05-03T06:55:19Z</time></trkpt>
<trkpt lat="50.619062" lon="4.200265"><time>2026-05-03T07:05:19Z</time></trkpt>
<trkpt lat="50.619471" lon="4.197720"><time>2026-05-03T07:15:19Z</time></trkpt>
</trkseg>
</trk>
<trk>
<name>hbcrq30</name>
<cmt>q</cmt>
<desc>Ronquières Chemin n°30 </desc>
<link href="https://chemins.be/ronquieres/chemin/30"/><trkseg>
<trkpt lat="50.608212" lon="4.227579"><time>2026-05-03T03:35:19Z</time></trkpt>
<trkpt lat="50.608665" lon="4.227381"><time>2026-05-03T03:45:19Z</time></trkpt>
</trkseg>
</trk>
<trk>
<name>hbcrq32</name>
<cmt>v</cmt>
<desc>Ronquières Sentier n°32 </desc>
<link href="https://chemins.be/ronquieres/sentier/32"/><trkseg>
<trkpt lat="50.608947" lon="4.219699"><time>2026-05-03T03:35:19Z</time></trkpt>
<trkpt lat="50.609271" lon="4.219571"><time>2026-05-03T03:45:19Z</time></trkpt>
<trkpt lat="50.609432" lon="4.219429"><time>2026-05-03T03:55:19Z</time></trkpt>
<trkpt lat="50.609494" lon="4.218708"><time>2026-05-03T04:05:19Z</time></trkpt>
<trkpt lat="50.609583" lon="4.218030"><time>2026-05-03T04:15:19Z</time></trkpt>
</trkseg></trk>
<trk>
<name>hbcrq32</name>
<cmt>d</cmt>
<desc>Ronquières Sentier n°32 </desc>
<link href="https://chemins.be/ronquieres/sentier/32"/><trkseg>
<trkpt lat="50.609583" lon="4.218030"><time>2026-05-03T04:15:19Z</time></trkpt>
<trkpt lat="50.610375" lon="4.211246"><time>2026-05-03T04:25:19Z</time></trkpt>
<trkpt lat="50.610941" lon="4.211074"><time>2026-05-03T04:35:19Z</time></trkpt>
<trkpt lat="50.612566" lon="4.209684"><time>2026-05-03T04:45:19Z</time></trkpt>
</trkseg></trk>
<trk>
<name>hbcrq32</name>
<cmt>v</cmt>
<desc>Ronquières Sentier n°32 </desc>
<link href="https://chemins.be/ronquieres/sentier/32"/><trkseg>
<trkpt lat="50.612566" lon="4.209684"><time>2026-05-03T04:45:19Z</time></trkpt>
<trkpt lat="50.612780" lon="4.208723"><time>2026-05-03T04:55:19Z</time></trkpt>
<trkpt lat="50.613632" lon="4.206968"><time>2026-05-03T05:05:19Z</time></trkpt>
<trkpt lat="50.613729" lon="4.205555"><time>2026-05-03T05:15:19Z</time></trkpt>
</trkseg></trk>
<trk>
<name>hbcrq32</name>
<cmt>d</cmt>
<desc>Ronquières Sentier n°32 </desc>
<link href="https://chemins.be/ronquieres/sentier/32"/><trkseg>
<trkpt lat="50.613729" lon="4.205555"><time>2026-05-03T05:15:19Z</time></trkpt>
<trkpt lat="50.614571" lon="4.203178"><time>2026-05-03T05:25:19Z</time></trkpt>
<trkpt lat="50.616547" lon="4.202224"><time>2026-05-03T05:35:19Z</time></trkpt>
</trkseg></trk>
<trk>
<name>hbcrq32</name>
<cmt>v</cmt>
<desc>Ronquières Sentier n°32 </desc>
<link href="https://chemins.be/ronquieres/sentier/32"/><trkseg>
<trkpt lat="50.616547" lon="4.202224"><time>2026-05-03T05:35:19Z</time></trkpt>
<trkpt lat="50.617428" lon="4.202179"><time>2026-05-03T05:45:19Z</time></trkpt>
<trkpt lat="50.618616" lon="4.202910"><time>2026-05-03T05:55:19Z</time></trkpt>
</trkseg>
</trk>
<trk>
<name>hbcrq33</name>
<cmt>v</cmt>
<desc>Ronquières Sentier n°33 Charly des Bois</desc>
<link href="https://chemins.be/ronquieres/sentier/33"/><trkseg>
<trkpt lat="50.610540" lon="4.221305"><time>2026-05-03T03:35:19Z</time></trkpt>
<trkpt lat="50.610666" lon="4.221106"><time>2026-05-03T03:45:19Z</time></trkpt>
<trkpt lat="50.611205" lon="4.220540"><time>2026-05-03T03:55:19Z</time></trkpt>
<trkpt lat="50.611241" lon="4.220511"><time>2026-05-03T04:05:19Z</time></trkpt>
<trkpt lat="50.611690" lon="4.220015"><time>2026-05-03T04:15:19Z</time></trkpt>
<trkpt lat="50.611752" lon="4.219945"><time>2026-05-03T04:25:19Z</time></trkpt>
<trkpt lat="50.612309" lon="4.219335"><time>2026-05-03T04:35:19Z</time></trkpt>
<trkpt lat="50.612937" lon="4.218697"><time>2026-05-03T04:45:19Z</time></trkpt>
<trkpt lat="50.613063" lon="4.218556"><time>2026-05-03T04:55:19Z</time></trkpt>
<trkpt lat="50.613431" lon="4.218159"><time>2026-05-03T05:05:19Z</time></trkpt>
<trkpt lat="50.613449" lon="4.218145"><time>2026-05-03T05:15:19Z</time></trkpt>
<trkpt lat="50.613458" lon="4.218145"><time>2026-05-03T05:25:19Z</time></trkpt>
<trkpt lat="50.613485" lon="4.218102"><time>2026-05-03T05:35:19Z</time></trkpt>
<trkpt lat="50.613593" lon="4.217975"><time>2026-05-03T05:45:19Z</time></trkpt>
<trkpt lat="50.614230" lon="4.216885"><time>2026-05-03T05:55:19Z</time></trkpt>
<trkpt lat="50.614292" lon="4.216772"><time>2026-05-03T06:05:19Z</time></trkpt>
<trkpt lat="50.614328" lon="4.216687"><time>2026-05-03T06:15:19Z</time></trkpt>
<trkpt lat="50.614499" lon="4.216644"><time>2026-05-03T06:25:19Z</time></trkpt>
<trkpt lat="50.614471" lon="4.216107"><time>2026-05-03T06:35:19Z</time></trkpt>
<trkpt lat="50.614750" lon="4.215739"><time>2026-05-03T06:45:19Z</time></trkpt>
<trkpt lat="50.615261" lon="4.215115"><time>2026-05-03T06:55:19Z</time></trkpt>
<trkpt lat="50.616222" lon="4.214222"><time>2026-05-03T07:05:19Z</time></trkpt>
<trkpt lat="50.616518" lon="4.213896"><time>2026-05-03T07:15:19Z</time></trkpt>
<trkpt lat="50.616905" lon="4.213782"><time>2026-05-03T07:25:19Z</time></trkpt>
</trkseg></trk>
<trk>
<name>hbcrq33</name>
<cmt>r</cmt>
<desc>Ronquières Sentier n°33 Charly des Bois</desc>
<link href="https://chemins.be/ronquieres/sentier/33"/><trkseg>
<trkpt lat="50.616905" lon="4.213782"><time>2026-05-03T07:25:19Z</time></trkpt>
<trkpt lat="50.617354" lon="4.213794"><time>2026-05-03T07:35:19Z</time></trkpt>
<trkpt lat="50.617678" lon="4.213864"><time>2026-05-03T07:45:19Z</time></trkpt>
</trkseg></trk>
<trk>
<name>hbcrq33</name>
<cmt>q</cmt>
<desc>Ronquières Sentier n°33 Charly des Bois</desc>
<link href="https://chemins.be/ronquieres/sentier/33"/><trkseg>
<trkpt lat="50.617678" lon="4.213864"><time>2026-05-03T07:45:19Z</time></trkpt>
<trkpt lat="50.617705" lon="4.213708"><time>2026-05-03T07:55:19Z</time></trkpt>
<trkpt lat="50.619008" lon="4.213506"><time>2026-05-03T08:05:19Z</time></trkpt>
<trkpt lat="50.619906" lon="4.212797"><time>2026-05-03T08:15:19Z</time></trkpt>
<trkpt lat="50.621431" lon="4.210022"><time>2026-05-03T08:25:19Z</time></trkpt>
<trkpt lat="50.621889" lon="4.210091"><time>2026-05-03T08:35:19Z</time></trkpt>
<trkpt lat="50.622725" lon="4.209792"><time>2026-05-03T08:45:19Z</time></trkpt>
<trkpt lat="50.623220" lon="4.210200"><time>2026-05-03T08:55:19Z</time></trkpt>
<trkpt lat="50.624567" lon="4.209432"><time>2026-05-03T09:05:19Z</time></trkpt>
</trkseg>
</trk>
<trk>
<name>hbcrq34</name>
<cmt>q</cmt>
<desc>Ronquières Sentier n°34 Rue Pied d'Eau</desc>
<link href="https://chemins.be/ronquieres/sentier/34"/><trkseg>
<trkpt lat="50.615875" lon="4.222308"><time>2026-05-03T03:35:19Z</time></trkpt>
<trkpt lat="50.613614" lon="4.221536"><time>2026-05-03T03:45:19Z</time></trkpt>
</trkseg></trk>
<trk>
<name>hbcrq34</name>
<cmt>d</cmt>
<desc>Ronquières Sentier n°34 Rue Pied d'Eau</desc>
<link href="https://chemins.be/ronquieres/sentier/34"/><trkseg>
<trkpt lat="50.613614" lon="4.221536"><time>2026-05-03T03:45:19Z</time></trkpt>
<trkpt lat="50.611681" lon="4.220015"><time>2026-05-03T03:55:19Z</time></trkpt>
<trkpt lat="50.611527" lon="4.219465"><time>2026-05-03T04:05:19Z</time></trkpt>
<trkpt lat="50.611248" lon="4.219395"><time>2026-05-03T04:15:19Z</time></trkpt>
<trkpt lat="50.610328" lon="4.216558"><time>2026-05-03T04:25:19Z</time></trkpt>
<trkpt lat="50.609868" lon="4.215754"><time>2026-05-03T04:35:19Z</time></trkpt>
<trkpt lat="50.608769" lon="4.213865"><time>2026-05-03T04:45:19Z</time></trkpt>
</trkseg>
</trk>
<trk>
<name>hbcrq35</name>
<cmt>d</cmt>
<desc>Ronquières Sentier n°35 </desc>
<link href="https://chemins.be/ronquieres/sentier/35"/><trkseg>
<trkpt lat="50.609566" lon="4.218736"><time>2026-05-03T03:35:19Z</time></trkpt>
<trkpt lat="50.610160" lon="4.218833"><time>2026-05-03T03:45:19Z</time></trkpt>
<trkpt lat="50.611257" lon="4.219339"><time>2026-05-03T03:55:19Z</time></trkpt>
</trkseg>
</trk>
<trk>
<name>hbcrq36</name>
<cmt>d</cmt>
<desc>Ronquières Sentier n°36 </desc>
<link href="https://chemins.be/ronquieres/sentier/36"/><trkseg>
<trkpt lat="50.608721" lon="4.211378"><time>2026-05-03T03:35:19Z</time></trkpt>
<trkpt lat="50.609547" lon="4.211023"><time>2026-05-03T03:45:19Z</time></trkpt>
<trkpt lat="50.610348" lon="4.211274"><time>2026-05-03T03:55:19Z</time></trkpt>
</trkseg>
</trk>
<trk>
<name>hbcrq37</name>
<cmt>q</cmt>
<desc>Ronquières Sentier n°37 </desc>
<link href="https://chemins.be/ronquieres/sentier/37"/><trkseg>
<trkpt lat="50.606393" lon="4.205326"><time>2026-05-03T03:35:19Z</time></trkpt>
<trkpt lat="50.607886" lon="4.205660"><time>2026-05-03T03:45:19Z</time></trkpt>
<trkpt lat="50.608579" lon="4.206406"><time>2026-05-03T03:55:19Z</time></trkpt>
<trkpt lat="50.609244" lon="4.206545"><time>2026-05-03T04:05:19Z</time></trkpt>
<trkpt lat="50.610487" lon="4.207939"><time>2026-05-03T04:15:19Z</time></trkpt>
</trkseg>
</trk>
<trk>
<name>hbcrq38</name>
<cmt>v</cmt>
<desc>Ronquières Sentier n°38 </desc>
<link href="https://chemins.be/ronquieres/sentier/38"/><trkseg>
<trkpt lat="50.616050" lon="4.213219"><time>2026-05-03T03:35:19Z</time></trkpt>
<trkpt lat="50.615851" lon="4.212697"><time>2026-05-03T03:45:19Z</time></trkpt>
<trkpt lat="50.615725" lon="4.212090"><time>2026-05-03T03:55:19Z</time></trkpt>
<trkpt lat="50.615553" lon="4.211596"><time>2026-05-03T04:05:19Z</time></trkpt>
<trkpt lat="50.615381" lon="4.210509"><time>2026-05-03T04:15:19Z</time></trkpt>
<trkpt lat="50.615291" lon="4.210085"><time>2026-05-03T04:25:19Z</time></trkpt>
<trkpt lat="50.615038" lon="4.209775"><time>2026-05-03T04:35:19Z</time></trkpt>
<trkpt lat="50.614355" lon="4.209509"><time>2026-05-03T04:45:19Z</time></trkpt>
<trkpt lat="50.613833" lon="4.209383"><time>2026-05-03T04:55:19Z</time></trkpt>
<trkpt lat="50.613150" lon="4.209598"><time>2026-05-03T05:05:19Z</time></trkpt>
<trkpt lat="50.612602" lon="4.209571"><time>2026-05-03T05:15:19Z</time></trkpt>
</trkseg>
</trk>
<trk>
<name>hbcrq39</name>
<cmt>d</cmt>
<desc>Ronquières Sentier n°39 </desc>
<link href="https://chemins.be/ronquieres/sentier/39"/><trkseg>
<trkpt lat="50.613824" lon="4.209341"><time>2026-05-03T03:35:19Z</time></trkpt>
<trkpt lat="50.613830" lon="4.207137"><time>2026-05-03T03:45:19Z</time></trkpt>
<trkpt lat="50.613668" lon="4.206713"><time>2026-05-03T03:55:19Z</time></trkpt>
</trkseg>
</trk>
<trk>
<name>hbcrq4</name>
<cmt>r</cmt>
<desc>Ronquières Chemin n°4 Rue Pied d'Eau</desc>
<link href="https://chemins.be/ronquieres/chemin/4"/><trkseg>
<trkpt lat="50.617646" lon="4.224066"><time>2026-05-03T03:35:19Z</time></trkpt>
<trkpt lat="50.617799" lon="4.224108"><time>2026-05-03T03:45:19Z</time></trkpt>
<trkpt lat="50.618249" lon="4.224644"><time>2026-05-03T03:55:19Z</time></trkpt>
<trkpt lat="50.618285" lon="4.224813"><time>2026-05-03T04:05:19Z</time></trkpt>
<trkpt lat="50.618286" lon="4.225096"><time>2026-05-03T04:15:19Z</time></trkpt>
</trkseg></trk>
<trk>
<name>hbcrq4</name>
<cmt>v</cmt>
<desc>Ronquières Chemin n°4 Rue Pied d'Eau</desc>
<link href="https://chemins.be/ronquieres/chemin/4"/><trkseg>
<trkpt lat="50.618286" lon="4.225096"><time>2026-05-03T04:15:19Z</time></trkpt>
<trkpt lat="50.618762" lon="4.225335"><time>2026-05-03T04:25:19Z</time></trkpt>
</trkseg></trk>
<trk>
<name>hbcrq4</name>
<cmt>d</cmt>
<desc>Ronquières Chemin n°4 Rue Pied d'Eau</desc>
<link href="https://chemins.be/ronquieres/chemin/4"/><trkseg>
<trkpt lat="50.618762" lon="4.225335"><time>2026-05-03T04:25:19Z</time></trkpt>
<trkpt lat="50.619007" lon="4.224925"><time>2026-05-03T04:35:19Z</time></trkpt>
<trkpt lat="50.619266" lon="4.224886"><time>2026-05-03T04:45:19Z</time></trkpt>
</trkseg></trk>
<trk>
<name>hbcrq4</name>
<cmt>q</cmt>
<desc>Ronquières Chemin n°4 Rue Pied d'Eau</desc>
<link href="https://chemins.be/ronquieres/chemin/4"/><trkseg>
<trkpt lat="50.619266" lon="4.224886"><time>2026-05-03T04:45:19Z</time></trkpt>
<trkpt lat="50.619670" lon="4.224779"><time>2026-05-03T04:55:19Z</time></trkpt>
<trkpt lat="50.619831" lon="4.224421"><time>2026-05-03T05:05:19Z</time></trkpt>
</trkseg>
</trk>
<trk>
<name>hbcrq40</name>
<cmt>q</cmt>
<desc>Ronquières Sentier n°40 </desc>
<link href="https://chemins.be/ronquieres/sentier/40"/><trkseg>
<trkpt lat="50.610375" lon="4.211246"><time>2026-05-03T03:35:19Z</time></trkpt>
<trkpt lat="50.610640" lon="4.208236"><time>2026-05-03T03:45:19Z</time></trkpt>
<trkpt lat="50.610505" lon="4.207982"><time>2026-05-03T03:55:19Z</time></trkpt>
<trkpt lat="50.610222" lon="4.205016"><time>2026-05-03T04:05:19Z</time></trkpt>
<trkpt lat="50.610275" lon="4.204408"><time>2026-05-03T04:15:19Z</time></trkpt>
<trkpt lat="50.610400" lon="4.203404"><time>2026-05-03T04:25:19Z</time></trkpt>
<trkpt lat="50.610039" lon="4.202389"><time>2026-05-03T04:35:19Z</time></trkpt>
<trkpt lat="50.609938" lon="4.201061"><time>2026-05-03T04:45:19Z</time></trkpt>
</trkseg>
</trk>
<trk>
<name>hbcrq41</name>
<cmt>q</cmt>
<desc>Ronquières Sentier n°41 Rue d'Henripont / Chemin du Servoir</desc>
<link href="https://chemins.be/ronquieres/sentier/41"/><trkseg>
<trkpt lat="50.608645" lon="4.215546"><time>2026-05-03T03:35:19Z</time></trkpt>
<trkpt lat="50.607695" lon="4.211015"><time>2026-05-03T03:45:19Z</time></trkpt>
</trkseg></trk>
<trk>
<name>hbcrq41</name>
<cmt>r</cmt>
<desc>Ronquières Sentier n°41 Rue d'Henripont / Chemin du Servoir</desc>
<link href="https://chemins.be/ronquieres/sentier/41"/><trkseg>
<trkpt lat="50.607695" lon="4.211015"><time>2026-05-03T03:45:19Z</time></trkpt>
<trkpt lat="50.607457" lon="4.207794"><time>2026-05-03T03:55:19Z</time></trkpt>
</trkseg></trk>
<trk>
<name>hbcrq41</name>
<cmt>q</cmt>
<desc>Ronquières Sentier n°41 Rue d'Henripont / Chemin du Servoir</desc>
<link href="https://chemins.be/ronquieres/sentier/41"/><trkseg>
<trkpt lat="50.607457" lon="4.207794"><time>2026-05-03T03:55:19Z</time></trkpt>
<trkpt lat="50.607868" lon="4.205617"><time>2026-05-03T04:05:19Z</time></trkpt>
<trkpt lat="50.607936" lon="4.203201"><time>2026-05-03T04:15:19Z</time></trkpt>
<trkpt lat="50.607961" lon="4.201873"><time>2026-05-03T04:25:19Z</time></trkpt>
<trkpt lat="50.607778" lon="4.199345"><time>2026-05-03T04:35:19Z</time></trkpt>
</trkseg></trk>
<trk>
<name>hbcrq41</name>
<cmt>r</cmt>
<desc>Ronquières Sentier n°41 Rue d'Henripont / Chemin du Servoir</desc>
<link href="https://chemins.be/ronquieres/sentier/41"/><trkseg>
<trkpt lat="50.607778" lon="4.199345"><time>2026-05-03T04:35:19Z</time></trkpt>
<trkpt lat="50.607290" lon="4.197524"><time>2026-05-03T04:45:19Z</time></trkpt>
<trkpt lat="50.607135" lon="4.196409"><time>2026-05-03T04:55:19Z</time></trkpt>
<trkpt lat="50.606855" lon="4.195619"><time>2026-05-03T05:05:19Z</time></trkpt>
</trkseg>
</trk>
<trk>
<name>hbcrq42</name>
<cmt>q</cmt>
<desc>Ronquières Sentier n°42 </desc>
<link href="https://chemins.be/ronquieres/sentier/42"/><trkseg>
<trkpt lat="50.606501" lon="4.205791"><time>2026-05-03T03:35:19Z</time></trkpt>
<trkpt lat="50.605937" lon="4.207616"><time>2026-05-03T03:45:19Z</time></trkpt>
<trkpt lat="50.605825" lon="4.210611"><time>2026-05-03T03:55:19Z</time></trkpt>
<trkpt lat="50.605782" lon="4.212165"><time>2026-05-03T04:05:19Z</time></trkpt>
<trkpt lat="50.605621" lon="4.212957"><time>2026-05-03T04:15:19Z</time></trkpt>
<trkpt lat="50.606684" lon="4.214592"><time>2026-05-03T04:25:19Z</time></trkpt>
<trkpt lat="50.606534" lon="4.216344"><time>2026-05-03T04:35:19Z</time></trkpt>
</trkseg>
</trk>
<trk>
<name>hbcrq43</name>
<cmt>v</cmt>
<desc>Ronquières Sentier n°43 Rue Gueulot</desc>
<link href="https://chemins.be/ronquieres/sentier/43"/><trkseg>
<trkpt lat="50.605799" lon="4.211487"><time>2026-05-03T03:35:19Z</time></trkpt>
<trkpt lat="50.605663" lon="4.210541"><time>2026-05-03T03:45:19Z</time></trkpt>
<trkpt lat="50.605140" lon="4.209328"><time>2026-05-03T03:55:19Z</time></trkpt>
<trkpt lat="50.604564" lon="4.209231"><time>2026-05-03T04:05:19Z</time></trkpt>
</trkseg>
</trk>
<trk>
<name>hbcrq44</name>
<cmt>r</cmt>
<desc>Ronquières Sentier n°44 Rue Gueulot</desc>
<link href="https://chemins.be/ronquieres/sentier/44"/><trkseg>
<trkpt lat="50.607668" lon="4.210958"><time>2026-05-03T03:35:19Z</time></trkpt>
<trkpt lat="50.606032" lon="4.210639"><time>2026-05-03T03:45:19Z</time></trkpt>
</trkseg></trk>
<trk>
<name>hbcrq44</name>
<cmt>q</cmt>
<desc>Ronquières Sentier n°44 Rue Gueulot</desc>
<link href="https://chemins.be/ronquieres/sentier/44"/><trkseg>
<trkpt lat="50.606032" lon="4.210639"><time>2026-05-03T03:45:19Z</time></trkpt>
<trkpt lat="50.605826" lon="4.211275"><time>2026-05-03T03:55:19Z</time></trkpt>
</trkseg>
</trk>
<trk>
<name>hbcrq45</name>
<cmt>v</cmt>
<desc>Ronquières Sentier n°45 Rue Gueulot / Sentier n°45 / RAVeL L106</desc>
<link href="https://chemins.be/ronquieres/sentier/45"/><trkseg>
<trkpt lat="50.607896" lon="4.219886"><time>2026-05-03T03:35:19Z</time></trkpt>
<trkpt lat="50.607806" lon="4.219773"><time>2026-05-03T03:45:19Z</time></trkpt>
<trkpt lat="50.607778" lon="4.219674"><time>2026-05-03T03:55:19Z</time></trkpt>
<trkpt lat="50.607724" lon="4.219434"><time>2026-05-03T04:05:19Z</time></trkpt>
<trkpt lat="50.607625" lon="4.219096"><time>2026-05-03T04:15:19Z</time></trkpt>
<trkpt lat="50.607481" lon="4.218701"><time>2026-05-03T04:25:19Z</time></trkpt>
<trkpt lat="50.607399" lon="4.218588"><time>2026-05-03T04:35:19Z</time></trkpt>
<trkpt lat="50.607363" lon="4.218489"><time>2026-05-03T04:45:19Z</time></trkpt>
<trkpt lat="50.607309" lon="4.218249"><time>2026-05-03T04:55:19Z</time></trkpt>
<trkpt lat="50.607291" lon="4.218193"><time>2026-05-03T05:05:19Z</time></trkpt>
<trkpt lat="50.607201" lon="4.217924"><time>2026-05-03T05:15:19Z</time></trkpt>
<trkpt lat="50.607165" lon="4.217797"><time>2026-05-03T05:25:19Z</time></trkpt>
<trkpt lat="50.607129" lon="4.217670"><time>2026-05-03T05:35:19Z</time></trkpt>
<trkpt lat="50.607020" lon="4.217374"><time>2026-05-03T05:45:19Z</time></trkpt>
<trkpt lat="50.606966" lon="4.217191"><time>2026-05-03T05:55:19Z</time></trkpt>
<trkpt lat="50.606912" lon="4.216993"><time>2026-05-03T06:05:19Z</time></trkpt>
<trkpt lat="50.606849" lon="4.216866"><time>2026-05-03T06:15:19Z</time></trkpt>
<trkpt lat="50.606723" lon="4.216669"><time>2026-05-03T06:25:19Z</time></trkpt>
<trkpt lat="50.606543" lon="4.216387"><time>2026-05-03T06:35:19Z</time></trkpt>
<trkpt lat="50.606444" lon="4.216288"><time>2026-05-03T06:45:19Z</time></trkpt>
<trkpt lat="50.606363" lon="4.216232"><time>2026-05-03T06:55:19Z</time></trkpt>
<trkpt lat="50.606309" lon="4.216190"><time>2026-05-03T07:05:19Z</time></trkpt>
<trkpt lat="50.606228" lon="4.216105"><time>2026-05-03T07:15:19Z</time></trkpt>
<trkpt lat="50.606012" lon="4.215950"><time>2026-05-03T07:25:19Z</time></trkpt>
</trkseg></trk>
<trk>
<name>hbcrq45</name>
<cmt>b</cmt>
<desc>Ronquières Sentier n°45 Rue Gueulot / Sentier n°45 / RAVeL L106</desc>
<link href="https://chemins.be/ronquieres/sentier/45"/><trkseg>
<trkpt lat="50.606012" lon="4.215950"><time>2026-05-03T07:25:19Z</time></trkpt>
<trkpt lat="50.605490" lon="4.216136"><time>2026-05-03T07:35:19Z</time></trkpt>
<trkpt lat="50.604734" lon="4.214952"><time>2026-05-03T07:45:19Z</time></trkpt>
</trkseg></trk>
<trk>
<name>hbcrq45</name>
<cmt>v</cmt>
<desc>Ronquières Sentier n°45 Rue Gueulot / Sentier n°45 / RAVeL L106</desc>
<link href="https://chemins.be/ronquieres/sentier/45"/><trkseg>
<trkpt lat="50.604734" lon="4.214952"><time>2026-05-03T07:45:19Z</time></trkpt>
<trkpt lat="50.604319" lon="4.214289"><time>2026-05-03T07:55:19Z</time></trkpt>
<trkpt lat="50.604209" lon="4.212637"><time>2026-05-03T08:05:19Z</time></trkpt>
<trkpt lat="50.604227" lon="4.212227"><time>2026-05-03T08:15:19Z</time></trkpt>
<trkpt lat="50.604244" lon="4.211662"><time>2026-05-03T08:25:19Z</time></trkpt>
<trkpt lat="50.604224" lon="4.210602"><time>2026-05-03T08:35:19Z</time></trkpt>
<trkpt lat="50.603118" lon="4.209984"><time>2026-05-03T08:45:19Z</time></trkpt>
<trkpt lat="50.602765" lon="4.208234"><time>2026-05-03T08:55:19Z</time></trkpt>
<trkpt lat="50.601980" lon="4.206570"><time>2026-05-03T09:05:19Z</time></trkpt>
<trkpt lat="50.601575" lon="4.205879"><time>2026-05-03T09:15:19Z</time></trkpt>
<trkpt lat="50.600110" lon="4.205941"><time>2026-05-03T09:25:19Z</time></trkpt>
<trkpt lat="50.599092" lon="4.205739"><time>2026-05-03T09:35:19Z</time></trkpt>
<trkpt lat="50.598400" lon="4.204689"><time>2026-05-03T09:45:19Z</time></trkpt>
<trkpt lat="50.596996" lon="4.203946"><time>2026-05-03T09:55:19Z</time></trkpt>
</trkseg></trk>
<trk>
<name>hbcrq45</name>
<cmt>q</cmt>
<desc>Ronquières Sentier n°45 Rue Gueulot / Sentier n°45 / RAVeL L106</desc>
<link href="https://chemins.be/ronquieres/sentier/45"/><trkseg>
<trkpt lat="50.596996" lon="4.203946"><time>2026-05-03T09:55:19Z</time></trkpt>
<trkpt lat="50.596502" lon="4.203764"><time>2026-05-03T10:05:19Z</time></trkpt>
<trkpt lat="50.594179" lon="4.201865"><time>2026-05-03T10:15:19Z</time></trkpt>
</trkseg>
</trk>
<trk>
<name>hbcrq45bis</name>
<cmt>d</cmt>
<desc>Ronquières Sentier n°45bis RAVeL L106</desc>
<link href="https://chemins.be/ronquieres/sentier/45bis"/><trkseg>
<trkpt lat="50.597158" lon="4.204016"><time>2026-05-03T03:35:19Z</time></trkpt>
<trkpt lat="50.594430" lon="4.200932"><time>2026-05-03T03:45:19Z</time></trkpt>
</trkseg>
</trk>
<trk>
<name>hbcrq46</name>
<cmt>q</cmt>
<desc>Ronquières Sentier n°46 </desc>
<link href="https://chemins.be/ronquieres/sentier/46"/><trkseg>
<trkpt lat="50.606619" lon="4.223334"><time>2026-05-03T03:35:19Z</time></trkpt>
<trkpt lat="50.606643" lon="4.222427"><time>2026-05-03T03:45:19Z</time></trkpt>
<trkpt lat="50.606711" lon="4.221189"><time>2026-05-03T03:55:19Z</time></trkpt>
<trkpt lat="50.606718" lon="4.220370"><time>2026-05-03T04:05:19Z</time></trkpt>
<trkpt lat="50.606727" lon="4.219876"><time>2026-05-03T04:15:19Z</time></trkpt>
<trkpt lat="50.606790" lon="4.219748"><time>2026-05-03T04:25:19Z</time></trkpt>
<trkpt lat="50.606942" lon="4.219578"><time>2026-05-03T04:35:19Z</time></trkpt>
<trkpt lat="50.606661" lon="4.217290"><time>2026-05-03T04:45:19Z</time></trkpt>
<trkpt lat="50.606489" lon="4.216528"><time>2026-05-03T04:55:19Z</time></trkpt>
<trkpt lat="50.606075" lon="4.216360"><time>2026-05-03T05:05:19Z</time></trkpt>
</trkseg></trk>
<trk>
<name>hbcrq46</name>
<cmt>d</cmt>
<desc>Ronquières Sentier n°46 </desc>
<link href="https://chemins.be/ronquieres/sentier/46"/><trkseg>
<trkpt lat="50.606075" lon="4.216360"><time>2026-05-03T05:05:19Z</time></trkpt>
<trkpt lat="50.605769" lon="4.216375"><time>2026-05-03T05:15:19Z</time></trkpt>
</trkseg></trk>
<trk>
<name>hbcrq46</name>
<cmt>v</cmt>
<desc>Ronquières Sentier n°46 </desc>
<link href="https://chemins.be/ronquieres/sentier/46"/><trkseg>
<trkpt lat="50.605769" lon="4.216375"><time>2026-05-03T05:15:19Z</time></trkpt>
<trkpt lat="50.605077" lon="4.216490"><time>2026-05-03T05:25:19Z</time></trkpt>
<trkpt lat="50.604465" lon="4.216026"><time>2026-05-03T05:35:19Z</time></trkpt>
<trkpt lat="50.603916" lon="4.215378"><time>2026-05-03T05:45:19Z</time></trkpt>
<trkpt lat="50.603618" lon="4.214475"><time>2026-05-03T05:55:19Z</time></trkpt>
<trkpt lat="50.603858" lon="4.212454"><time>2026-05-03T06:05:19Z</time></trkpt>
<trkpt lat="50.603912" lon="4.212129"><time>2026-05-03T06:15:19Z</time></trkpt>
<trkpt lat="50.603570" lon="4.211650"><time>2026-05-03T06:25:19Z</time></trkpt>
<trkpt lat="50.603173" lon="4.211227"><time>2026-05-03T06:35:19Z</time></trkpt>
<trkpt lat="50.602472" lon="4.211018"><time>2026-05-03T06:45:19Z</time></trkpt>
<trkpt lat="50.602175" lon="4.210680"><time>2026-05-03T06:55:19Z</time></trkpt>
<trkpt lat="50.601491" lon="4.210399"><time>2026-05-03T07:05:19Z</time></trkpt>
</trkseg></trk>
<trk>
<name>hbcrq46</name>
<cmt>q</cmt>
<desc>Ronquières Sentier n°46 </desc>
<link href="https://chemins.be/ronquieres/sentier/46"/><trkseg>
<trkpt lat="50.601491" lon="4.210399"><time>2026-05-03T07:05:19Z</time></trkpt>
<trkpt lat="50.600502" lon="4.209979"><time>2026-05-03T07:15:19Z</time></trkpt>
<trkpt lat="50.596613" lon="4.205981"><time>2026-05-03T07:25:19Z</time></trkpt>
<trkpt lat="50.595236" lon="4.205336"><time>2026-05-03T07:35:19Z</time></trkpt>
</trkseg>
</trk>
<trk>
<name>hbcrq47</name>
<cmt>q</cmt>
<desc>Ronquières Sentier n°47 </desc>
<link href="https://chemins.be/ronquieres/sentier/47"/><trkseg>
<trkpt lat="50.600002" lon="4.205800"><time>2026-05-03T03:35:19Z</time></trkpt>
<trkpt lat="50.599380" lon="4.204813"><time>2026-05-03T03:45:19Z</time></trkpt>
<trkpt lat="50.599002" lon="4.204320"><time>2026-05-03T03:55:19Z</time></trkpt>
</trkseg></trk>
<trk>
<name>hbcrq47</name>
<cmt>v</cmt>
<desc>Ronquières Sentier n°47 </desc>
<link href="https://chemins.be/ronquieres/sentier/47"/><trkseg>
<trkpt lat="50.599002" lon="4.204320"><time>2026-05-03T03:55:19Z</time></trkpt>
<trkpt lat="50.598686" lon="4.203996"><time>2026-05-03T04:05:19Z</time></trkpt>
<trkpt lat="50.598425" lon="4.203333"><time>2026-05-03T04:15:19Z</time></trkpt>
<trkpt lat="50.597633" lon="4.202729"><time>2026-05-03T04:25:19Z</time></trkpt>
<trkpt lat="50.597021" lon="4.202364"><time>2026-05-03T04:35:19Z</time></trkpt>
<trkpt lat="50.596706" lon="4.202040"><time>2026-05-03T04:45:19Z</time></trkpt>
<trkpt lat="50.596112" lon="4.201590"><time>2026-05-03T04:55:19Z</time></trkpt>
</trkseg></trk>
<trk>
<name>hbcrq47</name>
<cmt>d</cmt>
<desc>Ronquières Sentier n°47 </desc>
<link href="https://chemins.be/ronquieres/sentier/47"/><trkseg>
<trkpt lat="50.596112" lon="4.201590"><time>2026-05-03T04:55:19Z</time></trkpt>
<trkpt lat="50.595849" lon="4.200404"><time>2026-05-03T05:05:19Z</time></trkpt>
</trkseg></trk>
<trk>
<name>hbcrq47</name>
<cmt>v</cmt>
<desc>Ronquières Sentier n°47 </desc>
<link href="https://chemins.be/ronquieres/sentier/47"/><trkseg>
<trkpt lat="50.595849" lon="4.200404"><time>2026-05-03T05:05:19Z</time></trkpt>
<trkpt lat="50.595534" lon="4.199996"><time>2026-05-03T05:15:19Z</time></trkpt>
<trkpt lat="50.595165" lon="4.199475"><time>2026-05-03T05:25:19Z</time></trkpt>
<trkpt lat="50.595155" lon="4.199065"><time>2026-05-03T05:35:19Z</time></trkpt>
</trkseg>
</trk>
<trk>
<name>hbcrq48</name>
<cmt>d</cmt>
<desc>Ronquières Sentier n°48 </desc>
<link href="https://chemins.be/ronquieres/sentier/48"/><trkseg>
<trkpt lat="50.596998" lon="4.192886"><time>2026-05-03T03:35:19Z</time></trkpt>
<trkpt lat="50.596776" lon="4.194596"><time>2026-05-03T03:45:19Z</time></trkpt>
<trkpt lat="50.597024" lon="4.198310"><time>2026-05-03T03:55:19Z</time></trkpt>
<trkpt lat="50.597370" lon="4.201458"><time>2026-05-03T04:05:19Z</time></trkpt>
<trkpt lat="50.597606" lon="4.202672"><time>2026-05-03T04:15:19Z</time></trkpt>
</trkseg>
</trk>
<trk>
<name>hbcrq49</name>
<cmt>q</cmt>
<desc>Ronquières Sentier n°49 </desc>
<link href="https://chemins.be/ronquieres/sentier/49"/><trkseg>
<trkpt lat="50.610486" lon="4.221305"><time>2026-05-03T03:35:19Z</time></trkpt>
<trkpt lat="50.610191" lon="4.222493"><time>2026-05-03T03:45:19Z</time></trkpt>
<trkpt lat="50.610237" lon="4.222930"><time>2026-05-03T03:55:19Z</time></trkpt>
<trkpt lat="50.610535" lon="4.224258"><time>2026-05-03T04:05:19Z</time></trkpt>
</trkseg>
</trk>
<trk>
<name>hbcrq5</name>
<cmt>v</cmt>
<desc>Ronquières Chemin n°5 </desc>
<link href="https://chemins.be/ronquieres/chemin/5"/><trkseg>
<trkpt lat="50.597992" lon="4.190439"><time>2026-05-03T03:35:19Z</time></trkpt>
<trkpt lat="50.599180" lon="4.191112"><time>2026-05-03T03:45:19Z</time></trkpt>
</trkseg>
</trk>
<trk>
<name>hbcrq50</name>
<cmt>q</cmt>
<desc>Ronquières Sentier n°50 </desc>
<link href="https://chemins.be/ronquieres/sentier/50"/><trkseg>
<trkpt lat="50.609526" lon="4.222382"><time>2026-05-03T03:35:19Z</time></trkpt>
<trkpt lat="50.610182" lon="4.222478"><time>2026-05-03T03:45:19Z</time></trkpt>
</trkseg>
</trk>
<trk>
<name>hbcrq51</name>
<cmt>q</cmt>
<desc>Ronquières Sentier n°51 </desc>
<link href="https://chemins.be/ronquieres/sentier/51"/><trkseg>
<trkpt lat="50.614496" lon="4.234478"><time>2026-05-03T03:35:19Z</time></trkpt>
<trkpt lat="50.612331" lon="4.227226"><time>2026-05-03T03:45:19Z</time></trkpt>
<trkpt lat="50.610806" lon="4.225080"><time>2026-05-03T03:55:19Z</time></trkpt>
</trkseg>
</trk>
<trk>
<name>hbcrq52</name>
<cmt>v</cmt>
<desc>Ronquières Sentier n°52 Charly des Bois</desc>
<link href="https://chemins.be/ronquieres/sentier/52"/><trkseg>
<trkpt lat="50.624164" lon="4.217150"><time>2026-05-03T03:35:19Z</time></trkpt>
<trkpt lat="50.622986" lon="4.216871"><time>2026-05-03T03:45:19Z</time></trkpt>
<trkpt lat="50.622221" lon="4.216464"><time>2026-05-03T03:55:19Z</time></trkpt>
</trkseg></trk>
<trk>
<name>hbcrq52</name>
<cmt>d</cmt>
<desc>Ronquières Sentier n°52 Charly des Bois</desc>
<link href="https://chemins.be/ronquieres/sentier/52"/><trkseg>
<trkpt lat="50.622221" lon="4.216464"><time>2026-05-03T03:55:19Z</time></trkpt>
<trkpt lat="50.621671" lon="4.215193"><time>2026-05-03T04:05:19Z</time></trkpt>
<trkpt lat="50.621334" lon="4.212043"><time>2026-05-03T04:15:19Z</time></trkpt>
<trkpt lat="50.621684" lon="4.211307"><time>2026-05-03T04:25:19Z</time></trkpt>
<trkpt lat="50.621809" lon="4.210897"><time>2026-05-03T04:35:19Z</time></trkpt>
</trkseg></trk>
<trk>
<name>hbcrq52</name>
<cmt>v</cmt>
<desc>Ronquières Sentier n°52 Charly des Bois</desc>
<link href="https://chemins.be/ronquieres/sentier/52"/><trkseg>
<trkpt lat="50.621809" lon="4.210897"><time>2026-05-03T04:35:19Z</time></trkpt>
<trkpt lat="50.621620" lon="4.210714"><time>2026-05-03T04:45:19Z</time></trkpt>
<trkpt lat="50.621485" lon="4.210121"><time>2026-05-03T04:55:19Z</time></trkpt>
<trkpt lat="50.620495" lon="4.209319"><time>2026-05-03T05:05:19Z</time></trkpt>
</trkseg></trk>
<trk>
<name>hbcrq52</name>
<cmt>d</cmt>
<desc>Ronquières Sentier n°52 Charly des Bois</desc>
<link href="https://chemins.be/ronquieres/sentier/52"/><trkseg>
<trkpt lat="50.620495" lon="4.209319"><time>2026-05-03T05:05:19Z</time></trkpt>
<trkpt lat="50.620036" lon="4.208882"><time>2026-05-03T05:15:19Z</time></trkpt>
<trkpt lat="50.619756" lon="4.208530"><time>2026-05-03T05:25:19Z</time></trkpt>
<trkpt lat="50.618038" lon="4.207278"><time>2026-05-03T05:35:19Z</time></trkpt>
</trkseg>
</trk>
<trk>
<name>hbcrq53</name>
<cmt>q</cmt>
<desc>Ronquières Sentier n°53 </desc>
<link href="https://chemins.be/ronquieres/sentier/53"/><trkseg>
<trkpt lat="50.622303" lon="4.224405"><time>2026-05-03T03:35:19Z</time></trkpt>
<trkpt lat="50.622266" lon="4.223148"><time>2026-05-03T03:45:19Z</time></trkpt>
<trkpt lat="50.622309" lon="4.222074"><time>2026-05-03T03:55:19Z</time></trkpt>
<trkpt lat="50.622676" lon="4.220151"><time>2026-05-03T04:05:19Z</time></trkpt>
<trkpt lat="50.622260" lon="4.218484"><time>2026-05-03T04:15:19Z</time></trkpt>
<trkpt lat="50.622250" lon="4.218159"><time>2026-05-03T04:25:19Z</time></trkpt>
<trkpt lat="50.622608" lon="4.216745"><time>2026-05-03T04:35:19Z</time></trkpt>
</trkseg>
</trk>
<trk>
<name>hbcrq54</name>
<cmt>q</cmt>
<desc>Ronquières Sentier n°54 </desc>
<link href="https://chemins.be/ronquieres/sentier/54"/><trkseg>
<trkpt lat="50.617871" lon="4.223967"><time>2026-05-03T03:35:19Z</time></trkpt>
<trkpt lat="50.618561" lon="4.222537"><time>2026-05-03T03:45:19Z</time></trkpt>
<trkpt lat="50.618623" lon="4.221845"><time>2026-05-03T03:55:19Z</time></trkpt>
<trkpt lat="50.621002" lon="4.218728"><time>2026-05-03T04:05:19Z</time></trkpt>
<trkpt lat="50.622206" lon="4.218315"><time>2026-05-03T04:15:19Z</time></trkpt>
</trkseg>
</trk>
<trk>
<name>hbcrq55</name>
<cmt>q</cmt>
<desc>Ronquières Sentier n°55 </desc>
<link href="https://chemins.be/ronquieres/sentier/55"/><trkseg>
<trkpt lat="50.620117" lon="4.223423"><time>2026-05-03T03:35:19Z</time></trkpt>
<trkpt lat="50.619011" lon="4.222819"><time>2026-05-03T03:45:19Z</time></trkpt>
<trkpt lat="50.617853" lon="4.223981"><time>2026-05-03T03:55:19Z</time></trkpt>
</trkseg>
</trk>
<trk>
<name>hbcrq56</name>
<cmt>v</cmt>
<desc>Ronquières Sentier n°56 </desc>
<link href="https://chemins.be/ronquieres/sentier/56"/><trkseg>
<trkpt lat="50.621612" lon="4.225583"><time>2026-05-03T03:35:19Z</time></trkpt>
<trkpt lat="50.621723" lon="4.225791"><time>2026-05-03T03:45:19Z</time></trkpt>
<trkpt lat="50.622166" lon="4.226127"><time>2026-05-03T03:55:19Z</time></trkpt>
<trkpt lat="50.622184" lon="4.226220"><time>2026-05-03T04:05:19Z</time></trkpt>
<trkpt lat="50.623171" lon="4.226864"><time>2026-05-03T04:15:19Z</time></trkpt>
<trkpt lat="50.624242" lon="4.227132"><time>2026-05-03T04:25:19Z</time></trkpt>
</trkseg>
</trk>
<trk>
<name>hbcrq57</name>
<cmt>q</cmt>
<desc>Ronquières Sentier n°57 </desc>
<link href="https://chemins.be/ronquieres/sentier/57"/><trkseg>
<trkpt lat="50.619172" lon="4.229414"><time>2026-05-03T03:35:19Z</time></trkpt>
<trkpt lat="50.618518" lon="4.227751"><time>2026-05-03T03:45:19Z</time></trkpt>
</trkseg></trk>
<trk>
<name>hbcrq57</name>
<cmt>s</cmt>
<desc>Ronquières Sentier n°57 </desc>
<link href="https://chemins.be/ronquieres/sentier/57"/><trkseg>
<trkpt lat="50.618518" lon="4.227751"><time>2026-05-03T03:45:19Z</time></trkpt>
<trkpt lat="50.618022" lon="4.227226"><time>2026-05-03T03:55:19Z</time></trkpt>
<trkpt lat="50.618062" lon="4.226271"><time>2026-05-03T04:05:19Z</time></trkpt>
</trkseg>
</trk>
<trk>
<name>hbcrq58</name>
<cmt>q</cmt>
<desc>Ronquières Sentier n°58 </desc>
<link href="https://chemins.be/ronquieres/sentier/58"/><trkseg>
<trkpt lat="50.620098" lon="4.229447"><time>2026-05-03T03:35:19Z</time></trkpt>
<trkpt lat="50.619046" lon="4.229055"><time>2026-05-03T03:45:19Z</time></trkpt>
</trkseg>
</trk>
<trk>
<name>hbcrq59</name>
<cmt>q</cmt>
<desc>Ronquières Sentier n°59 </desc>
<link href="https://chemins.be/ronquieres/sentier/59"/><trkseg>
<trkpt lat="50.616069" lon="4.228367"><time>2026-05-03T03:35:19Z</time></trkpt>
<trkpt lat="50.616404" lon="4.230655"><time>2026-05-03T03:45:19Z</time></trkpt>
<trkpt lat="50.616981" lon="4.231572"><time>2026-05-03T03:55:19Z</time></trkpt>
<trkpt lat="50.618636" lon="4.232471"><time>2026-05-03T04:05:19Z</time></trkpt>
</trkseg>
</trk>
<trk>
<name>hbcrq60</name>
<cmt>q</cmt>
<desc>Ronquières Sentier n°60 </desc>
<link href="https://chemins.be/ronquieres/sentier/60"/><trkseg>
<trkpt lat="50.616150" lon="4.228070"><time>2026-05-03T03:35:19Z</time></trkpt>
<trkpt lat="50.615532" lon="4.230092"><time>2026-05-03T03:45:19Z</time></trkpt>
<trkpt lat="50.614832" lon="4.231295"><time>2026-05-03T03:55:19Z</time></trkpt>
</trkseg>
</trk>
<trk>
<name>hbcrq61</name>
<cmt>q</cmt>
<desc>Ronquières Sentier n°61 </desc>
<link href="https://chemins.be/ronquieres/sentier/61"/><trkseg>
<trkpt lat="50.623399" lon="4.234790"><time>2026-05-03T03:35:19Z</time></trkpt>
<trkpt lat="50.621085" lon="4.233491"><time>2026-05-03T03:45:19Z</time></trkpt>
<trkpt lat="50.619656" lon="4.234564"><time>2026-05-03T03:55:19Z</time></trkpt>
<trkpt lat="50.618417" lon="4.233642"><time>2026-05-03T04:05:19Z</time></trkpt>
</trkseg>
</trk>
<trk>
<name>hbcrq62</name>
<cmt>v</cmt>
<desc>Ronquières Sentier n°62 </desc>
<link href="https://chemins.be/ronquieres/sentier/62"/><trkseg>
<trkpt lat="50.620768" lon="4.243611"><time>2026-05-03T03:35:19Z</time></trkpt>
<trkpt lat="50.620669" lon="4.243062"><time>2026-05-03T03:45:19Z</time></trkpt>
<trkpt lat="50.620657" lon="4.242713"><time>2026-05-03T03:55:19Z</time></trkpt>
</trkseg></trk>
<trk>
<name>hbcrq62</name>
<cmt>q</cmt>
<desc>Ronquières Sentier n°62 </desc>
<link href="https://chemins.be/ronquieres/sentier/62"/><trkseg>
<trkpt lat="50.620657" lon="4.242713"><time>2026-05-03T03:55:19Z</time></trkpt>
<trkpt lat="50.620594" lon="4.242648"><time>2026-05-03T04:05:19Z</time></trkpt>
<trkpt lat="50.620523" lon="4.242705"><time>2026-05-03T04:15:19Z</time></trkpt>
<trkpt lat="50.619724" lon="4.242182"><time>2026-05-03T04:25:19Z</time></trkpt>
<trkpt lat="50.619274" lon="4.242461"><time>2026-05-03T04:35:19Z</time></trkpt>
<trkpt lat="50.618621" lon="4.241409"><time>2026-05-03T04:45:19Z</time></trkpt>
<trkpt lat="50.618362" lon="4.239178"><time>2026-05-03T04:55:19Z</time></trkpt>
<trkpt lat="50.616538" lon="4.238191"><time>2026-05-03T05:05:19Z</time></trkpt>
</trkseg>
</trk>
<trk>
<name>hbcrq63</name>
<cmt>q</cmt>
<desc>Ronquières Sentier n°63 </desc>
<link href="https://chemins.be/ronquieres/sentier/63"/><trkseg>
<trkpt lat="50.620717" lon="4.242922"><time>2026-05-03T03:35:19Z</time></trkpt>
<trkpt lat="50.619145" lon="4.238877"><time>2026-05-03T03:45:19Z</time></trkpt>
<trkpt lat="50.618022" lon="4.235058"><time>2026-05-03T03:55:19Z</time></trkpt>
</trkseg>
</trk>
<trk>
<name>hbcrq64</name>
<cmt>q</cmt>
<desc>Ronquières Sentier n°64 </desc>
<link href="https://chemins.be/ronquieres/sentier/64"/><trkseg>
<trkpt lat="50.622279" lon="4.240267"><time>2026-05-03T03:35:19Z</time></trkpt>
<trkpt lat="50.621173" lon="4.239730"><time>2026-05-03T03:45:19Z</time></trkpt>
<trkpt lat="50.620298" lon="4.239693"><time>2026-05-03T03:55:19Z</time></trkpt>
<trkpt lat="50.619492" lon="4.239666"><time>2026-05-03T04:05:19Z</time></trkpt>
</trkseg>
</trk>
<trk>
<name>hbcrq65</name>
<cmt>q</cmt>
<desc>Ronquières Sentier n°65 </desc>
<link href="https://chemins.be/ronquieres/sentier/65"/><trkseg>
<trkpt lat="50.613263" lon="4.242718"><time>2026-05-03T03:35:19Z</time></trkpt>
<trkpt lat="50.610002" lon="4.239382"><time>2026-05-03T03:45:19Z</time></trkpt>
</trkseg>
</trk>
<trk>
<name>hbcrq66</name>
<cmt>q</cmt>
<desc>Ronquières Sentier n°66 </desc>
<link href="https://chemins.be/ronquieres/sentier/66"/><trkseg>
<trkpt lat="50.612773" lon="4.238834"><time>2026-05-03T03:35:19Z</time></trkpt>
<trkpt lat="50.615721" lon="4.239725"><time>2026-05-03T03:45:19Z</time></trkpt>
</trkseg>
</trk>
<trk>
<name>hbcrq67</name>
<cmt>q</cmt>
<desc>Ronquières Sentier n°67 </desc>
<link href="https://chemins.be/ronquieres/sentier/67"/><trkseg>
<trkpt lat="50.612926" lon="4.240631"><time>2026-05-03T03:35:19Z</time></trkpt>
<trkpt lat="50.612664" lon="4.237504"><time>2026-05-03T03:45:19Z</time></trkpt>
</trkseg>
</trk>
<trk>
<name>hbcrq68</name>
<cmt>q</cmt>
<desc>Ronquières Sentier n°68 </desc>
<link href="https://chemins.be/ronquieres/sentier/68"/><trkseg>
<trkpt lat="50.609981" lon="4.239403"><time>2026-05-03T03:35:19Z</time></trkpt>
<trkpt lat="50.612398" lon="4.237944"><time>2026-05-03T03:45:19Z</time></trkpt>
</trkseg>
</trk>
<trk>
<name>hbcrq69</name>
<cmt>q</cmt>
<desc>Ronquières Sentier n°69 </desc>
<link href="https://chemins.be/ronquieres/sentier/69"/><trkseg>
<trkpt lat="50.606913" lon="4.232095"><time>2026-05-03T03:35:19Z</time></trkpt>
<trkpt lat="50.606859" lon="4.232773"><time>2026-05-03T03:45:19Z</time></trkpt>
<trkpt lat="50.607348" lon="4.235781"><time>2026-05-03T03:55:19Z</time></trkpt>
<trkpt lat="50.607775" lon="4.239792"><time>2026-05-03T04:05:19Z</time></trkpt>
<trkpt lat="50.606905" lon="4.241292"><time>2026-05-03T04:15:19Z</time></trkpt>
<trkpt lat="50.607123" lon="4.243693"><time>2026-05-03T04:25:19Z</time></trkpt>
<trkpt lat="50.605717" lon="4.248613"><time>2026-05-03T04:35:19Z</time></trkpt>
</trkseg>
</trk>
<trk>
<name>hbcrq7</name>
<cmt>r</cmt>
<desc>Ronquières Chemin n°7 Champ Maret</desc>
<link href="https://chemins.be/ronquieres/chemin/7"/><trkseg>
<trkpt lat="50.603006" lon="4.243888"><time>2026-05-03T03:35:19Z</time></trkpt>
<trkpt lat="50.602834" lon="4.242687"><time>2026-05-03T03:45:19Z</time></trkpt>
<trkpt lat="50.602428" lon="4.241417"><time>2026-05-03T03:55:19Z</time></trkpt>
<trkpt lat="50.602355" lon="4.240824"><time>2026-05-03T04:05:19Z</time></trkpt>
<trkpt lat="50.601742" lon="4.238834"><time>2026-05-03T04:15:19Z</time></trkpt>
<trkpt lat="50.601273" lon="4.237747"><time>2026-05-03T04:25:19Z</time></trkpt>
<trkpt lat="50.601164" lon="4.236321"><time>2026-05-03T04:35:19Z</time></trkpt>
<trkpt lat="50.601144" lon="4.235022"><time>2026-05-03T04:45:19Z</time></trkpt>
</trkseg>
</trk>
<trk>
<name>hbcrq70</name>
<cmt>q</cmt>
<desc>Ronquières Sentier n°70 </desc>
<link href="https://chemins.be/ronquieres/sentier/70"/><trkseg>
<trkpt lat="50.610166" lon="4.241216"><time>2026-05-03T03:35:19Z</time></trkpt>
<trkpt lat="50.608872" lon="4.242675"><time>2026-05-03T03:45:19Z</time></trkpt>
<trkpt lat="50.607129" lon="4.243748"><time>2026-05-03T03:55:19Z</time></trkpt>
</trkseg>
</trk>
<trk>
<name>hbcrq71</name>
<cmt>q</cmt>
<desc>Ronquières Sentier n°71 </desc>
<link href="https://chemins.be/ronquieres/sentier/71"/><trkseg>
<trkpt lat="50.608841" lon="4.236384"><time>2026-05-03T03:35:19Z</time></trkpt>
<trkpt lat="50.602500" lon="4.233874"><time>2026-05-03T03:45:19Z</time></trkpt>
<trkpt lat="50.601456" lon="4.232874"><time>2026-05-03T03:55:19Z</time></trkpt>
<trkpt lat="50.600961" lon="4.232381"><time>2026-05-03T04:05:19Z</time></trkpt>
</trkseg>
</trk>
<trk>
<name>hbcrq72</name>
<cmt>q</cmt>
<desc>Ronquières Sentier n°72 </desc>
<link href="https://chemins.be/ronquieres/sentier/72"/><trkseg>
<trkpt lat="50.603069" lon="4.243958"><time>2026-05-03T03:35:19Z</time></trkpt>
<trkpt lat="50.605297" lon="4.242073"><time>2026-05-03T03:45:19Z</time></trkpt>
<trkpt lat="50.606932" lon="4.241278"><time>2026-05-03T03:55:19Z</time></trkpt>
</trkseg>
</trk>
<trk>
<name>hbcrq73</name>
<cmt>q</cmt>
<desc>Ronquières Sentier n°73 </desc>
<link href="https://chemins.be/ronquieres/sentier/73"/><trkseg>
<trkpt lat="50.603435" lon="4.249975"><time>2026-05-03T03:35:19Z</time></trkpt>
<trkpt lat="50.602384" lon="4.250514"><time>2026-05-03T03:45:19Z</time></trkpt>
<trkpt lat="50.599281" lon="4.249955"><time>2026-05-03T03:55:19Z</time></trkpt>
<trkpt lat="50.598796" lon="4.248174"><time>2026-05-03T04:05:19Z</time></trkpt>
<trkpt lat="50.598896" lon="4.246085"><time>2026-05-03T04:15:19Z</time></trkpt>
<trkpt lat="50.598364" lon="4.243525"><time>2026-05-03T04:25:19Z</time></trkpt>
<trkpt lat="50.598433" lon="4.242817"><time>2026-05-03T04:35:19Z</time></trkpt>
</trkseg>
</trk>
<trk>
<name>hbcrq74</name>
<cmt>q</cmt>
<desc>Ronquières Sentier n°74 </desc>
<link href="https://chemins.be/ronquieres/sentier/74"/><trkseg>
<trkpt lat="50.603168" lon="4.220379"><time>2026-05-03T03:35:19Z</time></trkpt>
<trkpt lat="50.605375" lon="4.221903"><time>2026-05-03T03:45:19Z</time></trkpt>
</trkseg></trk>
<trk>
<name>hbcrq74</name>
<cmt>s</cmt>
<desc>Ronquières Sentier n°74 </desc>
<link href="https://chemins.be/ronquieres/sentier/74"/><trkseg>
<trkpt lat="50.605375" lon="4.221903"><time>2026-05-03T03:45:19Z</time></trkpt>
<trkpt lat="50.606619" lon="4.223209"><time>2026-05-03T03:55:19Z</time></trkpt>
</trkseg>
</trk>
<trk>
<name>hbcrq75</name>
<cmt>s</cmt>
<desc>Ronquières Sentier n°75 </desc>
<link href="https://chemins.be/ronquieres/sentier/75"/><trkseg>
<trkpt lat="50.606689" lon="4.223379"><time>2026-05-03T03:35:19Z</time></trkpt>
<trkpt lat="50.606015" lon="4.225203"><time>2026-05-03T03:45:19Z</time></trkpt>
</trkseg></trk>
<trk>
<name>hbcrq75</name>
<cmt>q</cmt>
<desc>Ronquières Sentier n°75 </desc>
<link href="https://chemins.be/ronquieres/sentier/75"/><trkseg>
<trkpt lat="50.606015" lon="4.225203"><time>2026-05-03T03:45:19Z</time></trkpt>
<trkpt lat="50.603526" lon="4.227118"><time>2026-05-03T03:55:19Z</time></trkpt>
<trkpt lat="50.600005" lon="4.229262"><time>2026-05-03T04:05:19Z</time></trkpt>
<trkpt lat="50.599160" lon="4.229547"><time>2026-05-03T04:15:19Z</time></trkpt>
<trkpt lat="50.598476" lon="4.228786"><time>2026-05-03T04:25:19Z</time></trkpt>
<trkpt lat="50.597235" lon="4.228422"><time>2026-05-03T04:35:19Z</time></trkpt>
<trkpt lat="50.596515" lon="4.227761"><time>2026-05-03T04:45:19Z</time></trkpt>
</trkseg>
</trk>
<trk>
<name>hbcrq76</name>
<cmt>q</cmt>
<desc>Ronquières Sentier n°76 </desc>
<link href="https://chemins.be/ronquieres/sentier/76"/><trkseg>
<trkpt lat="50.599859" lon="4.227963"><time>2026-05-03T03:35:19Z</time></trkpt>
<trkpt lat="50.599373" lon="4.227272"><time>2026-05-03T03:45:19Z</time></trkpt>
<trkpt lat="50.598384" lon="4.227275"><time>2026-05-03T03:55:19Z</time></trkpt>
<trkpt lat="50.596720" lon="4.226249"><time>2026-05-03T04:05:19Z</time></trkpt>
<trkpt lat="50.595216" lon="4.224064"><time>2026-05-03T04:15:19Z</time></trkpt>
<trkpt lat="50.594396" lon="4.222711"><time>2026-05-03T04:25:19Z</time></trkpt>
<trkpt lat="50.594188" lon="4.221822"><time>2026-05-03T04:35:19Z</time></trkpt>
</trkseg></trk>
<trk>
<name>hbcrq76</name>
<cmt>s</cmt>
<desc>Ronquières Sentier n°76 </desc>
<link href="https://chemins.be/ronquieres/sentier/76"/><trkseg>
<trkpt lat="50.594188" lon="4.221822"><time>2026-05-03T04:35:19Z</time></trkpt>
<trkpt lat="50.593691" lon="4.219394"><time>2026-05-03T04:45:19Z</time></trkpt>
</trkseg>
</trk>
<trk>
<name>hbcrq77</name>
<cmt>q</cmt>
<desc>Ronquières Sentier n°77 </desc>
<link href="https://chemins.be/ronquieres/sentier/77"/><trkseg>
<trkpt lat="50.599383" lon="4.228218"><time>2026-05-03T03:35:19Z</time></trkpt>
<trkpt lat="50.599412" lon="4.229292"><time>2026-05-03T03:45:19Z</time></trkpt>
<trkpt lat="50.599277" lon="4.229546"><time>2026-05-03T03:55:19Z</time></trkpt>
</trkseg>
</trk>
<trk>
<name>hbcrq78</name>
<cmt>v</cmt>
<desc>Ronquières Sentier n°78 Rue du Tombois</desc>
<link href="https://chemins.be/ronquieres/sentier/78"/><trkseg>
<trkpt lat="50.601328" lon="4.216022"><time>2026-05-03T03:35:19Z</time></trkpt>
<trkpt lat="50.602799" lon="4.213743"><time>2026-05-03T03:45:19Z</time></trkpt>
</trkseg></trk>
<trk>
<name>hbcrq78</name>
<cmt>d</cmt>
<desc>Ronquières Sentier n°78 Rue du Tombois</desc>
<link href="https://chemins.be/ronquieres/sentier/78"/><trkseg>
<trkpt lat="50.602799" lon="4.213743"><time>2026-05-03T03:45:19Z</time></trkpt>
<trkpt lat="50.603896" lon="4.214036"><time>2026-05-03T03:55:19Z</time></trkpt>
<trkpt lat="50.604328" lon="4.214303"><time>2026-05-03T04:05:19Z</time></trkpt>
</trkseg>
</trk>
<trk>
<name>hbcrq79</name>
<cmt>v</cmt>
<desc>Ronquières Sentier n°79 Rue Gueulot</desc>
<link href="https://chemins.be/ronquieres/sentier/79"/><trkseg>
<trkpt lat="50.604238" lon="4.200742"><time>2026-05-03T03:35:19Z</time></trkpt>
<trkpt lat="50.602982" lon="4.202540"><time>2026-05-03T03:45:19Z</time></trkpt>
</trkseg></trk>
<trk>
<name>hbcrq79</name>
<cmt>d</cmt>
<desc>Ronquières Sentier n°79 Rue Gueulot</desc>
<link href="https://chemins.be/ronquieres/sentier/79"/><trkseg>
<trkpt lat="50.602982" lon="4.202540"><time>2026-05-03T03:45:19Z</time></trkpt>
<trkpt lat="50.603054" lon="4.203020"><time>2026-05-03T03:55:19Z</time></trkpt>
<trkpt lat="50.604065" lon="4.205418"><time>2026-05-03T04:05:19Z</time></trkpt>
<trkpt lat="50.604120" lon="4.206506"><time>2026-05-03T04:15:19Z</time></trkpt>
<trkpt lat="50.603961" lon="4.208244"><time>2026-05-03T04:25:19Z</time></trkpt>
<trkpt lat="50.604025" lon="4.209219"><time>2026-05-03T04:35:19Z</time></trkpt>
<trkpt lat="50.604404" lon="4.210178"><time>2026-05-03T04:45:19Z</time></trkpt>
</trkseg></trk>
<trk>
<name>hbcrq79</name>
<cmt>r</cmt>
<desc>Ronquières Sentier n°79 Rue Gueulot</desc>
<link href="https://chemins.be/ronquieres/sentier/79"/><trkseg>
<trkpt lat="50.604404" lon="4.210178"><time>2026-05-03T04:45:19Z</time></trkpt>
<trkpt lat="50.604206" lon="4.210546"><time>2026-05-03T04:55:19Z</time></trkpt>
</trkseg>
</trk>
<trk>
<name>hbcrq8</name>
<cmt>s</cmt>
<desc>Ronquières Chemin n°8 Rue Surbise</desc>
<link href="https://chemins.be/ronquieres/chemin/8"/><trkseg>
<trkpt lat="50.605695" lon="4.223455"><time>2026-05-03T03:35:19Z</time></trkpt>
<trkpt lat="50.604837" lon="4.224796"><time>2026-05-03T03:45:19Z</time></trkpt>
</trkseg></trk>
<trk>
<name>hbcrq8</name>
<cmt>r</cmt>
<desc>Ronquières Chemin n°8 Rue Surbise</desc>
<link href="https://chemins.be/ronquieres/chemin/8"/><trkseg>
<trkpt lat="50.604837" lon="4.224796"><time>2026-05-03T03:45:19Z</time></trkpt>
<trkpt lat="50.603870" lon="4.225633"><time>2026-05-03T03:55:19Z</time></trkpt>
<trkpt lat="50.602590" lon="4.225892"><time>2026-05-03T04:05:19Z</time></trkpt>
<trkpt lat="50.599779" lon="4.228048"><time>2026-05-03T04:15:19Z</time></trkpt>
</trkseg></trk>
<trk>
<name>hbcrq8</name>
<cmt>v</cmt>
<desc>Ronquières Chemin n°8 Rue Surbise</desc>
<link href="https://chemins.be/ronquieres/chemin/8"/><trkseg>
<trkpt lat="50.599779" lon="4.228048"><time>2026-05-03T04:15:19Z</time></trkpt>
<trkpt lat="50.599293" lon="4.228247"><time>2026-05-03T04:25:19Z</time></trkpt>
<trkpt lat="50.598268" lon="4.227713"><time>2026-05-03T04:35:19Z</time></trkpt>
<trkpt lat="50.596479" lon="4.227761"><time>2026-05-03T04:45:19Z</time></trkpt>
</trkseg></trk>
<trk>
<name>hbcrq8</name>
<cmt>r</cmt>
<desc>Ronquières Chemin n°8 Rue Surbise</desc>
<link href="https://chemins.be/ronquieres/chemin/8"/><trkseg>
<trkpt lat="50.596479" lon="4.227761"><time>2026-05-03T04:45:19Z</time></trkpt>
<trkpt lat="50.595705" lon="4.227382"><time>2026-05-03T04:55:19Z</time></trkpt>
<trkpt lat="50.595046" lon="4.224531"><time>2026-05-03T05:05:19Z</time></trkpt>
<trkpt lat="50.595870" lon="4.222367"><time>2026-05-03T05:15:19Z</time></trkpt>
</trkseg></trk>
<trk>
<name>hbcrq8</name>
<cmt>s</cmt>
<desc>Ronquières Chemin n°8 Rue Surbise</desc>
<link href="https://chemins.be/ronquieres/chemin/8"/><trkseg>
<trkpt lat="50.595870" lon="4.222367"><time>2026-05-03T05:15:19Z</time></trkpt>
<trkpt lat="50.595257" lon="4.220688"><time>2026-05-03T05:25:19Z</time></trkpt>
<trkpt lat="50.593753" lon="4.219252"><time>2026-05-03T05:35:19Z</time></trkpt>
<trkpt lat="50.591859" lon="4.221419"><time>2026-05-03T05:45:19Z</time></trkpt>
</trkseg>
</trk>
<trk>
<name>hbcrq80</name>
<cmt>q</cmt>
<desc>Ronquières Sentier n°80 </desc>
<link href="https://chemins.be/ronquieres/sentier/80"/><trkseg>
<trkpt lat="50.595428" lon="4.221408"><time>2026-05-03T03:35:19Z</time></trkpt>
<trkpt lat="50.594890" lon="4.222088"><time>2026-05-03T03:45:19Z</time></trkpt>
</trkseg></trk>
<trk>
<name>hbcrq80</name>
<cmt>r</cmt>
<desc>Ronquières Sentier n°80 </desc>
<link href="https://chemins.be/ronquieres/sentier/80"/><trkseg>
<trkpt lat="50.594890" lon="4.222088"><time>2026-05-03T03:45:19Z</time></trkpt>
<trkpt lat="50.594423" lon="4.222668"><time>2026-05-03T03:55:19Z</time></trkpt>
</trkseg></trk>
<trk>
<name>hbcrq80</name>
<cmt>q</cmt>
<desc>Ronquières Sentier n°80 </desc>
<link href="https://chemins.be/ronquieres/sentier/80"/><trkseg>
<trkpt lat="50.594423" lon="4.222668"><time>2026-05-03T03:55:19Z</time></trkpt>
<trkpt lat="50.591967" lon="4.221038"><time>2026-05-03T04:05:19Z</time></trkpt>
<trkpt lat="50.591086" lon="4.220984"><time>2026-05-03T04:15:19Z</time></trkpt>
</trkseg>
</trk>
<trk>
<name>hbcrq81</name>
<cmt>q</cmt>
<desc>Ronquières Sentier n°81 </desc>
<link href="https://chemins.be/ronquieres/sentier/81"/><trkseg>
<trkpt lat="50.583702" lon="4.220434"><time>2026-05-03T03:35:19Z</time></trkpt>
<trkpt lat="50.586559" lon="4.219549"><time>2026-05-03T03:45:19Z</time></trkpt>
</trkseg></trk>
<trk>
<name>hbcrq81</name>
<cmt>v</cmt>
<desc>Ronquières Sentier n°81 </desc>
<link href="https://chemins.be/ronquieres/sentier/81"/><trkseg>
<trkpt lat="50.586559" lon="4.219549"><time>2026-05-03T03:45:19Z</time></trkpt>
<trkpt lat="50.590134" lon="4.220142"><time>2026-05-03T03:55:19Z</time></trkpt>
</trkseg>
</trk>
<trk>
<name>hbcrq83</name>
<cmt>q</cmt>
<desc>Ronquières Sentier n°83 </desc>
<link href="https://chemins.be/ronquieres/sentier/83"/><trkseg>
<trkpt lat="50.593737" lon="4.219171"><time>2026-05-03T03:35:19Z</time></trkpt>
<trkpt lat="50.591373" lon="4.214742"><time>2026-05-03T03:45:19Z</time></trkpt>
<trkpt lat="50.586882" lon="4.209188"><time>2026-05-03T03:55:19Z</time></trkpt>
<trkpt lat="50.585711" lon="4.207549"><time>2026-05-03T04:05:19Z</time></trkpt>
</trkseg>
</trk>
<trk>
<name>hbcrq84</name>
<cmt>q</cmt>
<desc>Ronquières Sentier n°84 Rue du Tombois</desc>
<link href="https://chemins.be/ronquieres/sentier/84"/><trkseg>
<trkpt lat="50.593130" lon="4.203380"><time>2026-05-03T03:35:19Z</time></trkpt>
<trkpt lat="50.592854" lon="4.205429"><time>2026-05-03T03:45:19Z</time></trkpt>
<trkpt lat="50.592738" lon="4.205825"><time>2026-05-03T03:55:19Z</time></trkpt>
<trkpt lat="50.592712" lon="4.207067"><time>2026-05-03T04:05:19Z</time></trkpt>
<trkpt lat="50.592946" lon="4.207250"><time>2026-05-03T04:15:19Z</time></trkpt>
<trkpt lat="50.592887" lon="4.209595"><time>2026-05-03T04:25:19Z</time></trkpt>
<trkpt lat="50.592358" lon="4.211178"><time>2026-05-03T04:35:19Z</time></trkpt>
<trkpt lat="50.593411" lon="4.218491"><time>2026-05-03T04:45:19Z</time></trkpt>
</trkseg>
</trk>
<trk>
<name>hbcrq85</name>
<cmt>v</cmt>
<desc>Ronquières Sentier n°85 </desc>
<link href="https://chemins.be/ronquieres/sentier/85"/><trkseg>
<trkpt lat="50.595539" lon="4.209812"><time>2026-05-03T03:35:19Z</time></trkpt>
<trkpt lat="50.596227" lon="4.206533"><time>2026-05-03T03:45:19Z</time></trkpt>
</trkseg></trk>
<trk>
<name>hbcrq85</name>
<cmt>q</cmt>
<desc>Ronquières Sentier n°85 </desc>
<link href="https://chemins.be/ronquieres/sentier/85"/><trkseg>
<trkpt lat="50.596227" lon="4.206533"><time>2026-05-03T03:45:19Z</time></trkpt>
<trkpt lat="50.595669" lon="4.206210"><time>2026-05-03T03:55:19Z</time></trkpt>
<trkpt lat="50.595173" lon="4.205308"><time>2026-05-03T04:05:19Z</time></trkpt>
<trkpt lat="50.595136" lon="4.204545"><time>2026-05-03T04:15:19Z</time></trkpt>
<trkpt lat="50.593409" lon="4.203534"><time>2026-05-03T04:25:19Z</time></trkpt>
<trkpt lat="50.593309" lon="4.203153"><time>2026-05-03T04:35:19Z</time></trkpt>
</trkseg>
</trk>
<trk>
<name>hbcrq86</name>
<cmt>q</cmt>
<desc>Ronquières Sentier n°86 </desc>
<link href="https://chemins.be/ronquieres/sentier/86"/><trkseg>
<trkpt lat="50.595254" lon="4.198966"><time>2026-05-03T03:35:19Z</time></trkpt>
<trkpt lat="50.595658" lon="4.198753"><time>2026-05-03T03:45:19Z</time></trkpt>
<trkpt lat="50.595981" lon="4.198201"><time>2026-05-03T03:55:19Z</time></trkpt>
<trkpt lat="50.595846" lon="4.197791"><time>2026-05-03T04:05:19Z</time></trkpt>
</trkseg>
</trk>
<trk>
<name>hbcrq87</name>
<cmt>q</cmt>
<desc>Ronquières Sentier n°87 </desc>
<link href="https://chemins.be/ronquieres/sentier/87"/><trkseg>
<trkpt lat="50.599581" lon="4.189441"><time>2026-05-03T03:35:19Z</time></trkpt>
<trkpt lat="50.600976" lon="4.190750"><time>2026-05-03T03:45:19Z</time></trkpt>
<trkpt lat="50.600360" lon="4.192170"><time>2026-05-03T03:55:19Z</time></trkpt>
</trkseg>
</trk>
<trk>
<name>hbcrq88</name>
<cmt>v</cmt>
<desc>Ronquières Sentier n°88 </desc>
<link href="https://chemins.be/ronquieres/sentier/88"/><trkseg>
<trkpt lat="50.600757" lon="4.187674"><time>2026-05-03T03:35:19Z</time></trkpt>
<trkpt lat="50.600955" lon="4.187504"><time>2026-05-03T03:45:19Z</time></trkpt>
<trkpt lat="50.601584" lon="4.187897"><time>2026-05-03T03:55:19Z</time></trkpt>
</trkseg></trk>
<trk>
<name>hbcrq88</name>
<cmt>q</cmt>
<desc>Ronquières Sentier n°88 </desc>
<link href="https://chemins.be/ronquieres/sentier/88"/><trkseg>
<trkpt lat="50.601584" lon="4.187897"><time>2026-05-03T03:55:19Z</time></trkpt>
<trkpt lat="50.603714" lon="4.187253"><time>2026-05-03T04:05:19Z</time></trkpt>
</trkseg>
</trk>
<trk>
<name>hbcrq89</name>
<cmt>v</cmt>
<desc>Ronquières Sentier n°89 Sentier Blanche</desc>
<link href="https://chemins.be/ronquieres/sentier/89"/><trkseg>
<trkpt lat="50.603705" lon="4.187296"><time>2026-05-03T03:35:19Z</time></trkpt>
<trkpt lat="50.604243" lon="4.186488"><time>2026-05-03T03:45:19Z</time></trkpt>
<trkpt lat="50.604194" lon="4.183988"><time>2026-05-03T03:55:19Z</time></trkpt>
</trkseg>
</trk>
<trk>
<name>hbcrq9</name>
<cmt>q</cmt>
<desc>Ronquières Chemin n°9 </desc>
<link href="https://chemins.be/ronquieres/chemin/9"/><trkseg>
<trkpt lat="50.607239" lon="4.222824"><time>2026-05-03T03:35:19Z</time></trkpt>
<trkpt lat="50.607103" lon="4.223296"><time>2026-05-03T03:45:19Z</time></trkpt>
<trkpt lat="50.606611" lon="4.223357"><time>2026-05-03T03:55:19Z</time></trkpt>
</trkseg></trk>
<trk>
<name>hbcrq9</name>
<cmt>s</cmt>
<desc>Ronquières Chemin n°9 </desc>
<link href="https://chemins.be/ronquieres/chemin/9"/><trkseg>
<trkpt lat="50.606611" lon="4.223357"><time>2026-05-03T03:55:19Z</time></trkpt>
<trkpt lat="50.606149" lon="4.223414"><time>2026-05-03T04:05:19Z</time></trkpt>
<trkpt lat="50.605150" lon="4.223465"><time>2026-05-03T04:15:19Z</time></trkpt>
<trkpt lat="50.604326" lon="4.223036"><time>2026-05-03T04:25:19Z</time></trkpt>
</trkseg></trk>
<trk>
<name>hbcrq9</name>
<cmt>q</cmt>
<desc>Ronquières Chemin n°9 </desc>
<link href="https://chemins.be/ronquieres/chemin/9"/><trkseg>
<trkpt lat="50.604326" lon="4.223036"><time>2026-05-03T04:25:19Z</time></trkpt>
<trkpt lat="50.603489" lon="4.221577"><time>2026-05-03T04:35:19Z</time></trkpt>
</trkseg>
</trk>
<trk>
<name>hbcrq90</name>
<cmt>q</cmt>
<desc>Ronquières Sentier n°90 </desc>
<link href="https://chemins.be/ronquieres/sentier/90"/><trkseg>
<trkpt lat="50.602146" lon="4.184575"><time>2026-05-03T03:35:19Z</time></trkpt>
<trkpt lat="50.602604" lon="4.184390"><time>2026-05-03T03:45:19Z</time></trkpt>
<trkpt lat="50.603188" lon="4.184176"><time>2026-05-03T03:55:19Z</time></trkpt>
<trkpt lat="50.603296" lon="4.184274"><time>2026-05-03T04:05:19Z</time></trkpt>
<trkpt lat="50.603790" lon="4.184004"><time>2026-05-03T04:15:19Z</time></trkpt>
</trkseg></trk>
<trk>
<name>hbcrq90</name>
<cmt>v</cmt>
<desc>Ronquières Sentier n°90 </desc>
<link href="https://chemins.be/ronquieres/sentier/90"/><trkseg>
<trkpt lat="50.603790" lon="4.184004"><time>2026-05-03T04:15:19Z</time></trkpt>
<trkpt lat="50.604428" lon="4.184001"><time>2026-05-03T04:25:19Z</time></trkpt>
</trkseg></trk>
<trk>
<name>hbcrq90</name>
<cmt>q</cmt>
<desc>Ronquières Sentier n°90 </desc>
<link href="https://chemins.be/ronquieres/sentier/90"/><trkseg>
<trkpt lat="50.604428" lon="4.184001"><time>2026-05-03T04:25:19Z</time></trkpt>
<trkpt lat="50.605301" lon="4.184521"><time>2026-05-03T04:35:19Z</time></trkpt>
<trkpt lat="50.605723" lon="4.184208"><time>2026-05-03T04:45:19Z</time></trkpt>
</trkseg>
</trk>
<trk>
<name>hbcrq91</name>
<cmt>v</cmt>
<desc>Ronquières Sentier n°91 Rue Flinchaux / Flinchaux</desc>
<link href="https://chemins.be/ronquieres/sentier/91"/><trkseg>
<trkpt lat="50.604338" lon="4.183987"><time>2026-05-03T03:35:19Z</time></trkpt>
<trkpt lat="50.605258" lon="4.185623"><time>2026-05-03T03:45:19Z</time></trkpt>
</trkseg></trk>
<trk>
<name>hbcrq91</name>
<cmt>q</cmt>
<desc>Ronquières Sentier n°91 Rue Flinchaux / Flinchaux</desc>
<link href="https://chemins.be/ronquieres/sentier/91"/><trkseg>
<trkpt lat="50.605258" lon="4.185623"><time>2026-05-03T03:45:19Z</time></trkpt>
<trkpt lat="50.605682" lon="4.186327"><time>2026-05-03T03:55:19Z</time></trkpt>
<trkpt lat="50.606339" lon="4.186819"><time>2026-05-03T04:05:19Z</time></trkpt>
<trkpt lat="50.606564" lon="4.187511"><time>2026-05-03T04:15:19Z</time></trkpt>
<trkpt lat="50.607627" lon="4.188722"><time>2026-05-03T04:25:19Z</time></trkpt>
<trkpt lat="50.608098" lon="4.191008"><time>2026-05-03T04:35:19Z</time></trkpt>
<trkpt lat="50.608533" lon="4.193366"><time>2026-05-03T04:45:19Z</time></trkpt>
</trkseg></trk>
<trk>
<name>hbcrq91</name>
<cmt>v</cmt>
<desc>Ronquières Sentier n°91 Rue Flinchaux / Flinchaux</desc>
<link href="https://chemins.be/ronquieres/sentier/91"/><trkseg>
<trkpt lat="50.608533" lon="4.193366"><time>2026-05-03T04:45:19Z</time></trkpt>
<trkpt lat="50.609020" lon="4.194311"><time>2026-05-03T04:55:19Z</time></trkpt>
</trkseg></trk>
<trk>
<name>hbcrq91</name>
<cmt>s</cmt>
<desc>Ronquières Sentier n°91 Rue Flinchaux / Flinchaux</desc>
<link href="https://chemins.be/ronquieres/sentier/91"/><trkseg>
<trkpt lat="50.609020" lon="4.194311"><time>2026-05-03T04:55:19Z</time></trkpt>
<trkpt lat="50.610320" lon="4.198093"><time>2026-05-03T05:05:19Z</time></trkpt>
</trkseg></trk>
<trk>
<name>hbcrq91</name>
<cmt>v</cmt>
<desc>Ronquières Sentier n°91 Rue Flinchaux / Flinchaux</desc>
<link href="https://chemins.be/ronquieres/sentier/91"/><trkseg>
<trkpt lat="50.610320" lon="4.198093"><time>2026-05-03T05:05:19Z</time></trkpt>
<trkpt lat="50.610599" lon="4.198473"><time>2026-05-03T05:15:19Z</time></trkpt>
<trkpt lat="50.611553" lon="4.199091"><time>2026-05-03T05:25:19Z</time></trkpt>
<trkpt lat="50.611788" lon="4.199910"><time>2026-05-03T05:35:19Z</time></trkpt>
<trkpt lat="50.612724" lon="4.200514"><time>2026-05-03T05:45:19Z</time></trkpt>
<trkpt lat="50.612958" lon="4.200513"><time>2026-05-03T05:55:19Z</time></trkpt>
</trkseg></trk>
<trk>
<name>hbcrq91</name>
<cmt>d</cmt>
<desc>Ronquières Sentier n°91 Rue Flinchaux / Flinchaux</desc>
<link href="https://chemins.be/ronquieres/sentier/91"/><trkseg>
<trkpt lat="50.612958" lon="4.200513"><time>2026-05-03T05:55:19Z</time></trkpt>
<trkpt lat="50.613752" lon="4.202460"><time>2026-05-03T06:05:19Z</time></trkpt>
</trkseg></trk>
<trk>
<name>hbcrq91</name>
<cmt>v</cmt>
<desc>Ronquières Sentier n°91 Rue Flinchaux / Flinchaux</desc>
<link href="https://chemins.be/ronquieres/sentier/91"/><trkseg>
<trkpt lat="50.613752" lon="4.202460"><time>2026-05-03T06:05:19Z</time></trkpt>
<trkpt lat="50.613648" lon="4.205640"><time>2026-05-03T06:15:19Z</time></trkpt>
</trkseg>
</trk>
<trk>
<name>hbcrq95</name>
<cmt>q</cmt>
<desc>Ronquières Sentier n°95 </desc>
<link href="https://chemins.be/ronquieres/sentier/95"/><trkseg>
<trkpt lat="50.609183" lon="4.189111"><time>2026-05-03T03:35:19Z</time></trkpt>
<trkpt lat="50.608564" lon="4.190314"><time>2026-05-03T03:45:19Z</time></trkpt>
<trkpt lat="50.608493" lon="4.190583"><time>2026-05-03T03:55:19Z</time></trkpt>
<trkpt lat="50.608152" lon="4.190853"><time>2026-05-03T04:05:19Z</time></trkpt>
</trkseg>
</trk>
<trk>
<name>hbcrq97</name>
<cmt>q</cmt>
<desc>Ronquières Sentier n°97 </desc>
<link href="https://chemins.be/ronquieres/sentier/97"/><trkseg>
<trkpt lat="50.609964" lon="4.200453"><time>2026-05-03T03:35:19Z</time></trkpt>
<trkpt lat="50.608921" lon="4.200598"><time>2026-05-03T03:45:19Z</time></trkpt>
</trkseg>
</trk>
<trk>
<name>hbcrq98</name>
<cmt>r</cmt>
<desc>Ronquières Sentier n°98 Chemin du Servoir</desc>
<link href="https://chemins.be/ronquieres/sentier/98"/><trkseg>
<trkpt lat="50.609500" lon="4.203139"><time>2026-05-03T03:35:19Z</time></trkpt>
<trkpt lat="50.608950" lon="4.202124"><time>2026-05-03T03:45:19Z</time></trkpt>
<trkpt lat="50.608715" lon="4.200754"><time>2026-05-03T03:55:19Z</time></trkpt>
</trkseg>
</trk>
<trk>
<name>hbcrq99</name>
<cmt>d</cmt>
<desc>Ronquières Sentier n°99 </desc>
<link href="https://chemins.be/ronquieres/sentier/99"/><trkseg>
<trkpt lat="50.614571" lon="4.203206"><time>2026-05-03T03:35:19Z</time></trkpt>
<trkpt lat="50.614533" lon="4.202175"><time>2026-05-03T03:45:19Z</time></trkpt>
<trkpt lat="50.614621" lon="4.200846"><time>2026-05-03T03:55:19Z</time></trkpt>
<trkpt lat="50.615041" lon="4.199178"><time>2026-05-03T04:05:19Z</time></trkpt>
<trkpt lat="50.615442" lon="4.196689"><time>2026-05-03T04:15:19Z</time></trkpt>
<trkpt lat="50.615612" lon="4.195954"><time>2026-05-03T04:25:19Z</time></trkpt>
<trkpt lat="50.616122" lon="4.193974"><time>2026-05-03T04:35:19Z</time></trkpt>
</trkseg>
</trk>
<trk>
<name>hbcrqi1</name>
<cmt>v</cmt>
<desc>Ronquières Chemin n°i1 </desc>
<link href="https://chemins.be/ronquieres/chemin/i1"/><trkseg>
<trkpt lat="50.603300" lon="4.198866"><time>2026-05-03T03:35:19Z</time></trkpt>
<trkpt lat="50.602537" lon="4.199802"><time>2026-05-03T03:45:19Z</time></trkpt>
<trkpt lat="50.602044" lon="4.200340"><time>2026-05-03T03:55:19Z</time></trkpt>
<trkpt lat="50.601747" lon="4.200383"><time>2026-05-03T04:05:19Z</time></trkpt>
<trkpt lat="50.601459" lon="4.200314"><time>2026-05-03T04:15:19Z</time></trkpt>
<trkpt lat="50.601334" lon="4.200710"><time>2026-05-03T04:25:19Z</time></trkpt>
<trkpt lat="50.600680" lon="4.202125"><time>2026-05-03T04:35:19Z</time></trkpt>
<trkpt lat="50.599819" lon="4.203752"><time>2026-05-03T04:45:19Z</time></trkpt>
<trkpt lat="50.599398" lon="4.204771"><time>2026-05-03T04:55:19Z</time></trkpt>
</trkseg>
</trk>
<trk>
<name>hbcrqi10</name>
<cmt>q</cmt>
<desc>Ronquières Sentier n°i10 </desc>
<link href="https://chemins.be/ronquieres/sentier/i10"/><trkseg>
<trkpt lat="50.604188" lon="4.210164"><time>2026-05-03T03:35:19Z</time></trkpt>
<trkpt lat="50.603350" lon="4.208811"><time>2026-05-03T03:45:19Z</time></trkpt>
<trkpt lat="50.602673" lon="4.206596"><time>2026-05-03T03:55:19Z</time></trkpt>
<trkpt lat="50.602258" lon="4.205792"><time>2026-05-03T04:05:19Z</time></trkpt>
<trkpt lat="50.601602" lon="4.205837"><time>2026-05-03T04:15:19Z</time></trkpt>
</trkseg>
</trk>
<trk>
<name>hbcrqi11</name>
<cmt>v</cmt>
<desc>Ronquières Chemin n°i11 </desc>
<link href="https://chemins.be/ronquieres/chemin/i11"/><trkseg>
<trkpt lat="50.617216" lon="4.225467"><time>2026-05-03T03:35:19Z</time></trkpt>
<trkpt lat="50.615787" lon="4.225315"><time>2026-05-03T03:45:19Z</time></trkpt>
<trkpt lat="50.613296" lon="4.224744"><time>2026-05-03T03:55:19Z</time></trkpt>
<trkpt lat="50.613239" lon="4.224588"><time>2026-05-03T04:05:19Z</time></trkpt>
<trkpt lat="50.613251" lon="4.224389"><time>2026-05-03T04:15:19Z</time></trkpt>
<trkpt lat="50.613264" lon="4.224235"><time>2026-05-03T04:25:19Z</time></trkpt>
</trkseg>
</trk>
<trk>
<name>hbcrqi12</name>
<cmt>v</cmt>
<desc>Ronquières Chemin n°i12 </desc>
<link href="https://chemins.be/ronquieres/chemin/i12"/><trkseg>
<trkpt lat="50.610336" lon="4.223467"><time>2026-05-03T03:35:19Z</time></trkpt>
<trkpt lat="50.611146" lon="4.223549"><time>2026-05-03T03:45:19Z</time></trkpt>
<trkpt lat="50.612171" lon="4.223956"><time>2026-05-03T03:55:19Z</time></trkpt>
<trkpt lat="50.613956" lon="4.224410"><time>2026-05-03T04:05:19Z</time></trkpt>
</trkseg>
</trk>
<trk>
<name>hbcrqi13</name>
<cmt>v</cmt>
<desc>Ronquières Sentier n°i13 </desc>
<link href="https://chemins.be/ronquieres/sentier/i13"/><trkseg>
<trkpt lat="50.618118" lon="4.206882"><time>2026-05-03T03:35:19Z</time></trkpt>
<trkpt lat="50.618730" lon="4.207049"><time>2026-05-03T03:45:19Z</time></trkpt>
<trkpt lat="50.619707" lon="4.205407"><time>2026-05-03T03:55:19Z</time></trkpt>
<trkpt lat="50.621321" lon="4.202420"><time>2026-05-03T04:05:19Z</time></trkpt>
<trkpt lat="50.622013" lon="4.201866"><time>2026-05-03T04:15:19Z</time></trkpt>
</trkseg>
</trk>
<trk>
<name>hbcrqi14</name>
<cmt>s</cmt>
<desc>Ronquières Chemin n°i14 </desc>
<link href="https://chemins.be/ronquieres/chemin/i14"/><trkseg>
<trkpt lat="50.615470" lon="4.216584"><time>2026-05-03T03:35:19Z</time></trkpt>
<trkpt lat="50.615308" lon="4.216373"><time>2026-05-03T03:45:19Z</time></trkpt>
<trkpt lat="50.615252" lon="4.215186"><time>2026-05-03T03:55:19Z</time></trkpt>
<trkpt lat="50.615260" lon="4.214508"><time>2026-05-03T04:05:19Z</time></trkpt>
<trkpt lat="50.615161" lon="4.213971"><time>2026-05-03T04:15:19Z</time></trkpt>
</trkseg>
</trk>
<trk>
<name>hbcrqi15</name>
<cmt>r</cmt>
<desc>Ronquières Chemin n°i15 </desc>
<link href="https://chemins.be/ronquieres/chemin/i15"/><trkseg>
<trkpt lat="50.609882" lon="4.193898"><time>2026-05-03T03:35:19Z</time></trkpt>
<trkpt lat="50.609092" lon="4.194452"><time>2026-05-03T03:45:19Z</time></trkpt>
</trkseg>
</trk>
<trk>
<name>hbcrqi16</name>
<cmt>v</cmt>
<desc>Ronquières Chemin n°i16 Charly des Bois</desc>
<link href="https://chemins.be/ronquieres/chemin/i16"/><trkseg>
<trkpt lat="50.624392" lon="4.212584"><time>2026-05-03T03:35:19Z</time></trkpt>
<trkpt lat="50.622097" lon="4.210896"><time>2026-05-03T03:45:19Z</time></trkpt>
<trkpt lat="50.621854" lon="4.210854"><time>2026-05-03T03:55:19Z</time></trkpt>
</trkseg>
</trk>
<trk>
<name>hbcrqi17</name>
<cmt>q</cmt>
<desc>Ronquières Chemin n°i17 Charly des Bois</desc>
<link href="https://chemins.be/ronquieres/chemin/i17"/><trkseg>
<trkpt lat="50.617391" lon="4.213802"><time>2026-05-03T03:35:19Z</time></trkpt>
<trkpt lat="50.617260" lon="4.213464"><time>2026-05-03T03:45:19Z</time></trkpt>
<trkpt lat="50.617290" lon="4.213187"><time>2026-05-03T03:55:19Z</time></trkpt>
<trkpt lat="50.617254" lon="4.213018"><time>2026-05-03T04:05:19Z</time></trkpt>
<trkpt lat="50.617128" lon="4.212749"><time>2026-05-03T04:15:19Z</time></trkpt>
<trkpt lat="50.616903" lon="4.212185"><time>2026-05-03T04:25:19Z</time></trkpt>
</trkseg>
</trk>
<trk>
<name>hbcrqi18</name>
<cmt>v</cmt>
<desc>Ronquières Chemin n°i18 </desc>
<link href="https://chemins.be/ronquieres/chemin/i18"/><trkseg>
<trkpt lat="50.609627" lon="4.203661"><time>2026-05-03T03:35:19Z</time></trkpt>
<trkpt lat="50.609744" lon="4.203958"><time>2026-05-03T03:45:19Z</time></trkpt>
<trkpt lat="50.610248" lon="4.204451"><time>2026-05-03T03:55:19Z</time></trkpt>
</trkseg>
</trk>
<trk>
<name>hbcrqi19</name>
<cmt>q</cmt>
<desc>Ronquières Chemin n°i19 </desc>
<link href="https://chemins.be/ronquieres/chemin/i19"/><trkseg>
<trkpt lat="50.613029" lon="4.200414"><time>2026-05-03T03:35:19Z</time></trkpt>
<trkpt lat="50.613550" lon="4.200087"><time>2026-05-03T03:45:19Z</time></trkpt>
<trkpt lat="50.613666" lon="4.199366"><time>2026-05-03T03:55:19Z</time></trkpt>
<trkpt lat="50.614008" lon="4.199097"><time>2026-05-03T04:05:19Z</time></trkpt>
<trkpt lat="50.614214" lon="4.199082"><time>2026-05-03T04:15:19Z</time></trkpt>
<trkpt lat="50.614421" lon="4.199349"><time>2026-05-03T04:25:19Z</time></trkpt>
<trkpt lat="50.614682" lon="4.199264"><time>2026-05-03T04:35:19Z</time></trkpt>
<trkpt lat="50.614753" lon="4.198910"><time>2026-05-03T04:45:19Z</time></trkpt>
<trkpt lat="50.614681" lon="4.198585"><time>2026-05-03T04:55:19Z</time></trkpt>
<trkpt lat="50.615299" lon="4.197241"><time>2026-05-03T05:05:19Z</time></trkpt>
</trkseg>
</trk>
<trk>
<name>hbcrqi2</name>
<cmt>b</cmt>
<desc>Ronquières Chemin n°i2 </desc>
<link href="https://chemins.be/ronquieres/chemin/i2"/><trkseg>
<trkpt lat="50.604182" lon="4.212326"><time>2026-05-03T03:35:19Z</time></trkpt>
<trkpt lat="50.603921" lon="4.212256"><time>2026-05-03T03:45:19Z</time></trkpt>
</trkseg>
</trk>
<trk>
<name>hbcrqi20</name>
<cmt>v</cmt>
<desc>Ronquières Chemin n°i20 Digue du Canal Bief Ecluse n° 27</desc>
<link href="https://chemins.be/ronquieres/chemin/i20"/><trkseg>
<trkpt lat="50.601006" lon="4.231943"><time>2026-05-03T03:35:19Z</time></trkpt>
<trkpt lat="50.601095" lon="4.230869"><time>2026-05-03T03:45:19Z</time></trkpt>
<trkpt lat="50.601471" lon="4.229836"><time>2026-05-03T03:55:19Z</time></trkpt>
</trkseg>
</trk>
<trk>
<name>hbcrqi21</name>
<cmt>v</cmt>
<desc>Ronquières Sentier n°i21 Sentier des Fées</desc>
<link href="https://chemins.be/ronquieres/sentier/i21"/><trkseg>
<trkpt lat="50.609520" lon="4.192232"><time>2026-05-03T03:35:19Z</time></trkpt>
<trkpt lat="50.609582" lon="4.191695"><time>2026-05-03T03:45:19Z</time></trkpt>
<trkpt lat="50.609708" lon="4.191398"><time>2026-05-03T03:55:19Z</time></trkpt>
<trkpt lat="50.610545" lon="4.190342"><time>2026-05-03T04:05:19Z</time></trkpt>
</trkseg>
</trk>
<trk>
<name>hbcrqi22</name>
<cmt>v</cmt>
<desc>Ronquières Sentier n°i22 </desc>
<link href="https://chemins.be/ronquieres/sentier/i22"/><trkseg>
<trkpt lat="50.623470" lon="4.226481"><time>2026-05-03T03:35:19Z</time></trkpt>
<trkpt lat="50.624099" lon="4.226524"><time>2026-05-03T03:45:19Z</time></trkpt>
<trkpt lat="50.624475" lon="4.226309"><time>2026-05-03T03:55:19Z</time></trkpt>
</trkseg>
</trk>
<trk>
<name>hbcrqi23</name>
<cmt>v</cmt>
<desc>Ronquières Chemin n°i23 </desc>
<link href="https://chemins.be/ronquieres/chemin/i23"/><trkseg>
<trkpt lat="50.583429" lon="4.220491"><time>2026-05-03T03:35:19Z</time></trkpt>
<trkpt lat="50.583227" lon="4.222899"><time>2026-05-03T03:45:19Z</time></trkpt>
</trkseg>
</trk>
<trk>
<name>hbcrqi24</name>
<cmt>v</cmt>
<desc>Ronquières Chemin n°i24 Rue Godart</desc>
<link href="https://chemins.be/ronquieres/chemin/i24"/><trkseg>
<trkpt lat="50.609373" lon="4.225493"><time>2026-05-03T03:35:19Z</time></trkpt>
<trkpt lat="50.609285" lon="4.225600"><time>2026-05-03T03:45:19Z</time></trkpt>
<trkpt lat="50.607753" lon="4.225391"><time>2026-05-03T03:55:19Z</time></trkpt>
</trkseg>
</trk>
<trk>
<name>hbcrqi3</name>
<cmt>r</cmt>
<desc>Ronquières Chemin n°i3 Rue Gueulot</desc>
<link href="https://chemins.be/ronquieres/chemin/i3"/><trkseg>
<trkpt lat="50.605995" lon="4.210596"><time>2026-05-03T03:35:19Z</time></trkpt>
<trkpt lat="50.605681" lon="4.210527"><time>2026-05-03T03:45:19Z</time></trkpt>
<trkpt lat="50.605141" lon="4.210175"><time>2026-05-03T03:55:19Z</time></trkpt>
<trkpt lat="50.604682" lon="4.209866"><time>2026-05-03T04:05:19Z</time></trkpt>
<trkpt lat="50.604493" lon="4.210050"><time>2026-05-03T04:15:19Z</time></trkpt>
</trkseg>
</trk>
<trk>
<name>hbcrqi4</name>
<cmt>v</cmt>
<desc>Ronquières Sentier n°i4 </desc>
<link href="https://chemins.be/ronquieres/sentier/i4"/><trkseg>
<trkpt lat="50.606065" lon="4.222449"><time>2026-05-03T03:35:19Z</time></trkpt>
<trkpt lat="50.604554" lon="4.221860"><time>2026-05-03T03:45:19Z</time></trkpt>
<trkpt lat="50.602953" lon="4.221752"><time>2026-05-03T03:55:19Z</time></trkpt>
<trkpt lat="50.601128" lon="4.221405"><time>2026-05-03T04:05:19Z</time></trkpt>
<trkpt lat="50.599438" lon="4.221198"><time>2026-05-03T04:15:19Z</time></trkpt>
<trkpt lat="50.597099" lon="4.220527"><time>2026-05-03T04:25:19Z</time></trkpt>
<trkpt lat="50.594447" lon="4.220112"><time>2026-05-03T04:35:19Z</time></trkpt>
<trkpt lat="50.594285" lon="4.220296"><time>2026-05-03T04:45:19Z</time></trkpt>
<trkpt lat="50.591893" lon="4.219724"><time>2026-05-03T04:55:19Z</time></trkpt>
</trkseg>
</trk>
<trk>
<name>hbcrqi5</name>
<cmt>v</cmt>
<desc>Ronquières Sentier n°i5 </desc>
<link href="https://chemins.be/ronquieres/sentier/i5"/><trkseg>
<trkpt lat="50.606135" lon="4.222537"><time>2026-05-03T03:35:19Z</time></trkpt>
<trkpt lat="50.606271" lon="4.222637"><time>2026-05-03T03:45:19Z</time></trkpt>
<trkpt lat="50.606280" lon="4.222866"><time>2026-05-03T03:55:19Z</time></trkpt>
<trkpt lat="50.606185" lon="4.222870"><time>2026-05-03T04:05:19Z</time></trkpt>
<trkpt lat="50.606093" lon="4.223212"><time>2026-05-03T04:15:19Z</time></trkpt>
</trkseg>
</trk>
<trk>
<name>hbcrqi6</name>
<cmt>v</cmt>
<desc>Ronquières Sentier n°i6 </desc>
<link href="https://chemins.be/ronquieres/sentier/i6"/><trkseg>
<trkpt lat="50.598787" lon="4.205295"><time>2026-05-03T03:35:19Z</time></trkpt>
<trkpt lat="50.598948" lon="4.204673"><time>2026-05-03T03:45:19Z</time></trkpt>
<trkpt lat="50.598930" lon="4.204363"><time>2026-05-03T03:55:19Z</time></trkpt>
</trkseg>
</trk>
<trk>
<name>hbcrqi7</name>
<cmt>v</cmt>
<desc>Ronquières Sentier n°i7 </desc>
<link href="https://chemins.be/ronquieres/sentier/i7"/><trkseg>
<trkpt lat="50.599089" lon="4.205737"><time>2026-05-03T03:35:19Z</time></trkpt>
<trkpt lat="50.599029" lon="4.206011"><time>2026-05-03T03:45:19Z</time></trkpt>
<trkpt lat="50.598899" lon="4.206165"><time>2026-05-03T03:55:19Z</time></trkpt>
</trkseg>
</trk>
<trk>
<name>hbcrqi8</name>
<cmt>s</cmt>
<desc>Ronquières Chemin n°i8 </desc>
<link href="https://chemins.be/ronquieres/chemin/i8"/><trkseg>
<trkpt lat="50.608761" lon="4.214967"><time>2026-05-03T03:35:19Z</time></trkpt>
<trkpt lat="50.607844" lon="4.214730"><time>2026-05-03T03:45:19Z</time></trkpt>
<trkpt lat="50.607610" lon="4.214208"><time>2026-05-03T03:55:19Z</time></trkpt>
<trkpt lat="50.606962" lon="4.213673"><time>2026-05-03T04:05:19Z</time></trkpt>
<trkpt lat="50.606683" lon="4.213533"><time>2026-05-03T04:15:19Z</time></trkpt>
</trkseg>
</trk>
<trk>
<name>hbcrqi9</name>
<cmt>s</cmt>
<desc>Ronquières Chemin n°i9 </desc>
<link href="https://chemins.be/ronquieres/chemin/i9"/><trkseg>
<trkpt lat="50.601989" lon="4.234920"><time>2026-05-03T03:35:19Z</time></trkpt>
<trkpt lat="50.602052" lon="4.235061"><time>2026-05-03T03:45:19Z</time></trkpt>
<trkpt lat="50.603357" lon="4.235750"><time>2026-05-03T03:55:19Z</time></trkpt>
<trkpt lat="50.603698" lon="4.235664"><time>2026-05-03T04:05:19Z</time></trkpt>
<trkpt lat="50.604832" lon="4.236947"><time>2026-05-03T04:15:19Z</time></trkpt>
<trkpt lat="50.604968" lon="4.237455"><time>2026-05-03T04:25:19Z</time></trkpt>
</trkseg>
</trk>
<trk>
<name>hbcrqL106</name>
<cmt>d</cmt>
<desc>Ronquières Chemin n°L106 Rue St Laurent / Rue Pied d'Eau / RAVeL 3bis / RAVeL L106</desc>
<link href="https://chemins.be/ronquieres/chemin/L106"/><trkseg>
<trkpt lat="50.624329" lon="4.226887"><time>2026-05-03T03:35:19Z</time></trkpt>
<trkpt lat="50.623439" lon="4.226550"><time>2026-05-03T03:45:19Z</time></trkpt>
<trkpt lat="50.622164" lon="4.225912"><time>2026-05-03T03:55:19Z</time></trkpt>
</trkseg></trk>
<trk>
<name>hbcrqL106</name>
<cmt>v</cmt>
<desc>Ronquières Chemin n°L106 Rue St Laurent / Rue Pied d'Eau / RAVeL 3bis / RAVeL L106</desc>
<link href="https://chemins.be/ronquieres/chemin/L106"/><trkseg>
<trkpt lat="50.622164" lon="4.225912"><time>2026-05-03T03:55:19Z</time></trkpt>
<trkpt lat="50.620920" lon="4.225201"><time>2026-05-03T04:05:19Z</time></trkpt>
<trkpt lat="50.619742" lon="4.224738"><time>2026-05-03T04:15:19Z</time></trkpt>
<trkpt lat="50.618339" lon="4.224827"><time>2026-05-03T04:25:19Z</time></trkpt>
</trkseg></trk>
<trk>
<name>hbcrqL106</name>
<cmt>q</cmt>
<desc>Ronquières Chemin n°L106 Rue St Laurent / Rue Pied d'Eau / RAVeL 3bis / RAVeL L106</desc>
<link href="https://chemins.be/ronquieres/chemin/L106"/><trkseg>
<trkpt lat="50.618339" lon="4.224827"><time>2026-05-03T04:25:19Z</time></trkpt>
<trkpt lat="50.617398" lon="4.225156"><time>2026-05-03T04:35:19Z</time></trkpt>
</trkseg></trk>
<trk>
<name>hbcrqL106</name>
<cmt>v</cmt>
<desc>Ronquières Chemin n°L106 Rue St Laurent / Rue Pied d'Eau / RAVeL 3bis / RAVeL L106</desc>
<link href="https://chemins.be/ronquieres/chemin/L106"/><trkseg>
<trkpt lat="50.617398" lon="4.225156"><time>2026-05-03T04:35:19Z</time></trkpt>
<trkpt lat="50.616748" lon="4.225115"><time>2026-05-03T04:45:19Z</time></trkpt>
<trkpt lat="50.615390" lon="4.224808"><time>2026-05-03T04:55:19Z</time></trkpt>
<trkpt lat="50.613236" lon="4.224375"><time>2026-05-03T05:05:19Z</time></trkpt>
<trkpt lat="50.612207" lon="4.224168"><time>2026-05-03T05:15:19Z</time></trkpt>
<trkpt lat="50.610229" lon="4.223764"><time>2026-05-03T05:25:19Z</time></trkpt>
<trkpt lat="50.609402" lon="4.223569"><time>2026-05-03T05:35:19Z</time></trkpt>
<trkpt lat="50.608538" lon="4.223049"><time>2026-05-03T05:45:19Z</time></trkpt>
<trkpt lat="50.608070" lon="4.222654"><time>2026-05-03T05:55:19Z</time></trkpt>
<trkpt lat="50.607513" lon="4.221803"><time>2026-05-03T06:05:19Z</time></trkpt>
<trkpt lat="50.606893" lon="4.220287"><time>2026-05-03T06:15:19Z</time></trkpt>
<trkpt lat="50.606835" lon="4.219805"><time>2026-05-03T06:25:19Z</time></trkpt>
<trkpt lat="50.606473" lon="4.217983"><time>2026-05-03T06:35:19Z</time></trkpt>
<trkpt lat="50.606111" lon="4.216374"><time>2026-05-03T06:45:19Z</time></trkpt>
<trkpt lat="50.605984" lon="4.215809"><time>2026-05-03T06:55:19Z</time></trkpt>
<trkpt lat="50.605722" lon="4.214722"><time>2026-05-03T07:05:19Z</time></trkpt>
<trkpt lat="50.605352" lon="4.213678"><time>2026-05-03T07:15:19Z</time></trkpt>
<trkpt lat="50.604218" lon="4.212199"><time>2026-05-03T07:25:19Z</time></trkpt>
<trkpt lat="50.602300" lon="4.210044"><time>2026-05-03T07:35:19Z</time></trkpt>
<trkpt lat="50.600319" lon="4.207705"><time>2026-05-03T07:45:19Z</time></trkpt>
<trkpt lat="50.598998" lon="4.206259"><time>2026-05-03T07:55:19Z</time></trkpt>
<trkpt lat="50.597167" lon="4.204086"><time>2026-05-03T08:05:19Z</time></trkpt>
<trkpt lat="50.594430" lon="4.201003"><time>2026-05-03T08:15:19Z</time></trkpt>
</trkseg>
</trk>
<trk>
<name>hbcrqp1</name>
<cmt>s</cmt>
<desc>Ronquières Chemin particulier n°p1 </desc>
<link href="https://chemins.be/ronquieres/chemin/p1"/><trkseg>
<trkpt lat="50.603015" lon="4.244000"><time>2026-05-03T03:35:19Z</time></trkpt>
<trkpt lat="50.601461" lon="4.245007"><time>2026-05-03T03:45:19Z</time></trkpt>
</trkseg>
</trk>
<trk>
<name>hbcsk100</name>
<cmt>q</cmt>
<desc>Steenkerque Sentier n°100 </desc>
<link href="https://chemins.be/steenkerque/sentier/100"/><trkseg>
<trkpt lat="50.648065" lon="4.079657"><time>2026-05-03T03:35:19Z</time></trkpt>
<trkpt lat="50.648035" lon="4.081708"><time>2026-05-03T03:45:19Z</time></trkpt>
<trkpt lat="50.648868" lon="4.083532"><time>2026-05-03T03:55:19Z</time></trkpt>
<trkpt lat="50.648952" lon="4.084858"><time>2026-05-03T04:05:19Z</time></trkpt>
<trkpt lat="50.648501" lon="4.087206"><time>2026-05-03T04:15:19Z</time></trkpt>
</trkseg>
</trk>
<trk>
<name>hbcsk101</name>
<cmt>q</cmt>
<desc>Steenkerque Sentier n°101 </desc>
<link href="https://chemins.be/steenkerque/sentier/101"/><trkseg>
<trkpt lat="50.646722" lon="4.085568"><time>2026-05-03T03:35:19Z</time></trkpt>
<trkpt lat="50.645885" lon="4.083433"><time>2026-05-03T03:45:19Z</time></trkpt>
<trkpt lat="50.644981" lon="4.081973"><time>2026-05-03T03:55:19Z</time></trkpt>
</trkseg>
</trk>
<trk>
<name>hbcsk102</name>
<cmt>q</cmt>
<desc>Steenkerque Sentier n°102 Rue Hameau de Mer / Rue de Launois</desc>
<link href="https://chemins.be/steenkerque/sentier/102"/><trkseg>
<trkpt lat="50.646590" lon="4.086562"><time>2026-05-03T03:35:19Z</time></trkpt>
<trkpt lat="50.646144" lon="4.086519"><time>2026-05-03T03:45:19Z</time></trkpt>
<trkpt lat="50.645752" lon="4.086820"><time>2026-05-03T03:55:19Z</time></trkpt>
<trkpt lat="50.645355" lon="4.087717"><time>2026-05-03T04:05:19Z</time></trkpt>
<trkpt lat="50.644065" lon="4.087723"><time>2026-05-03T04:15:19Z</time></trkpt>
</trkseg></trk>
<trk>
<name>hbcsk102</name>
<cmt>r</cmt>
<desc>Steenkerque Sentier n°102 Rue Hameau de Mer / Rue de Launois</desc>
<link href="https://chemins.be/steenkerque/sentier/102"/><trkseg>
<trkpt lat="50.644065" lon="4.087723"><time>2026-05-03T04:15:19Z</time></trkpt>
<trkpt lat="50.643908" lon="4.088219"><time>2026-05-03T04:25:19Z</time></trkpt>
<trkpt lat="50.643361" lon="4.088463"><time>2026-05-03T04:35:19Z</time></trkpt>
</trkseg></trk>
<trk>
<name>hbcsk102</name>
<cmt>v</cmt>
<desc>Steenkerque Sentier n°102 Rue Hameau de Mer / Rue de Launois</desc>
<link href="https://chemins.be/steenkerque/sentier/102"/><trkseg>
<trkpt lat="50.643361" lon="4.088463"><time>2026-05-03T04:35:19Z</time></trkpt>
<trkpt lat="50.642758" lon="4.089231"><time>2026-05-03T04:45:19Z</time></trkpt>
</trkseg></trk>
<trk>
<name>hbcsk102</name>
<cmt>q</cmt>
<desc>Steenkerque Sentier n°102 Rue Hameau de Mer / Rue de Launois</desc>
<link href="https://chemins.be/steenkerque/sentier/102"/><trkseg>
<trkpt lat="50.642758" lon="4.089231"><time>2026-05-03T04:45:19Z</time></trkpt>
<trkpt lat="50.640886" lon="4.090605"><time>2026-05-03T04:55:19Z</time></trkpt>
<trkpt lat="50.640722" lon="4.091103"><time>2026-05-03T05:05:19Z</time></trkpt>
<trkpt lat="50.635952" lon="4.093180"><time>2026-05-03T05:15:19Z</time></trkpt>
</trkseg>
</trk>
<trk>
<name>hbcsk103</name>
<cmt>q</cmt>
<desc>Steenkerque Sentier n°103 </desc>
<link href="https://chemins.be/steenkerque/sentier/103"/><trkseg>
<trkpt lat="50.643869" lon="4.088335"><time>2026-05-03T03:35:19Z</time></trkpt>
<trkpt lat="50.643202" lon="4.089807"><time>2026-05-03T03:45:19Z</time></trkpt>
<trkpt lat="50.643150" lon="4.091188"><time>2026-05-03T03:55:19Z</time></trkpt>
<trkpt lat="50.641865" lon="4.091927"><time>2026-05-03T04:05:19Z</time></trkpt>
<trkpt lat="50.639514" lon="4.098347"><time>2026-05-03T04:15:19Z</time></trkpt>
<trkpt lat="50.638578" lon="4.099222"><time>2026-05-03T04:25:19Z</time></trkpt>
</trkseg>
</trk>
<trk>
<name>hbcsk104</name>
<cmt>q</cmt>
<desc>Steenkerque Sentier n°104 </desc>
<link href="https://chemins.be/steenkerque/sentier/104"/><trkseg>
<trkpt lat="50.644673" lon="4.084283"><time>2026-05-03T03:35:19Z</time></trkpt>
<trkpt lat="50.643241" lon="4.086107"><time>2026-05-03T03:45:19Z</time></trkpt>
</trkseg>
</trk>
<trk>
<name>hbcsk105</name>
<cmt>q</cmt>
<desc>Steenkerque Sentier n°105 </desc>
<link href="https://chemins.be/steenkerque/sentier/105"/><trkseg>
<trkpt lat="50.644691" lon="4.084263"><time>2026-05-03T03:35:19Z</time></trkpt>
<trkpt lat="50.645347" lon="4.085164"><time>2026-05-03T03:45:19Z</time></trkpt>
</trkseg>
</trk>
<trk>
<name>hbcsk106</name>
<cmt>q</cmt>
<desc>Steenkerque Sentier n°106 Rue Hameau de Mer</desc>
<link href="https://chemins.be/steenkerque/sentier/106"/><trkseg>
<trkpt lat="50.643817" lon="4.088238"><time>2026-05-03T03:35:19Z</time></trkpt>
<trkpt lat="50.643418" lon="4.087654"><time>2026-05-03T03:45:19Z</time></trkpt>
</trkseg>
</trk>
<trk>
<name>hbcsk108</name>
<cmt>q</cmt>
<desc>Steenkerque Sentier n°108 </desc>
<link href="https://chemins.be/steenkerque/sentier/108"/><trkseg>
<trkpt lat="50.650960" lon="4.080310"><time>2026-05-03T03:35:19Z</time></trkpt>
<trkpt lat="50.649573" lon="4.079302"><time>2026-05-03T03:45:19Z</time></trkpt>
<trkpt lat="50.649513" lon="4.078779"><time>2026-05-03T03:55:19Z</time></trkpt>
<trkpt lat="50.648695" lon="4.076738"><time>2026-05-03T04:05:19Z</time></trkpt>
</trkseg>
</trk>
<trk>
<name>hbcsk109</name>
<cmt>q</cmt>
<desc>Steenkerque Sentier n°109 Rue du Bucq</desc>
<link href="https://chemins.be/steenkerque/sentier/109"/><trkseg>
<trkpt lat="50.650830" lon="4.077856"><time>2026-05-03T03:35:19Z</time></trkpt>
<trkpt lat="50.650928" lon="4.080238"><time>2026-05-03T03:45:19Z</time></trkpt>
<trkpt lat="50.651782" lon="4.082502"><time>2026-05-03T03:55:19Z</time></trkpt>
<trkpt lat="50.651976" lon="4.083585"><time>2026-05-03T04:05:19Z</time></trkpt>
</trkseg>
</trk>
<trk>
<name>hbcsk112</name>
<cmt>q</cmt>
<desc>Steenkerque Sentier n°112 Rue des Prés</desc>
<link href="https://chemins.be/steenkerque/sentier/112"/><trkseg>
<trkpt lat="50.658735" lon="4.096460"><time>2026-05-03T03:35:19Z</time></trkpt>
<trkpt lat="50.659061" lon="4.095044"><time>2026-05-03T03:45:19Z</time></trkpt>
</trkseg>
</trk>
<trk>
<name>hbcsk113</name>
<cmt>q</cmt>
<desc>Steenkerque Sentier n°113 Rue des Prés</desc>
<link href="https://chemins.be/steenkerque/sentier/113"/><trkseg>
<trkpt lat="50.658808" lon="4.096567"><time>2026-05-03T03:35:19Z</time></trkpt>
<trkpt lat="50.659758" lon="4.096692"><time>2026-05-03T03:45:19Z</time></trkpt>
</trkseg>
</trk>
<trk>
<name>hbcsk114</name>
<cmt>q</cmt>
<desc>Steenkerque Sentier n°114 Rue d'Horlebecq</desc>
<link href="https://chemins.be/steenkerque/sentier/114"/><trkseg>
<trkpt lat="50.642634" lon="4.048548"><time>2026-05-03T03:35:19Z</time></trkpt>
<trkpt lat="50.642824" lon="4.047460"><time>2026-05-03T03:45:19Z</time></trkpt>
<trkpt lat="50.643168" lon="4.046737"><time>2026-05-03T03:55:19Z</time></trkpt>
<trkpt lat="50.643015" lon="4.046129"><time>2026-05-03T04:05:19Z</time></trkpt>
</trkseg>
</trk>
<trk>
<name>hbcsk115</name>
<cmt>q</cmt>
<desc>Steenkerque Sentier n°115 </desc>
<link href="https://chemins.be/steenkerque/sentier/115"/><trkseg>
<trkpt lat="50.650852" lon="4.080536"><time>2026-05-03T03:35:19Z</time></trkpt>
<trkpt lat="50.650654" lon="4.082049"><time>2026-05-03T03:45:19Z</time></trkpt>
</trkseg>
</trk>
<trk>
<name>hbcsk116</name>
<cmt>q</cmt>
<desc>Steenkerque Sentier n°116 </desc>
<link href="https://chemins.be/steenkerque/sentier/116"/><trkseg>
<trkpt lat="50.630323" lon="4.036374"><time>2026-05-03T03:35:19Z</time></trkpt>
<trkpt lat="50.630137" lon="4.037046"><time>2026-05-03T03:45:19Z</time></trkpt>
</trkseg>
</trk>
<trk>
<name>hbcsk121</name>
<cmt>q</cmt>
<desc>Steenkerque Sentier n°121 Rue de Beaussart</desc>
<link href="https://chemins.be/steenkerque/sentier/121"/><trkseg>
<trkpt lat="50.645315" lon="4.064637"><time>2026-05-03T03:35:19Z</time></trkpt>
<trkpt lat="50.645495" lon="4.064189"><time>2026-05-03T03:45:19Z</time></trkpt>
<trkpt lat="50.645806" lon="4.063795"><time>2026-05-03T03:55:19Z</time></trkpt>
</trkseg>
</trk>
<trk>
<name>hbcsk122</name>
<cmt>q</cmt>
<desc>Steenkerque Sentier n°122 Rue Hameau de Mer</desc>
<link href="https://chemins.be/steenkerque/sentier/122"/><trkseg>
<trkpt lat="50.643240" lon="4.086028"><time>2026-05-03T03:35:19Z</time></trkpt>
<trkpt lat="50.642886" lon="4.085354"><time>2026-05-03T03:45:19Z</time></trkpt>
</trkseg>
</trk>
<trk>
<name>hbcsk124</name>
<cmt>q</cmt>
<desc>Steenkerque Sentier n°124 </desc>
<link href="https://chemins.be/steenkerque/sentier/124"/><trkseg>
<trkpt lat="50.650063" lon="4.078465"><time>2026-05-03T03:35:19Z</time></trkpt>
<trkpt lat="50.649614" lon="4.079313"><time>2026-05-03T03:45:19Z</time></trkpt>
</trkseg>
</trk>
<trk>
<name>hbcsk125</name>
<cmt>q</cmt>
<desc>Steenkerque Sentier n°125 </desc>
<link href="https://chemins.be/steenkerque/sentier/125"/><trkseg>
<trkpt lat="50.650125" lon="4.088603"><time>2026-05-03T03:35:19Z</time></trkpt>
<trkpt lat="50.650139" lon="4.085830"><time>2026-05-03T03:45:19Z</time></trkpt>
</trkseg>
</trk>
<trk>
<name>hbcsk126</name>
<cmt>q</cmt>
<desc>Steenkerque Sentier n°126 Rue Maréchal de Luxembourg</desc>
<link href="https://chemins.be/steenkerque/sentier/126"/><trkseg>
<trkpt lat="50.642476" lon="4.066066"><time>2026-05-03T03:35:19Z</time></trkpt>
<trkpt lat="50.641705" lon="4.064911"><time>2026-05-03T03:45:19Z</time></trkpt>
</trkseg>
</trk>
<trk>
<name>hbcsk128</name>
<cmt>q</cmt>
<desc>Steenkerque Sentier n°128 </desc>
<link href="https://chemins.be/steenkerque/sentier/128"/><trkseg>
<trkpt lat="50.630892" lon="4.067420"><time>2026-05-03T03:35:19Z</time></trkpt>
<trkpt lat="50.631654" lon="4.068750"><time>2026-05-03T03:45:19Z</time></trkpt>
<trkpt lat="50.631818" lon="4.069930"><time>2026-05-03T03:55:19Z</time></trkpt>
<trkpt lat="50.632539" lon="4.071325"><time>2026-05-03T04:05:19Z</time></trkpt>
<trkpt lat="50.633043" lon="4.073664"><time>2026-05-03T04:15:19Z</time></trkpt>
</trkseg>
</trk>
<trk>
<name>hbcsk129</name>
<cmt>q</cmt>
<desc>Steenkerque Sentier n°129 </desc>
<link href="https://chemins.be/steenkerque/sentier/129"/><trkseg>
<trkpt lat="50.629610" lon="4.058882"><time>2026-05-03T03:35:19Z</time></trkpt>
<trkpt lat="50.627813" lon="4.057569"><time>2026-05-03T03:45:19Z</time></trkpt>
</trkseg>
</trk>
<trk>
<name>hbcsk17</name>
<cmt>s</cmt>
<desc>Steenkerque Chemin n°17 </desc>
<link href="https://chemins.be/steenkerque/chemin/17"/><trkseg>
<trkpt lat="50.643429" lon="4.045166"><time>2026-05-03T03:35:19Z</time></trkpt>
<trkpt lat="50.643236" lon="4.045544"><time>2026-05-03T03:45:19Z</time></trkpt>
<trkpt lat="50.643141" lon="4.045956"><time>2026-05-03T03:55:19Z</time></trkpt>
</trkseg>
</trk>
<trk>
<name>hbcsk2</name>
<cmt>q</cmt>
<desc>Steenkerque Chemin n°2 </desc>
<link href="https://chemins.be/steenkerque/chemin/2"/><trkseg>
<trkpt lat="50.658583" lon="4.096597"><time>2026-05-03T03:35:19Z</time></trkpt>
<trkpt lat="50.658311" lon="4.098821"><time>2026-05-03T03:45:19Z</time></trkpt>
</trkseg>
</trk>
<trk>
<name>hbcsk21</name>
<cmt>v</cmt>
<desc>Steenkerque Chemin n°21 Rue de Launois</desc>
<link href="https://chemins.be/steenkerque/chemin/21"/><trkseg>
<trkpt lat="50.643381" lon="4.088430"><time>2026-05-03T03:35:19Z</time></trkpt>
<trkpt lat="50.643345" lon="4.088501"><time>2026-05-03T03:45:19Z</time></trkpt>
<trkpt lat="50.642879" lon="4.089126"><time>2026-05-03T03:55:19Z</time></trkpt>
<trkpt lat="50.642799" lon="4.089324"><time>2026-05-03T04:05:19Z</time></trkpt>
<trkpt lat="50.642790" lon="4.089551"><time>2026-05-03T04:15:19Z</time></trkpt>
<trkpt lat="50.642809" lon="4.089692"><time>2026-05-03T04:25:19Z</time></trkpt>
<trkpt lat="50.643090" lon="4.090737"><time>2026-05-03T04:35:19Z</time></trkpt>
<trkpt lat="50.643163" lon="4.091189"><time>2026-05-03T04:45:19Z</time></trkpt>
<trkpt lat="50.643470" lon="4.091795"><time>2026-05-03T04:55:19Z</time></trkpt>
<trkpt lat="50.643533" lon="4.091950"><time>2026-05-03T05:05:19Z</time></trkpt>
<trkpt lat="50.643570" lon="4.092063"><time>2026-05-03T05:15:19Z</time></trkpt>
<trkpt lat="50.643606" lon="4.092317"><time>2026-05-03T05:25:19Z</time></trkpt>
<trkpt lat="50.643661" lon="4.092529"><time>2026-05-03T05:35:19Z</time></trkpt>
</trkseg>
</trk>
<trk>
<name>hbcsk23</name>
<cmt>v</cmt>
<desc>Steenkerque Chemin n°23 </desc>
<link href="https://chemins.be/steenkerque/chemin/23"/><trkseg>
<trkpt lat="50.650692" lon="4.082185"><time>2026-05-03T03:35:19Z</time></trkpt>
<trkpt lat="50.650442" lon="4.084560"><time>2026-05-03T03:45:19Z</time></trkpt>
<trkpt lat="50.650337" lon="4.084835"><time>2026-05-03T03:55:19Z</time></trkpt>
</trkseg></trk>
<trk>
<name>hbcsk23</name>
<cmt>d</cmt>
<desc>Steenkerque Chemin n°23 </desc>
<link href="https://chemins.be/steenkerque/chemin/23"/><trkseg>
<trkpt lat="50.650337" lon="4.084835"><time>2026-05-03T03:55:19Z</time></trkpt>
<trkpt lat="50.650115" lon="4.085807"><time>2026-05-03T04:05:19Z</time></trkpt>
<trkpt lat="50.649059" lon="4.087069"><time>2026-05-03T04:15:19Z</time></trkpt>
<trkpt lat="50.648665" lon="4.088311"><time>2026-05-03T04:25:19Z</time></trkpt>
</trkseg>
</trk>
<trk>
<name>hbcsk25</name>
<cmt>v</cmt>
<desc>Steenkerque Chemin n°25 </desc>
<link href="https://chemins.be/steenkerque/chemin/25"/><trkseg>
<trkpt lat="50.642664" lon="4.070070"><time>2026-05-03T03:35:19Z</time></trkpt>
<trkpt lat="50.642592" lon="4.069597"><time>2026-05-03T03:45:19Z</time></trkpt>
</trkseg>
</trk>
<trk>
<name>hbcsk26</name>
<cmt>r</cmt>
<desc>Steenkerque Chemin n°26 Rue du Bucq</desc>
<link href="https://chemins.be/steenkerque/chemin/26"/><trkseg>
<trkpt lat="50.650119" lon="4.078377"><time>2026-05-03T03:35:19Z</time></trkpt>
<trkpt lat="50.648483" lon="4.079567"><time>2026-05-03T03:45:19Z</time></trkpt>
<trkpt lat="50.648139" lon="4.079600"><time>2026-05-03T03:55:19Z</time></trkpt>
</trkseg></trk>
<trk>
<name>hbcsk26</name>
<cmt>q</cmt>
<desc>Steenkerque Chemin n°26 Rue du Bucq</desc>
<link href="https://chemins.be/steenkerque/chemin/26"/><trkseg>
<trkpt lat="50.648139" lon="4.079600"><time>2026-05-03T03:55:19Z</time></trkpt>
<trkpt lat="50.647785" lon="4.079893"><time>2026-05-03T04:05:19Z</time></trkpt>
<trkpt lat="50.647469" lon="4.080339"><time>2026-05-03T04:15:19Z</time></trkpt>
</trkseg>
</trk>
<trk>
<name>hbcsk28</name>
<cmt>q</cmt>
<desc>Steenkerque Chemin n°28 </desc>
<link href="https://chemins.be/steenkerque/chemin/28"/><trkseg>
<trkpt lat="50.639226" lon="4.042446"><time>2026-05-03T03:35:19Z</time></trkpt>
<trkpt lat="50.638818" lon="4.042843"><time>2026-05-03T03:45:19Z</time></trkpt>
<trkpt lat="50.637889" lon="4.043787"><time>2026-05-03T03:55:19Z</time></trkpt>
<trkpt lat="50.636035" lon="4.047617"><time>2026-05-03T04:05:19Z</time></trkpt>
</trkseg>
</trk>
<trk>
<name>hbcsk29</name>
<cmt>v</cmt>
<desc>Steenkerque Chemin n°29 </desc>
<link href="https://chemins.be/steenkerque/chemin/29"/><trkseg>
<trkpt lat="50.637168" lon="4.049067"><time>2026-05-03T03:35:19Z</time></trkpt>
<trkpt lat="50.637446" lon="4.048878"><time>2026-05-03T03:45:19Z</time></trkpt>
<trkpt lat="50.638567" lon="4.049080"><time>2026-05-03T03:55:19Z</time></trkpt>
<trkpt lat="50.640236" lon="4.050487"><time>2026-05-03T04:05:19Z</time></trkpt>
<trkpt lat="50.640579" lon="4.051191"><time>2026-05-03T04:15:19Z</time></trkpt>
<trkpt lat="50.641809" lon="4.051123"><time>2026-05-03T04:25:19Z</time></trkpt>
</trkseg>
</trk>
<trk>
<name>hbcsk3</name>
<cmt>s</cmt>
<desc>Steenkerque Chemin n°3 </desc>
<link href="https://chemins.be/steenkerque/chemin/3"/><trkseg>
<trkpt lat="50.661636" lon="4.080473"><time>2026-05-03T03:35:19Z</time></trkpt>
<trkpt lat="50.663096" lon="4.080473"><time>2026-05-03T03:45:19Z</time></trkpt>
</trkseg>
</trk>
<trk>
<name>hbcsk30</name>
<cmt>q</cmt>
<desc>Steenkerque Chemin n°30 </desc>
<link href="https://chemins.be/steenkerque/chemin/30"/><trkseg>
<trkpt lat="50.645369" lon="4.064798"><time>2026-05-03T03:35:19Z</time></trkpt>
<trkpt lat="50.647214" lon="4.063896"><time>2026-05-03T03:45:19Z</time></trkpt>
</trkseg></trk>
<trk>
<name>hbcsk30</name>
<cmt>v</cmt>
<desc>Steenkerque Chemin n°30 </desc>
<link href="https://chemins.be/steenkerque/chemin/30"/><trkseg>
<trkpt lat="50.647214" lon="4.063896"><time>2026-05-03T03:45:19Z</time></trkpt>
<trkpt lat="50.647530" lon="4.063819"><time>2026-05-03T03:55:19Z</time></trkpt>
<trkpt lat="50.648933" lon="4.063436"><time>2026-05-03T04:05:19Z</time></trkpt>
</trkseg></trk>
<trk>
<name>hbcsk30</name>
<cmt>q</cmt>
<desc>Steenkerque Chemin n°30 </desc>
<link href="https://chemins.be/steenkerque/chemin/30"/><trkseg>
<trkpt lat="50.648933" lon="4.063436"><time>2026-05-03T04:05:19Z</time></trkpt>
<trkpt lat="50.649538" lon="4.063107"><time>2026-05-03T04:15:19Z</time></trkpt>
<trkpt lat="50.650648" lon="4.062077"><time>2026-05-03T04:25:19Z</time></trkpt>
</trkseg>
</trk>
<trk>
<name>hbcsk31</name>
<cmt>q</cmt>
<desc>Steenkerque Sentier n°31 </desc>
<link href="https://chemins.be/steenkerque/sentier/31"/><trkseg>
<trkpt lat="50.655540" lon="4.086663"><time>2026-05-03T03:35:19Z</time></trkpt>
<trkpt lat="50.656579" lon="4.087693"><time>2026-05-03T03:45:19Z</time></trkpt>
<trkpt lat="50.657624" lon="4.088440"><time>2026-05-03T03:55:19Z</time></trkpt>
</trkseg>
</trk>
<trk>
<name>hbcsk32</name>
<cmt>q</cmt>
<desc>Steenkerque Sentier n°32 </desc>
<link href="https://chemins.be/steenkerque/sentier/32"/><trkseg>
<trkpt lat="50.642627" lon="4.070166"><time>2026-05-03T03:35:19Z</time></trkpt>
<trkpt lat="50.642862" lon="4.071046"><time>2026-05-03T03:45:19Z</time></trkpt>
<trkpt lat="50.643334" lon="4.071754"><time>2026-05-03T03:55:19Z</time></trkpt>
</trkseg>
</trk>
<trk>
<name>hbcsk33</name>
<cmt>q</cmt>
<desc>Steenkerque Sentier n°33 </desc>
<link href="https://chemins.be/steenkerque/sentier/33"/><trkseg>
<trkpt lat="50.638512" lon="4.061570"><time>2026-05-03T03:35:19Z</time></trkpt>
<trkpt lat="50.639454" lon="4.062568"><time>2026-05-03T03:45:19Z</time></trkpt>
<trkpt lat="50.640244" lon="4.064472"><time>2026-05-03T03:55:19Z</time></trkpt>
<trkpt lat="50.640597" lon="4.065979"><time>2026-05-03T04:05:19Z</time></trkpt>
<trkpt lat="50.641278" lon="4.067449"><time>2026-05-03T04:15:19Z</time></trkpt>
</trkseg>
</trk>
<trk>
<name>hbcsk34</name>
<cmt>q</cmt>
<desc>Steenkerque Sentier n°34 </desc>
<link href="https://chemins.be/steenkerque/sentier/34"/><trkseg>
<trkpt lat="50.641390" lon="4.064409"><time>2026-05-03T03:35:19Z</time></trkpt>
<trkpt lat="50.641603" lon="4.058367"><time>2026-05-03T03:45:19Z</time></trkpt>
</trkseg>
</trk>
<trk>
<name>hbcsk35</name>
<cmt>v</cmt>
<desc>Steenkerque Sentier n°35 Rue Maréchal de Luxembourg</desc>
<link href="https://chemins.be/steenkerque/sentier/35"/><trkseg>
<trkpt lat="50.638524" lon="4.062907"><time>2026-05-03T03:35:19Z</time></trkpt>
<trkpt lat="50.639278" lon="4.062997"><time>2026-05-03T03:45:19Z</time></trkpt>
</trkseg></trk>
<trk>
<name>hbcsk35</name>
<cmt>q</cmt>
<desc>Steenkerque Sentier n°35 Rue Maréchal de Luxembourg</desc>
<link href="https://chemins.be/steenkerque/sentier/35"/><trkseg>
<trkpt lat="50.639278" lon="4.062997"><time>2026-05-03T03:45:19Z</time></trkpt>
<trkpt lat="50.639999" lon="4.061487"><time>2026-05-03T03:55:19Z</time></trkpt>
<trkpt lat="50.639939" lon="4.060727"><time>2026-05-03T04:05:19Z</time></trkpt>
</trkseg>
</trk>
<trk>
<name>hbcsk36</name>
<cmt>q</cmt>
<desc>Steenkerque Sentier n°36 </desc>
<link href="https://chemins.be/steenkerque/sentier/36"/><trkseg>
<trkpt lat="50.639409" lon="4.058066"><time>2026-05-03T03:35:19Z</time></trkpt>
<trkpt lat="50.640117" lon="4.056461"><time>2026-05-03T03:45:19Z</time></trkpt>
<trkpt lat="50.639921" lon="4.055431"><time>2026-05-03T03:55:19Z</time></trkpt>
<trkpt lat="50.639926" lon="4.053878"><time>2026-05-03T04:05:19Z</time></trkpt>
<trkpt lat="50.640334" lon="4.052530"><time>2026-05-03T04:15:19Z</time></trkpt>
<trkpt lat="50.640228" lon="4.050490"><time>2026-05-03T04:25:19Z</time></trkpt>
</trkseg></trk>
<trk>
<name>hbcsk36</name>
<cmt>v</cmt>
<desc>Steenkerque Sentier n°36 </desc>
<link href="https://chemins.be/steenkerque/sentier/36"/><trkseg>
<trkpt lat="50.640228" lon="4.050490"><time>2026-05-03T04:25:19Z</time></trkpt>
<trkpt lat="50.639915" lon="4.050146"><time>2026-05-03T04:35:19Z</time></trkpt>
</trkseg></trk>
<trk>
<name>hbcsk36</name>
<cmt>q</cmt>
<desc>Steenkerque Sentier n°36 </desc>
<link href="https://chemins.be/steenkerque/sentier/36"/><trkseg>
<trkpt lat="50.639915" lon="4.050146"><time>2026-05-03T04:35:19Z</time></trkpt>
<trkpt lat="50.640119" lon="4.047035"><time>2026-05-03T04:45:19Z</time></trkpt>
<trkpt lat="50.639752" lon="4.043323"><time>2026-05-03T04:55:19Z</time></trkpt>
<trkpt lat="50.639276" lon="4.042529"><time>2026-05-03T05:05:19Z</time></trkpt>
</trkseg>
</trk>
<trk>
<name>hbcsk37</name>
<cmt>q</cmt>
<desc>Steenkerque Sentier n°37 </desc>
<link href="https://chemins.be/steenkerque/sentier/37"/><trkseg>
<trkpt lat="50.641126" lon="4.053067"><time>2026-05-03T03:35:19Z</time></trkpt>
<trkpt lat="50.640350" lon="4.052500"><time>2026-05-03T03:45:19Z</time></trkpt>
</trkseg>
</trk>
<trk>
<name>hbcsk38</name>
<cmt>q</cmt>
<desc>Steenkerque Sentier n°38 Rue de l'Hôtel</desc>
<link href="https://chemins.be/steenkerque/sentier/38"/><trkseg>
<trkpt lat="50.638277" lon="4.063265"><time>2026-05-03T03:35:19Z</time></trkpt>
<trkpt lat="50.638359" lon="4.062208"><time>2026-05-03T03:45:19Z</time></trkpt>
</trkseg>
</trk>
<trk>
<name>hbcsk39</name>
<cmt>q</cmt>
<desc>Steenkerque Sentier n°39 </desc>
<link href="https://chemins.be/steenkerque/sentier/39"/><trkseg>
<trkpt lat="50.641261" lon="4.067369"><time>2026-05-03T03:35:19Z</time></trkpt>
<trkpt lat="50.642455" lon="4.066156"><time>2026-05-03T03:45:19Z</time></trkpt>
<trkpt lat="50.645375" lon="4.064732"><time>2026-05-03T03:55:19Z</time></trkpt>
</trkseg>
</trk>
<trk>
<name>hbcsk40</name>
<cmt>v</cmt>
<desc>Steenkerque Sentier n°40 Rue Maréchal de Luxembourg</desc>
<link href="https://chemins.be/steenkerque/sentier/40"/><trkseg>
<trkpt lat="50.642719" lon="4.068262"><time>2026-05-03T03:35:19Z</time></trkpt>
<trkpt lat="50.643164" lon="4.067435"><time>2026-05-03T03:45:19Z</time></trkpt>
</trkseg></trk>
<trk>
<name>hbcsk40</name>
<cmt>r</cmt>
<desc>Steenkerque Sentier n°40 Rue Maréchal de Luxembourg</desc>
<link href="https://chemins.be/steenkerque/sentier/40"/><trkseg>
<trkpt lat="50.643164" lon="4.067435"><time>2026-05-03T03:45:19Z</time></trkpt>
<trkpt lat="50.642946" lon="4.067001"><time>2026-05-03T03:55:19Z</time></trkpt>
</trkseg></trk>
<trk>
<name>hbcsk40</name>
<cmt>q</cmt>
<desc>Steenkerque Sentier n°40 Rue Maréchal de Luxembourg</desc>
<link href="https://chemins.be/steenkerque/sentier/40"/><trkseg>
<trkpt lat="50.642946" lon="4.067001"><time>2026-05-03T03:55:19Z</time></trkpt>
<trkpt lat="50.643428" lon="4.065637"><time>2026-05-03T04:05:19Z</time></trkpt>
</trkseg>
</trk>
<trk>
<name>hbcsk41</name>
<cmt>q</cmt>
<desc>Steenkerque Sentier n°41 </desc>
<link href="https://chemins.be/steenkerque/sentier/41"/><trkseg>
<trkpt lat="50.643663" lon="4.069482"><time>2026-05-03T03:35:19Z</time></trkpt>
<trkpt lat="50.643703" lon="4.069386"><time>2026-05-03T03:45:19Z</time></trkpt>
<trkpt lat="50.643280" lon="4.068468"><time>2026-05-03T03:55:19Z</time></trkpt>
</trkseg>
</trk>
<trk>
<name>hbcsk42</name>
<cmt>v</cmt>
<desc>Steenkerque Sentier n°42 </desc>
<link href="https://chemins.be/steenkerque/sentier/42"/><trkseg>
<trkpt lat="50.643113" lon="4.069503"><time>2026-05-03T03:35:19Z</time></trkpt>
<trkpt lat="50.642907" lon="4.069199"><time>2026-05-03T03:45:19Z</time></trkpt>
</trkseg>
</trk>
<trk>
<name>hbcsk43</name>
<cmt>v</cmt>
<desc>Steenkerque Sentier n°43 </desc>
<link href="https://chemins.be/steenkerque/sentier/43"/><trkseg>
<trkpt lat="50.642076" lon="4.069421"><time>2026-05-03T03:35:19Z</time></trkpt>
<trkpt lat="50.642344" lon="4.068959"><time>2026-05-03T03:45:19Z</time></trkpt>
<trkpt lat="50.642339" lon="4.068715"><time>2026-05-03T03:55:19Z</time></trkpt>
</trkseg>
</trk>
<trk>
<name>hbcsk44</name>
<cmt>q</cmt>
<desc>Steenkerque Sentier n°44 </desc>
<link href="https://chemins.be/steenkerque/sentier/44"/><trkseg>
<trkpt lat="50.643295" lon="4.071752"><time>2026-05-03T03:35:19Z</time></trkpt>
<trkpt lat="50.644519" lon="4.073421"><time>2026-05-03T03:45:19Z</time></trkpt>
<trkpt lat="50.645319" lon="4.073700"><time>2026-05-03T03:55:19Z</time></trkpt>
<trkpt lat="50.645540" lon="4.074245"><time>2026-05-03T04:05:19Z</time></trkpt>
<trkpt lat="50.646631" lon="4.074623"><time>2026-05-03T04:15:19Z</time></trkpt>
</trkseg>
</trk>
<trk>
<name>hbcsk45</name>
<cmt>q</cmt>
<desc>Steenkerque Sentier n°45 </desc>
<link href="https://chemins.be/steenkerque/sentier/45"/><trkseg>
<trkpt lat="50.641812" lon="4.071653"><time>2026-05-03T03:35:19Z</time></trkpt>
<trkpt lat="50.641986" lon="4.071087"><time>2026-05-03T03:45:19Z</time></trkpt>
<trkpt lat="50.642356" lon="4.070314"><time>2026-05-03T03:55:19Z</time></trkpt>
</trkseg>
</trk>
<trk>
<name>hbcsk46</name>
<cmt>q</cmt>
<desc>Steenkerque Sentier n°46 </desc>
<link href="https://chemins.be/steenkerque/sentier/46"/><trkseg>
<trkpt lat="50.642203" lon="4.070696"><time>2026-05-03T03:35:19Z</time></trkpt>
<trkpt lat="50.642070" lon="4.070538"><time>2026-05-03T03:45:19Z</time></trkpt>
<trkpt lat="50.641553" lon="4.070550"><time>2026-05-03T03:55:19Z</time></trkpt>
<trkpt lat="50.640905" lon="4.070572"><time>2026-05-03T04:05:19Z</time></trkpt>
<trkpt lat="50.640140" lon="4.069387"><time>2026-05-03T04:15:19Z</time></trkpt>
<trkpt lat="50.639234" lon="4.068988"><time>2026-05-03T04:25:19Z</time></trkpt>
</trkseg>
</trk>
<trk>
<name>hbcsk47</name>
<cmt>q</cmt>
<desc>Steenkerque Sentier n°47 </desc>
<link href="https://chemins.be/steenkerque/sentier/47"/><trkseg>
<trkpt lat="50.641747" lon="4.071801"><time>2026-05-03T03:35:19Z</time></trkpt>
<trkpt lat="50.640910" lon="4.070583"><time>2026-05-03T03:45:19Z</time></trkpt>
</trkseg>
</trk>
<trk>
<name>hbcsk48</name>
<cmt>q</cmt>
<desc>Steenkerque Sentier n°48 Rue du Couplet / Rue de l'Horruette</desc>
<link href="https://chemins.be/steenkerque/sentier/48"/><trkseg>
<trkpt lat="50.640177" lon="4.067361"><time>2026-05-03T03:35:19Z</time></trkpt>
<trkpt lat="50.639157" lon="4.066717"><time>2026-05-03T03:45:19Z</time></trkpt>
<trkpt lat="50.638633" lon="4.064893"><time>2026-05-03T03:55:19Z</time></trkpt>
<trkpt lat="50.638170" lon="4.064775"><time>2026-05-03T04:05:19Z</time></trkpt>
<trkpt lat="50.637952" lon="4.063885"><time>2026-05-03T04:15:19Z</time></trkpt>
<trkpt lat="50.636727" lon="4.062898"><time>2026-05-03T04:25:19Z</time></trkpt>
<trkpt lat="50.635618" lon="4.062790"><time>2026-05-03T04:35:19Z</time></trkpt>
<trkpt lat="50.633686" lon="4.060258"><time>2026-05-03T04:45:19Z</time></trkpt>
<trkpt lat="50.631971" lon="4.058670"><time>2026-05-03T04:55:19Z</time></trkpt>
<trkpt lat="50.630453" lon="4.057962"><time>2026-05-03T05:05:19Z</time></trkpt>
</trkseg></trk>
<trk>
<name>hbcsk48</name>
<cmt>r</cmt>
<desc>Steenkerque Sentier n°48 Rue du Couplet / Rue de l'Horruette</desc>
<link href="https://chemins.be/steenkerque/sentier/48"/><trkseg>
<trkpt lat="50.630453" lon="4.057962"><time>2026-05-03T05:05:19Z</time></trkpt>
<trkpt lat="50.629896" lon="4.057151"><time>2026-05-03T05:15:19Z</time></trkpt>
<trkpt lat="50.628884" lon="4.056805"><time>2026-05-03T05:25:19Z</time></trkpt>
<trkpt lat="50.627970" lon="4.057151"><time>2026-05-03T05:35:19Z</time></trkpt>
</trkseg>
</trk>
<trk>
<name>hbcsk49</name>
<cmt>q</cmt>
<desc>Steenkerque Sentier n°49 </desc>
<link href="https://chemins.be/steenkerque/sentier/49"/><trkseg>
<trkpt lat="50.637587" lon="4.065795"><time>2026-05-03T03:35:19Z</time></trkpt>
<trkpt lat="50.635583" lon="4.062825"><time>2026-05-03T03:45:19Z</time></trkpt>
</trkseg>
</trk>
<trk>
<name>hbcsk5</name>
<cmt>r</cmt>
<desc>Steenkerque Chemin n°5 </desc>
<link href="https://chemins.be/steenkerque/chemin/5"/><trkseg>
<trkpt lat="50.660406" lon="4.099377"><time>2026-05-03T03:35:19Z</time></trkpt>
<trkpt lat="50.659859" lon="4.099200"><time>2026-05-03T03:45:19Z</time></trkpt>
</trkseg></trk>
<trk>
<name>hbcsk5</name>
<cmt>d</cmt>
<desc>Steenkerque Chemin n°5 </desc>
<link href="https://chemins.be/steenkerque/chemin/5"/><trkseg>
<trkpt lat="50.659859" lon="4.099200"><time>2026-05-03T03:45:19Z</time></trkpt>
<trkpt lat="50.659095" lon="4.099017"><time>2026-05-03T03:55:19Z</time></trkpt>
</trkseg></trk>
<trk>
<name>hbcsk5</name>
<cmt>v</cmt>
<desc>Steenkerque Chemin n°5 </desc>
<link href="https://chemins.be/steenkerque/chemin/5"/><trkseg>
<trkpt lat="50.659095" lon="4.099017"><time>2026-05-03T03:55:19Z</time></trkpt>
<trkpt lat="50.658341" lon="4.098836"><time>2026-05-03T04:05:19Z</time></trkpt>
</trkseg>
</trk>
<trk>
<name>hbcsk50</name>
<cmt>v</cmt>
<desc>Steenkerque Sentier n°50 </desc>
<link href="https://chemins.be/steenkerque/sentier/50"/><trkseg>
<trkpt lat="50.637410" lon="4.064767"><time>2026-05-03T03:35:19Z</time></trkpt>
<trkpt lat="50.637131" lon="4.065073"><time>2026-05-03T03:45:19Z</time></trkpt>
</trkseg></trk>
<trk>
<name>hbcsk50</name>
<cmt>q</cmt>
<desc>Steenkerque Sentier n°50 </desc>
<link href="https://chemins.be/steenkerque/sentier/50"/><trkseg>
<trkpt lat="50.637131" lon="4.065073"><time>2026-05-03T03:45:19Z</time></trkpt>
<trkpt lat="50.636913" lon="4.065416"><time>2026-05-03T03:55:19Z</time></trkpt>
<trkpt lat="50.636845" lon="4.068990"><time>2026-05-03T04:05:19Z</time></trkpt>
</trkseg>
</trk>
<trk>
<name>hbcsk51</name>
<cmt>q</cmt>
<desc>Steenkerque Sentier n°51 </desc>
<link href="https://chemins.be/steenkerque/sentier/51"/><trkseg>
<trkpt lat="50.632889" lon="4.068073"><time>2026-05-03T03:35:19Z</time></trkpt>
<trkpt lat="50.633390" lon="4.067211"><time>2026-05-03T03:45:19Z</time></trkpt>
<trkpt lat="50.635359" lon="4.065265"><time>2026-05-03T03:55:19Z</time></trkpt>
<trkpt lat="50.635936" lon="4.065368"><time>2026-05-03T04:05:19Z</time></trkpt>
<trkpt lat="50.636066" lon="4.065669"><time>2026-05-03T04:15:19Z</time></trkpt>
<trkpt lat="50.636893" lon="4.064696"><time>2026-05-03T04:25:19Z</time></trkpt>
</trkseg>
</trk>
<trk>
<name>hbcsk52</name>
<cmt>q</cmt>
<desc>Steenkerque Sentier n°52 </desc>
<link href="https://chemins.be/steenkerque/sentier/52"/><trkseg>
<trkpt lat="50.638761" lon="4.074297"><time>2026-05-03T03:35:19Z</time></trkpt>
<trkpt lat="50.638467" lon="4.070992"><time>2026-05-03T03:45:19Z</time></trkpt>
<trkpt lat="50.639170" lon="4.069121"><time>2026-05-03T03:55:19Z</time></trkpt>
<trkpt lat="50.639338" lon="4.068727"><time>2026-05-03T04:05:19Z</time></trkpt>
<trkpt lat="50.639131" lon="4.068254"><time>2026-05-03T04:15:19Z</time></trkpt>
</trkseg>
</trk>
<trk>
<name>hbcsk53</name>
<cmt>v</cmt>
<desc>Steenkerque Sentier n°53 </desc>
<link href="https://chemins.be/steenkerque/sentier/53"/><trkseg>
<trkpt lat="50.640402" lon="4.077507"><time>2026-05-03T03:35:19Z</time></trkpt>
<trkpt lat="50.641090" lon="4.076623"><time>2026-05-03T03:45:19Z</time></trkpt>
</trkseg></trk>
<trk>
<name>hbcsk53</name>
<cmt>q</cmt>
<desc>Steenkerque Sentier n°53 </desc>
<link href="https://chemins.be/steenkerque/sentier/53"/><trkseg>
<trkpt lat="50.641090" lon="4.076623"><time>2026-05-03T03:45:19Z</time></trkpt>
<trkpt lat="50.642217" lon="4.075026"><time>2026-05-03T03:55:19Z</time></trkpt>
<trkpt lat="50.642236" lon="4.073713"><time>2026-05-03T04:05:19Z</time></trkpt>
</trkseg>
</trk>
<trk>
<name>hbcsk54</name>
<cmt>q</cmt>
<desc>Steenkerque Sentier n°54 </desc>
<link href="https://chemins.be/steenkerque/sentier/54"/><trkseg>
<trkpt lat="50.641875" lon="4.075516"><time>2026-05-03T03:35:19Z</time></trkpt>
<trkpt lat="50.641886" lon="4.077224"><time>2026-05-03T03:45:19Z</time></trkpt>
<trkpt lat="50.641058" lon="4.078649"><time>2026-05-03T03:55:19Z</time></trkpt>
<trkpt lat="50.641526" lon="4.079344"><time>2026-05-03T04:05:19Z</time></trkpt>
</trkseg>
</trk>
<trk>
<name>hbcsk55</name>
<cmt>q</cmt>
<desc>Steenkerque Sentier n°55 </desc>
<link href="https://chemins.be/steenkerque/sentier/55"/><trkseg>
<trkpt lat="50.630590" lon="4.062804"><time>2026-05-03T03:35:19Z</time></trkpt>
<trkpt lat="50.632599" lon="4.061568"><time>2026-05-03T03:45:19Z</time></trkpt>
<trkpt lat="50.634651" lon="4.061457"><time>2026-05-03T03:55:19Z</time></trkpt>
</trkseg>
</trk>
<trk>
<name>hbcsk56</name>
<cmt>q</cmt>
<desc>Steenkerque Sentier n°56 </desc>
<link href="https://chemins.be/steenkerque/sentier/56"/><trkseg>
<trkpt lat="50.629667" lon="4.057003"><time>2026-05-03T03:35:19Z</time></trkpt>
<trkpt lat="50.629599" lon="4.058880"><time>2026-05-03T03:45:19Z</time></trkpt>
<trkpt lat="50.630320" lon="4.059824"><time>2026-05-03T03:55:19Z</time></trkpt>
<trkpt lat="50.630525" lon="4.060543"><time>2026-05-03T04:05:19Z</time></trkpt>
<trkpt lat="50.630606" lon="4.060929"><time>2026-05-03T04:15:19Z</time></trkpt>
<trkpt lat="50.632063" lon="4.061820"><time>2026-05-03T04:25:19Z</time></trkpt>
</trkseg>
</trk>
<trk>
<name>hbcsk57</name>
<cmt>q</cmt>
<desc>Steenkerque Sentier n°57 Rue Fayt</desc>
<link href="https://chemins.be/steenkerque/sentier/57"/><trkseg>
<trkpt lat="50.628963" lon="4.066122"><time>2026-05-03T03:35:19Z</time></trkpt>
<trkpt lat="50.629429" lon="4.069129"><time>2026-05-03T03:45:19Z</time></trkpt>
</trkseg></trk>
<trk>
<name>hbcsk57</name>
<cmt>r</cmt>
<desc>Steenkerque Sentier n°57 Rue Fayt</desc>
<link href="https://chemins.be/steenkerque/sentier/57"/><trkseg>
<trkpt lat="50.629429" lon="4.069129"><time>2026-05-03T03:45:19Z</time></trkpt>
<trkpt lat="50.628418" lon="4.071306"><time>2026-05-03T03:55:19Z</time></trkpt>
</trkseg></trk>
<trk>
<name>hbcsk57</name>
<cmt>q</cmt>
<desc>Steenkerque Sentier n°57 Rue Fayt</desc>
<link href="https://chemins.be/steenkerque/sentier/57"/><trkseg>
<trkpt lat="50.628418" lon="4.071306"><time>2026-05-03T03:55:19Z</time></trkpt>
<trkpt lat="50.628004" lon="4.072225"><time>2026-05-03T04:05:19Z</time></trkpt>
<trkpt lat="50.628389" lon="4.075078"><time>2026-05-03T04:15:19Z</time></trkpt>
<trkpt lat="50.627028" lon="4.077418"><time>2026-05-03T04:25:19Z</time></trkpt>
<trkpt lat="50.626895" lon="4.078211"><time>2026-05-03T04:35:19Z</time></trkpt>
</trkseg>
</trk>
<trk>
<name>hbcsk58</name>
<cmt>q</cmt>
<desc>Steenkerque Sentier n°58 </desc>
<link href="https://chemins.be/steenkerque/sentier/58"/><trkseg>
<trkpt lat="50.628386" lon="4.067220"><time>2026-05-03T03:35:19Z</time></trkpt>
<trkpt lat="50.630041" lon="4.066774"><time>2026-05-03T03:45:19Z</time></trkpt>
</trkseg>
</trk>
<trk>
<name>hbcsk59</name>
<cmt>v</cmt>
<desc>Steenkerque Sentier n°59 </desc>
<link href="https://chemins.be/steenkerque/sentier/59"/><trkseg>
<trkpt lat="50.621297" lon="4.072069"><time>2026-05-03T03:35:19Z</time></trkpt>
<trkpt lat="50.623593" lon="4.073341"><time>2026-05-03T03:45:19Z</time></trkpt>
<trkpt lat="50.627012" lon="4.074422"><time>2026-05-03T03:55:19Z</time></trkpt>
<trkpt lat="50.628124" lon="4.075426"><time>2026-05-03T04:05:19Z</time></trkpt>
</trkseg></trk>
<trk>
<name>hbcsk59</name>
<cmt>q</cmt>
<desc>Steenkerque Sentier n°59 </desc>
<link href="https://chemins.be/steenkerque/sentier/59"/><trkseg>
<trkpt lat="50.628124" lon="4.075426"><time>2026-05-03T04:05:19Z</time></trkpt>
<trkpt lat="50.630372" lon="4.075273"><time>2026-05-03T04:15:19Z</time></trkpt>
<trkpt lat="50.630607" lon="4.075443"><time>2026-05-03T04:25:19Z</time></trkpt>
<trkpt lat="50.631304" lon="4.075254"><time>2026-05-03T04:35:19Z</time></trkpt>
<trkpt lat="50.632763" lon="4.073881"><time>2026-05-03T04:45:19Z</time></trkpt>
<trkpt lat="50.635278" lon="4.071615"><time>2026-05-03T04:55:19Z</time></trkpt>
<trkpt lat="50.636966" lon="4.068885"><time>2026-05-03T05:05:19Z</time></trkpt>
</trkseg>
</trk>
<trk>
<name>hbcsk60</name>
<cmt>q</cmt>
<desc>Steenkerque Sentier n°60 </desc>
<link href="https://chemins.be/steenkerque/sentier/60"/><trkseg>
<trkpt lat="50.624825" lon="4.067392"><time>2026-05-03T03:35:19Z</time></trkpt>
<trkpt lat="50.628386" lon="4.071357"><time>2026-05-03T03:45:19Z</time></trkpt>
</trkseg></trk>
<trk>
<name>hbcsk60</name>
<cmt>v</cmt>
<desc>Steenkerque Sentier n°60 </desc>
<link href="https://chemins.be/steenkerque/sentier/60"/><trkseg>
<trkpt lat="50.628386" lon="4.071357"><time>2026-05-03T03:45:19Z</time></trkpt>
<trkpt lat="50.629245" lon="4.072321"><time>2026-05-03T03:55:19Z</time></trkpt>
<trkpt lat="50.629805" lon="4.073316"><time>2026-05-03T04:05:19Z</time></trkpt>
<trkpt lat="50.630368" lon="4.075283"><time>2026-05-03T04:15:19Z</time></trkpt>
</trkseg></trk>
<trk>
<name>hbcsk60</name>
<cmt>q</cmt>
<desc>Steenkerque Sentier n°60 </desc>
<link href="https://chemins.be/steenkerque/sentier/60"/><trkseg>
<trkpt lat="50.630368" lon="4.075283"><time>2026-05-03T04:15:19Z</time></trkpt>
<trkpt lat="50.629940" lon="4.076906"><time>2026-05-03T04:25:19Z</time></trkpt>
<trkpt lat="50.629872" lon="4.078418"><time>2026-05-03T04:35:19Z</time></trkpt>
<trkpt lat="50.629054" lon="4.078734"><time>2026-05-03T04:45:19Z</time></trkpt>
<trkpt lat="50.628794" lon="4.078891"><time>2026-05-03T04:55:19Z</time></trkpt>
<trkpt lat="50.628364" lon="4.079657"><time>2026-05-03T05:05:19Z</time></trkpt>
</trkseg>
</trk>
<trk>
<name>hbcsk61</name>
<cmt>q</cmt>
<desc>Steenkerque Sentier n°61 </desc>
<link href="https://chemins.be/steenkerque/sentier/61"/><trkseg>
<trkpt lat="50.631730" lon="4.075048"><time>2026-05-03T03:35:19Z</time></trkpt>
<trkpt lat="50.634275" lon="4.076121"><time>2026-05-03T03:45:19Z</time></trkpt>
</trkseg>
</trk>
<trk>
<name>hbcsk63</name>
<cmt>q</cmt>
<desc>Steenkerque Sentier n°63 </desc>
<link href="https://chemins.be/steenkerque/sentier/63"/><trkseg>
<trkpt lat="50.635535" lon="4.046963"><time>2026-05-03T03:35:19Z</time></trkpt>
<trkpt lat="50.635844" lon="4.048963"><time>2026-05-03T03:45:19Z</time></trkpt>
<trkpt lat="50.636916" lon="4.050696"><time>2026-05-03T03:55:19Z</time></trkpt>
</trkseg>
</trk>
<trk>
<name>hbcsk64</name>
<cmt>q</cmt>
<desc>Steenkerque Sentier n°64 </desc>
<link href="https://chemins.be/steenkerque/sentier/64"/><trkseg>
<trkpt lat="50.635496" lon="4.046933"><time>2026-05-03T03:35:19Z</time></trkpt>
<trkpt lat="50.634182" lon="4.049422"><time>2026-05-03T03:45:19Z</time></trkpt>
</trkseg>
</trk>
<trk>
<name>hbcsk65</name>
<cmt>q</cmt>
<desc>Steenkerque Sentier n°65 </desc>
<link href="https://chemins.be/steenkerque/sentier/65"/><trkseg>
<trkpt lat="50.634700" lon="4.045635"><time>2026-05-03T03:35:19Z</time></trkpt>
<trkpt lat="50.634434" lon="4.045420"><time>2026-05-03T03:45:19Z</time></trkpt>
<trkpt lat="50.631248" lon="4.043427"><time>2026-05-03T03:55:19Z</time></trkpt>
</trkseg>
</trk>
<trk>
<name>hbcsk66</name>
<cmt>q</cmt>
<desc>Steenkerque Sentier n°66 </desc>
<link href="https://chemins.be/steenkerque/sentier/66"/><trkseg>
<trkpt lat="50.633999" lon="4.035088"><time>2026-05-03T03:35:19Z</time></trkpt>
<trkpt lat="50.633706" lon="4.035464"><time>2026-05-03T03:45:19Z</time></trkpt>
<trkpt lat="50.632862" lon="4.035893"><time>2026-05-03T03:55:19Z</time></trkpt>
<trkpt lat="50.630957" lon="4.035711"><time>2026-05-03T04:05:19Z</time></trkpt>
</trkseg>
</trk>
<trk>
<name>hbcsk67</name>
<cmt>q</cmt>
<desc>Steenkerque Sentier n°67 </desc>
<link href="https://chemins.be/steenkerque/sentier/67"/><trkseg>
<trkpt lat="50.634638" lon="4.041998"><time>2026-05-03T03:35:19Z</time></trkpt>
<trkpt lat="50.631040" lon="4.043508"><time>2026-05-03T03:45:19Z</time></trkpt>
</trkseg>
</trk>
<trk>
<name>hbcsk68</name>
<cmt>q</cmt>
<desc>Steenkerque Sentier n°68 </desc>
<link href="https://chemins.be/steenkerque/sentier/68"/><trkseg>
<trkpt lat="50.633686" lon="4.035410"><time>2026-05-03T03:35:19Z</time></trkpt>
<trkpt lat="50.633522" lon="4.037352"><time>2026-05-03T03:45:19Z</time></trkpt>
<trkpt lat="50.634148" lon="4.040163"><time>2026-05-03T03:55:19Z</time></trkpt>
<trkpt lat="50.634489" lon="4.040667"><time>2026-05-03T04:05:19Z</time></trkpt>
<trkpt lat="50.634645" lon="4.042094"><time>2026-05-03T04:15:19Z</time></trkpt>
<trkpt lat="50.634400" lon="4.045399"><time>2026-05-03T04:25:19Z</time></trkpt>
</trkseg>
</trk>
<trk>
<name>hbcsk69</name>
<cmt>q</cmt>
<desc>Steenkerque Sentier n°69 </desc>
<link href="https://chemins.be/steenkerque/sentier/69"/><trkseg>
<trkpt lat="50.634114" lon="4.035035"><time>2026-05-03T03:35:19Z</time></trkpt>
<trkpt lat="50.633618" lon="4.031827"><time>2026-05-03T03:45:19Z</time></trkpt>
<trkpt lat="50.633107" lon="4.029016"><time>2026-05-03T03:55:19Z</time></trkpt>
</trkseg>
</trk>
<trk>
<name>hbcsk70</name>
<cmt>q</cmt>
<desc>Steenkerque Sentier n°70 </desc>
<link href="https://chemins.be/steenkerque/sentier/70"/><trkseg>
<trkpt lat="50.634087" lon="4.035099"><time>2026-05-03T03:35:19Z</time></trkpt>
<trkpt lat="50.634958" lon="4.034198"><time>2026-05-03T03:45:19Z</time></trkpt>
<trkpt lat="50.635414" lon="4.033726"><time>2026-05-03T03:55:19Z</time></trkpt>
<trkpt lat="50.636843" lon="4.030732"><time>2026-05-03T04:05:19Z</time></trkpt>
</trkseg>
</trk>
<trk>
<name>hbcsk71</name>
<cmt>v</cmt>
<desc>Steenkerque Sentier n°71 </desc>
<link href="https://chemins.be/steenkerque/sentier/71"/><trkseg>
<trkpt lat="50.635763" lon="4.036298"><time>2026-05-03T03:35:19Z</time></trkpt>
<trkpt lat="50.634939" lon="4.034168"><time>2026-05-03T03:45:19Z</time></trkpt>
</trkseg>
</trk>
<trk>
<name>hbcsk72</name>
<cmt>q</cmt>
<desc>Steenkerque Sentier n°72 </desc>
<link href="https://chemins.be/steenkerque/sentier/72"/><trkseg>
<trkpt lat="50.635807" lon="4.036314"><time>2026-05-03T03:35:19Z</time></trkpt>
<trkpt lat="50.636035" lon="4.034882"><time>2026-05-03T03:45:19Z</time></trkpt>
</trkseg>
</trk>
<trk>
<name>hbcsk73</name>
<cmt>q</cmt>
<desc>Steenkerque Sentier n°73 </desc>
<link href="https://chemins.be/steenkerque/sentier/73"/><trkseg>
<trkpt lat="50.639237" lon="4.042430"><time>2026-05-03T03:35:19Z</time></trkpt>
<trkpt lat="50.637614" lon="4.040160"><time>2026-05-03T03:45:19Z</time></trkpt>
<trkpt lat="50.637508" lon="4.039790"><time>2026-05-03T03:55:19Z</time></trkpt>
<trkpt lat="50.636380" lon="4.039294"><time>2026-05-03T04:05:19Z</time></trkpt>
<trkpt lat="50.636210" lon="4.038790"><time>2026-05-03T04:15:19Z</time></trkpt>
<trkpt lat="50.635305" lon="4.038425"><time>2026-05-03T04:25:19Z</time></trkpt>
</trkseg>
</trk>
<trk>
<name>hbcsk74</name>
<cmt>q</cmt>
<desc>Steenkerque Sentier n°74 </desc>
<link href="https://chemins.be/steenkerque/sentier/74"/><trkseg>
<trkpt lat="50.635496" lon="4.040818"><time>2026-05-03T03:35:19Z</time></trkpt>
<trkpt lat="50.636530" lon="4.041890"><time>2026-05-03T03:45:19Z</time></trkpt>
<trkpt lat="50.636986" lon="4.043317"><time>2026-05-03T03:55:19Z</time></trkpt>
<trkpt lat="50.637898" lon="4.043736"><time>2026-05-03T04:05:19Z</time></trkpt>
</trkseg>
</trk>
<trk>
<name>hbcsk75</name>
<cmt>q</cmt>
<desc>Steenkerque Sentier n°75 </desc>
<link href="https://chemins.be/steenkerque/sentier/75"/><trkseg>
<trkpt lat="50.634688" lon="4.045616"><time>2026-05-03T03:35:19Z</time></trkpt>
<trkpt lat="50.635446" lon="4.045428"><time>2026-05-03T03:45:19Z</time></trkpt>
<trkpt lat="50.637005" lon="4.044431"><time>2026-05-03T03:55:19Z</time></trkpt>
<trkpt lat="50.637869" lon="4.043749"><time>2026-05-03T04:05:19Z</time></trkpt>
</trkseg>
</trk>
<trk>
<name>hbcsk76</name>
<cmt>q</cmt>
<desc>Steenkerque Sentier n°76 </desc>
<link href="https://chemins.be/steenkerque/sentier/76"/><trkseg>
<trkpt lat="50.642142" lon="4.049870"><time>2026-05-03T03:35:19Z</time></trkpt>
<trkpt lat="50.641808" lon="4.048572"><time>2026-05-03T03:45:19Z</time></trkpt>
<trkpt lat="50.641985" lon="4.047751"><time>2026-05-03T03:55:19Z</time></trkpt>
<trkpt lat="50.642133" lon="4.046413"><time>2026-05-03T04:05:19Z</time></trkpt>
<trkpt lat="50.642368" lon="4.044294"><time>2026-05-03T04:15:19Z</time></trkpt>
<trkpt lat="50.642314" lon="4.043511"><time>2026-05-03T04:25:19Z</time></trkpt>
<trkpt lat="50.642409" lon="4.043017"><time>2026-05-03T04:35:19Z</time></trkpt>
</trkseg>
</trk>
<trk>
<name>hbcsk77</name>
<cmt>q</cmt>
<desc>Steenkerque Sentier n°77 </desc>
<link href="https://chemins.be/steenkerque/sentier/77"/><trkseg>
<trkpt lat="50.642633" lon="4.048542"><time>2026-05-03T03:35:19Z</time></trkpt>
<trkpt lat="50.642028" lon="4.048135"><time>2026-05-03T03:45:19Z</time></trkpt>
<trkpt lat="50.641824" lon="4.047620"><time>2026-05-03T03:55:19Z</time></trkpt>
<trkpt lat="50.641143" lon="4.046869"><time>2026-05-03T04:05:19Z</time></trkpt>
</trkseg>
</trk>
<trk>
<name>hbcsk78</name>
<cmt>q</cmt>
<desc>Steenkerque Sentier n°78 </desc>
<link href="https://chemins.be/steenkerque/sentier/78"/><trkseg>
<trkpt lat="50.645714" lon="4.049612"><time>2026-05-03T03:35:19Z</time></trkpt>
<trkpt lat="50.644299" lon="4.049243"><time>2026-05-03T03:45:19Z</time></trkpt>
<trkpt lat="50.643123" lon="4.048161"><time>2026-05-03T03:55:19Z</time></trkpt>
<trkpt lat="50.642642" lon="4.048689"><time>2026-05-03T04:05:19Z</time></trkpt>
</trkseg>
</trk>
<trk>
<name>hbcsk79</name>
<cmt>q</cmt>
<desc>Steenkerque Sentier n°79 </desc>
<link href="https://chemins.be/steenkerque/sentier/79"/><trkseg>
<trkpt lat="50.643210" lon="4.046756"><time>2026-05-03T03:35:19Z</time></trkpt>
<trkpt lat="50.643573" lon="4.046293"><time>2026-05-03T03:45:19Z</time></trkpt>
<trkpt lat="50.643777" lon="4.046149"><time>2026-05-03T03:55:19Z</time></trkpt>
</trkseg>
</trk>
<trk>
<name>hbcsk80</name>
<cmt>q</cmt>
<desc>Steenkerque Sentier n°80 </desc>
<link href="https://chemins.be/steenkerque/sentier/80"/><trkseg>
<trkpt lat="50.641869" lon="4.051303"><time>2026-05-03T03:35:19Z</time></trkpt>
<trkpt lat="50.645157" lon="4.053766"><time>2026-05-03T03:45:19Z</time></trkpt>
</trkseg>
</trk>
<trk>
<name>hbcsk81</name>
<cmt>q</cmt>
<desc>Steenkerque Sentier n°81 Haut Bosquet</desc>
<link href="https://chemins.be/steenkerque/sentier/81"/><trkseg>
<trkpt lat="50.654293" lon="4.073936"><time>2026-05-03T03:35:19Z</time></trkpt>
<trkpt lat="50.653915" lon="4.072850"><time>2026-05-03T03:45:19Z</time></trkpt>
<trkpt lat="50.653074" lon="4.070507"><time>2026-05-03T03:55:19Z</time></trkpt>
<trkpt lat="50.653037" lon="4.068903"><time>2026-05-03T04:05:19Z</time></trkpt>
<trkpt lat="50.653102" lon="4.067165"><time>2026-05-03T04:15:19Z</time></trkpt>
</trkseg>
</trk>
<trk>
<name>hbcsk82</name>
<cmt>q</cmt>
<desc>Steenkerque Sentier n°82 </desc>
<link href="https://chemins.be/steenkerque/sentier/82"/><trkseg>
<trkpt lat="50.653933" lon="4.072854"><time>2026-05-03T03:35:19Z</time></trkpt>
<trkpt lat="50.653232" lon="4.073315"><time>2026-05-03T03:45:19Z</time></trkpt>
<trkpt lat="50.652199" lon="4.075997"><time>2026-05-03T03:55:19Z</time></trkpt>
</trkseg>
</trk>
<trk>
<name>hbcsk83</name>
<cmt>q</cmt>
<desc>Steenkerque Sentier n°83 </desc>
<link href="https://chemins.be/steenkerque/sentier/83"/><trkseg>
<trkpt lat="50.656164" lon="4.079302"><time>2026-05-03T03:35:19Z</time></trkpt>
<trkpt lat="50.653375" lon="4.077489"><time>2026-05-03T03:45:19Z</time></trkpt>
<trkpt lat="50.652886" lon="4.076588"><time>2026-05-03T03:55:19Z</time></trkpt>
<trkpt lat="50.652178" lon="4.076062"><time>2026-05-03T04:05:19Z</time></trkpt>
</trkseg>
</trk>
<trk>
<name>hbcsk84</name>
<cmt>q</cmt>
<desc>Steenkerque Sentier n°84 </desc>
<link href="https://chemins.be/steenkerque/sentier/84"/><trkseg>
<trkpt lat="50.652178" lon="4.075987"><time>2026-05-03T03:35:19Z</time></trkpt>
<trkpt lat="50.649171" lon="4.072435"><time>2026-05-03T03:45:19Z</time></trkpt>
<trkpt lat="50.646940" lon="4.071041"><time>2026-05-03T03:55:19Z</time></trkpt>
<trkpt lat="50.646491" lon="4.071105"><time>2026-05-03T04:05:19Z</time></trkpt>
<trkpt lat="50.646511" lon="4.070590"><time>2026-05-03T04:15:19Z</time></trkpt>
</trkseg>
</trk>
<trk>
<name>hbcsk85</name>
<cmt>q</cmt>
<desc>Steenkerque Sentier n°85 </desc>
<link href="https://chemins.be/steenkerque/sentier/85"/><trkseg>
<trkpt lat="50.655850" lon="4.078326"><time>2026-05-03T03:35:19Z</time></trkpt>
<trkpt lat="50.656799" lon="4.077274"><time>2026-05-03T03:45:19Z</time></trkpt>
<trkpt lat="50.656816" lon="4.077047"><time>2026-05-03T03:55:19Z</time></trkpt>
<trkpt lat="50.657433" lon="4.075437"><time>2026-05-03T04:05:19Z</time></trkpt>
<trkpt lat="50.657292" lon="4.075210"><time>2026-05-03T04:15:19Z</time></trkpt>
<trkpt lat="50.657956" lon="4.073446"><time>2026-05-03T04:25:19Z</time></trkpt>
<trkpt lat="50.658116" lon="4.073498"><time>2026-05-03T04:35:19Z</time></trkpt>
</trkseg>
</trk>
<trk>
<name>hbcsk86</name>
<cmt>q</cmt>
<desc>Steenkerque Sentier n°86 </desc>
<link href="https://chemins.be/steenkerque/sentier/86"/><trkseg>
<trkpt lat="50.655678" lon="4.079892"><time>2026-05-03T03:35:19Z</time></trkpt>
<trkpt lat="50.655553" lon="4.079557"><time>2026-05-03T03:45:19Z</time></trkpt>
<trkpt lat="50.655608" lon="4.079497"><time>2026-05-03T03:55:19Z</time></trkpt>
<trkpt lat="50.655542" lon="4.079304"><time>2026-05-03T04:05:19Z</time></trkpt>
<trkpt lat="50.655828" lon="4.078317"><time>2026-05-03T04:15:19Z</time></trkpt>
</trkseg>
</trk>
<trk>
<name>hbcsk87</name>
<cmt>q</cmt>
<desc>Steenkerque Sentier n°87 </desc>
<link href="https://chemins.be/steenkerque/sentier/87"/><trkseg>
<trkpt lat="50.651878" lon="4.076320"><time>2026-05-03T03:35:19Z</time></trkpt>
<trkpt lat="50.652776" lon="4.080148"><time>2026-05-03T03:45:19Z</time></trkpt>
<trkpt lat="50.653447" lon="4.082075"><time>2026-05-03T03:55:19Z</time></trkpt>
<trkpt lat="50.653684" lon="4.082758"><time>2026-05-03T04:05:19Z</time></trkpt>
<trkpt lat="50.654261" lon="4.085736"><time>2026-05-03T04:15:19Z</time></trkpt>
<trkpt lat="50.654544" lon="4.086627"><time>2026-05-03T04:25:19Z</time></trkpt>
<trkpt lat="50.654894" lon="4.087485"><time>2026-05-03T04:35:19Z</time></trkpt>
<trkpt lat="50.654795" lon="4.088113"><time>2026-05-03T04:45:19Z</time></trkpt>
<trkpt lat="50.655237" lon="4.091283"><time>2026-05-03T04:55:19Z</time></trkpt>
</trkseg>
</trk>
<trk>
<name>hbcsk88</name>
<cmt>q</cmt>
<desc>Steenkerque Sentier n°88 </desc>
<link href="https://chemins.be/steenkerque/sentier/88"/><trkseg>
<trkpt lat="50.655099" lon="4.080681"><time>2026-05-03T03:35:19Z</time></trkpt>
<trkpt lat="50.655235" lon="4.083633"><time>2026-05-03T03:45:19Z</time></trkpt>
<trkpt lat="50.655116" lon="4.084594"><time>2026-05-03T03:55:19Z</time></trkpt>
<trkpt lat="50.654288" lon="4.085770"><time>2026-05-03T04:05:19Z</time></trkpt>
</trkseg>
</trk>
<trk>
<name>hbcsk89</name>
<cmt>q</cmt>
<desc>Steenkerque Sentier n°89 </desc>
<link href="https://chemins.be/steenkerque/sentier/89"/><trkseg>
<trkpt lat="50.652123" lon="4.083650"><time>2026-05-03T03:35:19Z</time></trkpt>
<trkpt lat="50.653260" lon="4.084054"><time>2026-05-03T03:45:19Z</time></trkpt>
<trkpt lat="50.653717" lon="4.084569"><time>2026-05-03T03:55:19Z</time></trkpt>
<trkpt lat="50.654006" lon="4.084594"><time>2026-05-03T04:05:19Z</time></trkpt>
<trkpt lat="50.657124" lon="4.082131"><time>2026-05-03T04:15:19Z</time></trkpt>
<trkpt lat="50.657865" lon="4.081211"><time>2026-05-03T04:25:19Z</time></trkpt>
<trkpt lat="50.660814" lon="4.079219"><time>2026-05-03T04:35:19Z</time></trkpt>
<trkpt lat="50.662021" lon="4.077829"><time>2026-05-03T04:45:19Z</time></trkpt>
</trkseg>
</trk>
<trk>
<name>hbcsk90</name>
<cmt>q</cmt>
<desc>Steenkerque Sentier n°90 </desc>
<link href="https://chemins.be/steenkerque/sentier/90"/><trkseg>
<trkpt lat="50.653924" lon="4.096328"><time>2026-05-03T03:35:19Z</time></trkpt>
<trkpt lat="50.655529" lon="4.092860"><time>2026-05-03T03:45:19Z</time></trkpt>
<trkpt lat="50.656188" lon="4.090294"><time>2026-05-03T03:55:19Z</time></trkpt>
<trkpt lat="50.657684" lon="4.088414"><time>2026-05-03T04:05:19Z</time></trkpt>
<trkpt lat="50.657907" lon="4.084140"><time>2026-05-03T04:15:19Z</time></trkpt>
<trkpt lat="50.657422" lon="4.082656"><time>2026-05-03T04:25:19Z</time></trkpt>
<trkpt lat="50.657191" lon="4.082098"><time>2026-05-03T04:35:19Z</time></trkpt>
<trkpt lat="50.656758" lon="4.080154"><time>2026-05-03T04:45:19Z</time></trkpt>
</trkseg>
</trk>
<trk>
<name>hbcsk91</name>
<cmt>q</cmt>
<desc>Steenkerque Sentier n°91 </desc>
<link href="https://chemins.be/steenkerque/sentier/91"/><trkseg>
<trkpt lat="50.656188" lon="4.079299"><time>2026-05-03T03:35:19Z</time></trkpt>
<trkpt lat="50.655067" lon="4.080724"><time>2026-05-03T03:45:19Z</time></trkpt>
<trkpt lat="50.653472" lon="4.082114"><time>2026-05-03T03:55:19Z</time></trkpt>
<trkpt lat="50.653325" lon="4.082217"><time>2026-05-03T04:05:19Z</time></trkpt>
<trkpt lat="50.653287" lon="4.082929"><time>2026-05-03T04:15:19Z</time></trkpt>
<trkpt lat="50.652052" lon="4.083590"><time>2026-05-03T04:25:19Z</time></trkpt>
</trkseg>
</trk>
<trk>
<name>hbcsk92</name>
<cmt>d</cmt>
<desc>Steenkerque Sentier n°92 </desc>
<link href="https://chemins.be/steenkerque/sentier/92"/><trkseg>
<trkpt lat="50.646536" lon="4.086755"><time>2026-05-03T03:35:19Z</time></trkpt>
<trkpt lat="50.647053" lon="4.087210"><time>2026-05-03T03:45:19Z</time></trkpt>
<trkpt lat="50.647731" lon="4.087214"><time>2026-05-03T03:55:19Z</time></trkpt>
<trkpt lat="50.648498" lon="4.087227"><time>2026-05-03T04:05:19Z</time></trkpt>
<trkpt lat="50.649094" lon="4.087118"><time>2026-05-03T04:15:19Z</time></trkpt>
<trkpt lat="50.650126" lon="4.085846"><time>2026-05-03T04:25:19Z</time></trkpt>
<trkpt lat="50.652008" lon="4.083529"><time>2026-05-03T04:35:19Z</time></trkpt>
</trkseg>
</trk>
<trk>
<name>hbcsk93</name>
<cmt>q</cmt>
<desc>Steenkerque Sentier n°93 Rue des Prés</desc>
<link href="https://chemins.be/steenkerque/sentier/93"/><trkseg>
<trkpt lat="50.665242" lon="4.086721"><time>2026-05-03T03:35:19Z</time></trkpt>
<trkpt lat="50.662936" lon="4.089262"><time>2026-05-03T03:45:19Z</time></trkpt>
</trkseg></trk>
<trk>
<name>hbcsk93</name>
<cmt>r</cmt>
<desc>Steenkerque Sentier n°93 Rue des Prés</desc>
<link href="https://chemins.be/steenkerque/sentier/93"/><trkseg>
<trkpt lat="50.662936" lon="4.089262"><time>2026-05-03T03:45:19Z</time></trkpt>
<trkpt lat="50.663490" lon="4.090858"><time>2026-05-03T03:55:19Z</time></trkpt>
<trkpt lat="50.662600" lon="4.091604"><time>2026-05-03T04:05:19Z</time></trkpt>
</trkseg></trk>
<trk>
<name>hbcsk93</name>
<cmt>q</cmt>
<desc>Steenkerque Sentier n°93 Rue des Prés</desc>
<link href="https://chemins.be/steenkerque/sentier/93"/><trkseg>
<trkpt lat="50.662600" lon="4.091604"><time>2026-05-03T04:05:19Z</time></trkpt>
<trkpt lat="50.660696" lon="4.094342"><time>2026-05-03T04:15:19Z</time></trkpt>
<trkpt lat="50.659839" lon="4.095272"><time>2026-05-03T04:25:19Z</time></trkpt>
<trkpt lat="50.658648" lon="4.096591"><time>2026-05-03T04:35:19Z</time></trkpt>
</trkseg></trk>
<trk>
<name>hbcsk93</name>
<cmt>r</cmt>
<desc>Steenkerque Sentier n°93 Rue des Prés</desc>
<link href="https://chemins.be/steenkerque/sentier/93"/><trkseg>
<trkpt lat="50.658648" lon="4.096591"><time>2026-05-03T04:35:19Z</time></trkpt>
<trkpt lat="50.658006" lon="4.096403"><time>2026-05-03T04:45:19Z</time></trkpt>
</trkseg></trk>
<trk>
<name>hbcsk93</name>
<cmt>q</cmt>
<desc>Steenkerque Sentier n°93 Rue des Prés</desc>
<link href="https://chemins.be/steenkerque/sentier/93"/><trkseg>
<trkpt lat="50.658006" lon="4.096403"><time>2026-05-03T04:45:19Z</time></trkpt>
<trkpt lat="50.654752" lon="4.097570"><time>2026-05-03T04:55:19Z</time></trkpt>
</trkseg>
</trk>
<trk>
<name>hbcsk95</name>
<cmt>q</cmt>
<desc>Steenkerque Sentier n°95 </desc>
<link href="https://chemins.be/steenkerque/sentier/95"/><trkseg>
<trkpt lat="50.656596" lon="4.095813"><time>2026-05-03T03:35:19Z</time></trkpt>
<trkpt lat="50.653608" lon="4.094165"><time>2026-05-03T03:45:19Z</time></trkpt>
<trkpt lat="50.653157" lon="4.093819"><time>2026-05-03T03:55:19Z</time></trkpt>
<trkpt lat="50.652123" lon="4.092635"><time>2026-05-03T04:05:19Z</time></trkpt>
<trkpt lat="50.650414" lon="4.090626"><time>2026-05-03T04:15:19Z</time></trkpt>
<trkpt lat="50.649641" lon="4.090120"><time>2026-05-03T04:25:19Z</time></trkpt>
<trkpt lat="50.648754" lon="4.089287"><time>2026-05-03T04:35:19Z</time></trkpt>
<trkpt lat="50.647992" lon="4.089159"><time>2026-05-03T04:45:19Z</time></trkpt>
<trkpt lat="50.647703" lon="4.088202"><time>2026-05-03T04:55:19Z</time></trkpt>
</trkseg>
</trk>
<trk>
<name>hbcsk96</name>
<cmt>v</cmt>
<desc>Steenkerque Sentier n°96 </desc>
<link href="https://chemins.be/steenkerque/sentier/96"/><trkseg>
<trkpt lat="50.653894" lon="4.096204"><time>2026-05-03T03:35:19Z</time></trkpt>
<trkpt lat="50.653159" lon="4.095784"><time>2026-05-03T03:45:19Z</time></trkpt>
<trkpt lat="50.652516" lon="4.095246"><time>2026-05-03T03:55:19Z</time></trkpt>
<trkpt lat="50.651176" lon="4.094052"><time>2026-05-03T04:05:19Z</time></trkpt>
<trkpt lat="50.649805" lon="4.092963"><time>2026-05-03T04:15:19Z</time></trkpt>
</trkseg></trk>
<trk>
<name>hbcsk96</name>
<cmt>d</cmt>
<desc>Steenkerque Sentier n°96 </desc>
<link href="https://chemins.be/steenkerque/sentier/96"/><trkseg>
<trkpt lat="50.649805" lon="4.092963"><time>2026-05-03T04:15:19Z</time></trkpt>
<trkpt lat="50.647634" lon="4.091640"><time>2026-05-03T04:25:19Z</time></trkpt>
<trkpt lat="50.646409" lon="4.088947"><time>2026-05-03T04:35:19Z</time></trkpt>
<trkpt lat="50.646539" lon="4.088100"><time>2026-05-03T04:45:19Z</time></trkpt>
</trkseg>
</trk>
<trk>
<name>hbcsk97</name>
<cmt>q</cmt>
<desc>Steenkerque Sentier n°97 </desc>
<link href="https://chemins.be/steenkerque/sentier/97"/><trkseg>
<trkpt lat="50.644854" lon="4.094287"><time>2026-05-03T03:35:19Z</time></trkpt>
<trkpt lat="50.644903" lon="4.096201"><time>2026-05-03T03:45:19Z</time></trkpt>
<trkpt lat="50.645456" lon="4.098269"><time>2026-05-03T03:55:19Z</time></trkpt>
<trkpt lat="50.645739" lon="4.098699"><time>2026-05-03T04:05:19Z</time></trkpt>
</trkseg>
</trk>
<trk>
<name>hbcsk99</name>
<cmt>q</cmt>
<desc>Steenkerque Sentier n°99 </desc>
<link href="https://chemins.be/steenkerque/sentier/99"/><trkseg>
<trkpt lat="50.645268" lon="4.072207"><time>2026-05-03T03:35:19Z</time></trkpt>
<trkpt lat="50.645349" lon="4.073537"><time>2026-05-03T03:45:19Z</time></trkpt>
<trkpt lat="50.645567" lon="4.074271"><time>2026-05-03T03:55:19Z</time></trkpt>
<trkpt lat="50.646696" lon="4.076692"><time>2026-05-03T04:05:19Z</time></trkpt>
<trkpt lat="50.647369" lon="4.078310"><time>2026-05-03T04:15:19Z</time></trkpt>
<trkpt lat="50.648185" lon="4.079635"><time>2026-05-03T04:25:19Z</time></trkpt>
<trkpt lat="50.648464" lon="4.079570"><time>2026-05-03T04:35:19Z</time></trkpt>
<trkpt lat="50.650049" lon="4.081426"><time>2026-05-03T04:45:19Z</time></trkpt>
<trkpt lat="50.650648" lon="4.082864"><time>2026-05-03T04:55:19Z</time></trkpt>
<trkpt lat="50.651171" lon="4.082832"><time>2026-05-03T05:05:19Z</time></trkpt>
<trkpt lat="50.652103" lon="4.083754"><time>2026-05-03T05:15:19Z</time></trkpt>
</trkseg>
</trk>
<trk>
<name>hbcsk99bis</name>
<cmt>q</cmt>
<desc>Steenkerque Sentier n°99bis </desc>
<link href="https://chemins.be/steenkerque/sentier/99bis"/><trkseg>
<trkpt lat="50.651763" lon="4.082510"><time>2026-05-03T03:35:19Z</time></trkpt>
<trkpt lat="50.651192" lon="4.082832"><time>2026-05-03T03:45:19Z</time></trkpt>
</trkseg>
</trk>
<trk>
<name>hbcski1</name>
<cmt>v</cmt>
<desc>Steenkerque Sentier n°i1 </desc>
<link href="https://chemins.be/steenkerque/sentier/i1"/><trkseg>
<trkpt lat="50.634259" lon="4.076623"><time>2026-05-03T03:35:19Z</time></trkpt>
<trkpt lat="50.633867" lon="4.075966"><time>2026-05-03T03:45:19Z</time></trkpt>
<trkpt lat="50.633736" lon="4.075711"><time>2026-05-03T03:55:19Z</time></trkpt>
<trkpt lat="50.633164" lon="4.074612"><time>2026-05-03T04:05:19Z</time></trkpt>
</trkseg></trk>
<trk>
<name>hbcski1</name>
<cmt>q</cmt>
<desc>Steenkerque Sentier n°i1 </desc>
<link href="https://chemins.be/steenkerque/sentier/i1"/><trkseg>
<trkpt lat="50.633164" lon="4.074612"><time>2026-05-03T04:05:19Z</time></trkpt>
<trkpt lat="50.632822" lon="4.073868"><time>2026-05-03T04:15:19Z</time></trkpt>
</trkseg>
</trk>
<trk>
<name>hbcski2</name>
<cmt>v</cmt>
<desc>Steenkerque Chemin n°i2 </desc>
<link href="https://chemins.be/steenkerque/chemin/i2"/><trkseg>
<trkpt lat="50.633749" lon="4.075704"><time>2026-05-03T03:35:19Z</time></trkpt>
<trkpt lat="50.632311" lon="4.077507"><time>2026-05-03T03:45:19Z</time></trkpt>
<trkpt lat="50.631376" lon="4.077056"><time>2026-05-03T03:55:19Z</time></trkpt>
<trkpt lat="50.630809" lon="4.076149"><time>2026-05-03T04:05:19Z</time></trkpt>
<trkpt lat="50.630382" lon="4.075290"><time>2026-05-03T04:15:19Z</time></trkpt>
</trkseg>
</trk>
<trk>
<name>hbcskL123</name>
<cmt>v</cmt>
<desc>Steenkerque Chemin n°L123 </desc>
<link href="https://chemins.be/steenkerque/chemin/L123"/><trkseg>
<trkpt lat="50.665241" lon="4.086654"><time>2026-05-03T03:35:19Z</time></trkpt>
<trkpt lat="50.664624" lon="4.088220"><time>2026-05-03T03:45:19Z</time></trkpt>
<trkpt lat="50.663606" lon="4.091083"><time>2026-05-03T03:55:19Z</time></trkpt>
<trkpt lat="50.661971" lon="4.095449"><time>2026-05-03T04:05:19Z</time></trkpt>
<trkpt lat="50.660799" lon="4.097747"><time>2026-05-03T04:15:19Z</time></trkpt>
<trkpt lat="50.659400" lon="4.099310"><time>2026-05-03T04:25:19Z</time></trkpt>
</trkseg>
</trk>
<trk>
<name>hbcskp1</name>
<cmt>r</cmt>
<desc>Steenkerque Chemin particulier n°p1 Rue Fayt</desc>
<link href="https://chemins.be/steenkerque/chemin/p1"/><trkseg>
<trkpt lat="50.630971" lon="4.067257"><time>2026-05-03T03:35:19Z</time></trkpt>
<trkpt lat="50.629435" lon="4.069145"><time>2026-05-03T03:45:19Z</time></trkpt>
</trkseg>
</trk>
</gpx>